<?xml version='1.0' encoding='UTF-8'?><gpx version="1.1" creator="JPX - https://github.com/jenetics/jpx" xmlns="http://www.topografix.com/GPX/1/1"><trk><trkseg><trkpt lat="40.1123076" lon="9.4908497"><ele>936.0</ele><time>2026-05-03T07:52:17.962Z</time></trkpt><trkpt lat="40.1123221" lon="9.4907317"><ele>935.9999999999999</ele><time>2026-05-03T07:52:19.962Z</time></trkpt><trkpt lat="40.112366" lon="9.4905779"><ele>935.9999999999999</ele><time>2026-05-03T07:52:21.962Z</time></trkpt><trkpt lat="40.112403" lon="9.4904904"><ele>936.0</ele><time>2026-05-03T07:52:22.962Z</time></trkpt><trkpt lat="40.1124501" lon="9.4904018"><ele>936.0</ele><time>2026-05-03T07:52:23.963Z</time></trkpt><trkpt lat="40.1124982" lon="9.4903097"><ele>936.0</ele><time>2026-05-03T07:52:24.962Z</time></trkpt><trkpt lat="40.1125455" lon="9.4902155"><ele>936.0</ele><time>2026-05-03T07:52:25.963Z</time></trkpt><trkpt lat="40.1125907" lon="9.4901198"><ele>936.0</ele><time>2026-05-03T07:52:26.963Z</time></trkpt><trkpt lat="40.1126317" lon="9.4900268"><ele>936.0</ele><time>2026-05-03T07:52:27.963Z</time></trkpt><trkpt lat="40.1126691" lon="9.4899388"><ele>936.0</ele><time>2026-05-03T07:52:28.963Z</time></trkpt><trkpt lat="40.1127049" lon="9.4898593"><ele>936.0</ele><time>2026-05-03T07:52:29.962Z</time></trkpt><trkpt lat="40.1127739" lon="9.4897196"><ele>936.0</ele><time>2026-05-03T07:52:31.963Z</time></trkpt><trkpt lat="40.1128172" lon="9.4896502"><ele>936.0</ele><time>2026-05-03T07:52:32.962Z</time></trkpt><trkpt lat="40.1128699" lon="9.4895815"><ele>936.0</ele><time>2026-05-03T07:52:33.962Z</time></trkpt><trkpt lat="40.112941" lon="9.489514"><ele>936.0</ele><time>2026-05-03T07:52:34.963Z</time></trkpt><trkpt lat="40.1130274" lon="9.4894607"><ele>936.0</ele><time>2026-05-03T07:52:35.962Z</time></trkpt><trkpt lat="40.1131304" lon="9.4894162"><ele>936.0</ele><time>2026-05-03T07:52:36.963Z</time></trkpt><trkpt lat="40.113215" lon="9.4893809"><ele>936.0</ele><time>2026-05-03T07:52:37.962Z</time></trkpt><trkpt lat="40.1132941" lon="9.4893459"><ele>936.0000000000001</ele><time>2026-05-03T07:52:38.963Z</time></trkpt><trkpt lat="40.1133641" lon="9.4893116"><ele>936.0</ele><time>2026-05-03T07:52:39.963Z</time></trkpt><trkpt lat="40.113427" lon="9.4892822"><ele>936.0</ele><time>2026-05-03T07:52:40.963Z</time></trkpt><trkpt lat="40.1134881" lon="9.489253"><ele>936.0000000000001</ele><time>2026-05-03T07:52:41.962Z</time></trkpt><trkpt lat="40.1135519" lon="9.489215"><ele>936.0</ele><time>2026-05-03T07:52:42.962Z</time></trkpt><trkpt lat="40.1136137" lon="9.4891715"><ele>936.0</ele><time>2026-05-03T07:52:43.963Z</time></trkpt><trkpt lat="40.1136721" lon="9.4891152"><ele>936.0</ele><time>2026-05-03T07:52:44.962Z</time></trkpt><trkpt lat="40.1137237" lon="9.4890458"><ele>936.0</ele><time>2026-05-03T07:52:45.963Z</time></trkpt><trkpt lat="40.1137615" lon="9.4889639"><ele>936.0</ele><time>2026-05-03T07:52:46.962Z</time></trkpt><trkpt lat="40.1137907" lon="9.4888854"><ele>936.0</ele><time>2026-05-03T07:52:47.963Z</time></trkpt><trkpt lat="40.1138689" lon="9.4887696"><ele>936.0</ele><time>2026-05-03T07:52:49.962Z</time></trkpt><trkpt lat="40.1139309" lon="9.4887352"><ele>936.0</ele><time>2026-05-03T07:52:50.962Z</time></trkpt><trkpt lat="40.1140101" lon="9.4887153"><ele>934.8333333333334</ele><time>2026-05-03T07:52:51.962Z</time></trkpt><trkpt lat="40.1141014" lon="9.4887048"><ele>933.6666666666667</ele><time>2026-05-03T07:52:52.963Z</time></trkpt><trkpt lat="40.114193" lon="9.4887007"><ele>932.5</ele><time>2026-05-03T07:52:53.962Z</time></trkpt><trkpt lat="40.114272" lon="9.4886951"><ele>931.3333333333334</ele><time>2026-05-03T07:52:54.963Z</time></trkpt><trkpt lat="40.1143474" lon="9.4886924"><ele>930.1666666666667</ele><time>2026-05-03T07:52:55.962Z</time></trkpt><trkpt lat="40.1144238" lon="9.4886928"><ele>929.0</ele><time>2026-05-03T07:52:56.962Z</time></trkpt><trkpt lat="40.1144987" lon="9.4887004"><ele>929.0000000000001</ele><time>2026-05-03T07:52:57.964Z</time></trkpt><trkpt lat="40.11457" lon="9.4887179"><ele>929.0</ele><time>2026-05-03T07:52:58.963Z</time></trkpt><trkpt lat="40.1146435" lon="9.4887429"><ele>929.0</ele><time>2026-05-03T07:52:59.963Z</time></trkpt><trkpt lat="40.1147143" lon="9.4887847"><ele>929.0</ele><time>2026-05-03T07:53:00.963Z</time></trkpt><trkpt lat="40.1147796" lon="9.4888294"><ele>929.0000000000001</ele><time>2026-05-03T07:53:01.963Z</time></trkpt><trkpt lat="40.11484" lon="9.4888708"><ele>929.0</ele><time>2026-05-03T07:53:02.963Z</time></trkpt><trkpt lat="40.114957" lon="9.4889278"><ele>929.6666666666667</ele><time>2026-05-03T07:53:04.962Z</time></trkpt><trkpt lat="40.1150781" lon="9.4889039"><ele>930.3333333333334</ele><time>2026-05-03T07:53:06.963Z</time></trkpt><trkpt lat="40.115134" lon="9.4888622"><ele>931.0</ele><time>2026-05-03T07:53:07.962Z</time></trkpt><trkpt lat="40.1151874" lon="9.4888051"><ele>931.6666666666667</ele><time>2026-05-03T07:53:08.962Z</time></trkpt><trkpt lat="40.1152482" lon="9.4887502"><ele>932.3333333333334</ele><time>2026-05-03T07:53:09.963Z</time></trkpt><trkpt lat="40.115311" lon="9.4886937"><ele>933.0</ele><time>2026-05-03T07:53:10.962Z</time></trkpt><trkpt lat="40.1153755" lon="9.4886377"><ele>933.0</ele><time>2026-05-03T07:53:11.962Z</time></trkpt><trkpt lat="40.1154406" lon="9.4885808"><ele>933.0</ele><time>2026-05-03T07:53:12.962Z</time></trkpt><trkpt lat="40.1154991" lon="9.4885315"><ele>933.0</ele><time>2026-05-03T07:53:13.962Z</time></trkpt><trkpt lat="40.1156003" lon="9.4884761"><ele>933.0</ele><time>2026-05-03T07:53:15.963Z</time></trkpt><trkpt lat="40.1156903" lon="9.4885165"><ele>933.0</ele><time>2026-05-03T07:53:17.962Z</time></trkpt><trkpt lat="40.1157383" lon="9.4886381"><ele>932.5999999999999</ele><time>2026-05-03T07:53:19.962Z</time></trkpt><trkpt lat="40.1157793" lon="9.4887775"><ele>932.1999999999999</ele><time>2026-05-03T07:53:21.962Z</time></trkpt><trkpt lat="40.1158477" lon="9.4888654"><ele>931.8</ele><time>2026-05-03T07:53:23.963Z</time></trkpt><trkpt lat="40.1159327" lon="9.4888927"><ele>931.4</ele><time>2026-05-03T07:53:25.962Z</time></trkpt><trkpt lat="40.1159913" lon="9.4888015"><ele>931.0</ele><time>2026-05-03T07:53:26.963Z</time></trkpt><trkpt lat="40.1160397" lon="9.4887403"><ele>930.9999999999999</ele><time>2026-05-03T07:53:27.963Z</time></trkpt><trkpt lat="40.1161002" lon="9.4886807"><ele>931.0</ele><time>2026-05-03T07:53:28.963Z</time></trkpt><trkpt lat="40.1161564" lon="9.4886384"><ele>931.0</ele><time>2026-05-03T07:53:29.962Z</time></trkpt><trkpt lat="40.1162301" lon="9.4885807"><ele>931.0</ele><time>2026-05-03T07:53:30.963Z</time></trkpt><trkpt lat="40.1163017" lon="9.4885284"><ele>930.9999999999999</ele><time>2026-05-03T07:53:31.962Z</time></trkpt><trkpt lat="40.116374" lon="9.488479"><ele>931.0</ele><time>2026-05-03T07:53:32.963Z</time></trkpt><trkpt lat="40.1164449" lon="9.4884311"><ele>930.9999999999999</ele><time>2026-05-03T07:53:33.963Z</time></trkpt><trkpt lat="40.1165196" lon="9.4883832"><ele>931.0</ele><time>2026-05-03T07:53:34.963Z</time></trkpt><trkpt lat="40.1165934" lon="9.4883446"><ele>931.0</ele><time>2026-05-03T07:53:35.962Z</time></trkpt><trkpt lat="40.1166709" lon="9.4883203"><ele>931.0</ele><time>2026-05-03T07:53:36.962Z</time></trkpt><trkpt lat="40.1167456" lon="9.4882945"><ele>930.9999999999999</ele><time>2026-05-03T07:53:37.962Z</time></trkpt><trkpt lat="40.1168192" lon="9.4882721"><ele>931.0</ele><time>2026-05-03T07:53:38.962Z</time></trkpt><trkpt lat="40.1168948" lon="9.4882508"><ele>932.6666666666666</ele><time>2026-05-03T07:53:39.963Z</time></trkpt><trkpt lat="40.1169693" lon="9.488226"><ele>934.3333333333333</ele><time>2026-05-03T07:53:40.963Z</time></trkpt><trkpt lat="40.1170427" lon="9.48819"><ele>936.0</ele><time>2026-05-03T07:53:41.962Z</time></trkpt><trkpt lat="40.1171167" lon="9.4881532"><ele>937.6666666666667</ele><time>2026-05-03T07:53:42.963Z</time></trkpt><trkpt lat="40.1171873" lon="9.4881004"><ele>939.3333333333334</ele><time>2026-05-03T07:53:43.963Z</time></trkpt><trkpt lat="40.1172572" lon="9.4880504"><ele>941.0</ele><time>2026-05-03T07:53:44.962Z</time></trkpt><trkpt lat="40.1173304" lon="9.4880061"><ele>941.0000000000001</ele><time>2026-05-03T07:53:45.962Z</time></trkpt><trkpt lat="40.1173994" lon="9.4879578"><ele>941.0</ele><time>2026-05-03T07:53:46.962Z</time></trkpt><trkpt lat="40.1174645" lon="9.4879026"><ele>941.0</ele><time>2026-05-03T07:53:47.962Z</time></trkpt><trkpt lat="40.1175253" lon="9.4878237"><ele>941.0</ele><time>2026-05-03T07:53:48.963Z</time></trkpt><trkpt lat="40.1175761" lon="9.4877294"><ele>941.0000000000001</ele><time>2026-05-03T07:53:49.962Z</time></trkpt><trkpt lat="40.1176249" lon="9.4876306"><ele>941.0</ele><time>2026-05-03T07:53:50.962Z</time></trkpt><trkpt lat="40.1176695" lon="9.4875271"><ele>937.6666666666667</ele><time>2026-05-03T07:53:51.963Z</time></trkpt><trkpt lat="40.1177179" lon="9.4874255"><ele>934.3333333333334</ele><time>2026-05-03T07:53:52.962Z</time></trkpt><trkpt lat="40.11777" lon="9.4873287"><ele>931.0</ele><time>2026-05-03T07:53:53.963Z</time></trkpt><trkpt lat="40.1178197" lon="9.4872345"><ele>927.6666666666667</ele><time>2026-05-03T07:53:54.962Z</time></trkpt><trkpt lat="40.1178672" lon="9.4871359"><ele>924.3333333333334</ele><time>2026-05-03T07:53:55.963Z</time></trkpt><trkpt lat="40.1179174" lon="9.4870383"><ele>921.0</ele><time>2026-05-03T07:53:56.962Z</time></trkpt><trkpt lat="40.1179675" lon="9.4869412"><ele>919.8</ele><time>2026-05-03T07:53:57.963Z</time></trkpt><trkpt lat="40.1180187" lon="9.4868421"><ele>918.5999999999999</ele><time>2026-05-03T07:53:58.962Z</time></trkpt><trkpt lat="40.1180746" lon="9.4867397"><ele>917.4</ele><time>2026-05-03T07:53:59.963Z</time></trkpt><trkpt lat="40.1181331" lon="9.4866302"><ele>916.2</ele><time>2026-05-03T07:54:00.962Z</time></trkpt><trkpt lat="40.1181896" lon="9.486519"><ele>915.0</ele><time>2026-05-03T07:54:01.963Z</time></trkpt><trkpt lat="40.1182436" lon="9.4864093"><ele>915.0</ele><time>2026-05-03T07:54:02.962Z</time></trkpt><trkpt lat="40.1182924" lon="9.4862976"><ele>915.0</ele><time>2026-05-03T07:54:03.962Z</time></trkpt><trkpt lat="40.1183457" lon="9.4861888"><ele>915.0</ele><time>2026-05-03T07:54:04.963Z</time></trkpt><trkpt lat="40.1184005" lon="9.4860724"><ele>915.0</ele><time>2026-05-03T07:54:05.962Z</time></trkpt><trkpt lat="40.118451" lon="9.4859493"><ele>915.0</ele><time>2026-05-03T07:54:06.963Z</time></trkpt><trkpt lat="40.1185013" lon="9.4858241"><ele>913.0</ele><time>2026-05-03T07:54:07.962Z</time></trkpt><trkpt lat="40.1185535" lon="9.4856988"><ele>911.0</ele><time>2026-05-03T07:54:08.962Z</time></trkpt><trkpt lat="40.1186052" lon="9.485571"><ele>909.0</ele><time>2026-05-03T07:54:09.962Z</time></trkpt><trkpt lat="40.1186596" lon="9.4854405"><ele>907.0</ele><time>2026-05-03T07:54:10.964Z</time></trkpt><trkpt lat="40.1187141" lon="9.4853074"><ele>905.0</ele><time>2026-05-03T07:54:11.962Z</time></trkpt><trkpt lat="40.1187681" lon="9.4851711"><ele>903.25</ele><time>2026-05-03T07:54:12.962Z</time></trkpt><trkpt lat="40.1188234" lon="9.4850375"><ele>901.5</ele><time>2026-05-03T07:54:13.963Z</time></trkpt><trkpt lat="40.1188796" lon="9.4849003"><ele>899.75</ele><time>2026-05-03T07:54:14.963Z</time></trkpt><trkpt lat="40.1189359" lon="9.4847625"><ele>898.0</ele><time>2026-05-03T07:54:15.963Z</time></trkpt><trkpt lat="40.118991" lon="9.4846298"><ele>897.5999999999999</ele><time>2026-05-03T07:54:16.962Z</time></trkpt><trkpt lat="40.1190435" lon="9.4845037"><ele>897.1999999999999</ele><time>2026-05-03T07:54:17.962Z</time></trkpt><trkpt lat="40.1190935" lon="9.4843827"><ele>896.8</ele><time>2026-05-03T07:54:18.962Z</time></trkpt><trkpt lat="40.1191398" lon="9.4842692"><ele>896.4</ele><time>2026-05-03T07:54:19.963Z</time></trkpt><trkpt lat="40.11918" lon="9.4841699"><ele>896.0</ele><time>2026-05-03T07:54:20.962Z</time></trkpt><trkpt lat="40.1192186" lon="9.4840755"><ele>895.1666666666667</ele><time>2026-05-03T07:54:21.962Z</time></trkpt><trkpt lat="40.119252" lon="9.4839914"><ele>894.3333333333334</ele><time>2026-05-03T07:54:22.962Z</time></trkpt><trkpt lat="40.1192809" lon="9.4839174"><ele>893.5</ele><time>2026-05-03T07:54:23.962Z</time></trkpt><trkpt lat="40.119337" lon="9.4837764"><ele>892.6666666666667</ele><time>2026-05-03T07:54:25.963Z</time></trkpt><trkpt lat="40.119374" lon="9.4836908"><ele>891.8333333333334</ele><time>2026-05-03T07:54:26.962Z</time></trkpt><trkpt lat="40.1194106" lon="9.4836006"><ele>891.0</ele><time>2026-05-03T07:54:27.963Z</time></trkpt><trkpt lat="40.1194449" lon="9.4835017"><ele>891.0</ele><time>2026-05-03T07:54:28.963Z</time></trkpt><trkpt lat="40.1194682" lon="9.4834051"><ele>891.0</ele><time>2026-05-03T07:54:29.963Z</time></trkpt><trkpt lat="40.1194744" lon="9.4833097"><ele>891.0</ele><time>2026-05-03T07:54:30.962Z</time></trkpt><trkpt lat="40.1194643" lon="9.4832186"><ele>891.0</ele><time>2026-05-03T07:54:31.963Z</time></trkpt><trkpt lat="40.1194418" lon="9.4831292"><ele>891.0</ele><time>2026-05-03T07:54:32.963Z</time></trkpt><trkpt lat="40.1194037" lon="9.4830336"><ele>891.0</ele><time>2026-05-03T07:54:33.962Z</time></trkpt><trkpt lat="40.1193487" lon="9.4829179"><ele>891.0</ele><time>2026-05-03T07:54:34.962Z</time></trkpt><trkpt lat="40.1192837" lon="9.4827909"><ele>890.9999999999999</ele><time>2026-05-03T07:54:35.962Z</time></trkpt><trkpt lat="40.1192324" lon="9.4826791"><ele>890.9999999999999</ele><time>2026-05-03T07:54:36.963Z</time></trkpt><trkpt lat="40.1191845" lon="9.4825743"><ele>891.0</ele><time>2026-05-03T07:54:37.962Z</time></trkpt><trkpt lat="40.1191388" lon="9.482483"><ele>891.0</ele><time>2026-05-03T07:54:38.963Z</time></trkpt><trkpt lat="40.119096" lon="9.4824022"><ele>891.6666666666666</ele><time>2026-05-03T07:54:39.963Z</time></trkpt><trkpt lat="40.1190597" lon="9.4823273"><ele>892.3333333333333</ele><time>2026-05-03T07:54:40.963Z</time></trkpt><trkpt lat="40.119027" lon="9.4822562"><ele>893.0</ele><time>2026-05-03T07:54:41.963Z</time></trkpt><trkpt lat="40.1189988" lon="9.4821815"><ele>893.6666666666666</ele><time>2026-05-03T07:54:42.962Z</time></trkpt><trkpt lat="40.1189664" lon="9.4820246"><ele>894.3333333333333</ele><time>2026-05-03T07:54:44.962Z</time></trkpt><trkpt lat="40.118954" lon="9.4818681"><ele>895.0</ele><time>2026-05-03T07:54:46.963Z</time></trkpt><trkpt lat="40.1189477" lon="9.4817371"><ele>894.9999999999999</ele><time>2026-05-03T07:54:48.962Z</time></trkpt><trkpt lat="40.1189503" lon="9.4815937"><ele>895.0</ele><time>2026-05-03T07:54:50.962Z</time></trkpt><trkpt lat="40.1189489" lon="9.4815096"><ele>895.0</ele><time>2026-05-03T07:54:51.962Z</time></trkpt><trkpt lat="40.1189426" lon="9.4814051"><ele>895.0</ele><time>2026-05-03T07:54:52.962Z</time></trkpt><trkpt lat="40.1189388" lon="9.4812896"><ele>894.9999999999999</ele><time>2026-05-03T07:54:53.963Z</time></trkpt><trkpt lat="40.1189368" lon="9.4811854"><ele>895.0</ele><time>2026-05-03T07:54:54.962Z</time></trkpt><trkpt lat="40.1189318" lon="9.4810756"><ele>894.9999999999999</ele><time>2026-05-03T07:54:55.963Z</time></trkpt><trkpt lat="40.118928" lon="9.4809682"><ele>895.0</ele><time>2026-05-03T07:54:56.962Z</time></trkpt><trkpt lat="40.1189272" lon="9.4808646"><ele>895.0</ele><time>2026-05-03T07:54:57.963Z</time></trkpt><trkpt lat="40.1189244" lon="9.480768"><ele>895.0</ele><time>2026-05-03T07:54:58.963Z</time></trkpt><trkpt lat="40.1189198" lon="9.4806802"><ele>894.9999999999999</ele><time>2026-05-03T07:54:59.963Z</time></trkpt><trkpt lat="40.1188925" lon="9.4805245"><ele>895.0</ele><time>2026-05-03T07:55:01.963Z</time></trkpt><trkpt lat="40.1188191" lon="9.4803909"><ele>895.1666666666666</ele><time>2026-05-03T07:55:03.962Z</time></trkpt><trkpt lat="40.1187663" lon="9.4803355"><ele>895.3333333333333</ele><time>2026-05-03T07:55:04.963Z</time></trkpt><trkpt lat="40.1187082" lon="9.4802838"><ele>895.5</ele><time>2026-05-03T07:55:05.964Z</time></trkpt><trkpt lat="40.1186434" lon="9.4802346"><ele>895.6666666666667</ele><time>2026-05-03T07:55:06.962Z</time></trkpt><trkpt lat="40.1185753" lon="9.4801787"><ele>895.8333333333334</ele><time>2026-05-03T07:55:07.962Z</time></trkpt><trkpt lat="40.118499" lon="9.48013"><ele>896.0</ele><time>2026-05-03T07:55:08.963Z</time></trkpt><trkpt lat="40.1184232" lon="9.4800716"><ele>896.0000000000001</ele><time>2026-05-03T07:55:09.962Z</time></trkpt><trkpt lat="40.1183499" lon="9.4800084"><ele>896.0</ele><time>2026-05-03T07:55:10.963Z</time></trkpt><trkpt lat="40.1182753" lon="9.4799477"><ele>896.0</ele><time>2026-05-03T07:55:11.963Z</time></trkpt><trkpt lat="40.1182001" lon="9.4798893"><ele>896.0</ele><time>2026-05-03T07:55:12.962Z</time></trkpt><trkpt lat="40.1181275" lon="9.4798345"><ele>896.0000000000001</ele><time>2026-05-03T07:55:13.963Z</time></trkpt><trkpt lat="40.1180615" lon="9.4797815"><ele>896.0</ele><time>2026-05-03T07:55:14.963Z</time></trkpt><trkpt lat="40.1179988" lon="9.4797329"><ele>895.8571428571429</ele><time>2026-05-03T07:55:15.963Z</time></trkpt><trkpt lat="40.1179388" lon="9.4796865"><ele>895.7142857142858</ele><time>2026-05-03T07:55:16.962Z</time></trkpt><trkpt lat="40.1178796" lon="9.4796397"><ele>895.5714285714286</ele><time>2026-05-03T07:55:17.962Z</time></trkpt><trkpt lat="40.1178191" lon="9.4795908"><ele>895.4285714285714</ele><time>2026-05-03T07:55:18.964Z</time></trkpt><trkpt lat="40.1177571" lon="9.4795431"><ele>895.2857142857143</ele><time>2026-05-03T07:55:19.963Z</time></trkpt><trkpt lat="40.1176933" lon="9.4794919"><ele>895.1428571428571</ele><time>2026-05-03T07:55:20.962Z</time></trkpt><trkpt lat="40.1176282" lon="9.4794376"><ele>895.0</ele><time>2026-05-03T07:55:21.962Z</time></trkpt><trkpt lat="40.1175614" lon="9.4793832"><ele>895.6666666666666</ele><time>2026-05-03T07:55:22.962Z</time></trkpt><trkpt lat="40.1174924" lon="9.4793306"><ele>896.3333333333333</ele><time>2026-05-03T07:55:23.962Z</time></trkpt><trkpt lat="40.1174223" lon="9.4792772"><ele>897.0</ele><time>2026-05-03T07:55:24.962Z</time></trkpt><trkpt lat="40.1173514" lon="9.4792229"><ele>897.6666666666667</ele><time>2026-05-03T07:55:25.963Z</time></trkpt><trkpt lat="40.1172793" lon="9.4791685"><ele>898.3333333333334</ele><time>2026-05-03T07:55:26.963Z</time></trkpt><trkpt lat="40.1172058" lon="9.4791108"><ele>899.0</ele><time>2026-05-03T07:55:27.962Z</time></trkpt><trkpt lat="40.1171319" lon="9.4790494"><ele>899.4000000000001</ele><time>2026-05-03T07:55:28.963Z</time></trkpt><trkpt lat="40.1170564" lon="9.4789867"><ele>899.8000000000001</ele><time>2026-05-03T07:55:29.963Z</time></trkpt><trkpt lat="40.1169775" lon="9.4789267"><ele>900.1999999999999</ele><time>2026-05-03T07:55:30.963Z</time></trkpt><trkpt lat="40.1168942" lon="9.4788641"><ele>900.5999999999999</ele><time>2026-05-03T07:55:31.962Z</time></trkpt><trkpt lat="40.1168095" lon="9.4787986"><ele>901.0</ele><time>2026-05-03T07:55:32.963Z</time></trkpt><trkpt lat="40.1167218" lon="9.4787289"><ele>901.5999999999999</ele><time>2026-05-03T07:55:33.962Z</time></trkpt><trkpt lat="40.1166305" lon="9.4786572"><ele>902.1999999999999</ele><time>2026-05-03T07:55:34.962Z</time></trkpt><trkpt lat="40.1165372" lon="9.4785852"><ele>902.8000000000001</ele><time>2026-05-03T07:55:35.962Z</time></trkpt><trkpt lat="40.116444" lon="9.4785122"><ele>903.4000000000001</ele><time>2026-05-03T07:55:36.962Z</time></trkpt><trkpt lat="40.11635" lon="9.4784398"><ele>904.0</ele><time>2026-05-03T07:55:37.963Z</time></trkpt><trkpt lat="40.116258" lon="9.4783656"><ele>904.0</ele><time>2026-05-03T07:55:38.963Z</time></trkpt><trkpt lat="40.1161644" lon="9.4782921"><ele>904.0000000000001</ele><time>2026-05-03T07:55:39.962Z</time></trkpt><trkpt lat="40.1160699" lon="9.478222"><ele>904.0000000000001</ele><time>2026-05-03T07:55:40.962Z</time></trkpt><trkpt lat="40.1159741" lon="9.478153"><ele>904.0</ele><time>2026-05-03T07:55:41.962Z</time></trkpt><trkpt lat="40.115876" lon="9.4780848"><ele>904.0</ele><time>2026-05-03T07:55:42.963Z</time></trkpt><trkpt lat="40.1157705" lon="9.4780124"><ele>905.0</ele><time>2026-05-03T07:55:43.963Z</time></trkpt><trkpt lat="40.1156552" lon="9.477934"><ele>906.0</ele><time>2026-05-03T07:55:44.963Z</time></trkpt><trkpt lat="40.1155334" lon="9.4778487"><ele>907.0</ele><time>2026-05-03T07:55:45.962Z</time></trkpt><trkpt lat="40.115409" lon="9.4777606"><ele>908.0</ele><time>2026-05-03T07:55:46.963Z</time></trkpt><trkpt lat="40.1152852" lon="9.4776729"><ele>908.0</ele><time>2026-05-03T07:55:47.962Z</time></trkpt><trkpt lat="40.1151636" lon="9.4775872"><ele>908.0</ele><time>2026-05-03T07:55:48.962Z</time></trkpt><trkpt lat="40.1150416" lon="9.477499"><ele>908.0</ele><time>2026-05-03T07:55:49.963Z</time></trkpt><trkpt lat="40.1149211" lon="9.4774132"><ele>908.0</ele><time>2026-05-03T07:55:50.964Z</time></trkpt><trkpt lat="40.1148004" lon="9.4773277"><ele>908.25</ele><time>2026-05-03T07:55:51.962Z</time></trkpt><trkpt lat="40.1146834" lon="9.477244"><ele>908.5</ele><time>2026-05-03T07:55:52.963Z</time></trkpt><trkpt lat="40.1145686" lon="9.4771642"><ele>908.75</ele><time>2026-05-03T07:55:53.962Z</time></trkpt><trkpt lat="40.1144592" lon="9.4770867"><ele>909.0</ele><time>2026-05-03T07:55:54.963Z</time></trkpt><trkpt lat="40.1143554" lon="9.4770098"><ele>909.5</ele><time>2026-05-03T07:55:55.963Z</time></trkpt><trkpt lat="40.1142539" lon="9.4769347"><ele>910.0</ele><time>2026-05-03T07:55:56.962Z</time></trkpt><trkpt lat="40.1141553" lon="9.4768615"><ele>910.5</ele><time>2026-05-03T07:55:57.962Z</time></trkpt><trkpt lat="40.1140545" lon="9.4767936"><ele>911.0</ele><time>2026-05-03T07:55:58.963Z</time></trkpt><trkpt lat="40.113941" lon="9.4767375"><ele>911.0</ele><time>2026-05-03T07:55:59.963Z</time></trkpt><trkpt lat="40.1138226" lon="9.4766823"><ele>911.0</ele><time>2026-05-03T07:56:00.963Z</time></trkpt><trkpt lat="40.1136963" lon="9.4766253"><ele>911.0</ele><time>2026-05-03T07:56:01.963Z</time></trkpt><trkpt lat="40.1135673" lon="9.4765762"><ele>911.0</ele><time>2026-05-03T07:56:02.962Z</time></trkpt><trkpt lat="40.1134374" lon="9.4765241"><ele>911.0</ele><time>2026-05-03T07:56:03.963Z</time></trkpt><trkpt lat="40.1133075" lon="9.476469"><ele>911.0</ele><time>2026-05-03T07:56:04.962Z</time></trkpt><trkpt lat="40.1131794" lon="9.4764155"><ele>911.0</ele><time>2026-05-03T07:56:05.963Z</time></trkpt><trkpt lat="40.1130538" lon="9.4763668"><ele>911.0</ele><time>2026-05-03T07:56:06.964Z</time></trkpt><trkpt lat="40.1129391" lon="9.4763223"><ele>911.5999999999999</ele><time>2026-05-03T07:56:07.963Z</time></trkpt><trkpt lat="40.1128287" lon="9.47628"><ele>912.1999999999999</ele><time>2026-05-03T07:56:08.963Z</time></trkpt><trkpt lat="40.1127201" lon="9.4762366"><ele>912.8000000000001</ele><time>2026-05-03T07:56:09.962Z</time></trkpt><trkpt lat="40.1126164" lon="9.4761892"><ele>913.4000000000001</ele><time>2026-05-03T07:56:10.962Z</time></trkpt><trkpt lat="40.1125147" lon="9.4761383"><ele>914.0</ele><time>2026-05-03T07:56:11.962Z</time></trkpt><trkpt lat="40.1124134" lon="9.4760832"><ele>914.4000000000001</ele><time>2026-05-03T07:56:12.962Z</time></trkpt><trkpt lat="40.1123151" lon="9.4760238"><ele>914.8000000000001</ele><time>2026-05-03T07:56:13.962Z</time></trkpt><trkpt lat="40.1122177" lon="9.4759593"><ele>915.1999999999999</ele><time>2026-05-03T07:56:14.962Z</time></trkpt><trkpt lat="40.1121253" lon="9.4758849"><ele>915.5999999999999</ele><time>2026-05-03T07:56:15.962Z</time></trkpt><trkpt lat="40.1120343" lon="9.4758035"><ele>916.0</ele><time>2026-05-03T07:56:16.962Z</time></trkpt><trkpt lat="40.1119452" lon="9.4757175"><ele>916.0</ele><time>2026-05-03T07:56:17.963Z</time></trkpt><trkpt lat="40.1118604" lon="9.4756209"><ele>916.0</ele><time>2026-05-03T07:56:18.963Z</time></trkpt><trkpt lat="40.111785" lon="9.4755072"><ele>916.0</ele><time>2026-05-03T07:56:19.963Z</time></trkpt><trkpt lat="40.1117161" lon="9.4753778"><ele>916.0</ele><time>2026-05-03T07:56:20.963Z</time></trkpt><trkpt lat="40.1116509" lon="9.4752402"><ele>917.75</ele><time>2026-05-03T07:56:21.963Z</time></trkpt><trkpt lat="40.1115845" lon="9.4750994"><ele>919.5</ele><time>2026-05-03T07:56:22.962Z</time></trkpt><trkpt lat="40.1115138" lon="9.4749585"><ele>921.25</ele><time>2026-05-03T07:56:23.962Z</time></trkpt><trkpt lat="40.1114417" lon="9.4748131"><ele>923.0</ele><time>2026-05-03T07:56:24.963Z</time></trkpt><trkpt lat="40.1113705" lon="9.4746676"><ele>924.0</ele><time>2026-05-03T07:56:25.962Z</time></trkpt><trkpt lat="40.111299" lon="9.4745276"><ele>925.0</ele><time>2026-05-03T07:56:26.962Z</time></trkpt><trkpt lat="40.111232" lon="9.4743937"><ele>926.0</ele><time>2026-05-03T07:56:27.963Z</time></trkpt><trkpt lat="40.1111711" lon="9.4742744"><ele>927.0</ele><time>2026-05-03T07:56:28.963Z</time></trkpt><trkpt lat="40.1111118" lon="9.4741711"><ele>927.0</ele><time>2026-05-03T07:56:29.962Z</time></trkpt><trkpt lat="40.1110477" lon="9.4740824"><ele>927.0</ele><time>2026-05-03T07:56:30.963Z</time></trkpt><trkpt lat="40.1109739" lon="9.4739988"><ele>927.0</ele><time>2026-05-03T07:56:31.963Z</time></trkpt><trkpt lat="40.1108874" lon="9.4739287"><ele>927.0</ele><time>2026-05-03T07:56:32.963Z</time></trkpt><trkpt lat="40.1107879" lon="9.4738657"><ele>927.0</ele><time>2026-05-03T07:56:33.962Z</time></trkpt><trkpt lat="40.110685" lon="9.473804"><ele>929.2</ele><time>2026-05-03T07:56:34.963Z</time></trkpt><trkpt lat="40.110581" lon="9.4737418"><ele>931.4000000000001</ele><time>2026-05-03T07:56:35.962Z</time></trkpt><trkpt lat="40.1104764" lon="9.4736844"><ele>933.5999999999999</ele><time>2026-05-03T07:56:36.962Z</time></trkpt><trkpt lat="40.1103754" lon="9.4736267"><ele>935.8</ele><time>2026-05-03T07:56:37.962Z</time></trkpt><trkpt lat="40.1102781" lon="9.4735737"><ele>938.0</ele><time>2026-05-03T07:56:38.962Z</time></trkpt><trkpt lat="40.1101848" lon="9.473519"><ele>938.0</ele><time>2026-05-03T07:56:39.962Z</time></trkpt><trkpt lat="40.1100963" lon="9.4734631"><ele>938.0</ele><time>2026-05-03T07:56:40.963Z</time></trkpt><trkpt lat="40.1100087" lon="9.4734122"><ele>938.0</ele><time>2026-05-03T07:56:41.962Z</time></trkpt><trkpt lat="40.1099237" lon="9.4733707"><ele>938.0</ele><time>2026-05-03T07:56:42.962Z</time></trkpt><trkpt lat="40.1098365" lon="9.4733443"><ele>938.0</ele><time>2026-05-03T07:56:43.962Z</time></trkpt><trkpt lat="40.1097437" lon="9.4733314"><ele>939.2</ele><time>2026-05-03T07:56:44.963Z</time></trkpt><trkpt lat="40.1096447" lon="9.4733222"><ele>940.4</ele><time>2026-05-03T07:56:45.963Z</time></trkpt><trkpt lat="40.1095408" lon="9.4732948"><ele>941.6000000000001</ele><time>2026-05-03T07:56:46.962Z</time></trkpt><trkpt lat="40.1094371" lon="9.473253"><ele>942.8000000000001</ele><time>2026-05-03T07:56:47.962Z</time></trkpt><trkpt lat="40.1093355" lon="9.4731944"><ele>944.0</ele><time>2026-05-03T07:56:48.963Z</time></trkpt><trkpt lat="40.1092328" lon="9.4731174"><ele>944.0</ele><time>2026-05-03T07:56:49.962Z</time></trkpt><trkpt lat="40.1091242" lon="9.4730328"><ele>944.0</ele><time>2026-05-03T07:56:50.962Z</time></trkpt><trkpt lat="40.1090063" lon="9.4729437"><ele>944.0</ele><time>2026-05-03T07:56:51.962Z</time></trkpt><trkpt lat="40.1088835" lon="9.4728493"><ele>944.0</ele><time>2026-05-03T07:56:52.962Z</time></trkpt><trkpt lat="40.1087586" lon="9.4727479"><ele>946.5</ele><time>2026-05-03T07:56:53.963Z</time></trkpt><trkpt lat="40.1086422" lon="9.4726529"><ele>949.0</ele><time>2026-05-03T07:56:54.962Z</time></trkpt><trkpt lat="40.1085377" lon="9.4725697"><ele>951.5</ele><time>2026-05-03T07:56:55.963Z</time></trkpt><trkpt lat="40.1084481" lon="9.4724961"><ele>954.0</ele><time>2026-05-03T07:56:56.962Z</time></trkpt><trkpt lat="40.1083722" lon="9.4724323"><ele>954.0</ele><time>2026-05-03T07:56:57.963Z</time></trkpt><trkpt lat="40.1082969" lon="9.4723778"><ele>954.0000000000001</ele><time>2026-05-03T07:56:58.962Z</time></trkpt><trkpt lat="40.1082157" lon="9.4723341"><ele>954.0000000000001</ele><time>2026-05-03T07:56:59.963Z</time></trkpt><trkpt lat="40.1081269" lon="9.4723017"><ele>954.0</ele><time>2026-05-03T07:57:00.962Z</time></trkpt><trkpt lat="40.1080328" lon="9.4722787"><ele>954.0</ele><time>2026-05-03T07:57:01.962Z</time></trkpt><trkpt lat="40.1079349" lon="9.4722573"><ele>956.25</ele><time>2026-05-03T07:57:02.962Z</time></trkpt><trkpt lat="40.1078318" lon="9.4722289"><ele>958.5</ele><time>2026-05-03T07:57:03.962Z</time></trkpt><trkpt lat="40.1077221" lon="9.4722032"><ele>960.75</ele><time>2026-05-03T07:57:04.963Z</time></trkpt><trkpt lat="40.1076085" lon="9.4721814"><ele>963.0</ele><time>2026-05-03T07:57:05.963Z</time></trkpt><trkpt lat="40.1074904" lon="9.4721582"><ele>963.4</ele><time>2026-05-03T07:57:06.962Z</time></trkpt><trkpt lat="40.1073893" lon="9.4721369"><ele>963.8</ele><time>2026-05-03T07:57:07.962Z</time></trkpt><trkpt lat="40.1072937" lon="9.4721152"><ele>964.2</ele><time>2026-05-03T07:57:08.964Z</time></trkpt><trkpt lat="40.1072001" lon="9.4720921"><ele>964.6</ele><time>2026-05-03T07:57:09.962Z</time></trkpt><trkpt lat="40.1071083" lon="9.4720559"><ele>965.0</ele><time>2026-05-03T07:57:10.963Z</time></trkpt><trkpt lat="40.1070227" lon="9.4719994"><ele>965.0</ele><time>2026-05-03T07:57:11.963Z</time></trkpt><trkpt lat="40.1069391" lon="9.4719388"><ele>965.0</ele><time>2026-05-03T07:57:12.962Z</time></trkpt><trkpt lat="40.1068521" lon="9.471883"><ele>965.0</ele><time>2026-05-03T07:57:13.962Z</time></trkpt><trkpt lat="40.1067618" lon="9.4718357"><ele>965.0</ele><time>2026-05-03T07:57:14.963Z</time></trkpt><trkpt lat="40.1066707" lon="9.4717996"><ele>965.0</ele><time>2026-05-03T07:57:15.963Z</time></trkpt><trkpt lat="40.1065822" lon="9.4717789"><ele>966.6</ele><time>2026-05-03T07:57:16.963Z</time></trkpt><trkpt lat="40.1064919" lon="9.4717763"><ele>968.2</ele><time>2026-05-03T07:57:17.963Z</time></trkpt><trkpt lat="40.1063998" lon="9.47179"><ele>969.8</ele><time>2026-05-03T07:57:18.963Z</time></trkpt><trkpt lat="40.1063073" lon="9.4718138"><ele>971.4</ele><time>2026-05-03T07:57:19.962Z</time></trkpt><trkpt lat="40.1062132" lon="9.471841"><ele>973.0</ele><time>2026-05-03T07:57:20.962Z</time></trkpt><trkpt lat="40.1061185" lon="9.4718629"><ele>973.0</ele><time>2026-05-03T07:57:21.963Z</time></trkpt><trkpt lat="40.1060233" lon="9.4718718"><ele>973.0</ele><time>2026-05-03T07:57:22.963Z</time></trkpt><trkpt lat="40.1059276" lon="9.4718697"><ele>973.0</ele><time>2026-05-03T07:57:23.962Z</time></trkpt><trkpt lat="40.1058318" lon="9.4718562"><ele>973.0</ele><time>2026-05-03T07:57:24.962Z</time></trkpt><trkpt lat="40.1057352" lon="9.4718377"><ele>973.0</ele><time>2026-05-03T07:57:25.963Z</time></trkpt><trkpt lat="40.1056372" lon="9.4718152"><ele>975.2</ele><time>2026-05-03T07:57:26.964Z</time></trkpt><trkpt lat="40.1055404" lon="9.4717811"><ele>977.4</ele><time>2026-05-03T07:57:27.963Z</time></trkpt><trkpt lat="40.1054475" lon="9.4717366"><ele>979.6000000000001</ele><time>2026-05-03T07:57:28.962Z</time></trkpt><trkpt lat="40.1053559" lon="9.4716872"><ele>981.8000000000001</ele><time>2026-05-03T07:57:29.962Z</time></trkpt><trkpt lat="40.1052675" lon="9.4716315"><ele>984.0</ele><time>2026-05-03T07:57:30.963Z</time></trkpt><trkpt lat="40.1051832" lon="9.4715725"><ele>984.0</ele><time>2026-05-03T07:57:31.963Z</time></trkpt><trkpt lat="40.1051017" lon="9.4715088"><ele>984.0000000000001</ele><time>2026-05-03T07:57:32.963Z</time></trkpt><trkpt lat="40.1050217" lon="9.4714407"><ele>984.0000000000001</ele><time>2026-05-03T07:57:33.963Z</time></trkpt><trkpt lat="40.1049451" lon="9.4713671"><ele>984.0</ele><time>2026-05-03T07:57:34.963Z</time></trkpt><trkpt lat="40.1048696" lon="9.4712871"><ele>984.0</ele><time>2026-05-03T07:57:35.962Z</time></trkpt><trkpt lat="40.1047952" lon="9.4712037"><ele>985.4000000000001</ele><time>2026-05-03T07:57:36.962Z</time></trkpt><trkpt lat="40.1047218" lon="9.4711184"><ele>986.8000000000001</ele><time>2026-05-03T07:57:37.962Z</time></trkpt><trkpt lat="40.1046523" lon="9.4710287"><ele>988.1999999999999</ele><time>2026-05-03T07:57:38.963Z</time></trkpt><trkpt lat="40.1045843" lon="9.4709355"><ele>989.5999999999999</ele><time>2026-05-03T07:57:39.962Z</time></trkpt><trkpt lat="40.1045171" lon="9.4708379"><ele>991.0</ele><time>2026-05-03T07:57:40.962Z</time></trkpt><trkpt lat="40.1044538" lon="9.4707347"><ele>991.0</ele><time>2026-05-03T07:57:41.962Z</time></trkpt><trkpt lat="40.1043923" lon="9.4706305"><ele>990.9999999999999</ele><time>2026-05-03T07:57:42.962Z</time></trkpt><trkpt lat="40.1043296" lon="9.4705282"><ele>990.9999999999999</ele><time>2026-05-03T07:57:43.962Z</time></trkpt><trkpt lat="40.104268" lon="9.4704283"><ele>991.0</ele><time>2026-05-03T07:57:44.962Z</time></trkpt><trkpt lat="40.1042111" lon="9.470327"><ele>991.0</ele><time>2026-05-03T07:57:45.962Z</time></trkpt><trkpt lat="40.1041601" lon="9.4702227"><ele>991.0</ele><time>2026-05-03T07:57:46.963Z</time></trkpt><trkpt lat="40.104111" lon="9.4701175"><ele>990.9999999999999</ele><time>2026-05-03T07:57:47.962Z</time></trkpt><trkpt lat="40.1040616" lon="9.4700111"><ele>990.9999999999999</ele><time>2026-05-03T07:57:48.963Z</time></trkpt><trkpt lat="40.1040139" lon="9.4699022"><ele>991.0</ele><time>2026-05-03T07:57:49.962Z</time></trkpt><trkpt lat="40.1039691" lon="9.4697917"><ele>991.0</ele><time>2026-05-03T07:57:50.962Z</time></trkpt><trkpt lat="40.1039274" lon="9.4696791"><ele>993.4</ele><time>2026-05-03T07:57:51.963Z</time></trkpt><trkpt lat="40.1038853" lon="9.4695654"><ele>995.8</ele><time>2026-05-03T07:57:52.963Z</time></trkpt><trkpt lat="40.1038472" lon="9.4694494"><ele>998.1999999999999</ele><time>2026-05-03T07:57:53.963Z</time></trkpt><trkpt lat="40.1038138" lon="9.4693317"><ele>1000.5999999999999</ele><time>2026-05-03T07:57:54.962Z</time></trkpt><trkpt lat="40.1037787" lon="9.4692171"><ele>1003.0</ele><time>2026-05-03T07:57:55.963Z</time></trkpt><trkpt lat="40.1037444" lon="9.4691033"><ele>1003.0</ele><time>2026-05-03T07:57:56.962Z</time></trkpt><trkpt lat="40.103714" lon="9.4689911"><ele>1003.0</ele><time>2026-05-03T07:57:57.962Z</time></trkpt><trkpt lat="40.1036823" lon="9.4688797"><ele>1003.0</ele><time>2026-05-03T07:57:58.962Z</time></trkpt><trkpt lat="40.103649" lon="9.46877"><ele>1003.0</ele><time>2026-05-03T07:57:59.962Z</time></trkpt><trkpt lat="40.1036166" lon="9.4686559"><ele>1003.0</ele><time>2026-05-03T07:58:00.962Z</time></trkpt><trkpt lat="40.1035816" lon="9.468538"><ele>1004.8</ele><time>2026-05-03T07:58:01.963Z</time></trkpt><trkpt lat="40.103547" lon="9.4684193"><ele>1006.5999999999999</ele><time>2026-05-03T07:58:02.963Z</time></trkpt><trkpt lat="40.1035133" lon="9.4683006"><ele>1008.4000000000001</ele><time>2026-05-03T07:58:03.962Z</time></trkpt><trkpt lat="40.103481" lon="9.4681791"><ele>1010.2</ele><time>2026-05-03T07:58:04.963Z</time></trkpt><trkpt lat="40.1034469" lon="9.4680569"><ele>1012.0</ele><time>2026-05-03T07:58:05.963Z</time></trkpt><trkpt lat="40.1034115" lon="9.4679329"><ele>1013.2</ele><time>2026-05-03T07:58:06.962Z</time></trkpt><trkpt lat="40.1033752" lon="9.4678067"><ele>1014.4000000000001</ele><time>2026-05-03T07:58:07.964Z</time></trkpt><trkpt lat="40.1033397" lon="9.4676792"><ele>1015.5999999999999</ele><time>2026-05-03T07:58:08.963Z</time></trkpt><trkpt lat="40.103305" lon="9.4675524"><ele>1016.8</ele><time>2026-05-03T07:58:09.962Z</time></trkpt><trkpt lat="40.1032699" lon="9.4674271"><ele>1018.0</ele><time>2026-05-03T07:58:10.962Z</time></trkpt><trkpt lat="40.1032349" lon="9.4673067"><ele>1018.0</ele><time>2026-05-03T07:58:11.962Z</time></trkpt><trkpt lat="40.1031977" lon="9.4671924"><ele>1018.0</ele><time>2026-05-03T07:58:12.962Z</time></trkpt><trkpt lat="40.1031577" lon="9.4670823"><ele>1018.0</ele><time>2026-05-03T07:58:13.962Z</time></trkpt><trkpt lat="40.103111" lon="9.466976"><ele>1018.0</ele><time>2026-05-03T07:58:14.963Z</time></trkpt><trkpt lat="40.1030512" lon="9.466874"><ele>1018.0</ele><time>2026-05-03T07:58:15.963Z</time></trkpt><trkpt lat="40.1029847" lon="9.4667763"><ele>1020.0</ele><time>2026-05-03T07:58:16.962Z</time></trkpt><trkpt lat="40.1029074" lon="9.4666828"><ele>1022.0</ele><time>2026-05-03T07:58:17.962Z</time></trkpt><trkpt lat="40.1028223" lon="9.4665971"><ele>1024.0</ele><time>2026-05-03T07:58:18.964Z</time></trkpt><trkpt lat="40.1027339" lon="9.4665253"><ele>1026.0</ele><time>2026-05-03T07:58:19.962Z</time></trkpt><trkpt lat="40.1026401" lon="9.466468"><ele>1028.0</ele><time>2026-05-03T07:58:20.963Z</time></trkpt><trkpt lat="40.1025347" lon="9.4664202"><ele>1028.0</ele><time>2026-05-03T07:58:21.962Z</time></trkpt><trkpt lat="40.1024172" lon="9.4663805"><ele>1028.0</ele><time>2026-05-03T07:58:22.964Z</time></trkpt><trkpt lat="40.1023014" lon="9.4663405"><ele>1028.0</ele><time>2026-05-03T07:58:23.962Z</time></trkpt><trkpt lat="40.1022025" lon="9.4663042"><ele>1028.0</ele><time>2026-05-03T07:58:24.962Z</time></trkpt><trkpt lat="40.1021035" lon="9.4662676"><ele>1028.0</ele><time>2026-05-03T07:58:25.962Z</time></trkpt><trkpt lat="40.1020081" lon="9.4662285"><ele>1028.1666666666667</ele><time>2026-05-03T07:58:26.963Z</time></trkpt><trkpt lat="40.101914" lon="9.466188"><ele>1028.3333333333335</ele><time>2026-05-03T07:58:27.962Z</time></trkpt><trkpt lat="40.1018277" lon="9.4661473"><ele>1028.5</ele><time>2026-05-03T07:58:28.962Z</time></trkpt><trkpt lat="40.1017497" lon="9.4661057"><ele>1028.6666666666667</ele><time>2026-05-03T07:58:29.962Z</time></trkpt><trkpt lat="40.1016761" lon="9.4660664"><ele>1028.8333333333333</ele><time>2026-05-03T07:58:30.963Z</time></trkpt><trkpt lat="40.1015994" lon="9.4660267"><ele>1029.0</ele><time>2026-05-03T07:58:31.962Z</time></trkpt><trkpt lat="40.101518" lon="9.4659859"><ele>1029.0</ele><time>2026-05-03T07:58:32.963Z</time></trkpt><trkpt lat="40.1014323" lon="9.4659423"><ele>1029.0</ele><time>2026-05-03T07:58:33.962Z</time></trkpt><trkpt lat="40.1013447" lon="9.4658964"><ele>1029.0</ele><time>2026-05-03T07:58:34.962Z</time></trkpt><trkpt lat="40.1012588" lon="9.4658516"><ele>1029.0</ele><time>2026-05-03T07:58:35.962Z</time></trkpt><trkpt lat="40.1011723" lon="9.4658075"><ele>1029.0</ele><time>2026-05-03T07:58:36.963Z</time></trkpt><trkpt lat="40.1010852" lon="9.465764"><ele>1029.0</ele><time>2026-05-03T07:58:37.962Z</time></trkpt><trkpt lat="40.100997" lon="9.4657211"><ele>1029.0</ele><time>2026-05-03T07:58:38.962Z</time></trkpt><trkpt lat="40.1009075" lon="9.4656784"><ele>1029.0</ele><time>2026-05-03T07:58:39.962Z</time></trkpt><trkpt lat="40.1008179" lon="9.4656337"><ele>1029.0</ele><time>2026-05-03T07:58:40.962Z</time></trkpt><trkpt lat="40.1007277" lon="9.4655879"><ele>1029.0</ele><time>2026-05-03T07:58:41.962Z</time></trkpt><trkpt lat="40.1006362" lon="9.4655459"><ele>1029.4</ele><time>2026-05-03T07:58:42.963Z</time></trkpt><trkpt lat="40.1005442" lon="9.4655007"><ele>1029.8000000000002</ele><time>2026-05-03T07:58:43.962Z</time></trkpt><trkpt lat="40.1004526" lon="9.4654517"><ele>1030.1999999999998</ele><time>2026-05-03T07:58:44.962Z</time></trkpt><trkpt lat="40.100361" lon="9.4654039"><ele>1030.6</ele><time>2026-05-03T07:58:45.963Z</time></trkpt><trkpt lat="40.1002705" lon="9.4653565"><ele>1031.0</ele><time>2026-05-03T07:58:46.962Z</time></trkpt><trkpt lat="40.100181" lon="9.4653107"><ele>1028.0</ele><time>2026-05-03T07:58:47.962Z</time></trkpt><trkpt lat="40.1000948" lon="9.465267"><ele>1025.0</ele><time>2026-05-03T07:58:48.962Z</time></trkpt><trkpt lat="40.1000096" lon="9.4652231"><ele>1022.0</ele><time>2026-05-03T07:58:49.963Z</time></trkpt><trkpt lat="40.0999258" lon="9.4651807"><ele>1019.0</ele><time>2026-05-03T07:58:50.963Z</time></trkpt><trkpt lat="40.0998426" lon="9.4651397"><ele>1016.0000000000001</ele><time>2026-05-03T07:58:51.963Z</time></trkpt><trkpt lat="40.0997615" lon="9.4651014"><ele>1013.0</ele><time>2026-05-03T07:58:52.963Z</time></trkpt><trkpt lat="40.0996811" lon="9.4650626"><ele>1013.0000000000001</ele><time>2026-05-03T07:58:53.963Z</time></trkpt><trkpt lat="40.099599" lon="9.4650177"><ele>1013.0</ele><time>2026-05-03T07:58:54.963Z</time></trkpt><trkpt lat="40.0995172" lon="9.4649731"><ele>1013.0</ele><time>2026-05-03T07:58:55.962Z</time></trkpt><trkpt lat="40.0994372" lon="9.4649298"><ele>1013.0</ele><time>2026-05-03T07:58:56.963Z</time></trkpt><trkpt lat="40.0993531" lon="9.4648895"><ele>1013.0000000000001</ele><time>2026-05-03T07:58:57.963Z</time></trkpt><trkpt lat="40.0992633" lon="9.4648516"><ele>1013.0</ele><time>2026-05-03T07:58:58.962Z</time></trkpt><trkpt lat="40.0991685" lon="9.4648199"><ele>1013.2</ele><time>2026-05-03T07:58:59.963Z</time></trkpt><trkpt lat="40.0990741" lon="9.4647915"><ele>1013.4</ele><time>2026-05-03T07:59:00.963Z</time></trkpt><trkpt lat="40.0989817" lon="9.4647663"><ele>1013.6000000000001</ele><time>2026-05-03T07:59:01.962Z</time></trkpt><trkpt lat="40.0988913" lon="9.464738"><ele>1013.8000000000001</ele><time>2026-05-03T07:59:02.963Z</time></trkpt><trkpt lat="40.098804" lon="9.4647088"><ele>1014.0</ele><time>2026-05-03T07:59:03.962Z</time></trkpt><trkpt lat="40.098717" lon="9.4646807"><ele>1014.0</ele><time>2026-05-03T07:59:04.963Z</time></trkpt><trkpt lat="40.098632" lon="9.4646554"><ele>1014.0</ele><time>2026-05-03T07:59:05.963Z</time></trkpt><trkpt lat="40.0985491" lon="9.4646287"><ele>1014.0</ele><time>2026-05-03T07:59:06.963Z</time></trkpt><trkpt lat="40.0984684" lon="9.4646029"><ele>1014.0</ele><time>2026-05-03T07:59:07.962Z</time></trkpt><trkpt lat="40.0983868" lon="9.4645801"><ele>1014.0</ele><time>2026-05-03T07:59:08.963Z</time></trkpt><trkpt lat="40.0983079" lon="9.4645585"><ele>1014.0</ele><time>2026-05-03T07:59:09.963Z</time></trkpt><trkpt lat="40.0982317" lon="9.4645356"><ele>1011.8571428571429</ele><time>2026-05-03T07:59:10.963Z</time></trkpt><trkpt lat="40.0981561" lon="9.4645111"><ele>1009.7142857142858</ele><time>2026-05-03T07:59:11.963Z</time></trkpt><trkpt lat="40.0980818" lon="9.4644873"><ele>1007.5714285714287</ele><time>2026-05-03T07:59:12.962Z</time></trkpt><trkpt lat="40.0980084" lon="9.4644665"><ele>1005.4285714285714</ele><time>2026-05-03T07:59:13.962Z</time></trkpt><trkpt lat="40.0979368" lon="9.4644476"><ele>1003.2857142857144</ele><time>2026-05-03T07:59:14.962Z</time></trkpt><trkpt lat="40.097866" lon="9.4644257"><ele>1001.1428571428572</ele><time>2026-05-03T07:59:15.963Z</time></trkpt><trkpt lat="40.0978003" lon="9.4643937"><ele>999.0</ele><time>2026-05-03T07:59:16.962Z</time></trkpt><trkpt lat="40.0977409" lon="9.4643464"><ele>999.0</ele><time>2026-05-03T07:59:17.963Z</time></trkpt><trkpt lat="40.0976852" lon="9.4642853"><ele>999.0</ele><time>2026-05-03T07:59:18.963Z</time></trkpt><trkpt lat="40.0976334" lon="9.4642133"><ele>999.0</ele><time>2026-05-03T07:59:19.962Z</time></trkpt><trkpt lat="40.0975824" lon="9.464136"><ele>999.0</ele><time>2026-05-03T07:59:20.962Z</time></trkpt><trkpt lat="40.0975337" lon="9.4640536"><ele>999.0</ele><time>2026-05-03T07:59:21.963Z</time></trkpt><trkpt lat="40.0974872" lon="9.4639676"><ele>999.0</ele><time>2026-05-03T07:59:22.963Z</time></trkpt><trkpt lat="40.0974414" lon="9.463878"><ele>1000.3333333333334</ele><time>2026-05-03T07:59:23.962Z</time></trkpt><trkpt lat="40.0973963" lon="9.4637905"><ele>1001.6666666666667</ele><time>2026-05-03T07:59:24.963Z</time></trkpt><trkpt lat="40.0973514" lon="9.4637035"><ele>1003.0</ele><time>2026-05-03T07:59:25.962Z</time></trkpt><trkpt lat="40.0973069" lon="9.4636176"><ele>1004.3333333333334</ele><time>2026-05-03T07:59:26.962Z</time></trkpt><trkpt lat="40.0972617" lon="9.4635359"><ele>1005.6666666666667</ele><time>2026-05-03T07:59:27.962Z</time></trkpt><trkpt lat="40.0972178" lon="9.4634588"><ele>1007.0</ele><time>2026-05-03T07:59:28.963Z</time></trkpt><trkpt lat="40.0971661" lon="9.4633928"><ele>1004.5714285714286</ele><time>2026-05-03T07:59:29.962Z</time></trkpt><trkpt lat="40.0971061" lon="9.463344"><ele>1002.1428571428571</ele><time>2026-05-03T07:59:30.963Z</time></trkpt><trkpt lat="40.0970397" lon="9.4633074"><ele>999.7142857142857</ele><time>2026-05-03T07:59:31.962Z</time></trkpt><trkpt lat="40.0969692" lon="9.4632823"><ele>997.2857142857142</ele><time>2026-05-03T07:59:32.962Z</time></trkpt><trkpt lat="40.0968963" lon="9.4632632"><ele>994.8571428571429</ele><time>2026-05-03T07:59:33.963Z</time></trkpt><trkpt lat="40.0968222" lon="9.463244"><ele>992.4285714285713</ele><time>2026-05-03T07:59:34.962Z</time></trkpt><trkpt lat="40.0967511" lon="9.4632263"><ele>989.9999999999999</ele><time>2026-05-03T07:59:35.964Z</time></trkpt><trkpt lat="40.0966843" lon="9.4632088"><ele>989.9999999999999</ele><time>2026-05-03T07:59:36.962Z</time></trkpt><trkpt lat="40.0966183" lon="9.463183"><ele>990.0</ele><time>2026-05-03T07:59:37.963Z</time></trkpt><trkpt lat="40.0965561" lon="9.463144"><ele>989.9999999999999</ele><time>2026-05-03T07:59:38.963Z</time></trkpt><trkpt lat="40.0964978" lon="9.4630955"><ele>989.9999999999999</ele><time>2026-05-03T07:59:39.963Z</time></trkpt><trkpt lat="40.0964517" lon="9.4630329"><ele>990.0</ele><time>2026-05-03T07:59:40.962Z</time></trkpt><trkpt lat="40.0964149" lon="9.4629605"><ele>989.9999999999999</ele><time>2026-05-03T07:59:41.963Z</time></trkpt><trkpt lat="40.0963823" lon="9.462882"><ele>989.9999999999999</ele><time>2026-05-03T07:59:42.963Z</time></trkpt><trkpt lat="40.0963546" lon="9.4628073"><ele>989.8</ele><time>2026-05-03T07:59:43.962Z</time></trkpt><trkpt lat="40.0962953" lon="9.4626615"><ele>989.6</ele><time>2026-05-03T07:59:45.962Z</time></trkpt><trkpt lat="40.0962646" lon="9.4625869"><ele>989.4000000000001</ele><time>2026-05-03T07:59:46.962Z</time></trkpt><trkpt lat="40.0962021" lon="9.4624491"><ele>989.2</ele><time>2026-05-03T07:59:48.962Z</time></trkpt><trkpt lat="40.096115" lon="9.4623243"><ele>989.0</ele><time>2026-05-03T07:59:50.962Z</time></trkpt><trkpt lat="40.0960583" lon="9.4622732"><ele>989.0</ele><time>2026-05-03T07:59:51.963Z</time></trkpt><trkpt lat="40.0959948" lon="9.4622264"><ele>988.9999999999999</ele><time>2026-05-03T07:59:52.962Z</time></trkpt><trkpt lat="40.0959292" lon="9.4621831"><ele>989.0</ele><time>2026-05-03T07:59:53.963Z</time></trkpt><trkpt lat="40.0958614" lon="9.4621402"><ele>989.0</ele><time>2026-05-03T07:59:54.962Z</time></trkpt><trkpt lat="40.0957954" lon="9.4620936"><ele>988.9999999999999</ele><time>2026-05-03T07:59:55.963Z</time></trkpt><trkpt lat="40.0957286" lon="9.4620516"><ele>989.0</ele><time>2026-05-03T07:59:56.962Z</time></trkpt><trkpt lat="40.0956592" lon="9.4620107"><ele>989.0</ele><time>2026-05-03T07:59:57.963Z</time></trkpt><trkpt lat="40.0955901" lon="9.4619661"><ele>987.0000000000001</ele><time>2026-05-03T07:59:58.962Z</time></trkpt><trkpt lat="40.0955187" lon="9.461919"><ele>985.0</ele><time>2026-05-03T07:59:59.963Z</time></trkpt><trkpt lat="40.0954469" lon="9.4618691"><ele>983.0</ele><time>2026-05-03T08:00:00.962Z</time></trkpt><trkpt lat="40.0953722" lon="9.4618195"><ele>981.0</ele><time>2026-05-03T08:00:01.964Z</time></trkpt><trkpt lat="40.0952958" lon="9.461769"><ele>979.0000000000001</ele><time>2026-05-03T08:00:02.962Z</time></trkpt><trkpt lat="40.0952162" lon="9.4617157"><ele>977.0</ele><time>2026-05-03T08:00:03.962Z</time></trkpt><trkpt lat="40.0951367" lon="9.4616622"><ele>977.0000000000001</ele><time>2026-05-03T08:00:04.963Z</time></trkpt><trkpt lat="40.0950524" lon="9.4616132"><ele>977.0</ele><time>2026-05-03T08:00:05.963Z</time></trkpt><trkpt lat="40.0949699" lon="9.4615598"><ele>977.0</ele><time>2026-05-03T08:00:06.963Z</time></trkpt><trkpt lat="40.0948923" lon="9.4615056"><ele>977.0</ele><time>2026-05-03T08:00:07.962Z</time></trkpt><trkpt lat="40.0948202" lon="9.4614504"><ele>977.0000000000001</ele><time>2026-05-03T08:00:08.963Z</time></trkpt><trkpt lat="40.0947562" lon="9.4613912"><ele>977.0</ele><time>2026-05-03T08:00:09.962Z</time></trkpt><trkpt lat="40.0947057" lon="9.46132"><ele>975.4285714285716</ele><time>2026-05-03T08:00:10.963Z</time></trkpt><trkpt lat="40.0946618" lon="9.4612472"><ele>973.8571428571429</ele><time>2026-05-03T08:00:11.963Z</time></trkpt><trkpt lat="40.0946258" lon="9.4611713"><ele>972.2857142857143</ele><time>2026-05-03T08:00:12.962Z</time></trkpt><trkpt lat="40.0945951" lon="9.4610932"><ele>970.7142857142858</ele><time>2026-05-03T08:00:13.962Z</time></trkpt><trkpt lat="40.0945695" lon="9.4610155"><ele>969.1428571428571</ele><time>2026-05-03T08:00:14.964Z</time></trkpt><trkpt lat="40.0945477" lon="9.4609355"><ele>967.5714285714286</ele><time>2026-05-03T08:00:15.963Z</time></trkpt><trkpt lat="40.094527" lon="9.460855"><ele>966.0</ele><time>2026-05-03T08:00:16.963Z</time></trkpt><trkpt lat="40.0944998" lon="9.4606995"><ele>966.0</ele><time>2026-05-03T08:00:18.962Z</time></trkpt><trkpt lat="40.0945191" lon="9.4605504"><ele>966.0</ele><time>2026-05-03T08:00:20.963Z</time></trkpt><trkpt lat="40.094572" lon="9.4604155"><ele>966.0</ele><time>2026-05-03T08:00:22.962Z</time></trkpt><trkpt lat="40.094635" lon="9.4602882"><ele>966.0</ele><time>2026-05-03T08:00:24.962Z</time></trkpt><trkpt lat="40.0947014" lon="9.4601569"><ele>965.0</ele><time>2026-05-03T08:00:26.962Z</time></trkpt><trkpt lat="40.0947695" lon="9.4600248"><ele>964.0</ele><time>2026-05-03T08:00:28.962Z</time></trkpt><trkpt lat="40.0948352" lon="9.4598938"><ele>963.0</ele><time>2026-05-03T08:00:30.962Z</time></trkpt><trkpt lat="40.0948965" lon="9.4597648"><ele>962.0</ele><time>2026-05-03T08:00:32.963Z</time></trkpt><trkpt lat="40.0949434" lon="9.4596466"><ele>961.1666666666667</ele><time>2026-05-03T08:00:34.962Z</time></trkpt><trkpt lat="40.0949841" lon="9.4595285"><ele>960.3333333333334</ele><time>2026-05-03T08:00:36.962Z</time></trkpt><trkpt lat="40.0950241" lon="9.4594085"><ele>959.5</ele><time>2026-05-03T08:00:38.963Z</time></trkpt><trkpt lat="40.0950622" lon="9.4592777"><ele>958.6666666666667</ele><time>2026-05-03T08:00:40.963Z</time></trkpt><trkpt lat="40.0950664" lon="9.4591929"><ele>957.8333333333334</ele><time>2026-05-03T08:00:41.962Z</time></trkpt><trkpt lat="40.0950609" lon="9.4591011"><ele>957.0</ele><time>2026-05-03T08:00:42.962Z</time></trkpt><trkpt lat="40.0950477" lon="9.4590118"><ele>957.0</ele><time>2026-05-03T08:00:43.962Z</time></trkpt><trkpt lat="40.0950375" lon="9.4588949"><ele>957.0</ele><time>2026-05-03T08:00:44.962Z</time></trkpt><trkpt lat="40.0950286" lon="9.4587613"><ele>957.0</ele><time>2026-05-03T08:00:45.962Z</time></trkpt><trkpt lat="40.0950199" lon="9.4586311"><ele>957.0</ele><time>2026-05-03T08:00:46.963Z</time></trkpt><trkpt lat="40.0950099" lon="9.458516"><ele>957.0</ele><time>2026-05-03T08:00:47.962Z</time></trkpt><trkpt lat="40.0950004" lon="9.4584055"><ele>956.6666666666666</ele><time>2026-05-03T08:00:48.963Z</time></trkpt><trkpt lat="40.0949967" lon="9.4583051"><ele>956.3333333333333</ele><time>2026-05-03T08:00:49.962Z</time></trkpt><trkpt lat="40.0949974" lon="9.4582121"><ele>956.0</ele><time>2026-05-03T08:00:50.962Z</time></trkpt><trkpt lat="40.0950031" lon="9.4581196"><ele>955.6666666666666</ele><time>2026-05-03T08:00:51.962Z</time></trkpt><trkpt lat="40.0950226" lon="9.4580113"><ele>955.3333333333333</ele><time>2026-05-03T08:00:52.964Z</time></trkpt><trkpt lat="40.0950523" lon="9.4578999"><ele>955.0</ele><time>2026-05-03T08:00:53.962Z</time></trkpt><trkpt lat="40.0950788" lon="9.4578052"><ele>954.8333333333333</ele><time>2026-05-03T08:00:54.963Z</time></trkpt><trkpt lat="40.0951046" lon="9.457706"><ele>954.6666666666666</ele><time>2026-05-03T08:00:55.963Z</time></trkpt><trkpt lat="40.0951362" lon="9.4576055"><ele>954.5</ele><time>2026-05-03T08:00:56.963Z</time></trkpt><trkpt lat="40.0951759" lon="9.457502"><ele>954.3333333333333</ele><time>2026-05-03T08:00:57.963Z</time></trkpt><trkpt lat="40.0952167" lon="9.4574075"><ele>954.1666666666666</ele><time>2026-05-03T08:00:58.963Z</time></trkpt><trkpt lat="40.0952582" lon="9.4573266"><ele>954.0</ele><time>2026-05-03T08:00:59.963Z</time></trkpt><trkpt lat="40.0952976" lon="9.4572522"><ele>954.0</ele><time>2026-05-03T08:01:00.962Z</time></trkpt><trkpt lat="40.0953332" lon="9.4571838"><ele>954.0</ele><time>2026-05-03T08:01:01.963Z</time></trkpt><trkpt lat="40.0953859" lon="9.4570865"><ele>954.0</ele><time>2026-05-03T08:01:03.963Z</time></trkpt><trkpt lat="40.0954458" lon="9.4570433"><ele>954.0</ele><time>2026-05-03T08:01:05.962Z</time></trkpt><trkpt lat="40.0955204" lon="9.457018"><ele>954.0</ele><time>2026-05-03T08:01:07.962Z</time></trkpt><trkpt lat="40.0955958" lon="9.4569504"><ele>954.0</ele><time>2026-05-03T08:01:09.962Z</time></trkpt><trkpt lat="40.0956681" lon="9.4568192"><ele>954.2</ele><time>2026-05-03T08:01:11.963Z</time></trkpt><trkpt lat="40.0957444" lon="9.4566889"><ele>954.4000000000001</ele><time>2026-05-03T08:01:13.962Z</time></trkpt><trkpt lat="40.0958209" lon="9.4565752"><ele>954.6</ele><time>2026-05-03T08:01:15.963Z</time></trkpt><trkpt lat="40.0958969" lon="9.4564532"><ele>954.8</ele><time>2026-05-03T08:01:17.962Z</time></trkpt><trkpt lat="40.0959408" lon="9.4563818"><ele>955.0</ele><time>2026-05-03T08:01:18.963Z</time></trkpt><trkpt lat="40.0959863" lon="9.456318"><ele>954.4</ele><time>2026-05-03T08:01:19.963Z</time></trkpt><trkpt lat="40.0960717" lon="9.4562127"><ele>953.8</ele><time>2026-05-03T08:01:21.963Z</time></trkpt><trkpt lat="40.0961561" lon="9.4561317"><ele>953.2</ele><time>2026-05-03T08:01:23.963Z</time></trkpt><trkpt lat="40.096231" lon="9.4560609"><ele>952.6</ele><time>2026-05-03T08:01:25.962Z</time></trkpt><trkpt lat="40.0962999" lon="9.4559815"><ele>952.0</ele><time>2026-05-03T08:01:27.962Z</time></trkpt><trkpt lat="40.0963538" lon="9.4558826"><ele>952.0</ele><time>2026-05-03T08:01:29.962Z</time></trkpt><trkpt lat="40.0963931" lon="9.4557438"><ele>952.0</ele><time>2026-05-03T08:01:31.963Z</time></trkpt><trkpt lat="40.0964105" lon="9.4556558"><ele>952.0</ele><time>2026-05-03T08:01:32.963Z</time></trkpt><trkpt lat="40.0964236" lon="9.4555742"><ele>952.0</ele><time>2026-05-03T08:01:33.962Z</time></trkpt><trkpt lat="40.0964183" lon="9.4554344"><ele>952.0</ele><time>2026-05-03T08:01:35.963Z</time></trkpt><trkpt lat="40.0964013" lon="9.4553099"><ele>952.4285714285714</ele><time>2026-05-03T08:01:37.962Z</time></trkpt><trkpt lat="40.0964103" lon="9.4552156"><ele>952.8571428571429</ele><time>2026-05-03T08:01:39.962Z</time></trkpt><trkpt lat="40.0964734" lon="9.4551336"><ele>953.2857142857142</ele><time>2026-05-03T08:01:41.962Z</time></trkpt><trkpt lat="40.0965341" lon="9.455096"><ele>953.7142857142857</ele><time>2026-05-03T08:01:42.962Z</time></trkpt><trkpt lat="40.0966098" lon="9.4550531"><ele>954.1428571428571</ele><time>2026-05-03T08:01:43.963Z</time></trkpt><trkpt lat="40.0966733" lon="9.455023"><ele>954.5714285714284</ele><time>2026-05-03T08:01:44.963Z</time></trkpt><trkpt lat="40.0967363" lon="9.4549988"><ele>954.9999999999999</ele><time>2026-05-03T08:01:45.963Z</time></trkpt><trkpt lat="40.0968606" lon="9.4549583"><ele>954.9999999999999</ele><time>2026-05-03T08:01:47.963Z</time></trkpt><trkpt lat="40.096927" lon="9.4549421"><ele>955.0</ele><time>2026-05-03T08:01:48.963Z</time></trkpt><trkpt lat="40.09699" lon="9.4549325"><ele>954.9999999999999</ele><time>2026-05-03T08:01:49.962Z</time></trkpt><trkpt lat="40.0970533" lon="9.4549257"><ele>954.9999999999999</ele><time>2026-05-03T08:01:50.962Z</time></trkpt><trkpt lat="40.0971194" lon="9.4549197"><ele>955.0</ele><time>2026-05-03T08:01:51.963Z</time></trkpt><trkpt lat="40.0971823" lon="9.4549126"><ele>954.9999999999999</ele><time>2026-05-03T08:01:52.963Z</time></trkpt><trkpt lat="40.097249" lon="9.4549001"><ele>954.9999999999999</ele><time>2026-05-03T08:01:53.963Z</time></trkpt><trkpt lat="40.0973153" lon="9.454878"><ele>954.9999999999999</ele><time>2026-05-03T08:01:54.963Z</time></trkpt><trkpt lat="40.0973791" lon="9.4548538"><ele>955.0</ele><time>2026-05-03T08:01:55.963Z</time></trkpt><trkpt lat="40.0974473" lon="9.4548286"><ele>954.9999999999999</ele><time>2026-05-03T08:01:56.963Z</time></trkpt><trkpt lat="40.0975179" lon="9.4548002"><ele>954.9999999999999</ele><time>2026-05-03T08:01:57.962Z</time></trkpt><trkpt lat="40.0975889" lon="9.4547679"><ele>955.0</ele><time>2026-05-03T08:01:58.964Z</time></trkpt><trkpt lat="40.097661" lon="9.4547378"><ele>954.9999999999999</ele><time>2026-05-03T08:01:59.963Z</time></trkpt><trkpt lat="40.0977334" lon="9.4547127"><ele>954.9999999999999</ele><time>2026-05-03T08:02:00.962Z</time></trkpt><trkpt lat="40.0978043" lon="9.4546912"><ele>954.8333333333333</ele><time>2026-05-03T08:02:01.962Z</time></trkpt><trkpt lat="40.0978732" lon="9.4546676"><ele>954.6666666666666</ele><time>2026-05-03T08:02:02.962Z</time></trkpt><trkpt lat="40.0979373" lon="9.4546493"><ele>954.5</ele><time>2026-05-03T08:02:03.964Z</time></trkpt><trkpt lat="40.098054" lon="9.454596"><ele>954.3333333333333</ele><time>2026-05-03T08:02:05.962Z</time></trkpt><trkpt lat="40.0981598" lon="9.4545617"><ele>954.1666666666666</ele><time>2026-05-03T08:02:07.962Z</time></trkpt><trkpt lat="40.0982244" lon="9.4545585"><ele>954.0</ele><time>2026-05-03T08:02:08.962Z</time></trkpt><trkpt lat="40.0982957" lon="9.4545577"><ele>954.8571428571428</ele><time>2026-05-03T08:02:09.963Z</time></trkpt><trkpt lat="40.098367" lon="9.454551"><ele>955.7142857142856</ele><time>2026-05-03T08:02:10.962Z</time></trkpt><trkpt lat="40.0984366" lon="9.4545329"><ele>956.5714285714286</ele><time>2026-05-03T08:02:11.962Z</time></trkpt><trkpt lat="40.0985137" lon="9.4545146"><ele>957.4285714285713</ele><time>2026-05-03T08:02:12.962Z</time></trkpt><trkpt lat="40.0985932" lon="9.4545042"><ele>958.2857142857142</ele><time>2026-05-03T08:02:13.963Z</time></trkpt><trkpt lat="40.0986653" lon="9.4544905"><ele>959.1428571428571</ele><time>2026-05-03T08:02:14.963Z</time></trkpt><trkpt lat="40.0987389" lon="9.4544707"><ele>960.0</ele><time>2026-05-03T08:02:15.962Z</time></trkpt><trkpt lat="40.0988174" lon="9.454448"><ele>960.0</ele><time>2026-05-03T08:02:16.962Z</time></trkpt><trkpt lat="40.0988938" lon="9.4544207"><ele>960.0</ele><time>2026-05-03T08:02:17.962Z</time></trkpt><trkpt lat="40.0989684" lon="9.4543928"><ele>960.0</ele><time>2026-05-03T08:02:18.962Z</time></trkpt><trkpt lat="40.0990413" lon="9.4543743"><ele>960.0</ele><time>2026-05-03T08:02:19.962Z</time></trkpt><trkpt lat="40.0991165" lon="9.4543673"><ele>960.0</ele><time>2026-05-03T08:02:20.963Z</time></trkpt><trkpt lat="40.09919" lon="9.45436"><ele>960.0</ele><time>2026-05-03T08:02:21.963Z</time></trkpt><trkpt lat="40.0992657" lon="9.4543529"><ele>959.5</ele><time>2026-05-03T08:02:22.962Z</time></trkpt><trkpt lat="40.0993555" lon="9.4543472"><ele>959.0</ele><time>2026-05-03T08:02:23.963Z</time></trkpt><trkpt lat="40.099442" lon="9.4543529"><ele>958.5</ele><time>2026-05-03T08:02:24.962Z</time></trkpt><trkpt lat="40.0995233" lon="9.4543643"><ele>958.0</ele><time>2026-05-03T08:02:25.963Z</time></trkpt><trkpt lat="40.0996085" lon="9.4543771"><ele>957.5</ele><time>2026-05-03T08:02:26.963Z</time></trkpt><trkpt lat="40.0996937" lon="9.4543895"><ele>957.0</ele><time>2026-05-03T08:02:27.962Z</time></trkpt><trkpt lat="40.0997903" lon="9.4544063"><ele>957.0</ele><time>2026-05-03T08:02:28.964Z</time></trkpt><trkpt lat="40.0998774" lon="9.4544215"><ele>957.0</ele><time>2026-05-03T08:02:29.962Z</time></trkpt><trkpt lat="40.0999584" lon="9.4544414"><ele>957.0</ele><time>2026-05-03T08:02:30.962Z</time></trkpt><trkpt lat="40.1000387" lon="9.45446"><ele>957.0</ele><time>2026-05-03T08:02:31.962Z</time></trkpt><trkpt lat="40.100123" lon="9.4544714"><ele>957.0</ele><time>2026-05-03T08:02:32.962Z</time></trkpt><trkpt lat="40.1002128" lon="9.4544717"><ele>957.0</ele><time>2026-05-03T08:02:33.962Z</time></trkpt><trkpt lat="40.1003048" lon="9.4544666"><ele>956.5</ele><time>2026-05-03T08:02:34.963Z</time></trkpt><trkpt lat="40.1003955" lon="9.4544579"><ele>956.0</ele><time>2026-05-03T08:02:35.963Z</time></trkpt><trkpt lat="40.1004808" lon="9.4544497"><ele>955.5</ele><time>2026-05-03T08:02:36.963Z</time></trkpt><trkpt lat="40.10056" lon="9.4544506"><ele>955.0</ele><time>2026-05-03T08:02:37.962Z</time></trkpt><trkpt lat="40.1006337" lon="9.4544581"><ele>954.5</ele><time>2026-05-03T08:02:38.962Z</time></trkpt><trkpt lat="40.1007067" lon="9.4544709"><ele>954.0</ele><time>2026-05-03T08:02:39.962Z</time></trkpt><trkpt lat="40.1007706" lon="9.4544913"><ele>953.6</ele><time>2026-05-03T08:02:40.962Z</time></trkpt><trkpt lat="40.1008696" lon="9.4545319"><ele>953.2</ele><time>2026-05-03T08:02:42.962Z</time></trkpt><trkpt lat="40.1009499" lon="9.4545578"><ele>952.8000000000001</ele><time>2026-05-03T08:02:44.962Z</time></trkpt><trkpt lat="40.1010361" lon="9.4545761"><ele>952.4000000000001</ele><time>2026-05-03T08:02:46.961Z</time></trkpt><trkpt lat="40.1011317" lon="9.4545933"><ele>952.0</ele><time>2026-05-03T08:02:48.962Z</time></trkpt><trkpt lat="40.1012366" lon="9.4545995"><ele>951.9999999999999</ele><time>2026-05-03T08:02:50.961Z</time></trkpt><trkpt lat="40.1013712" lon="9.4546095"><ele>952.0</ele><time>2026-05-03T08:02:52.961Z</time></trkpt><trkpt lat="40.1014376" lon="9.4546191"><ele>952.0</ele><time>2026-05-03T08:02:53.961Z</time></trkpt><trkpt lat="40.1015015" lon="9.4546312"><ele>952.0</ele><time>2026-05-03T08:02:54.962Z</time></trkpt><trkpt lat="40.1015672" lon="9.4546452"><ele>951.9999999999999</ele><time>2026-05-03T08:02:55.962Z</time></trkpt><trkpt lat="40.1016827" lon="9.4546641"><ele>952.0</ele><time>2026-05-03T08:02:57.962Z</time></trkpt><trkpt lat="40.1017939" lon="9.4546651"><ele>951.4000000000001</ele><time>2026-05-03T08:02:59.961Z</time></trkpt><trkpt lat="40.1019034" lon="9.4546704"><ele>950.8000000000001</ele><time>2026-05-03T08:03:01.962Z</time></trkpt><trkpt lat="40.1020065" lon="9.4546672"><ele>950.2</ele><time>2026-05-03T08:03:03.962Z</time></trkpt><trkpt lat="40.102103" lon="9.45464"><ele>949.6</ele><time>2026-05-03T08:03:05.962Z</time></trkpt><trkpt lat="40.102178" lon="9.454601"><ele>949.0</ele><time>2026-05-03T08:03:07.961Z</time></trkpt><trkpt lat="40.1022362" lon="9.4545631"><ele>948.9999999999999</ele><time>2026-05-03T08:03:09.962Z</time></trkpt><trkpt lat="40.1022971" lon="9.4545378"><ele>949.0</ele><time>2026-05-03T08:03:11.962Z</time></trkpt><trkpt lat="40.1023869" lon="9.4545189"><ele>949.0</ele><time>2026-05-03T08:03:14.962Z</time></trkpt><trkpt lat="40.10245" lon="9.4545982"><ele>949.0</ele><time>2026-05-03T08:03:17.962Z</time></trkpt><trkpt lat="40.1024571" lon="9.454707"><ele>948.9999999999999</ele><time>2026-05-03T08:03:19.962Z</time></trkpt><trkpt lat="40.1024625" lon="9.45481"><ele>949.0</ele><time>2026-05-03T08:03:21.961Z</time></trkpt><trkpt lat="40.1025018" lon="9.4549124"><ele>948.8000000000001</ele><time>2026-05-03T08:03:23.961Z</time></trkpt><trkpt lat="40.1025584" lon="9.4550118"><ele>948.6000000000001</ele><time>2026-05-03T08:03:25.961Z</time></trkpt><trkpt lat="40.1026163" lon="9.4550923"><ele>948.4</ele><time>2026-05-03T08:03:27.962Z</time></trkpt><trkpt lat="40.1027044" lon="9.4551655"><ele>948.2</ele><time>2026-05-03T08:03:29.962Z</time></trkpt><trkpt lat="40.1027863" lon="9.4552414"><ele>948.0</ele><time>2026-05-03T08:03:31.961Z</time></trkpt><trkpt lat="40.102853" lon="9.4553088"><ele>948.0</ele><time>2026-05-03T08:03:33.961Z</time></trkpt><trkpt lat="40.1029257" lon="9.4553846"><ele>948.0</ele><time>2026-05-03T08:03:35.961Z</time></trkpt><trkpt lat="40.1029996" lon="9.4554747"><ele>948.0</ele><time>2026-05-03T08:03:37.962Z</time></trkpt><trkpt lat="40.1030877" lon="9.455579"><ele>948.0</ele><time>2026-05-03T08:03:39.961Z</time></trkpt><trkpt lat="40.1031383" lon="9.4556313"><ele>948.0</ele><time>2026-05-03T08:03:40.961Z</time></trkpt><trkpt lat="40.1031892" lon="9.4556858"><ele>948.0</ele><time>2026-05-03T08:03:41.961Z</time></trkpt><trkpt lat="40.1032435" lon="9.4557359"><ele>947.9999999999999</ele><time>2026-05-03T08:03:42.962Z</time></trkpt><trkpt lat="40.1033015" lon="9.4557881"><ele>948.0</ele><time>2026-05-03T08:03:43.962Z</time></trkpt><trkpt lat="40.1033571" lon="9.4558348"><ele>947.9999999999999</ele><time>2026-05-03T08:03:44.961Z</time></trkpt><trkpt lat="40.1034185" lon="9.4558777"><ele>947.9999999999999</ele><time>2026-05-03T08:03:45.961Z</time></trkpt><trkpt lat="40.1034836" lon="9.455914"><ele>948.0</ele><time>2026-05-03T08:03:46.962Z</time></trkpt><trkpt lat="40.1035505" lon="9.4559435"><ele>947.9999999999999</ele><time>2026-05-03T08:03:47.961Z</time></trkpt><trkpt lat="40.1036174" lon="9.4559713"><ele>947.9999999999999</ele><time>2026-05-03T08:03:48.961Z</time></trkpt><trkpt lat="40.1036806" lon="9.4560011"><ele>947.9999999999999</ele><time>2026-05-03T08:03:49.961Z</time></trkpt><trkpt lat="40.1037476" lon="9.456024"><ele>948.0</ele><time>2026-05-03T08:03:50.962Z</time></trkpt><trkpt lat="40.1038173" lon="9.4560461"><ele>947.9999999999999</ele><time>2026-05-03T08:03:51.962Z</time></trkpt><trkpt lat="40.1038846" lon="9.4560699"><ele>947.9999999999999</ele><time>2026-05-03T08:03:52.961Z</time></trkpt><trkpt lat="40.1039557" lon="9.4560916"><ele>948.0</ele><time>2026-05-03T08:03:53.962Z</time></trkpt><trkpt lat="40.1040261" lon="9.4561169"><ele>947.9999999999999</ele><time>2026-05-03T08:03:54.961Z</time></trkpt><trkpt lat="40.1040963" lon="9.4561433"><ele>947.9999999999999</ele><time>2026-05-03T08:03:55.961Z</time></trkpt><trkpt lat="40.1041636" lon="9.4561646"><ele>948.6666666666666</ele><time>2026-05-03T08:03:56.962Z</time></trkpt><trkpt lat="40.1042317" lon="9.4561826"><ele>949.3333333333333</ele><time>2026-05-03T08:03:57.961Z</time></trkpt><trkpt lat="40.1043004" lon="9.4562016"><ele>950.0</ele><time>2026-05-03T08:03:58.961Z</time></trkpt><trkpt lat="40.1043721" lon="9.4562165"><ele>950.6666666666666</ele><time>2026-05-03T08:03:59.962Z</time></trkpt><trkpt lat="40.1044413" lon="9.4562306"><ele>951.3333333333333</ele><time>2026-05-03T08:04:00.961Z</time></trkpt><trkpt lat="40.1045086" lon="9.456244"><ele>952.0</ele><time>2026-05-03T08:04:01.962Z</time></trkpt><trkpt lat="40.1046203" lon="9.4562745"><ele>950.4000000000001</ele><time>2026-05-03T08:04:03.961Z</time></trkpt><trkpt lat="40.1047246" lon="9.4562999"><ele>948.8000000000001</ele><time>2026-05-03T08:04:05.961Z</time></trkpt><trkpt lat="40.1048321" lon="9.4563195"><ele>947.2</ele><time>2026-05-03T08:04:07.962Z</time></trkpt><trkpt lat="40.1049132" lon="9.4563713"><ele>945.6</ele><time>2026-05-03T08:04:09.961Z</time></trkpt><trkpt lat="40.1049839" lon="9.4564264"><ele>944.0</ele><time>2026-05-03T08:04:11.961Z</time></trkpt><trkpt lat="40.1050595" lon="9.4564738"><ele>943.7142857142857</ele><time>2026-05-03T08:04:13.961Z</time></trkpt><trkpt lat="40.1051376" lon="9.4565088"><ele>943.4285714285716</ele><time>2026-05-03T08:04:15.961Z</time></trkpt><trkpt lat="40.1052159" lon="9.4565268"><ele>943.1428571428572</ele><time>2026-05-03T08:04:17.961Z</time></trkpt><trkpt lat="40.1052851" lon="9.4565424"><ele>942.8571428571429</ele><time>2026-05-03T08:04:19.962Z</time></trkpt><trkpt lat="40.1053493" lon="9.4565508"><ele>942.5714285714287</ele><time>2026-05-03T08:04:21.961Z</time></trkpt><trkpt lat="40.1054251" lon="9.4565662"><ele>942.2857142857144</ele><time>2026-05-03T08:04:24.961Z</time></trkpt><trkpt lat="40.1054864" lon="9.4565086"><ele>942.0000000000001</ele><time>2026-05-03T08:04:28.962Z</time></trkpt><trkpt lat="40.1054483" lon="9.4564423"><ele>942.0</ele><time>2026-05-03T08:04:32.961Z</time></trkpt><trkpt lat="40.1053804" lon="9.4564932"><ele>942.0</ele><time>2026-05-03T08:04:35.962Z</time></trkpt><trkpt lat="40.1053179" lon="9.4565285"><ele>942.0</ele><time>2026-05-03T08:04:39.961Z</time></trkpt><trkpt lat="40.1052273" lon="9.4565215"><ele>942.0</ele><time>2026-05-03T08:04:49.962Z</time></trkpt><trkpt lat="40.1051552" lon="9.4565016"><ele>942.0</ele><time>2026-05-03T08:04:50.961Z</time></trkpt><trkpt lat="40.1050868" lon="9.4564765"><ele>942.0</ele><time>2026-05-03T08:04:51.961Z</time></trkpt><trkpt lat="40.1050209" lon="9.4564435"><ele>942.0</ele><time>2026-05-03T08:04:52.962Z</time></trkpt><trkpt lat="40.1049636" lon="9.4563998"><ele>942.0</ele><time>2026-05-03T08:04:53.961Z</time></trkpt><trkpt lat="40.1049061" lon="9.4563629"><ele>942.0</ele><time>2026-05-03T08:04:54.961Z</time></trkpt><trkpt lat="40.1047969" lon="9.4563183"><ele>942.0</ele><time>2026-05-03T08:04:56.962Z</time></trkpt><trkpt lat="40.1046665" lon="9.456292"><ele>942.0</ele><time>2026-05-03T08:04:58.962Z</time></trkpt><trkpt lat="40.1045898" lon="9.4562716"><ele>943.6666666666666</ele><time>2026-05-03T08:04:59.962Z</time></trkpt><trkpt lat="40.1045088" lon="9.4562552"><ele>945.3333333333333</ele><time>2026-05-03T08:05:00.963Z</time></trkpt><trkpt lat="40.1044356" lon="9.4562412"><ele>947.0</ele><time>2026-05-03T08:05:01.961Z</time></trkpt><trkpt lat="40.1043644" lon="9.4562262"><ele>948.6666666666666</ele><time>2026-05-03T08:05:02.962Z</time></trkpt><trkpt lat="40.1042884" lon="9.456208"><ele>950.3333333333333</ele><time>2026-05-03T08:05:03.962Z</time></trkpt><trkpt lat="40.1042047" lon="9.4561845"><ele>952.0</ele><time>2026-05-03T08:05:04.962Z</time></trkpt><trkpt lat="40.1041104" lon="9.4561574"><ele>951.2</ele><time>2026-05-03T08:05:05.962Z</time></trkpt><trkpt lat="40.1040299" lon="9.4561287"><ele>950.4000000000001</ele><time>2026-05-03T08:05:06.962Z</time></trkpt><trkpt lat="40.1039221" lon="9.456094"><ele>949.5999999999999</ele><time>2026-05-03T08:05:07.961Z</time></trkpt><trkpt lat="40.1038185" lon="9.45606"><ele>948.8</ele><time>2026-05-03T08:05:08.962Z</time></trkpt><trkpt lat="40.1037279" lon="9.4560281"><ele>948.0</ele><time>2026-05-03T08:05:09.961Z</time></trkpt><trkpt lat="40.1036463" lon="9.4559951"><ele>948.0</ele><time>2026-05-03T08:05:10.961Z</time></trkpt><trkpt lat="40.1035736" lon="9.455962"><ele>948.0</ele><time>2026-05-03T08:05:11.961Z</time></trkpt><trkpt lat="40.1035025" lon="9.4559312"><ele>948.0</ele><time>2026-05-03T08:05:12.962Z</time></trkpt><trkpt lat="40.1034296" lon="9.4558932"><ele>948.0</ele><time>2026-05-03T08:05:13.961Z</time></trkpt><trkpt lat="40.1033579" lon="9.4558426"><ele>948.0</ele><time>2026-05-03T08:05:14.961Z</time></trkpt><trkpt lat="40.1032803" lon="9.4557767"><ele>948.0</ele><time>2026-05-03T08:05:15.961Z</time></trkpt><trkpt lat="40.1032029" lon="9.455704"><ele>948.0</ele><time>2026-05-03T08:05:16.961Z</time></trkpt><trkpt lat="40.10313" lon="9.4556309"><ele>948.0</ele><time>2026-05-03T08:05:17.963Z</time></trkpt><trkpt lat="40.1030663" lon="9.4555623"><ele>948.0</ele><time>2026-05-03T08:05:18.962Z</time></trkpt><trkpt lat="40.1030064" lon="9.4554922"><ele>948.0</ele><time>2026-05-03T08:05:19.962Z</time></trkpt><trkpt lat="40.1029466" lon="9.4554258"><ele>948.0</ele><time>2026-05-03T08:05:20.962Z</time></trkpt><trkpt lat="40.1028739" lon="9.455353"><ele>948.0</ele><time>2026-05-03T08:05:21.961Z</time></trkpt><trkpt lat="40.102807" lon="9.4552854"><ele>948.0</ele><time>2026-05-03T08:05:22.962Z</time></trkpt><trkpt lat="40.1027469" lon="9.4552265"><ele>948.0</ele><time>2026-05-03T08:05:23.961Z</time></trkpt><trkpt lat="40.1026916" lon="9.4551734"><ele>948.0</ele><time>2026-05-03T08:05:24.962Z</time></trkpt><trkpt lat="40.1025956" lon="9.4550798"><ele>948.0</ele><time>2026-05-03T08:05:26.962Z</time></trkpt><trkpt lat="40.1025225" lon="9.4549723"><ele>948.0</ele><time>2026-05-03T08:05:28.961Z</time></trkpt><trkpt lat="40.1024787" lon="9.4548875"><ele>948.0</ele><time>2026-05-03T08:05:30.962Z</time></trkpt><trkpt lat="40.1024516" lon="9.4548037"><ele>948.0</ele><time>2026-05-03T08:05:32.962Z</time></trkpt><trkpt lat="40.1024489" lon="9.4547034"><ele>948.0</ele><time>2026-05-03T08:05:34.961Z</time></trkpt><trkpt lat="40.1024399" lon="9.4546021"><ele>948.0</ele><time>2026-05-03T08:05:36.961Z</time></trkpt><trkpt lat="40.1023882" lon="9.4545376"><ele>948.0</ele><time>2026-05-03T08:05:39.962Z</time></trkpt><trkpt lat="40.1022919" lon="9.4545419"><ele>948.0</ele><time>2026-05-03T08:05:42.961Z</time></trkpt><trkpt lat="40.1021859" lon="9.4546025"><ele>947.8333333333334</ele><time>2026-05-03T08:05:44.961Z</time></trkpt><trkpt lat="40.1021241" lon="9.4546377"><ele>947.6666666666667</ele><time>2026-05-03T08:05:45.963Z</time></trkpt><trkpt lat="40.1020573" lon="9.4546588"><ele>947.5</ele><time>2026-05-03T08:05:46.962Z</time></trkpt><trkpt lat="40.1019823" lon="9.4546645"><ele>947.3333333333334</ele><time>2026-05-03T08:05:47.961Z</time></trkpt><trkpt lat="40.1018982" lon="9.4546651"><ele>947.1666666666667</ele><time>2026-05-03T08:05:48.963Z</time></trkpt><trkpt lat="40.1018195" lon="9.4546673"><ele>947.0</ele><time>2026-05-03T08:05:49.962Z</time></trkpt><trkpt lat="40.1017412" lon="9.4546705"><ele>947.0</ele><time>2026-05-03T08:05:50.962Z</time></trkpt><trkpt lat="40.1016683" lon="9.45466"><ele>946.9999999999999</ele><time>2026-05-03T08:05:51.962Z</time></trkpt><trkpt lat="40.1015978" lon="9.4546526"><ele>947.0</ele><time>2026-05-03T08:05:52.961Z</time></trkpt><trkpt lat="40.101527" lon="9.4546422"><ele>947.0</ele><time>2026-05-03T08:05:53.962Z</time></trkpt><trkpt lat="40.1014525" lon="9.4546283"><ele>946.9999999999999</ele><time>2026-05-03T08:05:54.961Z</time></trkpt><trkpt lat="40.1013711" lon="9.4546163"><ele>947.0</ele><time>2026-05-03T08:05:55.961Z</time></trkpt><trkpt lat="40.1012988" lon="9.4546077"><ele>947.0</ele><time>2026-05-03T08:05:56.962Z</time></trkpt><trkpt lat="40.1012315" lon="9.4545955"><ele>947.7142857142857</ele><time>2026-05-03T08:05:57.961Z</time></trkpt><trkpt lat="40.1011673" lon="9.4545862"><ele>948.4285714285713</ele><time>2026-05-03T08:05:58.961Z</time></trkpt><trkpt lat="40.1011018" lon="9.454577"><ele>949.1428571428571</ele><time>2026-05-03T08:05:59.961Z</time></trkpt><trkpt lat="40.1010293" lon="9.4545613"><ele>949.8571428571429</ele><time>2026-05-03T08:06:00.961Z</time></trkpt><trkpt lat="40.1009543" lon="9.4545488"><ele>950.5714285714286</ele><time>2026-05-03T08:06:01.962Z</time></trkpt><trkpt lat="40.1008794" lon="9.4545288"><ele>951.2857142857142</ele><time>2026-05-03T08:06:02.962Z</time></trkpt><trkpt lat="40.1007901" lon="9.4545014"><ele>952.0</ele><time>2026-05-03T08:06:03.961Z</time></trkpt><trkpt lat="40.1006862" lon="9.4544769"><ele>952.4000000000001</ele><time>2026-05-03T08:06:04.963Z</time></trkpt><trkpt lat="40.1005854" lon="9.4544588"><ele>952.8000000000001</ele><time>2026-05-03T08:06:05.961Z</time></trkpt><trkpt lat="40.1004891" lon="9.454454"><ele>953.2</ele><time>2026-05-03T08:06:06.962Z</time></trkpt><trkpt lat="40.1003873" lon="9.4544579"><ele>953.6</ele><time>2026-05-03T08:06:07.961Z</time></trkpt><trkpt lat="40.1002869" lon="9.4544654"><ele>954.0</ele><time>2026-05-03T08:06:08.962Z</time></trkpt><trkpt lat="40.1001816" lon="9.4544637"><ele>954.0</ele><time>2026-05-03T08:06:09.961Z</time></trkpt><trkpt lat="40.1000686" lon="9.4544548"><ele>954.0000000000001</ele><time>2026-05-03T08:06:10.962Z</time></trkpt><trkpt lat="40.0999693" lon="9.4544436"><ele>954.0000000000001</ele><time>2026-05-03T08:06:11.962Z</time></trkpt><trkpt lat="40.0998725" lon="9.4544342"><ele>954.0</ele><time>2026-05-03T08:06:12.962Z</time></trkpt><trkpt lat="40.0997743" lon="9.4544207"><ele>954.0</ele><time>2026-05-03T08:06:13.961Z</time></trkpt><trkpt lat="40.099682" lon="9.4544089"><ele>954.6</ele><time>2026-05-03T08:06:14.961Z</time></trkpt><trkpt lat="40.0995858" lon="9.4543907"><ele>955.2</ele><time>2026-05-03T08:06:15.961Z</time></trkpt><trkpt lat="40.0994949" lon="9.4543728"><ele>955.8000000000001</ele><time>2026-05-03T08:06:16.961Z</time></trkpt><trkpt lat="40.0994097" lon="9.4543638"><ele>956.4000000000001</ele><time>2026-05-03T08:06:17.963Z</time></trkpt><trkpt lat="40.0993223" lon="9.4543642"><ele>957.0</ele><time>2026-05-03T08:06:18.961Z</time></trkpt><trkpt lat="40.0992323" lon="9.4543732"><ele>957.0</ele><time>2026-05-03T08:06:19.961Z</time></trkpt><trkpt lat="40.0991355" lon="9.4543866"><ele>957.0</ele><time>2026-05-03T08:06:20.961Z</time></trkpt><trkpt lat="40.0990412" lon="9.4543983"><ele>957.0</ele><time>2026-05-03T08:06:21.961Z</time></trkpt><trkpt lat="40.098956" lon="9.4544162"><ele>957.0</ele><time>2026-05-03T08:06:22.962Z</time></trkpt><trkpt lat="40.0988702" lon="9.4544424"><ele>957.0</ele><time>2026-05-03T08:06:23.961Z</time></trkpt><trkpt lat="40.0987896" lon="9.4544651"><ele>957.0</ele><time>2026-05-03T08:06:24.961Z</time></trkpt><trkpt lat="40.0987011" lon="9.4544852"><ele>957.3333333333334</ele><time>2026-05-03T08:06:25.961Z</time></trkpt><trkpt lat="40.0986132" lon="9.4545048"><ele>957.6666666666667</ele><time>2026-05-03T08:06:26.963Z</time></trkpt><trkpt lat="40.0985232" lon="9.4545208"><ele>958.0</ele><time>2026-05-03T08:06:27.962Z</time></trkpt><trkpt lat="40.0984354" lon="9.4545355"><ele>958.3333333333334</ele><time>2026-05-03T08:06:28.961Z</time></trkpt><trkpt lat="40.0983538" lon="9.4545497"><ele>958.6666666666667</ele><time>2026-05-03T08:06:29.961Z</time></trkpt><trkpt lat="40.0982812" lon="9.454553"><ele>959.0</ele><time>2026-05-03T08:06:30.962Z</time></trkpt><trkpt lat="40.0982165" lon="9.454551"><ele>959.0</ele><time>2026-05-03T08:06:31.961Z</time></trkpt><trkpt lat="40.0981513" lon="9.4545547"><ele>959.0</ele><time>2026-05-03T08:06:32.961Z</time></trkpt><trkpt lat="40.0980853" lon="9.4545749"><ele>959.0</ele><time>2026-05-03T08:06:33.961Z</time></trkpt><trkpt lat="40.0980146" lon="9.4546121"><ele>959.0</ele><time>2026-05-03T08:06:34.962Z</time></trkpt><trkpt lat="40.0979405" lon="9.4546441"><ele>959.0</ele><time>2026-05-03T08:06:35.962Z</time></trkpt><trkpt lat="40.0978643" lon="9.45467"><ele>959.0</ele><time>2026-05-03T08:06:36.963Z</time></trkpt><trkpt lat="40.0977897" lon="9.4546961"><ele>959.0</ele><time>2026-05-03T08:06:37.961Z</time></trkpt><trkpt lat="40.0977217" lon="9.4547202"><ele>958.4285714285714</ele><time>2026-05-03T08:06:38.961Z</time></trkpt><trkpt lat="40.0976517" lon="9.4547472"><ele>957.8571428571429</ele><time>2026-05-03T08:06:39.961Z</time></trkpt><trkpt lat="40.0975837" lon="9.4547772"><ele>957.2857142857142</ele><time>2026-05-03T08:06:40.961Z</time></trkpt><trkpt lat="40.0975174" lon="9.4548057"><ele>956.7142857142857</ele><time>2026-05-03T08:06:41.962Z</time></trkpt><trkpt lat="40.0974544" lon="9.4548367"><ele>956.1428571428571</ele><time>2026-05-03T08:06:42.961Z</time></trkpt><trkpt lat="40.0973924" lon="9.454865"><ele>955.5714285714284</ele><time>2026-05-03T08:06:43.961Z</time></trkpt><trkpt lat="40.0973279" lon="9.4548935"><ele>954.9999999999999</ele><time>2026-05-03T08:06:44.962Z</time></trkpt><trkpt lat="40.0972613" lon="9.4549152"><ele>954.9999999999999</ele><time>2026-05-03T08:06:45.961Z</time></trkpt><trkpt lat="40.0971965" lon="9.4549257"><ele>955.0</ele><time>2026-05-03T08:06:46.961Z</time></trkpt><trkpt lat="40.0971293" lon="9.4549354"><ele>954.9999999999999</ele><time>2026-05-03T08:06:47.962Z</time></trkpt><trkpt lat="40.097064" lon="9.4549427"><ele>954.9999999999999</ele><time>2026-05-03T08:06:48.962Z</time></trkpt><trkpt lat="40.0969996" lon="9.4549489"><ele>955.0</ele><time>2026-05-03T08:06:49.962Z</time></trkpt><trkpt lat="40.0969336" lon="9.4549601"><ele>954.9999999999999</ele><time>2026-05-03T08:06:50.961Z</time></trkpt><trkpt lat="40.0968661" lon="9.4549706"><ele>954.9999999999999</ele><time>2026-05-03T08:06:51.961Z</time></trkpt><trkpt lat="40.0967988" lon="9.4549879"><ele>954.9999999999999</ele><time>2026-05-03T08:06:52.962Z</time></trkpt><trkpt lat="40.096729" lon="9.4550078"><ele>955.0</ele><time>2026-05-03T08:06:53.963Z</time></trkpt><trkpt lat="40.0966607" lon="9.4550316"><ele>955.0</ele><time>2026-05-03T08:06:54.961Z</time></trkpt><trkpt lat="40.096599" lon="9.4550588"><ele>955.0</ele><time>2026-05-03T08:06:55.961Z</time></trkpt><trkpt lat="40.0965044" lon="9.4551083"><ele>954.9999999999999</ele><time>2026-05-03T08:06:57.962Z</time></trkpt><trkpt lat="40.0964332" lon="9.4551615"><ele>955.0</ele><time>2026-05-03T08:06:59.962Z</time></trkpt><trkpt lat="40.0963955" lon="9.4552413"><ele>954.9999999999999</ele><time>2026-05-03T08:07:01.962Z</time></trkpt><trkpt lat="40.0964055" lon="9.4553417"><ele>955.0</ele><time>2026-05-03T08:07:03.962Z</time></trkpt><trkpt lat="40.0964275" lon="9.4554457"><ele>955.0</ele><time>2026-05-03T08:07:05.963Z</time></trkpt><trkpt lat="40.0964306" lon="9.4555549"><ele>955.0</ele><time>2026-05-03T08:07:07.961Z</time></trkpt><trkpt lat="40.0964151" lon="9.4556627"><ele>954.9999999999999</ele><time>2026-05-03T08:07:09.961Z</time></trkpt><trkpt lat="40.0963951" lon="9.4557642"><ele>955.0</ele><time>2026-05-03T08:07:11.962Z</time></trkpt><trkpt lat="40.0963685" lon="9.4558562"><ele>954.4</ele><time>2026-05-03T08:07:13.962Z</time></trkpt><trkpt lat="40.0963325" lon="9.4559445"><ele>953.8</ele><time>2026-05-03T08:07:15.963Z</time></trkpt><trkpt lat="40.096277" lon="9.456024"><ele>953.2</ele><time>2026-05-03T08:07:17.961Z</time></trkpt><trkpt lat="40.0961922" lon="9.4560938"><ele>952.6</ele><time>2026-05-03T08:07:19.962Z</time></trkpt><trkpt lat="40.0960878" lon="9.4561838"><ele>952.0</ele><time>2026-05-03T08:07:21.962Z</time></trkpt><trkpt lat="40.0960344" lon="9.4562436"><ele>952.0</ele><time>2026-05-03T08:07:22.962Z</time></trkpt><trkpt lat="40.0959859" lon="9.4563028"><ele>952.0</ele><time>2026-05-03T08:07:23.962Z</time></trkpt><trkpt lat="40.0959387" lon="9.456372"><ele>952.0</ele><time>2026-05-03T08:07:24.962Z</time></trkpt><trkpt lat="40.0958914" lon="9.4564496"><ele>952.0</ele><time>2026-05-03T08:07:25.961Z</time></trkpt><trkpt lat="40.0958506" lon="9.4565224"><ele>952.0</ele><time>2026-05-03T08:07:26.961Z</time></trkpt><trkpt lat="40.0958065" lon="9.4565825"><ele>952.0</ele><time>2026-05-03T08:07:27.961Z</time></trkpt><trkpt lat="40.0957606" lon="9.4566445"><ele>952.0</ele><time>2026-05-03T08:07:28.962Z</time></trkpt><trkpt lat="40.0956912" lon="9.4567671"><ele>952.4999999999999</ele><time>2026-05-03T08:07:30.962Z</time></trkpt><trkpt lat="40.0956404" lon="9.4568807"><ele>953.0</ele><time>2026-05-03T08:07:32.961Z</time></trkpt><trkpt lat="40.0955694" lon="9.4569854"><ele>953.5</ele><time>2026-05-03T08:07:34.961Z</time></trkpt><trkpt lat="40.0954928" lon="9.4570335"><ele>954.0</ele><time>2026-05-03T08:07:36.962Z</time></trkpt><trkpt lat="40.0954557" lon="9.4569605"><ele>954.4999999999999</ele><time>2026-05-03T08:07:40.962Z</time></trkpt><trkpt lat="40.0954748" lon="9.4568751"><ele>955.0</ele><time>2026-05-03T08:07:42.961Z</time></trkpt><trkpt lat="40.0954726" lon="9.456745"><ele>955.0</ele><time>2026-05-03T08:07:44.961Z</time></trkpt><trkpt lat="40.0954453" lon="9.4566085"><ele>955.0</ele><time>2026-05-03T08:07:46.962Z</time></trkpt><trkpt lat="40.0953858" lon="9.4564729"><ele>955.0</ele><time>2026-05-03T08:07:48.961Z</time></trkpt><trkpt lat="40.0953023" lon="9.4563576"><ele>955.0</ele><time>2026-05-03T08:07:50.962Z</time></trkpt><trkpt lat="40.0952218" lon="9.4562449"><ele>955.1666666666666</ele><time>2026-05-03T08:07:52.962Z</time></trkpt><trkpt lat="40.0951455" lon="9.4561151"><ele>955.3333333333333</ele><time>2026-05-03T08:07:54.961Z</time></trkpt><trkpt lat="40.0951066" lon="9.4560484"><ele>955.5</ele><time>2026-05-03T08:07:55.962Z</time></trkpt><trkpt lat="40.0950607" lon="9.4559892"><ele>955.6666666666667</ele><time>2026-05-03T08:07:56.962Z</time></trkpt><trkpt lat="40.0950074" lon="9.455922"><ele>955.8333333333334</ele><time>2026-05-03T08:07:57.962Z</time></trkpt><trkpt lat="40.0949467" lon="9.4558565"><ele>956.0</ele><time>2026-05-03T08:07:58.962Z</time></trkpt><trkpt lat="40.0948858" lon="9.4557889"><ele>956.0000000000001</ele><time>2026-05-03T08:07:59.962Z</time></trkpt><trkpt lat="40.0948285" lon="9.4557233"><ele>956.0</ele><time>2026-05-03T08:08:00.962Z</time></trkpt><trkpt lat="40.0947685" lon="9.455648"><ele>956.0</ele><time>2026-05-03T08:08:01.961Z</time></trkpt><trkpt lat="40.0947114" lon="9.4555678"><ele>956.0</ele><time>2026-05-03T08:08:02.961Z</time></trkpt><trkpt lat="40.0946516" lon="9.4554916"><ele>956.0000000000001</ele><time>2026-05-03T08:08:03.961Z</time></trkpt><trkpt lat="40.0945877" lon="9.4554272"><ele>956.0</ele><time>2026-05-03T08:08:04.961Z</time></trkpt><trkpt lat="40.094518" lon="9.4553645"><ele>956.1666666666667</ele><time>2026-05-03T08:08:05.962Z</time></trkpt><trkpt lat="40.0944433" lon="9.4553071"><ele>956.3333333333334</ele><time>2026-05-03T08:08:06.961Z</time></trkpt><trkpt lat="40.0943691" lon="9.4552529"><ele>956.5</ele><time>2026-05-03T08:08:07.962Z</time></trkpt><trkpt lat="40.0942887" lon="9.4551967"><ele>956.6666666666667</ele><time>2026-05-03T08:08:08.962Z</time></trkpt><trkpt lat="40.0942124" lon="9.4551505"><ele>956.8333333333334</ele><time>2026-05-03T08:08:09.961Z</time></trkpt><trkpt lat="40.0941371" lon="9.4551039"><ele>957.0</ele><time>2026-05-03T08:08:10.961Z</time></trkpt><trkpt lat="40.0940688" lon="9.4550514"><ele>957.0</ele><time>2026-05-03T08:08:11.961Z</time></trkpt><trkpt lat="40.0940049" lon="9.4550065"><ele>957.0000000000001</ele><time>2026-05-03T08:08:12.961Z</time></trkpt><trkpt lat="40.0939422" lon="9.4549709"><ele>957.0</ele><time>2026-05-03T08:08:13.962Z</time></trkpt><trkpt lat="40.0938734" lon="9.4549409"><ele>957.0</ele><time>2026-05-03T08:08:14.962Z</time></trkpt><trkpt lat="40.0938004" lon="9.4549129"><ele>957.0000000000001</ele><time>2026-05-03T08:08:15.961Z</time></trkpt><trkpt lat="40.0937237" lon="9.4548913"><ele>957.0</ele><time>2026-05-03T08:08:16.961Z</time></trkpt><trkpt lat="40.0936472" lon="9.4548706"><ele>957.0</ele><time>2026-05-03T08:08:17.962Z</time></trkpt><trkpt lat="40.0935703" lon="9.4548477"><ele>957.0</ele><time>2026-05-03T08:08:18.962Z</time></trkpt><trkpt lat="40.0934933" lon="9.4548246"><ele>957.0</ele><time>2026-05-03T08:08:19.961Z</time></trkpt><trkpt lat="40.0934235" lon="9.454798"><ele>957.0</ele><time>2026-05-03T08:08:20.962Z</time></trkpt><trkpt lat="40.0933587" lon="9.4547724"><ele>957.0</ele><time>2026-05-03T08:08:21.962Z</time></trkpt><trkpt lat="40.0932496" lon="9.4547237"><ele>957.0</ele><time>2026-05-03T08:08:23.961Z</time></trkpt><trkpt lat="40.0931511" lon="9.4546686"><ele>957.0</ele><time>2026-05-03T08:08:25.962Z</time></trkpt><trkpt lat="40.0930565" lon="9.4546242"><ele>957.3333333333334</ele><time>2026-05-03T08:08:27.962Z</time></trkpt><trkpt lat="40.0929853" lon="9.4545995"><ele>957.6666666666667</ele><time>2026-05-03T08:08:29.961Z</time></trkpt><trkpt lat="40.0929074" lon="9.4545731"><ele>958.0</ele><time>2026-05-03T08:08:31.961Z</time></trkpt><trkpt lat="40.0928195" lon="9.4545444"><ele>958.3333333333334</ele><time>2026-05-03T08:08:33.961Z</time></trkpt><trkpt lat="40.0927322" lon="9.4545108"><ele>958.6666666666667</ele><time>2026-05-03T08:08:35.961Z</time></trkpt><trkpt lat="40.0926505" lon="9.4544873"><ele>959.0</ele><time>2026-05-03T08:08:37.962Z</time></trkpt><trkpt lat="40.0925666" lon="9.4544648"><ele>959.0</ele><time>2026-05-03T08:08:39.961Z</time></trkpt><trkpt lat="40.0924978" lon="9.4544468"><ele>959.0000000000001</ele><time>2026-05-03T08:08:41.962Z</time></trkpt><trkpt lat="40.0924121" lon="9.4544529"><ele>959.0000000000001</ele><time>2026-05-03T08:08:43.963Z</time></trkpt><trkpt lat="40.0923094" lon="9.4544286"><ele>959.0</ele><time>2026-05-03T08:08:45.963Z</time></trkpt><trkpt lat="40.092202" lon="9.4543908"><ele>959.0</ele><time>2026-05-03T08:08:47.962Z</time></trkpt><trkpt lat="40.0920771" lon="9.4543588"><ele>959.3333333333334</ele><time>2026-05-03T08:08:49.962Z</time></trkpt><trkpt lat="40.0919972" lon="9.4543442"><ele>959.6666666666667</ele><time>2026-05-03T08:08:50.962Z</time></trkpt><trkpt lat="40.0919087" lon="9.4543295"><ele>960.0</ele><time>2026-05-03T08:08:51.962Z</time></trkpt><trkpt lat="40.0918246" lon="9.4543165"><ele>960.3333333333333</ele><time>2026-05-03T08:08:52.961Z</time></trkpt><trkpt lat="40.0917548" lon="9.454309"><ele>960.6666666666666</ele><time>2026-05-03T08:08:53.962Z</time></trkpt><trkpt lat="40.0916786" lon="9.4543027"><ele>961.0</ele><time>2026-05-03T08:08:54.961Z</time></trkpt><trkpt lat="40.0915973" lon="9.4542942"><ele>961.1666666666666</ele><time>2026-05-03T08:08:55.961Z</time></trkpt><trkpt lat="40.0915242" lon="9.4542855"><ele>961.3333333333333</ele><time>2026-05-03T08:08:56.962Z</time></trkpt><trkpt lat="40.0914586" lon="9.4542778"><ele>961.5</ele><time>2026-05-03T08:08:57.961Z</time></trkpt><trkpt lat="40.0913924" lon="9.454269"><ele>961.6666666666667</ele><time>2026-05-03T08:08:58.962Z</time></trkpt><trkpt lat="40.0913236" lon="9.4542539"><ele>961.8333333333334</ele><time>2026-05-03T08:08:59.962Z</time></trkpt><trkpt lat="40.0912011" lon="9.4542272"><ele>962.0</ele><time>2026-05-03T08:09:01.962Z</time></trkpt><trkpt lat="40.0911352" lon="9.4542141"><ele>962.0000000000001</ele><time>2026-05-03T08:09:02.961Z</time></trkpt><trkpt lat="40.0910688" lon="9.4542016"><ele>962.0</ele><time>2026-05-03T08:09:03.962Z</time></trkpt><trkpt lat="40.0909992" lon="9.4541935"><ele>962.0</ele><time>2026-05-03T08:09:04.962Z</time></trkpt><trkpt lat="40.0909293" lon="9.4541875"><ele>962.0</ele><time>2026-05-03T08:09:05.962Z</time></trkpt><trkpt lat="40.090863" lon="9.4541784"><ele>962.0000000000001</ele><time>2026-05-03T08:09:06.962Z</time></trkpt><trkpt lat="40.0907977" lon="9.4541642"><ele>962.0</ele><time>2026-05-03T08:09:07.962Z</time></trkpt><trkpt lat="40.0906816" lon="9.4541289"><ele>962.4285714285713</ele><time>2026-05-03T08:09:09.962Z</time></trkpt><trkpt lat="40.0906193" lon="9.4541149"><ele>962.8571428571429</ele><time>2026-05-03T08:09:10.962Z</time></trkpt><trkpt lat="40.0905543" lon="9.4541064"><ele>963.2857142857142</ele><time>2026-05-03T08:09:11.962Z</time></trkpt><trkpt lat="40.0904874" lon="9.4541016"><ele>963.7142857142857</ele><time>2026-05-03T08:09:12.962Z</time></trkpt><trkpt lat="40.0904114" lon="9.4540998"><ele>964.1428571428571</ele><time>2026-05-03T08:09:13.961Z</time></trkpt><trkpt lat="40.0903307" lon="9.4540935"><ele>964.5714285714286</ele><time>2026-05-03T08:09:14.961Z</time></trkpt><trkpt lat="40.0902531" lon="9.4540862"><ele>965.0</ele><time>2026-05-03T08:09:15.961Z</time></trkpt><trkpt lat="40.0901798" lon="9.4540874"><ele>965.0</ele><time>2026-05-03T08:09:16.962Z</time></trkpt><trkpt lat="40.0901056" lon="9.4540953"><ele>965.0</ele><time>2026-05-03T08:09:17.961Z</time></trkpt><trkpt lat="40.0900277" lon="9.4541126"><ele>965.0</ele><time>2026-05-03T08:09:18.962Z</time></trkpt><trkpt lat="40.0899513" lon="9.4541306"><ele>965.0</ele><time>2026-05-03T08:09:19.962Z</time></trkpt><trkpt lat="40.0898759" lon="9.4541491"><ele>965.0</ele><time>2026-05-03T08:09:20.962Z</time></trkpt><trkpt lat="40.0898066" lon="9.4541663"><ele>965.0</ele><time>2026-05-03T08:09:21.962Z</time></trkpt><trkpt lat="40.0897406" lon="9.4541805"><ele>965.0</ele><time>2026-05-03T08:09:22.961Z</time></trkpt><trkpt lat="40.0896715" lon="9.4541959"><ele>965.1666666666667</ele><time>2026-05-03T08:09:23.961Z</time></trkpt><trkpt lat="40.0896083" lon="9.4542117"><ele>965.3333333333334</ele><time>2026-05-03T08:09:24.962Z</time></trkpt><trkpt lat="40.0894958" lon="9.454245"><ele>965.5</ele><time>2026-05-03T08:09:26.961Z</time></trkpt><trkpt lat="40.0894072" lon="9.4542728"><ele>965.6666666666667</ele><time>2026-05-03T08:09:28.962Z</time></trkpt><trkpt lat="40.0893171" lon="9.4543009"><ele>965.8333333333334</ele><time>2026-05-03T08:09:30.961Z</time></trkpt><trkpt lat="40.0892381" lon="9.4543326"><ele>966.0</ele><time>2026-05-03T08:09:32.961Z</time></trkpt><trkpt lat="40.0891699" lon="9.454377"><ele>966.0</ele><time>2026-05-03T08:09:34.962Z</time></trkpt><trkpt lat="40.089106" lon="9.4544337"><ele>966.0</ele><time>2026-05-03T08:09:36.961Z</time></trkpt><trkpt lat="40.0890529" lon="9.4544911"><ele>966.0</ele><time>2026-05-03T08:09:39.962Z</time></trkpt><trkpt lat="40.0889881" lon="9.4545266"><ele>966.0</ele><time>2026-05-03T08:09:42.962Z</time></trkpt><trkpt lat="40.0889097" lon="9.4545556"><ele>966.0</ele><time>2026-05-03T08:09:45.961Z</time></trkpt><trkpt lat="40.0888217" lon="9.454572"><ele>966.0</ele><time>2026-05-03T08:09:48.962Z</time></trkpt><trkpt lat="40.0887409" lon="9.4545736"><ele>966.1999999999999</ele><time>2026-05-03T08:09:52.962Z</time></trkpt><trkpt lat="40.0886386" lon="9.4545748"><ele>966.3999999999999</ele><time>2026-05-03T08:09:55.962Z</time></trkpt><trkpt lat="40.0885484" lon="9.4545469"><ele>966.6</ele><time>2026-05-03T08:09:57.962Z</time></trkpt><trkpt lat="40.0884473" lon="9.4545098"><ele>966.8</ele><time>2026-05-03T08:09:59.961Z</time></trkpt><trkpt lat="40.088347" lon="9.4544618"><ele>967.0</ele><time>2026-05-03T08:10:01.961Z</time></trkpt><trkpt lat="40.0882516" lon="9.4543965"><ele>968.8333333333333</ele><time>2026-05-03T08:10:03.961Z</time></trkpt><trkpt lat="40.0881645" lon="9.4543279"><ele>970.6666666666666</ele><time>2026-05-03T08:10:05.962Z</time></trkpt><trkpt lat="40.0880945" lon="9.4542743"><ele>972.5</ele><time>2026-05-03T08:10:07.961Z</time></trkpt><trkpt lat="40.0880103" lon="9.4542466"><ele>974.3333333333333</ele><time>2026-05-03T08:10:09.961Z</time></trkpt><trkpt lat="40.0879213" lon="9.4542286"><ele>976.1666666666666</ele><time>2026-05-03T08:10:11.962Z</time></trkpt><trkpt lat="40.0878601" lon="9.4541922"><ele>978.0</ele><time>2026-05-03T08:10:13.963Z</time></trkpt><trkpt lat="40.0877736" lon="9.4541218"><ele>978.0</ele><time>2026-05-03T08:10:15.961Z</time></trkpt><trkpt lat="40.0877077" lon="9.4540698"><ele>978.0000000000001</ele><time>2026-05-03T08:10:16.962Z</time></trkpt><trkpt lat="40.0876483" lon="9.4540328"><ele>978.0</ele><time>2026-05-03T08:10:17.962Z</time></trkpt><trkpt lat="40.087589" lon="9.4539916"><ele>978.0</ele><time>2026-05-03T08:10:18.962Z</time></trkpt><trkpt lat="40.0875335" lon="9.4539399"><ele>978.0000000000001</ele><time>2026-05-03T08:10:19.963Z</time></trkpt><trkpt lat="40.0874774" lon="9.4538861"><ele>978.0</ele><time>2026-05-03T08:10:20.961Z</time></trkpt><trkpt lat="40.0874261" lon="9.4538344"><ele>978.0</ele><time>2026-05-03T08:10:21.962Z</time></trkpt><trkpt lat="40.0873685" lon="9.4537748"><ele>977.6666666666666</ele><time>2026-05-03T08:10:22.961Z</time></trkpt><trkpt lat="40.0873126" lon="9.4537102"><ele>977.3333333333333</ele><time>2026-05-03T08:10:23.962Z</time></trkpt><trkpt lat="40.0872633" lon="9.4536437"><ele>977.0</ele><time>2026-05-03T08:10:24.962Z</time></trkpt><trkpt lat="40.0872082" lon="9.4535796"><ele>976.6666666666666</ele><time>2026-05-03T08:10:25.961Z</time></trkpt><trkpt lat="40.0871562" lon="9.4535201"><ele>976.3333333333333</ele><time>2026-05-03T08:10:26.961Z</time></trkpt><trkpt lat="40.0870662" lon="9.453415"><ele>976.0</ele><time>2026-05-03T08:10:28.961Z</time></trkpt><trkpt lat="40.0869667" lon="9.4533231"><ele>975.9999999999999</ele><time>2026-05-03T08:10:30.962Z</time></trkpt><trkpt lat="40.086846" lon="9.4532584"><ele>976.0</ele><time>2026-05-03T08:10:32.961Z</time></trkpt><trkpt lat="40.0867784" lon="9.453227"><ele>976.0</ele><time>2026-05-03T08:10:33.962Z</time></trkpt><trkpt lat="40.0867068" lon="9.4531879"><ele>976.0</ele><time>2026-05-03T08:10:34.962Z</time></trkpt><trkpt lat="40.0866369" lon="9.4531361"><ele>975.9999999999999</ele><time>2026-05-03T08:10:35.961Z</time></trkpt><trkpt lat="40.0865714" lon="9.4530876"><ele>976.0</ele><time>2026-05-03T08:10:36.961Z</time></trkpt><trkpt lat="40.0865113" lon="9.4530479"><ele>975.3333333333333</ele><time>2026-05-03T08:10:37.961Z</time></trkpt><trkpt lat="40.0864202" lon="9.4529796"><ele>974.6666666666666</ele><time>2026-05-03T08:10:39.962Z</time></trkpt><trkpt lat="40.0863493" lon="9.4529028"><ele>974.0</ele><time>2026-05-03T08:10:41.961Z</time></trkpt><trkpt lat="40.0862908" lon="9.4528306"><ele>973.3333333333333</ele><time>2026-05-03T08:10:43.961Z</time></trkpt><trkpt lat="40.086231" lon="9.4527799"><ele>972.6666666666666</ele><time>2026-05-03T08:10:45.962Z</time></trkpt><trkpt lat="40.0861478" lon="9.4527426"><ele>972.0</ele><time>2026-05-03T08:10:47.961Z</time></trkpt><trkpt lat="40.0860542" lon="9.4527193"><ele>972.0</ele><time>2026-05-03T08:10:49.962Z</time></trkpt><trkpt lat="40.085946" lon="9.4527145"><ele>972.0</ele><time>2026-05-03T08:10:51.961Z</time></trkpt><trkpt lat="40.0858339" lon="9.4527221"><ele>972.0</ele><time>2026-05-03T08:10:53.962Z</time></trkpt><trkpt lat="40.0857285" lon="9.4527193"><ele>972.0</ele><time>2026-05-03T08:10:55.962Z</time></trkpt><trkpt lat="40.0856247" lon="9.452722"><ele>972.0</ele><time>2026-05-03T08:10:57.962Z</time></trkpt><trkpt lat="40.085538" lon="9.4527321"><ele>972.1428571428571</ele><time>2026-05-03T08:10:59.961Z</time></trkpt><trkpt lat="40.0854633" lon="9.452751"><ele>972.2857142857143</ele><time>2026-05-03T08:11:01.962Z</time></trkpt><trkpt lat="40.085382" lon="9.4527713"><ele>972.4285714285714</ele><time>2026-05-03T08:11:03.961Z</time></trkpt><trkpt lat="40.0853172" lon="9.4527748"><ele>972.5714285714286</ele><time>2026-05-03T08:11:05.962Z</time></trkpt><trkpt lat="40.085247" lon="9.452752"><ele>972.7142857142858</ele><time>2026-05-03T08:11:08.962Z</time></trkpt><trkpt lat="40.0851886" lon="9.4526777"><ele>972.8571428571429</ele><time>2026-05-03T08:11:11.962Z</time></trkpt><trkpt lat="40.0851522" lon="9.4526082"><ele>973.0</ele><time>2026-05-03T08:11:13.961Z</time></trkpt><trkpt lat="40.0851187" lon="9.4525342"><ele>973.0</ele><time>2026-05-03T08:11:15.962Z</time></trkpt><trkpt lat="40.085074" lon="9.4524683"><ele>973.0</ele><time>2026-05-03T08:11:17.962Z</time></trkpt><trkpt lat="40.0850022" lon="9.4524534"><ele>973.0</ele><time>2026-05-03T08:11:19.961Z</time></trkpt><trkpt lat="40.0849137" lon="9.4524902"><ele>973.0</ele><time>2026-05-03T08:11:21.962Z</time></trkpt><trkpt lat="40.0848023" lon="9.4524943"><ele>973.0</ele><time>2026-05-03T08:11:23.962Z</time></trkpt><trkpt lat="40.084693" lon="9.4525114"><ele>974.75</ele><time>2026-05-03T08:11:25.962Z</time></trkpt><trkpt lat="40.0845779" lon="9.4525174"><ele>976.5</ele><time>2026-05-03T08:11:27.961Z</time></trkpt><trkpt lat="40.0844688" lon="9.4525094"><ele>978.25</ele><time>2026-05-03T08:11:29.961Z</time></trkpt><trkpt lat="40.0843484" lon="9.4525136"><ele>980.0</ele><time>2026-05-03T08:11:31.961Z</time></trkpt><trkpt lat="40.0842368" lon="9.4525359"><ele>980.0000000000001</ele><time>2026-05-03T08:11:33.962Z</time></trkpt><trkpt lat="40.0841331" lon="9.4525995"><ele>980.0</ele><time>2026-05-03T08:11:35.961Z</time></trkpt><trkpt lat="40.0840764" lon="9.4526379"><ele>980.0</ele><time>2026-05-03T08:11:36.961Z</time></trkpt><trkpt lat="40.0840128" lon="9.4526674"><ele>980.0</ele><time>2026-05-03T08:11:37.963Z</time></trkpt><trkpt lat="40.0839491" lon="9.4526979"><ele>980.0000000000001</ele><time>2026-05-03T08:11:38.961Z</time></trkpt><trkpt lat="40.0838259" lon="9.452726"><ele>980.0</ele><time>2026-05-03T08:11:40.961Z</time></trkpt><trkpt lat="40.0837235" lon="9.4527251"><ele>980.2</ele><time>2026-05-03T08:11:42.961Z</time></trkpt><trkpt lat="40.0836201" lon="9.4527109"><ele>980.4</ele><time>2026-05-03T08:11:44.961Z</time></trkpt><trkpt lat="40.0835357" lon="9.4526966"><ele>980.5999999999999</ele><time>2026-05-03T08:11:46.961Z</time></trkpt><trkpt lat="40.0834463" lon="9.4526843"><ele>980.8</ele><time>2026-05-03T08:11:48.962Z</time></trkpt><trkpt lat="40.0833511" lon="9.4526765"><ele>981.0</ele><time>2026-05-03T08:11:50.961Z</time></trkpt><trkpt lat="40.0832554" lon="9.4526316"><ele>980.5999999999999</ele><time>2026-05-03T08:11:52.961Z</time></trkpt><trkpt lat="40.0831436" lon="9.4525608"><ele>980.1999999999999</ele><time>2026-05-03T08:11:54.962Z</time></trkpt><trkpt lat="40.0830858" lon="9.4525246"><ele>979.8000000000001</ele><time>2026-05-03T08:11:55.963Z</time></trkpt><trkpt lat="40.0829697" lon="9.4524545"><ele>979.4000000000001</ele><time>2026-05-03T08:11:57.962Z</time></trkpt><trkpt lat="40.0828956" lon="9.4524128"><ele>979.0</ele><time>2026-05-03T08:11:58.962Z</time></trkpt><trkpt lat="40.0828222" lon="9.4523699"><ele>978.9999999999999</ele><time>2026-05-03T08:11:59.961Z</time></trkpt><trkpt lat="40.0827621" lon="9.4523329"><ele>979.0</ele><time>2026-05-03T08:12:00.962Z</time></trkpt><trkpt lat="40.0826518" lon="9.4522816"><ele>979.0</ele><time>2026-05-03T08:12:02.961Z</time></trkpt><trkpt lat="40.0825697" lon="9.4522233"><ele>979.0</ele><time>2026-05-03T08:12:04.961Z</time></trkpt><trkpt lat="40.0825062" lon="9.4521854"><ele>978.9999999999999</ele><time>2026-05-03T08:12:07.961Z</time></trkpt><trkpt lat="40.082436" lon="9.4521353"><ele>979.0</ele><time>2026-05-03T08:13:40.961Z</time></trkpt><trkpt lat="40.0823826" lon="9.4520796"><ele>979.8000000000001</ele><time>2026-05-03T08:14:41.962Z</time></trkpt><trkpt lat="40.0822788" lon="9.4519749"><ele>980.6000000000001</ele><time>2026-05-03T08:14:43.963Z</time></trkpt><trkpt lat="40.0822158" lon="9.4519223"><ele>981.4</ele><time>2026-05-03T08:14:44.962Z</time></trkpt><trkpt lat="40.0821413" lon="9.4518638"><ele>982.2</ele><time>2026-05-03T08:14:45.961Z</time></trkpt><trkpt lat="40.0820681" lon="9.451802"><ele>983.0</ele><time>2026-05-03T08:14:46.961Z</time></trkpt><trkpt lat="40.0820095" lon="9.4517512"><ele>983.0000000000001</ele><time>2026-05-03T08:14:47.961Z</time></trkpt><trkpt lat="40.0819571" lon="9.4517018"><ele>983.0</ele><time>2026-05-03T08:14:48.962Z</time></trkpt><trkpt lat="40.081905" lon="9.4516392"><ele>983.0</ele><time>2026-05-03T08:14:49.962Z</time></trkpt><trkpt lat="40.0818156" lon="9.451539"><ele>983.0</ele><time>2026-05-03T08:14:51.962Z</time></trkpt><trkpt lat="40.0817401" lon="9.4514776"><ele>983.0000000000001</ele><time>2026-05-03T08:14:53.961Z</time></trkpt><trkpt lat="40.0816771" lon="9.4514524"><ele>983.0</ele><time>2026-05-03T08:14:55.962Z</time></trkpt><trkpt lat="40.0816105" lon="9.4514663"><ele>983.6666666666667</ele><time>2026-05-03T08:15:26.961Z</time></trkpt><trkpt lat="40.0815279" lon="9.4514497"><ele>984.3333333333334</ele><time>2026-05-03T08:15:47.961Z</time></trkpt><trkpt lat="40.0814507" lon="9.451449"><ele>985.0</ele><time>2026-05-03T08:15:49.962Z</time></trkpt><trkpt lat="40.0813541" lon="9.4514676"><ele>985.6666666666667</ele><time>2026-05-03T08:15:51.961Z</time></trkpt><trkpt lat="40.0812391" lon="9.4515059"><ele>986.3333333333334</ele><time>2026-05-03T08:15:53.961Z</time></trkpt><trkpt lat="40.0811699" lon="9.4515215"><ele>987.0</ele><time>2026-05-03T08:15:54.962Z</time></trkpt><trkpt lat="40.0810609" lon="9.4515562"><ele>987.0</ele><time>2026-05-03T08:15:56.962Z</time></trkpt><trkpt lat="40.0810052" lon="9.4515979"><ele>987.0</ele><time>2026-05-03T08:15:57.961Z</time></trkpt><trkpt lat="40.0809526" lon="9.4516533"><ele>987.0</ele><time>2026-05-03T08:15:58.962Z</time></trkpt><trkpt lat="40.0808903" lon="9.4517227"><ele>987.0</ele><time>2026-05-03T08:15:59.962Z</time></trkpt><trkpt lat="40.0808276" lon="9.4517909"><ele>987.0</ele><time>2026-05-03T08:16:00.961Z</time></trkpt><trkpt lat="40.080781" lon="9.4518625"><ele>987.0</ele><time>2026-05-03T08:16:01.962Z</time></trkpt><trkpt lat="40.0807407" lon="9.451941"><ele>987.0</ele><time>2026-05-03T08:16:02.961Z</time></trkpt><trkpt lat="40.0807027" lon="9.4520342"><ele>988.0</ele><time>2026-05-03T08:16:03.961Z</time></trkpt><trkpt lat="40.0806636" lon="9.4521285"><ele>989.0</ele><time>2026-05-03T08:16:04.962Z</time></trkpt><trkpt lat="40.0806217" lon="9.4522218"><ele>990.0</ele><time>2026-05-03T08:16:05.962Z</time></trkpt><trkpt lat="40.0805751" lon="9.4523161"><ele>991.0</ele><time>2026-05-03T08:16:06.961Z</time></trkpt><trkpt lat="40.0805262" lon="9.4524136"><ele>992.0</ele><time>2026-05-03T08:16:07.961Z</time></trkpt><trkpt lat="40.0804863" lon="9.4525157"><ele>993.0</ele><time>2026-05-03T08:16:08.962Z</time></trkpt><trkpt lat="40.0804521" lon="9.4526147"><ele>993.0</ele><time>2026-05-03T08:16:09.962Z</time></trkpt><trkpt lat="40.0804171" lon="9.4527127"><ele>993.0</ele><time>2026-05-03T08:16:10.962Z</time></trkpt><trkpt lat="40.0803811" lon="9.4528077"><ele>993.0</ele><time>2026-05-03T08:16:11.961Z</time></trkpt><trkpt lat="40.0803342" lon="9.4529012"><ele>993.0</ele><time>2026-05-03T08:16:12.961Z</time></trkpt><trkpt lat="40.0802795" lon="9.4529822"><ele>993.0</ele><time>2026-05-03T08:16:13.962Z</time></trkpt><trkpt lat="40.0802169" lon="9.4530569"><ele>993.0</ele><time>2026-05-03T08:16:14.962Z</time></trkpt><trkpt lat="40.080142" lon="9.4531255"><ele>993.4</ele><time>2026-05-03T08:16:15.961Z</time></trkpt><trkpt lat="40.0800597" lon="9.453187"><ele>993.8</ele><time>2026-05-03T08:16:16.961Z</time></trkpt><trkpt lat="40.0799699" lon="9.4532401"><ele>994.2</ele><time>2026-05-03T08:16:17.962Z</time></trkpt><trkpt lat="40.0798916" lon="9.453287"><ele>994.6</ele><time>2026-05-03T08:16:18.962Z</time></trkpt><trkpt lat="40.0798129" lon="9.4533296"><ele>995.0</ele><time>2026-05-03T08:16:19.962Z</time></trkpt><trkpt lat="40.0797347" lon="9.4533732"><ele>995.0</ele><time>2026-05-03T08:16:20.962Z</time></trkpt><trkpt lat="40.0796592" lon="9.453412"><ele>995.0</ele><time>2026-05-03T08:16:21.962Z</time></trkpt><trkpt lat="40.0795821" lon="9.4534369"><ele>995.0</ele><time>2026-05-03T08:16:22.961Z</time></trkpt><trkpt lat="40.079497" lon="9.4534508"><ele>995.0</ele><time>2026-05-03T08:16:23.961Z</time></trkpt><trkpt lat="40.079398" lon="9.4534561"><ele>995.0</ele><time>2026-05-03T08:16:24.961Z</time></trkpt><trkpt lat="40.0792938" lon="9.4534545"><ele>995.0</ele><time>2026-05-03T08:16:25.962Z</time></trkpt><trkpt lat="40.0791953" lon="9.4534603"><ele>995.0</ele><time>2026-05-03T08:16:26.962Z</time></trkpt><trkpt lat="40.0791004" lon="9.4534728"><ele>995.0</ele><time>2026-05-03T08:16:27.962Z</time></trkpt><trkpt lat="40.079001" lon="9.4534918"><ele>995.0</ele><time>2026-05-03T08:16:28.961Z</time></trkpt><trkpt lat="40.0788978" lon="9.4535204"><ele>995.0</ele><time>2026-05-03T08:16:29.962Z</time></trkpt><trkpt lat="40.0787813" lon="9.4535576"><ele>995.2</ele><time>2026-05-03T08:16:30.962Z</time></trkpt><trkpt lat="40.0786705" lon="9.4536003"><ele>995.4</ele><time>2026-05-03T08:16:31.961Z</time></trkpt><trkpt lat="40.0785697" lon="9.4536406"><ele>995.5999999999999</ele><time>2026-05-03T08:16:32.961Z</time></trkpt><trkpt lat="40.0784755" lon="9.453675"><ele>995.8</ele><time>2026-05-03T08:16:33.961Z</time></trkpt><trkpt lat="40.0783827" lon="9.4537112"><ele>996.0</ele><time>2026-05-03T08:16:34.962Z</time></trkpt><trkpt lat="40.0782975" lon="9.4537469"><ele>995.8333333333334</ele><time>2026-05-03T08:16:35.962Z</time></trkpt><trkpt lat="40.0782121" lon="9.4537823"><ele>995.6666666666667</ele><time>2026-05-03T08:16:36.961Z</time></trkpt><trkpt lat="40.0781282" lon="9.4538177"><ele>995.5</ele><time>2026-05-03T08:16:37.962Z</time></trkpt><trkpt lat="40.0780465" lon="9.4538513"><ele>995.3333333333334</ele><time>2026-05-03T08:16:38.962Z</time></trkpt><trkpt lat="40.0779745" lon="9.4538883"><ele>995.1666666666667</ele><time>2026-05-03T08:16:39.962Z</time></trkpt><trkpt lat="40.0779036" lon="9.4539301"><ele>995.0</ele><time>2026-05-03T08:16:40.961Z</time></trkpt><trkpt lat="40.0778316" lon="9.4539741"><ele>995.0000000000001</ele><time>2026-05-03T08:16:41.961Z</time></trkpt><trkpt lat="40.0777532" lon="9.4540111"><ele>995.0</ele><time>2026-05-03T08:16:42.961Z</time></trkpt><trkpt lat="40.0776739" lon="9.4540394"><ele>995.0</ele><time>2026-05-03T08:16:43.961Z</time></trkpt><trkpt lat="40.0775989" lon="9.454057"><ele>995.0</ele><time>2026-05-03T08:16:44.962Z</time></trkpt><trkpt lat="40.077527" lon="9.4540691"><ele>995.0000000000001</ele><time>2026-05-03T08:16:45.961Z</time></trkpt><trkpt lat="40.0774031" lon="9.4541038"><ele>995.0</ele><time>2026-05-03T08:16:47.961Z</time></trkpt><trkpt lat="40.0773377" lon="9.4541384"><ele>995.0000000000001</ele><time>2026-05-03T08:16:48.961Z</time></trkpt><trkpt lat="40.0772701" lon="9.4541815"><ele>995.0</ele><time>2026-05-03T08:16:49.961Z</time></trkpt><trkpt lat="40.0772049" lon="9.4542263"><ele>995.0</ele><time>2026-05-03T08:16:50.963Z</time></trkpt><trkpt lat="40.0771426" lon="9.4542523"><ele>995.0</ele><time>2026-05-03T08:16:51.961Z</time></trkpt><trkpt lat="40.0770708" lon="9.4542669"><ele>995.0000000000001</ele><time>2026-05-03T08:16:52.962Z</time></trkpt><trkpt lat="40.0769904" lon="9.4542772"><ele>995.0</ele><time>2026-05-03T08:16:53.961Z</time></trkpt><trkpt lat="40.0769067" lon="9.4542792"><ele>995.0000000000001</ele><time>2026-05-03T08:16:54.962Z</time></trkpt><trkpt lat="40.0768322" lon="9.4542804"><ele>995.0</ele><time>2026-05-03T08:16:55.962Z</time></trkpt><trkpt lat="40.0767519" lon="9.454289"><ele>995.0</ele><time>2026-05-03T08:16:56.962Z</time></trkpt><trkpt lat="40.076678" lon="9.4543069"><ele>995.0</ele><time>2026-05-03T08:16:57.961Z</time></trkpt><trkpt lat="40.0765956" lon="9.4543372"><ele>995.0000000000001</ele><time>2026-05-03T08:16:58.962Z</time></trkpt><trkpt lat="40.0765104" lon="9.4543681"><ele>995.0</ele><time>2026-05-03T08:16:59.962Z</time></trkpt><trkpt lat="40.0764312" lon="9.4544025"><ele>995.5000000000001</ele><time>2026-05-03T08:17:00.961Z</time></trkpt><trkpt lat="40.0763563" lon="9.4544503"><ele>996.0</ele><time>2026-05-03T08:17:01.962Z</time></trkpt><trkpt lat="40.0762885" lon="9.4545068"><ele>996.5</ele><time>2026-05-03T08:17:02.962Z</time></trkpt><trkpt lat="40.0762157" lon="9.454571"><ele>997.0</ele><time>2026-05-03T08:17:03.961Z</time></trkpt><trkpt lat="40.0761446" lon="9.4546314"><ele>997.5000000000001</ele><time>2026-05-03T08:17:04.961Z</time></trkpt><trkpt lat="40.0760794" lon="9.4546951"><ele>998.0</ele><time>2026-05-03T08:17:05.961Z</time></trkpt><trkpt lat="40.0760216" lon="9.4547533"><ele>998.0000000000001</ele><time>2026-05-03T08:17:06.962Z</time></trkpt><trkpt lat="40.0759713" lon="9.4548065"><ele>998.0</ele><time>2026-05-03T08:17:07.961Z</time></trkpt><trkpt lat="40.0759162" lon="9.4548585"><ele>998.0</ele><time>2026-05-03T08:17:08.962Z</time></trkpt><trkpt lat="40.0758585" lon="9.4549164"><ele>998.0</ele><time>2026-05-03T08:17:09.961Z</time></trkpt><trkpt lat="40.0758082" lon="9.4549745"><ele>998.0000000000001</ele><time>2026-05-03T08:17:10.961Z</time></trkpt><trkpt lat="40.0757626" lon="9.4550313"><ele>998.0</ele><time>2026-05-03T08:17:11.962Z</time></trkpt><trkpt lat="40.0756826" lon="9.4551457"><ele>998.6666666666667</ele><time>2026-05-03T08:17:13.962Z</time></trkpt><trkpt lat="40.0755954" lon="9.4552512"><ele>999.3333333333334</ele><time>2026-05-03T08:17:15.962Z</time></trkpt><trkpt lat="40.0755384" lon="9.4553085"><ele>1000.0</ele><time>2026-05-03T08:17:16.961Z</time></trkpt><trkpt lat="40.0754732" lon="9.4553609"><ele>1000.6666666666667</ele><time>2026-05-03T08:17:17.962Z</time></trkpt><trkpt lat="40.0754017" lon="9.45541"><ele>1001.3333333333334</ele><time>2026-05-03T08:17:18.961Z</time></trkpt><trkpt lat="40.0753375" lon="9.4554542"><ele>1002.0</ele><time>2026-05-03T08:17:19.962Z</time></trkpt><trkpt lat="40.0752786" lon="9.4554946"><ele>1002.7142857142858</ele><time>2026-05-03T08:17:20.963Z</time></trkpt><trkpt lat="40.075219" lon="9.4555362"><ele>1003.4285714285713</ele><time>2026-05-03T08:17:21.962Z</time></trkpt><trkpt lat="40.0751577" lon="9.4555742"><ele>1004.1428571428571</ele><time>2026-05-03T08:17:22.962Z</time></trkpt><trkpt lat="40.0751009" lon="9.4556138"><ele>1004.8571428571429</ele><time>2026-05-03T08:17:23.962Z</time></trkpt><trkpt lat="40.0750331" lon="9.4556636"><ele>1005.5714285714287</ele><time>2026-05-03T08:17:24.961Z</time></trkpt><trkpt lat="40.0749602" lon="9.4557061"><ele>1006.2857142857142</ele><time>2026-05-03T08:17:25.961Z</time></trkpt><trkpt lat="40.0748834" lon="9.4557404"><ele>1007.0</ele><time>2026-05-03T08:17:26.962Z</time></trkpt><trkpt lat="40.0748103" lon="9.455763"><ele>1007.0000000000001</ele><time>2026-05-03T08:17:27.962Z</time></trkpt><trkpt lat="40.0747274" lon="9.4557944"><ele>1007.0</ele><time>2026-05-03T08:17:28.962Z</time></trkpt><trkpt lat="40.0746469" lon="9.4558308"><ele>1007.0</ele><time>2026-05-03T08:17:29.961Z</time></trkpt><trkpt lat="40.074576" lon="9.4558753"><ele>1007.0</ele><time>2026-05-03T08:17:30.961Z</time></trkpt><trkpt lat="40.0745124" lon="9.4559258"><ele>1007.0000000000001</ele><time>2026-05-03T08:17:31.961Z</time></trkpt><trkpt lat="40.0744555" lon="9.4559748"><ele>1007.0</ele><time>2026-05-03T08:17:32.962Z</time></trkpt><trkpt lat="40.0743991" lon="9.4560173"><ele>1007.0000000000001</ele><time>2026-05-03T08:17:33.962Z</time></trkpt><trkpt lat="40.0743413" lon="9.4560553"><ele>1007.0</ele><time>2026-05-03T08:17:34.962Z</time></trkpt><trkpt lat="40.0742529" lon="9.4561279"><ele>1007.0</ele><time>2026-05-03T08:17:36.961Z</time></trkpt><trkpt lat="40.0741804" lon="9.4562498"><ele>1007.0</ele><time>2026-05-03T08:17:38.962Z</time></trkpt><trkpt lat="40.0741429" lon="9.4563256"><ele>1007.0000000000001</ele><time>2026-05-03T08:17:39.962Z</time></trkpt><trkpt lat="40.0741025" lon="9.456396"><ele>1007.0</ele><time>2026-05-03T08:17:40.961Z</time></trkpt><trkpt lat="40.0740603" lon="9.4564618"><ele>1008.5000000000001</ele><time>2026-05-03T08:17:41.962Z</time></trkpt><trkpt lat="40.0740045" lon="9.4565337"><ele>1010.0</ele><time>2026-05-03T08:17:42.961Z</time></trkpt><trkpt lat="40.073942" lon="9.456601"><ele>1011.5</ele><time>2026-05-03T08:17:43.962Z</time></trkpt><trkpt lat="40.0738821" lon="9.4566635"><ele>1013.0</ele><time>2026-05-03T08:17:44.961Z</time></trkpt><trkpt lat="40.0738242" lon="9.4567215"><ele>1014.5000000000001</ele><time>2026-05-03T08:17:45.962Z</time></trkpt><trkpt lat="40.0737712" lon="9.4567864"><ele>1016.0</ele><time>2026-05-03T08:17:46.962Z</time></trkpt><trkpt lat="40.0737198" lon="9.4568644"><ele>1016.0000000000001</ele><time>2026-05-03T08:17:47.961Z</time></trkpt><trkpt lat="40.0736654" lon="9.4569421"><ele>1016.0</ele><time>2026-05-03T08:17:48.961Z</time></trkpt><trkpt lat="40.0736072" lon="9.4570185"><ele>1016.0</ele><time>2026-05-03T08:17:49.962Z</time></trkpt><trkpt lat="40.073544" lon="9.4570924"><ele>1016.0</ele><time>2026-05-03T08:17:50.961Z</time></trkpt><trkpt lat="40.0734832" lon="9.4571588"><ele>1016.0000000000001</ele><time>2026-05-03T08:17:51.962Z</time></trkpt><trkpt lat="40.0734223" lon="9.4572097"><ele>1016.0</ele><time>2026-05-03T08:17:52.961Z</time></trkpt><trkpt lat="40.0733556" lon="9.457254"><ele>1016.6666666666667</ele><time>2026-05-03T08:17:53.963Z</time></trkpt><trkpt lat="40.0732838" lon="9.4572909"><ele>1017.3333333333334</ele><time>2026-05-03T08:17:54.962Z</time></trkpt><trkpt lat="40.0732064" lon="9.4573224"><ele>1018.0</ele><time>2026-05-03T08:17:55.962Z</time></trkpt><trkpt lat="40.0731263" lon="9.4573491"><ele>1018.6666666666667</ele><time>2026-05-03T08:17:56.962Z</time></trkpt><trkpt lat="40.0730453" lon="9.4573699"><ele>1019.3333333333334</ele><time>2026-05-03T08:17:57.961Z</time></trkpt><trkpt lat="40.0729595" lon="9.4573899"><ele>1020.0</ele><time>2026-05-03T08:17:58.962Z</time></trkpt><trkpt lat="40.0728618" lon="9.457414"><ele>1020.0</ele><time>2026-05-03T08:17:59.961Z</time></trkpt><trkpt lat="40.0727658" lon="9.4574416"><ele>1020.0</ele><time>2026-05-03T08:18:00.962Z</time></trkpt><trkpt lat="40.0726836" lon="9.4574715"><ele>1020.0</ele><time>2026-05-03T08:18:01.961Z</time></trkpt><trkpt lat="40.0726062" lon="9.4575062"><ele>1020.0</ele><time>2026-05-03T08:18:02.961Z</time></trkpt><trkpt lat="40.0725321" lon="9.4575589"><ele>1020.0</ele><time>2026-05-03T08:18:03.963Z</time></trkpt><trkpt lat="40.0724651" lon="9.4576187"><ele>1020.0</ele><time>2026-05-03T08:18:04.962Z</time></trkpt><trkpt lat="40.0724095" lon="9.4576853"><ele>1021.5</ele><time>2026-05-03T08:18:05.962Z</time></trkpt><trkpt lat="40.0723638" lon="9.4577634"><ele>1023.0</ele><time>2026-05-03T08:18:06.961Z</time></trkpt><trkpt lat="40.0723311" lon="9.4578512"><ele>1024.5</ele><time>2026-05-03T08:18:07.963Z</time></trkpt><trkpt lat="40.0723051" lon="9.4579482"><ele>1026.0</ele><time>2026-05-03T08:18:08.962Z</time></trkpt><trkpt lat="40.0722851" lon="9.45806"><ele>1027.5</ele><time>2026-05-03T08:18:09.962Z</time></trkpt><trkpt lat="40.0722716" lon="9.4581702"><ele>1029.0</ele><time>2026-05-03T08:18:10.962Z</time></trkpt><trkpt lat="40.0722599" lon="9.4582572"><ele>1029.0</ele><time>2026-05-03T08:18:11.962Z</time></trkpt><trkpt lat="40.0722492" lon="9.4583502"><ele>1029.0</ele><time>2026-05-03T08:18:12.962Z</time></trkpt><trkpt lat="40.0722391" lon="9.4584472"><ele>1029.0</ele><time>2026-05-03T08:18:13.962Z</time></trkpt><trkpt lat="40.0722324" lon="9.4585461"><ele>1029.0</ele><time>2026-05-03T08:18:14.962Z</time></trkpt><trkpt lat="40.0722322" lon="9.4586354"><ele>1029.0</ele><time>2026-05-03T08:18:15.962Z</time></trkpt><trkpt lat="40.0722292" lon="9.4587304"><ele>1029.0</ele><time>2026-05-03T08:18:16.961Z</time></trkpt><trkpt lat="40.0722211" lon="9.4588155"><ele>1029.0</ele><time>2026-05-03T08:18:17.962Z</time></trkpt><trkpt lat="40.0721978" lon="9.4589553"><ele>1028.6666666666667</ele><time>2026-05-03T08:18:19.962Z</time></trkpt><trkpt lat="40.0721436" lon="9.4590545"><ele>1028.3333333333333</ele><time>2026-05-03T08:18:21.962Z</time></trkpt><trkpt lat="40.0720425" lon="9.459109"><ele>1028.0</ele><time>2026-05-03T08:18:23.962Z</time></trkpt><trkpt lat="40.0719328" lon="9.4591254"><ele>1027.6666666666665</ele><time>2026-05-03T08:18:25.962Z</time></trkpt><trkpt lat="40.0718676" lon="9.4591268"><ele>1027.3333333333333</ele><time>2026-05-03T08:18:26.961Z</time></trkpt><trkpt lat="40.0717995" lon="9.459127"><ele>1027.0</ele><time>2026-05-03T08:18:27.961Z</time></trkpt><trkpt lat="40.0717264" lon="9.4591291"><ele>1027.0</ele><time>2026-05-03T08:18:28.961Z</time></trkpt><trkpt lat="40.0716481" lon="9.459131"><ele>1027.0</ele><time>2026-05-03T08:18:29.961Z</time></trkpt><trkpt lat="40.0715564" lon="9.4591319"><ele>1027.0</ele><time>2026-05-03T08:18:30.961Z</time></trkpt><trkpt lat="40.0714539" lon="9.4591315"><ele>1027.0</ele><time>2026-05-03T08:18:31.961Z</time></trkpt><trkpt lat="40.0713716" lon="9.4591291"><ele>1027.0</ele><time>2026-05-03T08:18:32.961Z</time></trkpt><trkpt lat="40.0712962" lon="9.4591294"><ele>1027.0</ele><time>2026-05-03T08:18:33.961Z</time></trkpt><trkpt lat="40.0712302" lon="9.4591346"><ele>1027.3333333333333</ele><time>2026-05-03T08:18:34.961Z</time></trkpt><trkpt lat="40.0711569" lon="9.4591446"><ele>1027.6666666666665</ele><time>2026-05-03T08:18:35.961Z</time></trkpt><trkpt lat="40.0710798" lon="9.459163"><ele>1028.0</ele><time>2026-05-03T08:18:36.962Z</time></trkpt><trkpt lat="40.0709938" lon="9.4591896"><ele>1028.3333333333333</ele><time>2026-05-03T08:18:37.962Z</time></trkpt><trkpt lat="40.0709066" lon="9.4592083"><ele>1028.6666666666667</ele><time>2026-05-03T08:18:38.962Z</time></trkpt><trkpt lat="40.0708233" lon="9.4592277"><ele>1029.0</ele><time>2026-05-03T08:18:39.961Z</time></trkpt><trkpt lat="40.0707491" lon="9.4592485"><ele>1029.4285714285713</ele><time>2026-05-03T08:18:40.962Z</time></trkpt><trkpt lat="40.0706784" lon="9.4592748"><ele>1029.857142857143</ele><time>2026-05-03T08:18:41.961Z</time></trkpt><trkpt lat="40.0706076" lon="9.4593105"><ele>1030.2857142857142</ele><time>2026-05-03T08:18:42.962Z</time></trkpt><trkpt lat="40.0705377" lon="9.4593492"><ele>1030.7142857142858</ele><time>2026-05-03T08:18:43.962Z</time></trkpt><trkpt lat="40.070465" lon="9.4593898"><ele>1031.142857142857</ele><time>2026-05-03T08:18:44.961Z</time></trkpt><trkpt lat="40.0703977" lon="9.4594238"><ele>1031.5714285714284</ele><time>2026-05-03T08:18:45.962Z</time></trkpt><trkpt lat="40.0703344" lon="9.4594534"><ele>1032.0</ele><time>2026-05-03T08:18:46.962Z</time></trkpt><trkpt lat="40.0702739" lon="9.4594855"><ele>1032.0</ele><time>2026-05-03T08:18:47.961Z</time></trkpt><trkpt lat="40.0702131" lon="9.4595135"><ele>1032.0</ele><time>2026-05-03T08:18:48.961Z</time></trkpt><trkpt lat="40.0700941" lon="9.4595501"><ele>1032.0</ele><time>2026-05-03T08:18:50.962Z</time></trkpt><trkpt lat="40.0699738" lon="9.4595763"><ele>1032.0</ele><time>2026-05-03T08:18:52.961Z</time></trkpt><trkpt lat="40.0699069" lon="9.459593"><ele>1032.0</ele><time>2026-05-03T08:18:53.962Z</time></trkpt><trkpt lat="40.0698288" lon="9.4595999"><ele>1032.3333333333333</ele><time>2026-05-03T08:18:54.961Z</time></trkpt><trkpt lat="40.0697469" lon="9.4596065"><ele>1032.6666666666667</ele><time>2026-05-03T08:18:55.961Z</time></trkpt><trkpt lat="40.0696634" lon="9.4596089"><ele>1033.0</ele><time>2026-05-03T08:18:56.962Z</time></trkpt><trkpt lat="40.0695869" lon="9.4596016"><ele>1033.3333333333335</ele><time>2026-05-03T08:18:57.962Z</time></trkpt><trkpt lat="40.069509" lon="9.4596026"><ele>1033.6666666666667</ele><time>2026-05-03T08:18:58.962Z</time></trkpt><trkpt lat="40.0694301" lon="9.4596136"><ele>1034.0</ele><time>2026-05-03T08:18:59.962Z</time></trkpt><trkpt lat="40.0693519" lon="9.459628"><ele>1035.5</ele><time>2026-05-03T08:19:00.962Z</time></trkpt><trkpt lat="40.069272" lon="9.459644"><ele>1037.0</ele><time>2026-05-03T08:19:01.962Z</time></trkpt><trkpt lat="40.0691924" lon="9.4596557"><ele>1038.5</ele><time>2026-05-03T08:19:02.962Z</time></trkpt><trkpt lat="40.0691198" lon="9.4596604"><ele>1040.0</ele><time>2026-05-03T08:19:03.962Z</time></trkpt><trkpt lat="40.0690483" lon="9.4596536"><ele>1041.5</ele><time>2026-05-03T08:19:04.961Z</time></trkpt><trkpt lat="40.0689728" lon="9.4596399"><ele>1043.0</ele><time>2026-05-03T08:19:05.961Z</time></trkpt><trkpt lat="40.0688963" lon="9.459619"><ele>1042.5</ele><time>2026-05-03T08:19:06.961Z</time></trkpt><trkpt lat="40.0688214" lon="9.4595982"><ele>1042.0</ele><time>2026-05-03T08:19:07.963Z</time></trkpt><trkpt lat="40.0687443" lon="9.459584"><ele>1041.5</ele><time>2026-05-03T08:19:08.961Z</time></trkpt><trkpt lat="40.0686714" lon="9.4595823"><ele>1041.0</ele><time>2026-05-03T08:19:09.961Z</time></trkpt><trkpt lat="40.068598" lon="9.4595777"><ele>1040.5</ele><time>2026-05-03T08:19:10.962Z</time></trkpt><trkpt lat="40.0685203" lon="9.4595599"><ele>1040.0</ele><time>2026-05-03T08:19:11.961Z</time></trkpt><trkpt lat="40.0684312" lon="9.4595359"><ele>1040.0</ele><time>2026-05-03T08:19:12.961Z</time></trkpt><trkpt lat="40.068331" lon="9.4595144"><ele>1040.0</ele><time>2026-05-03T08:19:13.961Z</time></trkpt><trkpt lat="40.0682315" lon="9.4595045"><ele>1040.0</ele><time>2026-05-03T08:19:14.962Z</time></trkpt><trkpt lat="40.0681329" lon="9.4595031"><ele>1040.0</ele><time>2026-05-03T08:19:15.961Z</time></trkpt><trkpt lat="40.0680527" lon="9.4595089"><ele>1040.0</ele><time>2026-05-03T08:19:16.962Z</time></trkpt><trkpt lat="40.0679794" lon="9.4595178"><ele>1040.5</ele><time>2026-05-03T08:19:17.962Z</time></trkpt><trkpt lat="40.0679098" lon="9.45953"><ele>1041.0</ele><time>2026-05-03T08:19:18.962Z</time></trkpt><trkpt lat="40.067841" lon="9.4595457"><ele>1041.5</ele><time>2026-05-03T08:19:19.961Z</time></trkpt><trkpt lat="40.0677687" lon="9.4595591"><ele>1042.0</ele><time>2026-05-03T08:19:20.962Z</time></trkpt><trkpt lat="40.0677023" lon="9.4595652"><ele>1042.5</ele><time>2026-05-03T08:19:21.962Z</time></trkpt><trkpt lat="40.0676036" lon="9.4595418"><ele>1043.0</ele><time>2026-05-03T08:19:23.961Z</time></trkpt><trkpt lat="40.0675095" lon="9.4594618"><ele>1043.0</ele><time>2026-05-03T08:19:25.961Z</time></trkpt><trkpt lat="40.0674107" lon="9.4593989"><ele>1043.0</ele><time>2026-05-03T08:19:27.961Z</time></trkpt><trkpt lat="40.0673103" lon="9.459413"><ele>1043.0</ele><time>2026-05-03T08:19:29.962Z</time></trkpt><trkpt lat="40.067247" lon="9.4594439"><ele>1043.0</ele><time>2026-05-03T08:19:30.962Z</time></trkpt><trkpt lat="40.0671721" lon="9.4594757"><ele>1043.0</ele><time>2026-05-03T08:19:31.962Z</time></trkpt><trkpt lat="40.0671007" lon="9.4594927"><ele>1043.0</ele><time>2026-05-03T08:19:32.961Z</time></trkpt><trkpt lat="40.0670221" lon="9.459493"><ele>1043.0</ele><time>2026-05-03T08:19:33.961Z</time></trkpt><trkpt lat="40.066944" lon="9.4594863"><ele>1043.0</ele><time>2026-05-03T08:19:34.962Z</time></trkpt><trkpt lat="40.0668438" lon="9.4594859"><ele>1043.0</ele><time>2026-05-03T08:19:35.961Z</time></trkpt><trkpt lat="40.0667356" lon="9.4594876"><ele>1043.0</ele><time>2026-05-03T08:19:36.961Z</time></trkpt><trkpt lat="40.0666491" lon="9.4594901"><ele>1043.0</ele><time>2026-05-03T08:19:37.961Z</time></trkpt><trkpt lat="40.0665661" lon="9.4595015"><ele>1044.5</ele><time>2026-05-03T08:19:38.961Z</time></trkpt><trkpt lat="40.0664784" lon="9.4595197"><ele>1046.0</ele><time>2026-05-03T08:19:39.961Z</time></trkpt><trkpt lat="40.0663887" lon="9.459525"><ele>1047.5</ele><time>2026-05-03T08:19:40.962Z</time></trkpt><trkpt lat="40.0662918" lon="9.4595284"><ele>1049.0</ele><time>2026-05-03T08:19:41.962Z</time></trkpt><trkpt lat="40.066217" lon="9.4595357"><ele>1050.5</ele><time>2026-05-03T08:19:42.962Z</time></trkpt><trkpt lat="40.0661414" lon="9.4595527"><ele>1052.0</ele><time>2026-05-03T08:19:43.961Z</time></trkpt><trkpt lat="40.0660601" lon="9.4595622"><ele>1052.0</ele><time>2026-05-03T08:19:44.961Z</time></trkpt><trkpt lat="40.0659723" lon="9.4595566"><ele>1052.0</ele><time>2026-05-03T08:19:45.962Z</time></trkpt><trkpt lat="40.0658819" lon="9.459548"><ele>1052.0</ele><time>2026-05-03T08:19:46.961Z</time></trkpt><trkpt lat="40.0657893" lon="9.4595402"><ele>1052.0</ele><time>2026-05-03T08:19:47.962Z</time></trkpt><trkpt lat="40.0657039" lon="9.459531"><ele>1052.0</ele><time>2026-05-03T08:19:48.962Z</time></trkpt><trkpt lat="40.0656326" lon="9.4595171"><ele>1052.0</ele><time>2026-05-03T08:19:49.961Z</time></trkpt><trkpt lat="40.0655541" lon="9.4594963"><ele>1054.3333333333335</ele><time>2026-05-03T08:19:50.962Z</time></trkpt><trkpt lat="40.0654855" lon="9.4594672"><ele>1056.6666666666667</ele><time>2026-05-03T08:19:51.961Z</time></trkpt><trkpt lat="40.0654229" lon="9.4594422"><ele>1059.0</ele><time>2026-05-03T08:19:52.962Z</time></trkpt><trkpt lat="40.0653189" lon="9.45939"><ele>1061.3333333333333</ele><time>2026-05-03T08:19:54.962Z</time></trkpt><trkpt lat="40.065272" lon="9.459313"><ele>1063.6666666666665</ele><time>2026-05-03T08:19:56.962Z</time></trkpt><trkpt lat="40.065279" lon="9.4592033"><ele>1066.0</ele><time>2026-05-03T08:19:58.961Z</time></trkpt><trkpt lat="40.0653204" lon="9.4590875"><ele>1066.0</ele><time>2026-05-03T08:20:00.961Z</time></trkpt><trkpt lat="40.0653033" lon="9.4589905"><ele>1066.0</ele><time>2026-05-03T08:20:02.962Z</time></trkpt><trkpt lat="40.0652249" lon="9.4589039"><ele>1066.0</ele><time>2026-05-03T08:20:04.963Z</time></trkpt><trkpt lat="40.0651638" lon="9.458874"><ele>1066.0</ele><time>2026-05-03T08:20:05.962Z</time></trkpt><trkpt lat="40.0650895" lon="9.4588397"><ele>1066.0</ele><time>2026-05-03T08:20:06.962Z</time></trkpt><trkpt lat="40.0649949" lon="9.4587989"><ele>1066.0</ele><time>2026-05-03T08:20:07.963Z</time></trkpt><trkpt lat="40.0648901" lon="9.4587553"><ele>1065.8</ele><time>2026-05-03T08:20:08.961Z</time></trkpt><trkpt lat="40.0647864" lon="9.4587066"><ele>1065.6</ele><time>2026-05-03T08:20:09.962Z</time></trkpt><trkpt lat="40.0646763" lon="9.4586573"><ele>1065.4</ele><time>2026-05-03T08:20:10.961Z</time></trkpt><trkpt lat="40.0645716" lon="9.4586115"><ele>1065.2</ele><time>2026-05-03T08:20:11.961Z</time></trkpt><trkpt lat="40.0644746" lon="9.4585677"><ele>1065.0</ele><time>2026-05-03T08:20:12.962Z</time></trkpt><trkpt lat="40.0643816" lon="9.4585274"><ele>1065.0</ele><time>2026-05-03T08:20:13.961Z</time></trkpt><trkpt lat="40.0642969" lon="9.4584927"><ele>1065.0</ele><time>2026-05-03T08:20:14.962Z</time></trkpt><trkpt lat="40.0642069" lon="9.4584635"><ele>1065.0</ele><time>2026-05-03T08:20:15.962Z</time></trkpt><trkpt lat="40.0641255" lon="9.4584416"><ele>1065.0</ele><time>2026-05-03T08:20:16.961Z</time></trkpt><trkpt lat="40.064058" lon="9.4584256"><ele>1065.0</ele><time>2026-05-03T08:20:17.961Z</time></trkpt><trkpt lat="40.0639891" lon="9.4584233"><ele>1065.0</ele><time>2026-05-03T08:20:18.962Z</time></trkpt><trkpt lat="40.0639232" lon="9.4584424"><ele>1066.0</ele><time>2026-05-03T08:20:19.963Z</time></trkpt><trkpt lat="40.0638595" lon="9.4584769"><ele>1067.0</ele><time>2026-05-03T08:20:20.962Z</time></trkpt><trkpt lat="40.0637622" lon="9.4585564"><ele>1068.0</ele><time>2026-05-03T08:20:22.961Z</time></trkpt><trkpt lat="40.0636751" lon="9.4585749"><ele>1069.0</ele><time>2026-05-03T08:20:24.962Z</time></trkpt><trkpt lat="40.0635895" lon="9.4585272"><ele>1070.0</ele><time>2026-05-03T08:20:26.961Z</time></trkpt><trkpt lat="40.063483" lon="9.4584848"><ele>1070.0</ele><time>2026-05-03T08:20:28.962Z</time></trkpt><trkpt lat="40.063374" lon="9.4585062"><ele>1070.0</ele><time>2026-05-03T08:20:30.962Z</time></trkpt><trkpt lat="40.0633093" lon="9.4585283"><ele>1070.0</ele><time>2026-05-03T08:20:31.962Z</time></trkpt><trkpt lat="40.0632447" lon="9.4585321"><ele>1070.0</ele><time>2026-05-03T08:20:32.962Z</time></trkpt><trkpt lat="40.0631095" lon="9.4585323"><ele>1070.0</ele><time>2026-05-03T08:20:34.961Z</time></trkpt><trkpt lat="40.0630242" lon="9.4585435"><ele>1071.1666666666667</ele><time>2026-05-03T08:20:35.961Z</time></trkpt><trkpt lat="40.062949" lon="9.4585478"><ele>1072.3333333333335</ele><time>2026-05-03T08:20:36.961Z</time></trkpt><trkpt lat="40.0628703" lon="9.4585491"><ele>1073.5</ele><time>2026-05-03T08:20:37.961Z</time></trkpt><trkpt lat="40.0627984" lon="9.4585396"><ele>1074.6666666666667</ele><time>2026-05-03T08:20:38.961Z</time></trkpt><trkpt lat="40.0627252" lon="9.4585249"><ele>1075.8333333333333</ele><time>2026-05-03T08:20:39.961Z</time></trkpt><trkpt lat="40.062648" lon="9.4584973"><ele>1077.0</ele><time>2026-05-03T08:20:40.961Z</time></trkpt><trkpt lat="40.0625656" lon="9.4584615"><ele>1077.0</ele><time>2026-05-03T08:20:41.962Z</time></trkpt><trkpt lat="40.0624912" lon="9.4584326"><ele>1077.0</ele><time>2026-05-03T08:20:42.961Z</time></trkpt><trkpt lat="40.0624211" lon="9.4584108"><ele>1077.0</ele><time>2026-05-03T08:20:43.961Z</time></trkpt><trkpt lat="40.0623442" lon="9.4584025"><ele>1077.0</ele><time>2026-05-03T08:20:44.962Z</time></trkpt><trkpt lat="40.0622533" lon="9.4584058"><ele>1077.0</ele><time>2026-05-03T08:20:45.961Z</time></trkpt><trkpt lat="40.0621531" lon="9.4584189"><ele>1077.0</ele><time>2026-05-03T08:20:46.961Z</time></trkpt><trkpt lat="40.062056" lon="9.4584357"><ele>1078.5</ele><time>2026-05-03T08:20:47.961Z</time></trkpt><trkpt lat="40.0619743" lon="9.4584532"><ele>1080.0</ele><time>2026-05-03T08:20:48.962Z</time></trkpt><trkpt lat="40.0619055" lon="9.4584731"><ele>1081.5</ele><time>2026-05-03T08:20:49.961Z</time></trkpt><trkpt lat="40.0618418" lon="9.4585036"><ele>1083.0</ele><time>2026-05-03T08:20:50.961Z</time></trkpt><trkpt lat="40.0617853" lon="9.4585502"><ele>1084.5</ele><time>2026-05-03T08:20:51.963Z</time></trkpt><trkpt lat="40.0617066" lon="9.4586237"><ele>1086.0</ele><time>2026-05-03T08:20:53.961Z</time></trkpt><trkpt lat="40.0616266" lon="9.458643"><ele>1087.6666666666667</ele><time>2026-05-03T08:20:55.961Z</time></trkpt><trkpt lat="40.0615514" lon="9.4585882"><ele>1089.3333333333333</ele><time>2026-05-03T08:20:57.962Z</time></trkpt><trkpt lat="40.0614677" lon="9.4584823"><ele>1091.0</ele><time>2026-05-03T08:20:59.961Z</time></trkpt><trkpt lat="40.0614131" lon="9.4584375"><ele>1092.6666666666665</ele><time>2026-05-03T08:21:00.961Z</time></trkpt><trkpt lat="40.0613371" lon="9.4583891"><ele>1094.3333333333333</ele><time>2026-05-03T08:21:01.962Z</time></trkpt><trkpt lat="40.0612602" lon="9.4583348"><ele>1096.0</ele><time>2026-05-03T08:21:02.962Z</time></trkpt><trkpt lat="40.0611882" lon="9.4582816"><ele>1096.0</ele><time>2026-05-03T08:21:03.961Z</time></trkpt><trkpt lat="40.0611143" lon="9.4582401"><ele>1096.0</ele><time>2026-05-03T08:21:04.961Z</time></trkpt><trkpt lat="40.0610436" lon="9.4582077"><ele>1096.0</ele><time>2026-05-03T08:21:05.961Z</time></trkpt><trkpt lat="40.0609588" lon="9.4581769"><ele>1096.0</ele><time>2026-05-03T08:21:06.961Z</time></trkpt><trkpt lat="40.0608833" lon="9.4581479"><ele>1096.0</ele><time>2026-05-03T08:21:07.962Z</time></trkpt><trkpt lat="40.0608237" lon="9.4581152"><ele>1096.0</ele><time>2026-05-03T08:21:08.961Z</time></trkpt><trkpt lat="40.0607052" lon="9.4580248"><ele>1096.6666666666665</ele><time>2026-05-03T08:21:10.961Z</time></trkpt><trkpt lat="40.0606414" lon="9.4579662"><ele>1097.3333333333333</ele><time>2026-05-03T08:21:11.962Z</time></trkpt><trkpt lat="40.0605852" lon="9.4579221"><ele>1098.0</ele><time>2026-05-03T08:21:12.961Z</time></trkpt><trkpt lat="40.0605286" lon="9.4578825"><ele>1098.6666666666667</ele><time>2026-05-03T08:21:13.961Z</time></trkpt><trkpt lat="40.0604244" lon="9.4578367"><ele>1099.3333333333335</ele><time>2026-05-03T08:21:15.961Z</time></trkpt><trkpt lat="40.0603617" lon="9.4578267"><ele>1100.0</ele><time>2026-05-03T08:21:16.961Z</time></trkpt><trkpt lat="40.0602905" lon="9.4578286"><ele>1100.0</ele><time>2026-05-03T08:21:17.961Z</time></trkpt><trkpt lat="40.0602093" lon="9.457837"><ele>1100.0</ele><time>2026-05-03T08:21:18.961Z</time></trkpt><trkpt lat="40.0601234" lon="9.4578552"><ele>1100.0</ele><time>2026-05-03T08:21:19.961Z</time></trkpt><trkpt lat="40.0600422" lon="9.4578763"><ele>1100.0</ele><time>2026-05-03T08:21:20.962Z</time></trkpt><trkpt lat="40.0599783" lon="9.4578945"><ele>1100.0</ele><time>2026-05-03T08:21:21.961Z</time></trkpt><trkpt lat="40.0598855" lon="9.4579062"><ele>1100.0</ele><time>2026-05-03T08:21:23.961Z</time></trkpt><trkpt lat="40.0598164" lon="9.4579042"><ele>1098.6</ele><time>2026-05-03T08:21:25.961Z</time></trkpt><trkpt lat="40.0597266" lon="9.4578852"><ele>1097.2</ele><time>2026-05-03T08:21:27.961Z</time></trkpt><trkpt lat="40.0596029" lon="9.4578477"><ele>1095.8</ele><time>2026-05-03T08:21:29.961Z</time></trkpt><trkpt lat="40.0595232" lon="9.4578207"><ele>1094.4</ele><time>2026-05-03T08:21:30.961Z</time></trkpt><trkpt lat="40.0594336" lon="9.4577917"><ele>1093.0</ele><time>2026-05-03T08:21:31.961Z</time></trkpt><trkpt lat="40.0593322" lon="9.4577617"><ele>1093.0</ele><time>2026-05-03T08:21:32.962Z</time></trkpt><trkpt lat="40.0592195" lon="9.4577304"><ele>1093.0</ele><time>2026-05-03T08:21:33.961Z</time></trkpt><trkpt lat="40.0590996" lon="9.4576989"><ele>1093.0</ele><time>2026-05-03T08:21:34.961Z</time></trkpt><trkpt lat="40.0589752" lon="9.4576686"><ele>1093.0</ele><time>2026-05-03T08:21:35.961Z</time></trkpt><trkpt lat="40.0588461" lon="9.4576449"><ele>1091.0</ele><time>2026-05-03T08:21:36.961Z</time></trkpt><trkpt lat="40.0587131" lon="9.4576313"><ele>1089.0</ele><time>2026-05-03T08:21:37.961Z</time></trkpt><trkpt lat="40.0585747" lon="9.4576353"><ele>1087.0</ele><time>2026-05-03T08:21:38.961Z</time></trkpt><trkpt lat="40.0584261" lon="9.4576605"><ele>1085.0</ele><time>2026-05-03T08:21:39.961Z</time></trkpt><trkpt lat="40.0582754" lon="9.4576936"><ele>1084.0</ele><time>2026-05-03T08:21:40.962Z</time></trkpt><trkpt lat="40.0581348" lon="9.4577212"><ele>1083.0</ele><time>2026-05-03T08:21:41.961Z</time></trkpt><trkpt lat="40.0580036" lon="9.4577467"><ele>1082.0</ele><time>2026-05-03T08:21:42.961Z</time></trkpt><trkpt lat="40.0578686" lon="9.4577535"><ele>1081.0</ele><time>2026-05-03T08:21:43.962Z</time></trkpt><trkpt lat="40.0577292" lon="9.4577548"><ele>1081.0</ele><time>2026-05-03T08:21:44.962Z</time></trkpt><trkpt lat="40.0575958" lon="9.4577466"><ele>1081.0</ele><time>2026-05-03T08:21:45.962Z</time></trkpt><trkpt lat="40.0574704" lon="9.4577248"><ele>1081.0</ele><time>2026-05-03T08:21:46.962Z</time></trkpt><trkpt lat="40.0573421" lon="9.4576952"><ele>1081.0</ele><time>2026-05-03T08:21:47.961Z</time></trkpt><trkpt lat="40.0572137" lon="9.457661"><ele>1080.75</ele><time>2026-05-03T08:21:48.961Z</time></trkpt><trkpt lat="40.0570846" lon="9.4576198"><ele>1080.5</ele><time>2026-05-03T08:21:49.961Z</time></trkpt><trkpt lat="40.0569529" lon="9.4575778"><ele>1080.25</ele><time>2026-05-03T08:21:50.962Z</time></trkpt><trkpt lat="40.0568191" lon="9.4575372"><ele>1080.0</ele><time>2026-05-03T08:21:51.961Z</time></trkpt><trkpt lat="40.0566857" lon="9.4574924"><ele>1079.0</ele><time>2026-05-03T08:21:52.961Z</time></trkpt><trkpt lat="40.0565526" lon="9.4574492"><ele>1078.0</ele><time>2026-05-03T08:21:53.962Z</time></trkpt><trkpt lat="40.0564105" lon="9.4574054"><ele>1077.0</ele><time>2026-05-03T08:21:54.961Z</time></trkpt><trkpt lat="40.0562602" lon="9.4573612"><ele>1076.0</ele><time>2026-05-03T08:21:55.962Z</time></trkpt><trkpt lat="40.056106" lon="9.4573148"><ele>1076.0</ele><time>2026-05-03T08:21:56.962Z</time></trkpt><trkpt lat="40.0559492" lon="9.4572687"><ele>1076.0</ele><time>2026-05-03T08:21:57.961Z</time></trkpt><trkpt lat="40.0557997" lon="9.457226"><ele>1076.0</ele><time>2026-05-03T08:21:58.962Z</time></trkpt><trkpt lat="40.0556547" lon="9.4571871"><ele>1075.5</ele><time>2026-05-03T08:21:59.961Z</time></trkpt><trkpt lat="40.0555086" lon="9.4571515"><ele>1075.0</ele><time>2026-05-03T08:22:00.961Z</time></trkpt><trkpt lat="40.0553649" lon="9.4571223"><ele>1074.5</ele><time>2026-05-03T08:22:01.962Z</time></trkpt><trkpt lat="40.0552127" lon="9.4571035"><ele>1074.0</ele><time>2026-05-03T08:22:02.962Z</time></trkpt><trkpt lat="40.0550539" lon="9.4571003"><ele>1073.0</ele><time>2026-05-03T08:22:03.961Z</time></trkpt><trkpt lat="40.0549046" lon="9.4571097"><ele>1072.0</ele><time>2026-05-03T08:22:04.962Z</time></trkpt><trkpt lat="40.0547665" lon="9.4571403"><ele>1071.0</ele><time>2026-05-03T08:22:05.961Z</time></trkpt><trkpt lat="40.0546382" lon="9.4571895"><ele>1070.0</ele><time>2026-05-03T08:22:06.962Z</time></trkpt><trkpt lat="40.0545172" lon="9.4572434"><ele>1070.0</ele><time>2026-05-03T08:22:07.961Z</time></trkpt><trkpt lat="40.0544009" lon="9.4572908"><ele>1070.0</ele><time>2026-05-03T08:22:08.961Z</time></trkpt><trkpt lat="40.0542893" lon="9.4573245"><ele>1070.0</ele><time>2026-05-03T08:22:09.961Z</time></trkpt><trkpt lat="40.0541819" lon="9.4573319"><ele>1070.0</ele><time>2026-05-03T08:22:10.963Z</time></trkpt><trkpt lat="40.0540693" lon="9.457321"><ele>1069.25</ele><time>2026-05-03T08:22:11.961Z</time></trkpt><trkpt lat="40.0539558" lon="9.4572989"><ele>1068.5</ele><time>2026-05-03T08:22:12.961Z</time></trkpt><trkpt lat="40.0538438" lon="9.4572775"><ele>1067.75</ele><time>2026-05-03T08:22:13.961Z</time></trkpt><trkpt lat="40.05373" lon="9.4572666"><ele>1067.0</ele><time>2026-05-03T08:22:14.962Z</time></trkpt><trkpt lat="40.0536186" lon="9.4572648"><ele>1067.0</ele><time>2026-05-03T08:22:15.961Z</time></trkpt><trkpt lat="40.0535061" lon="9.457269"><ele>1067.0</ele><time>2026-05-03T08:22:16.961Z</time></trkpt><trkpt lat="40.0533869" lon="9.4572813"><ele>1067.0</ele><time>2026-05-03T08:22:17.962Z</time></trkpt><trkpt lat="40.0532674" lon="9.4572901"><ele>1067.0</ele><time>2026-05-03T08:22:18.961Z</time></trkpt><trkpt lat="40.053146" lon="9.4572932"><ele>1067.0</ele><time>2026-05-03T08:22:19.962Z</time></trkpt><trkpt lat="40.053028" lon="9.4572853"><ele>1067.0</ele><time>2026-05-03T08:22:20.962Z</time></trkpt><trkpt lat="40.0529123" lon="9.4572596"><ele>1067.0</ele><time>2026-05-03T08:22:21.962Z</time></trkpt><trkpt lat="40.0527827" lon="9.4572225"><ele>1067.0</ele><time>2026-05-03T08:22:22.962Z</time></trkpt><trkpt lat="40.0526395" lon="9.4571762"><ele>1067.0</ele><time>2026-05-03T08:22:23.963Z</time></trkpt><trkpt lat="40.0525039" lon="9.4571348"><ele>1067.0</ele><time>2026-05-03T08:22:24.961Z</time></trkpt><trkpt lat="40.0523649" lon="9.4571045"><ele>1067.0</ele><time>2026-05-03T08:22:25.962Z</time></trkpt><trkpt lat="40.0522183" lon="9.4570875"><ele>1067.0</ele><time>2026-05-03T08:22:26.961Z</time></trkpt><trkpt lat="40.0520614" lon="9.4570848"><ele>1065.6666666666667</ele><time>2026-05-03T08:22:27.963Z</time></trkpt><trkpt lat="40.0518955" lon="9.4570865"><ele>1064.3333333333333</ele><time>2026-05-03T08:22:28.962Z</time></trkpt><trkpt lat="40.051727" lon="9.4570882"><ele>1063.0</ele><time>2026-05-03T08:22:29.962Z</time></trkpt><trkpt lat="40.0515583" lon="9.4571012"><ele>1062.75</ele><time>2026-05-03T08:22:30.961Z</time></trkpt><trkpt lat="40.0514029" lon="9.4571222"><ele>1062.5</ele><time>2026-05-03T08:22:31.961Z</time></trkpt><trkpt lat="40.0512619" lon="9.4571494"><ele>1062.25</ele><time>2026-05-03T08:22:32.961Z</time></trkpt><trkpt lat="40.0511398" lon="9.4571745"><ele>1062.0</ele><time>2026-05-03T08:22:33.961Z</time></trkpt><trkpt lat="40.0510281" lon="9.457187"><ele>1062.0</ele><time>2026-05-03T08:22:34.962Z</time></trkpt><trkpt lat="40.0509243" lon="9.4571805"><ele>1062.0</ele><time>2026-05-03T08:22:35.962Z</time></trkpt><trkpt lat="40.0508194" lon="9.4571461"><ele>1062.0</ele><time>2026-05-03T08:22:36.962Z</time></trkpt><trkpt lat="40.0507123" lon="9.4570762"><ele>1062.0</ele><time>2026-05-03T08:22:37.961Z</time></trkpt><trkpt lat="40.050604" lon="9.4569834"><ele>1060.0</ele><time>2026-05-03T08:22:38.961Z</time></trkpt><trkpt lat="40.05049" lon="9.4568755"><ele>1058.0</ele><time>2026-05-03T08:22:39.962Z</time></trkpt><trkpt lat="40.0503808" lon="9.4567599"><ele>1056.0</ele><time>2026-05-03T08:22:40.961Z</time></trkpt><trkpt lat="40.0502847" lon="9.4566413"><ele>1054.0</ele><time>2026-05-03T08:22:41.961Z</time></trkpt><trkpt lat="40.0501955" lon="9.4565216"><ele>1054.0</ele><time>2026-05-03T08:22:42.962Z</time></trkpt><trkpt lat="40.0501098" lon="9.4564042"><ele>1054.0</ele><time>2026-05-03T08:22:43.962Z</time></trkpt><trkpt lat="40.0500237" lon="9.4562928"><ele>1054.0</ele><time>2026-05-03T08:22:44.962Z</time></trkpt><trkpt lat="40.0499157" lon="9.45619"><ele>1054.0</ele><time>2026-05-03T08:22:45.962Z</time></trkpt><trkpt lat="40.0498061" lon="9.4561057"><ele>1053.2</ele><time>2026-05-03T08:22:46.961Z</time></trkpt><trkpt lat="40.0497078" lon="9.456032"><ele>1052.4</ele><time>2026-05-03T08:22:47.963Z</time></trkpt><trkpt lat="40.0496193" lon="9.4559676"><ele>1051.6</ele><time>2026-05-03T08:22:48.961Z</time></trkpt><trkpt lat="40.0495341" lon="9.455908"><ele>1050.8</ele><time>2026-05-03T08:22:49.961Z</time></trkpt><trkpt lat="40.0494454" lon="9.4558429"><ele>1050.0</ele><time>2026-05-03T08:22:50.961Z</time></trkpt><trkpt lat="40.0493494" lon="9.4557639"><ele>1050.0</ele><time>2026-05-03T08:22:51.961Z</time></trkpt><trkpt lat="40.049241" lon="9.4556687"><ele>1050.0</ele><time>2026-05-03T08:22:52.961Z</time></trkpt><trkpt lat="40.0491237" lon="9.4555653"><ele>1050.0</ele><time>2026-05-03T08:22:53.962Z</time></trkpt><trkpt lat="40.0490193" lon="9.4554725"><ele>1050.0</ele><time>2026-05-03T08:22:54.961Z</time></trkpt><trkpt lat="40.0489143" lon="9.4553839"><ele>1049.5</ele><time>2026-05-03T08:22:55.961Z</time></trkpt><trkpt lat="40.0487908" lon="9.4553036"><ele>1049.0</ele><time>2026-05-03T08:22:56.962Z</time></trkpt><trkpt lat="40.0486466" lon="9.4552394"><ele>1048.5</ele><time>2026-05-03T08:22:57.962Z</time></trkpt><trkpt lat="40.0485214" lon="9.4551741"><ele>1048.0</ele><time>2026-05-03T08:22:58.961Z</time></trkpt><trkpt lat="40.048401" lon="9.4551015"><ele>1049.0</ele><time>2026-05-03T08:22:59.961Z</time></trkpt><trkpt lat="40.0482751" lon="9.4550094"><ele>1050.0</ele><time>2026-05-03T08:23:00.962Z</time></trkpt><trkpt lat="40.0481722" lon="9.4549131"><ele>1051.0</ele><time>2026-05-03T08:23:01.961Z</time></trkpt><trkpt lat="40.0480797" lon="9.4548234"><ele>1052.0</ele><time>2026-05-03T08:23:02.961Z</time></trkpt><trkpt lat="40.0479919" lon="9.4547492"><ele>1052.0</ele><time>2026-05-03T08:23:03.961Z</time></trkpt><trkpt lat="40.0478971" lon="9.4547034"><ele>1052.0</ele><time>2026-05-03T08:23:04.962Z</time></trkpt><trkpt lat="40.0477864" lon="9.4546901"><ele>1052.0</ele><time>2026-05-03T08:23:05.961Z</time></trkpt><trkpt lat="40.0476648" lon="9.4546973"><ele>1052.0</ele><time>2026-05-03T08:23:06.962Z</time></trkpt><trkpt lat="40.0475449" lon="9.4547085"><ele>1051.6666666666667</ele><time>2026-05-03T08:23:07.962Z</time></trkpt><trkpt lat="40.0474462" lon="9.4547196"><ele>1051.3333333333335</ele><time>2026-05-03T08:23:08.961Z</time></trkpt><trkpt lat="40.0473641" lon="9.454734"><ele>1051.0</ele><time>2026-05-03T08:23:09.962Z</time></trkpt><trkpt lat="40.0472884" lon="9.454751"><ele>1050.6666666666667</ele><time>2026-05-03T08:23:10.962Z</time></trkpt><trkpt lat="40.0472083" lon="9.4547787"><ele>1050.3333333333333</ele><time>2026-05-03T08:23:11.963Z</time></trkpt><trkpt lat="40.0471237" lon="9.4548161"><ele>1050.0</ele><time>2026-05-03T08:23:12.961Z</time></trkpt><trkpt lat="40.0470375" lon="9.4548659"><ele>1050.0</ele><time>2026-05-03T08:23:13.961Z</time></trkpt><trkpt lat="40.0469491" lon="9.4549244"><ele>1050.0</ele><time>2026-05-03T08:23:14.962Z</time></trkpt><trkpt lat="40.0468595" lon="9.4549924"><ele>1050.0</ele><time>2026-05-03T08:23:15.961Z</time></trkpt><trkpt lat="40.0467665" lon="9.4550771"><ele>1050.0</ele><time>2026-05-03T08:23:16.962Z</time></trkpt><trkpt lat="40.0466797" lon="9.455171"><ele>1050.0</ele><time>2026-05-03T08:23:17.962Z</time></trkpt><trkpt lat="40.0466064" lon="9.4552568"><ele>1050.4</ele><time>2026-05-03T08:23:18.961Z</time></trkpt><trkpt lat="40.0465401" lon="9.4553323"><ele>1050.8</ele><time>2026-05-03T08:23:19.961Z</time></trkpt><trkpt lat="40.0464717" lon="9.4553995"><ele>1051.2</ele><time>2026-05-03T08:23:20.962Z</time></trkpt><trkpt lat="40.0463979" lon="9.4554686"><ele>1051.6</ele><time>2026-05-03T08:23:21.961Z</time></trkpt><trkpt lat="40.0463243" lon="9.455549"><ele>1052.0</ele><time>2026-05-03T08:23:22.961Z</time></trkpt><trkpt lat="40.0462452" lon="9.4556391"><ele>1052.0</ele><time>2026-05-03T08:23:23.961Z</time></trkpt><trkpt lat="40.0461512" lon="9.4557413"><ele>1052.0</ele><time>2026-05-03T08:23:24.962Z</time></trkpt><trkpt lat="40.0460462" lon="9.4558523"><ele>1052.0</ele><time>2026-05-03T08:23:25.961Z</time></trkpt><trkpt lat="40.0459344" lon="9.4559692"><ele>1052.0</ele><time>2026-05-03T08:23:26.961Z</time></trkpt><trkpt lat="40.0458203" lon="9.4560953"><ele>1053.0</ele><time>2026-05-03T08:23:27.962Z</time></trkpt><trkpt lat="40.0457072" lon="9.4562288"><ele>1054.0</ele><time>2026-05-03T08:23:28.961Z</time></trkpt><trkpt lat="40.0455934" lon="9.4563631"><ele>1055.0</ele><time>2026-05-03T08:23:29.961Z</time></trkpt><trkpt lat="40.0454758" lon="9.456495"><ele>1055.0</ele><time>2026-05-03T08:23:30.962Z</time></trkpt><trkpt lat="40.0453559" lon="9.4566241"><ele>1055.0</ele><time>2026-05-03T08:23:31.962Z</time></trkpt><trkpt lat="40.0452304" lon="9.4567429"><ele>1055.0</ele><time>2026-05-03T08:23:32.962Z</time></trkpt><trkpt lat="40.0451022" lon="9.4568465"><ele>1055.0</ele><time>2026-05-03T08:23:33.961Z</time></trkpt><trkpt lat="40.0449735" lon="9.4569402"><ele>1055.0</ele><time>2026-05-03T08:23:34.961Z</time></trkpt><trkpt lat="40.044854" lon="9.4570113"><ele>1055.0</ele><time>2026-05-03T08:23:35.962Z</time></trkpt><trkpt lat="40.04474" lon="9.4570541"><ele>1055.0</ele><time>2026-05-03T08:23:36.962Z</time></trkpt><trkpt lat="40.0446332" lon="9.4570719"><ele>1056.2</ele><time>2026-05-03T08:23:37.961Z</time></trkpt><trkpt lat="40.0445329" lon="9.4570812"><ele>1057.4</ele><time>2026-05-03T08:23:38.961Z</time></trkpt><trkpt lat="40.0444334" lon="9.457091"><ele>1058.6</ele><time>2026-05-03T08:23:39.961Z</time></trkpt><trkpt lat="40.0443455" lon="9.4571005"><ele>1059.8</ele><time>2026-05-03T08:23:40.962Z</time></trkpt><trkpt lat="40.0442749" lon="9.4571109"><ele>1061.0</ele><time>2026-05-03T08:23:41.962Z</time></trkpt><trkpt lat="40.0441726" lon="9.4571358"><ele>1062.2</ele><time>2026-05-03T08:23:43.962Z</time></trkpt><trkpt lat="40.0440574" lon="9.4571768"><ele>1063.3999999999999</ele><time>2026-05-03T08:23:45.961Z</time></trkpt><trkpt lat="40.043996" lon="9.4572006"><ele>1064.6</ele><time>2026-05-03T08:23:46.962Z</time></trkpt><trkpt lat="40.043884" lon="9.4572372"><ele>1065.8</ele><time>2026-05-03T08:23:48.962Z</time></trkpt><trkpt lat="40.0437996" lon="9.4572012"><ele>1067.0</ele><time>2026-05-03T08:23:50.961Z</time></trkpt><trkpt lat="40.0437453" lon="9.457093"><ele>1068.25</ele><time>2026-05-03T08:23:52.961Z</time></trkpt><trkpt lat="40.0437412" lon="9.4569029"><ele>1069.5</ele><time>2026-05-03T08:23:54.961Z</time></trkpt><trkpt lat="40.043765" lon="9.4567585"><ele>1070.75</ele><time>2026-05-03T08:23:55.961Z</time></trkpt><trkpt lat="40.043808" lon="9.4566027"><ele>1072.0</ele><time>2026-05-03T08:23:56.961Z</time></trkpt><trkpt lat="40.0438822" lon="9.4564406"><ele>1073.75</ele><time>2026-05-03T08:23:57.961Z</time></trkpt><trkpt lat="40.0439629" lon="9.4562635"><ele>1075.5</ele><time>2026-05-03T08:23:58.961Z</time></trkpt><trkpt lat="40.0440257" lon="9.456113"><ele>1077.25</ele><time>2026-05-03T08:23:59.961Z</time></trkpt><trkpt lat="40.044078" lon="9.4559929"><ele>1079.0</ele><time>2026-05-03T08:24:00.962Z</time></trkpt><trkpt lat="40.0441096" lon="9.455888"><ele>1079.0</ele><time>2026-05-03T08:24:01.961Z</time></trkpt><trkpt lat="40.0441099" lon="9.4557885"><ele>1079.0</ele><time>2026-05-03T08:24:02.962Z</time></trkpt><trkpt lat="40.0440747" lon="9.4556793"><ele>1079.0</ele><time>2026-05-03T08:24:03.961Z</time></trkpt><trkpt lat="40.0439989" lon="9.4555527"><ele>1079.0</ele><time>2026-05-03T08:24:04.962Z</time></trkpt><trkpt lat="40.0438985" lon="9.4554136"><ele>1079.0</ele><time>2026-05-03T08:24:05.961Z</time></trkpt><trkpt lat="40.0437864" lon="9.4552605"><ele>1078.25</ele><time>2026-05-03T08:24:06.961Z</time></trkpt><trkpt lat="40.0436808" lon="9.4551112"><ele>1077.5</ele><time>2026-05-03T08:24:07.962Z</time></trkpt><trkpt lat="40.0435822" lon="9.454963"><ele>1076.75</ele><time>2026-05-03T08:24:08.961Z</time></trkpt><trkpt lat="40.0434901" lon="9.4548198"><ele>1076.0</ele><time>2026-05-03T08:24:09.961Z</time></trkpt><trkpt lat="40.043418" lon="9.4547089"><ele>1076.5</ele><time>2026-05-03T08:24:10.962Z</time></trkpt><trkpt lat="40.0433557" lon="9.4546186"><ele>1077.0</ele><time>2026-05-03T08:24:11.962Z</time></trkpt><trkpt lat="40.0433051" lon="9.4545516"><ele>1077.5</ele><time>2026-05-03T08:24:12.962Z</time></trkpt><trkpt lat="40.0432398" lon="9.4544757"><ele>1078.0</ele><time>2026-05-03T08:24:14.961Z</time></trkpt><trkpt lat="40.043187" lon="9.4544014"><ele>1078.5</ele><time>2026-05-03T08:24:44.961Z</time></trkpt><trkpt lat="40.0430949" lon="9.4543087"><ele>1079.0</ele><time>2026-05-03T08:24:46.961Z</time></trkpt><trkpt lat="40.0430369" lon="9.4542362"><ele>1077.8</ele><time>2026-05-03T08:24:47.962Z</time></trkpt><trkpt lat="40.0429677" lon="9.4541524"><ele>1076.6000000000001</ele><time>2026-05-03T08:24:48.962Z</time></trkpt><trkpt lat="40.0428881" lon="9.4540631"><ele>1075.4</ele><time>2026-05-03T08:24:49.962Z</time></trkpt><trkpt lat="40.0427965" lon="9.4539761"><ele>1074.2</ele><time>2026-05-03T08:24:50.962Z</time></trkpt><trkpt lat="40.0426822" lon="9.4538968"><ele>1073.0</ele><time>2026-05-03T08:24:51.961Z</time></trkpt><trkpt lat="40.0425468" lon="9.4538313"><ele>1078.6666666666667</ele><time>2026-05-03T08:24:52.962Z</time></trkpt><trkpt lat="40.0424015" lon="9.4537782"><ele>1084.3333333333333</ele><time>2026-05-03T08:24:53.962Z</time></trkpt><trkpt lat="40.042244" lon="9.4537171"><ele>1090.0</ele><time>2026-05-03T08:24:54.962Z</time></trkpt><trkpt lat="40.0420811" lon="9.4536554"><ele>1090.0</ele><time>2026-05-03T08:24:55.961Z</time></trkpt><trkpt lat="40.0419083" lon="9.453593"><ele>1090.0</ele><time>2026-05-03T08:24:56.962Z</time></trkpt><trkpt lat="40.0417292" lon="9.4535276"><ele>1090.0</ele><time>2026-05-03T08:24:57.962Z</time></trkpt><trkpt lat="40.0415496" lon="9.453462"><ele>1086.3333333333333</ele><time>2026-05-03T08:24:58.962Z</time></trkpt><trkpt lat="40.0413655" lon="9.4533942"><ele>1082.6666666666667</ele><time>2026-05-03T08:24:59.961Z</time></trkpt><trkpt lat="40.0411749" lon="9.4533242"><ele>1079.0</ele><time>2026-05-03T08:25:00.961Z</time></trkpt><trkpt lat="40.0409951" lon="9.4532565"><ele>1079.0</ele><time>2026-05-03T08:25:01.962Z</time></trkpt><trkpt lat="40.0408291" lon="9.4531979"><ele>1079.0</ele><time>2026-05-03T08:25:02.961Z</time></trkpt><trkpt lat="40.0406704" lon="9.4531503"><ele>1079.0</ele><time>2026-05-03T08:25:03.961Z</time></trkpt><trkpt lat="40.0405201" lon="9.4531109"><ele>1075.6666666666667</ele><time>2026-05-03T08:25:04.961Z</time></trkpt><trkpt lat="40.0403743" lon="9.4530661"><ele>1072.3333333333333</ele><time>2026-05-03T08:25:05.962Z</time></trkpt><trkpt lat="40.04023" lon="9.4530126"><ele>1069.0</ele><time>2026-05-03T08:25:06.961Z</time></trkpt><trkpt lat="40.040088" lon="9.4529491"><ele>1072.6666666666665</ele><time>2026-05-03T08:25:07.961Z</time></trkpt><trkpt lat="40.0399441" lon="9.4528755"><ele>1076.3333333333333</ele><time>2026-05-03T08:25:08.961Z</time></trkpt><trkpt lat="40.0397948" lon="9.452793"><ele>1080.0</ele><time>2026-05-03T08:25:09.961Z</time></trkpt><trkpt lat="40.0396394" lon="9.4526967"><ele>1080.0</ele><time>2026-05-03T08:25:10.962Z</time></trkpt><trkpt lat="40.0394784" lon="9.4525824"><ele>1080.0</ele><time>2026-05-03T08:25:11.961Z</time></trkpt><trkpt lat="40.0393142" lon="9.4524553"><ele>1080.0</ele><time>2026-05-03T08:25:12.962Z</time></trkpt><trkpt lat="40.0391457" lon="9.4523212"><ele>1083.3333333333333</ele><time>2026-05-03T08:25:13.961Z</time></trkpt><trkpt lat="40.0389785" lon="9.4521898"><ele>1086.6666666666665</ele><time>2026-05-03T08:25:14.961Z</time></trkpt><trkpt lat="40.0388215" lon="9.4520708"><ele>1090.0</ele><time>2026-05-03T08:25:15.961Z</time></trkpt><trkpt lat="40.0386766" lon="9.4519657"><ele>1090.0</ele><time>2026-05-03T08:25:16.961Z</time></trkpt><trkpt lat="40.0385371" lon="9.451881"><ele>1090.0</ele><time>2026-05-03T08:25:17.962Z</time></trkpt><trkpt lat="40.0383967" lon="9.4518164"><ele>1090.0</ele><time>2026-05-03T08:25:18.962Z</time></trkpt><trkpt lat="40.0382645" lon="9.4517611"><ele>1090.0</ele><time>2026-05-03T08:25:19.963Z</time></trkpt><trkpt lat="40.0381531" lon="9.4516994"><ele>1090.75</ele><time>2026-05-03T08:25:20.961Z</time></trkpt><trkpt lat="40.038054" lon="9.4516254"><ele>1091.5</ele><time>2026-05-03T08:25:21.963Z</time></trkpt><trkpt lat="40.0379724" lon="9.4515294"><ele>1092.25</ele><time>2026-05-03T08:25:22.962Z</time></trkpt><trkpt lat="40.0379034" lon="9.4513983"><ele>1093.0</ele><time>2026-05-03T08:25:23.961Z</time></trkpt><trkpt lat="40.0378539" lon="9.4512344"><ele>1093.0</ele><time>2026-05-03T08:25:24.962Z</time></trkpt><trkpt lat="40.0378203" lon="9.4510491"><ele>1093.0</ele><time>2026-05-03T08:25:25.961Z</time></trkpt><trkpt lat="40.0378064" lon="9.4508477"><ele>1093.0</ele><time>2026-05-03T08:25:26.961Z</time></trkpt><trkpt lat="40.0377979" lon="9.4506205"><ele>1094.3333333333333</ele><time>2026-05-03T08:25:27.961Z</time></trkpt><trkpt lat="40.0377861" lon="9.4503855"><ele>1095.6666666666667</ele><time>2026-05-03T08:25:28.963Z</time></trkpt><trkpt lat="40.0377762" lon="9.450138"><ele>1097.0</ele><time>2026-05-03T08:25:29.962Z</time></trkpt><trkpt lat="40.0377658" lon="9.4498978"><ele>1097.0</ele><time>2026-05-03T08:25:30.962Z</time></trkpt><trkpt lat="40.0377579" lon="9.449671"><ele>1097.0</ele><time>2026-05-03T08:25:31.961Z</time></trkpt><trkpt lat="40.0377503" lon="9.4494528"><ele>1097.0</ele><time>2026-05-03T08:25:32.962Z</time></trkpt><trkpt lat="40.0377408" lon="9.449229"><ele>1096.0</ele><time>2026-05-03T08:25:33.961Z</time></trkpt><trkpt lat="40.0377313" lon="9.4490067"><ele>1095.0</ele><time>2026-05-03T08:25:34.961Z</time></trkpt><trkpt lat="40.0377241" lon="9.4487874"><ele>1094.0</ele><time>2026-05-03T08:25:35.961Z</time></trkpt><trkpt lat="40.0377179" lon="9.4485794"><ele>1093.0</ele><time>2026-05-03T08:25:36.961Z</time></trkpt><trkpt lat="40.0377114" lon="9.4483784"><ele>1092.0</ele><time>2026-05-03T08:25:37.962Z</time></trkpt><trkpt lat="40.0377019" lon="9.4481761"><ele>1091.0</ele><time>2026-05-03T08:25:38.962Z</time></trkpt><trkpt lat="40.0376813" lon="9.4479702"><ele>1089.6666666666667</ele><time>2026-05-03T08:25:39.961Z</time></trkpt><trkpt lat="40.0376515" lon="9.4477575"><ele>1088.3333333333333</ele><time>2026-05-03T08:25:40.962Z</time></trkpt><trkpt lat="40.0376175" lon="9.4475384"><ele>1087.0</ele><time>2026-05-03T08:25:41.961Z</time></trkpt><trkpt lat="40.0375786" lon="9.4473112"><ele>1084.6666666666665</ele><time>2026-05-03T08:25:42.961Z</time></trkpt><trkpt lat="40.0375298" lon="9.4470793"><ele>1082.3333333333333</ele><time>2026-05-03T08:25:43.962Z</time></trkpt><trkpt lat="40.0374733" lon="9.4468429"><ele>1080.0</ele><time>2026-05-03T08:25:44.962Z</time></trkpt><trkpt lat="40.0374092" lon="9.446604"><ele>1081.6666666666667</ele><time>2026-05-03T08:25:45.962Z</time></trkpt><trkpt lat="40.0373435" lon="9.4463715"><ele>1083.3333333333335</ele><time>2026-05-03T08:25:46.961Z</time></trkpt><trkpt lat="40.0372796" lon="9.4461513"><ele>1085.0</ele><time>2026-05-03T08:25:47.962Z</time></trkpt><trkpt lat="40.0372139" lon="9.4459401"><ele>1085.0</ele><time>2026-05-03T08:25:48.961Z</time></trkpt><trkpt lat="40.0371439" lon="9.4457343"><ele>1085.0</ele><time>2026-05-03T08:25:49.962Z</time></trkpt><trkpt lat="40.0370621" lon="9.4455338"><ele>1085.0</ele><time>2026-05-03T08:25:50.962Z</time></trkpt><trkpt lat="40.0369623" lon="9.4453401"><ele>1086.6666666666667</ele><time>2026-05-03T08:25:51.962Z</time></trkpt><trkpt lat="40.03685" lon="9.4451514"><ele>1088.3333333333333</ele><time>2026-05-03T08:25:52.961Z</time></trkpt><trkpt lat="40.0367397" lon="9.4449712"><ele>1090.0</ele><time>2026-05-03T08:25:53.962Z</time></trkpt><trkpt lat="40.0366351" lon="9.4447973"><ele>1083.6666666666665</ele><time>2026-05-03T08:25:54.962Z</time></trkpt><trkpt lat="40.0365232" lon="9.4446271"><ele>1077.3333333333333</ele><time>2026-05-03T08:25:55.962Z</time></trkpt><trkpt lat="40.0364041" lon="9.4444541"><ele>1071.0</ele><time>2026-05-03T08:25:56.962Z</time></trkpt><trkpt lat="40.0362778" lon="9.4442861"><ele>1071.0</ele><time>2026-05-03T08:25:57.961Z</time></trkpt><trkpt lat="40.0361414" lon="9.4441195"><ele>1071.0</ele><time>2026-05-03T08:25:58.962Z</time></trkpt><trkpt lat="40.0360009" lon="9.4439538"><ele>1071.0</ele><time>2026-05-03T08:25:59.961Z</time></trkpt><trkpt lat="40.0358589" lon="9.4437897"><ele>1068.3333333333333</ele><time>2026-05-03T08:26:00.962Z</time></trkpt><trkpt lat="40.0357155" lon="9.4436272"><ele>1065.6666666666665</ele><time>2026-05-03T08:26:01.961Z</time></trkpt><trkpt lat="40.0355723" lon="9.4434661"><ele>1063.0</ele><time>2026-05-03T08:26:02.961Z</time></trkpt><trkpt lat="40.0354294" lon="9.4433037"><ele>1063.0</ele><time>2026-05-03T08:26:03.962Z</time></trkpt><trkpt lat="40.0352877" lon="9.4431438"><ele>1063.0</ele><time>2026-05-03T08:26:04.962Z</time></trkpt><trkpt lat="40.0351474" lon="9.442985"><ele>1063.0</ele><time>2026-05-03T08:26:05.963Z</time></trkpt><trkpt lat="40.0350068" lon="9.4428235"><ele>1061.3333333333333</ele><time>2026-05-03T08:26:06.961Z</time></trkpt><trkpt lat="40.0348658" lon="9.4426604"><ele>1059.6666666666667</ele><time>2026-05-03T08:26:07.961Z</time></trkpt><trkpt lat="40.0347244" lon="9.4425011"><ele>1058.0</ele><time>2026-05-03T08:26:08.962Z</time></trkpt><trkpt lat="40.034582" lon="9.442345"><ele>1058.0</ele><time>2026-05-03T08:26:09.962Z</time></trkpt><trkpt lat="40.0344422" lon="9.4421908"><ele>1058.0</ele><time>2026-05-03T08:26:10.961Z</time></trkpt><trkpt lat="40.0343032" lon="9.4420366"><ele>1058.0</ele><time>2026-05-03T08:26:11.961Z</time></trkpt><trkpt lat="40.0341665" lon="9.4418825"><ele>1058.3333333333335</ele><time>2026-05-03T08:26:12.961Z</time></trkpt><trkpt lat="40.0340301" lon="9.4417235"><ele>1058.6666666666667</ele><time>2026-05-03T08:26:13.961Z</time></trkpt><trkpt lat="40.0338989" lon="9.4415542"><ele>1059.0</ele><time>2026-05-03T08:26:14.962Z</time></trkpt><trkpt lat="40.0337768" lon="9.4413692"><ele>1054.6666666666667</ele><time>2026-05-03T08:26:15.961Z</time></trkpt><trkpt lat="40.0336667" lon="9.4411597"><ele>1050.3333333333335</ele><time>2026-05-03T08:26:16.961Z</time></trkpt><trkpt lat="40.033571" lon="9.4409236"><ele>1046.0</ele><time>2026-05-03T08:26:17.962Z</time></trkpt><trkpt lat="40.0334797" lon="9.4406657"><ele>1048.0</ele><time>2026-05-03T08:26:18.962Z</time></trkpt><trkpt lat="40.0333833" lon="9.440394"><ele>1050.0</ele><time>2026-05-03T08:26:19.961Z</time></trkpt><trkpt lat="40.0332819" lon="9.4401145"><ele>1050.0</ele><time>2026-05-03T08:26:20.961Z</time></trkpt><trkpt lat="40.0331867" lon="9.4398479"><ele>1050.0</ele><time>2026-05-03T08:26:21.962Z</time></trkpt><trkpt lat="40.0330983" lon="9.4395948"><ele>1050.0</ele><time>2026-05-03T08:26:22.962Z</time></trkpt><trkpt lat="40.0330139" lon="9.4393542"><ele>1046.6666666666667</ele><time>2026-05-03T08:26:23.961Z</time></trkpt><trkpt lat="40.0329304" lon="9.4391236"><ele>1043.3333333333335</ele><time>2026-05-03T08:26:24.962Z</time></trkpt><trkpt lat="40.0328505" lon="9.4389042"><ele>1040.0</ele><time>2026-05-03T08:26:25.963Z</time></trkpt><trkpt lat="40.0327758" lon="9.4386931"><ele>1037.0</ele><time>2026-05-03T08:26:26.962Z</time></trkpt><trkpt lat="40.0327049" lon="9.4384894"><ele>1034.0</ele><time>2026-05-03T08:26:27.961Z</time></trkpt><trkpt lat="40.0326348" lon="9.438293"><ele>1031.0</ele><time>2026-05-03T08:26:28.962Z</time></trkpt><trkpt lat="40.0325689" lon="9.4381051"><ele>1031.0</ele><time>2026-05-03T08:26:29.961Z</time></trkpt><trkpt lat="40.032506" lon="9.4379237"><ele>1031.0</ele><time>2026-05-03T08:26:30.961Z</time></trkpt><trkpt lat="40.0324435" lon="9.437751"><ele>1031.0</ele><time>2026-05-03T08:26:31.963Z</time></trkpt><trkpt lat="40.0323819" lon="9.4375879"><ele>1031.0</ele><time>2026-05-03T08:26:32.961Z</time></trkpt><trkpt lat="40.0323233" lon="9.4374316"><ele>1031.0</ele><time>2026-05-03T08:26:33.961Z</time></trkpt><trkpt lat="40.0322676" lon="9.4372755"><ele>1031.0</ele><time>2026-05-03T08:26:34.961Z</time></trkpt><trkpt lat="40.032212" lon="9.4371155"><ele>1031.0</ele><time>2026-05-03T08:26:35.961Z</time></trkpt><trkpt lat="40.0321569" lon="9.4369566"><ele>1031.0</ele><time>2026-05-03T08:26:36.961Z</time></trkpt><trkpt lat="40.0321002" lon="9.4368041"><ele>1030.5</ele><time>2026-05-03T08:26:37.962Z</time></trkpt><trkpt lat="40.0320437" lon="9.4366485"><ele>1030.0</ele><time>2026-05-03T08:26:38.961Z</time></trkpt><trkpt lat="40.0319821" lon="9.4364819"><ele>1029.5</ele><time>2026-05-03T08:26:39.961Z</time></trkpt><trkpt lat="40.0319171" lon="9.4363062"><ele>1029.0</ele><time>2026-05-03T08:26:40.962Z</time></trkpt><trkpt lat="40.0318523" lon="9.4361224"><ele>1028.0</ele><time>2026-05-03T08:26:41.961Z</time></trkpt><trkpt lat="40.0317847" lon="9.435935"><ele>1027.0</ele><time>2026-05-03T08:26:42.961Z</time></trkpt><trkpt lat="40.0317147" lon="9.4357432"><ele>1026.0</ele><time>2026-05-03T08:26:43.962Z</time></trkpt><trkpt lat="40.0316438" lon="9.4355516"><ele>1029.0</ele><time>2026-05-03T08:26:44.961Z</time></trkpt><trkpt lat="40.031575" lon="9.4353605"><ele>1032.0</ele><time>2026-05-03T08:26:45.962Z</time></trkpt><trkpt lat="40.0315071" lon="9.4351719"><ele>1035.0</ele><time>2026-05-03T08:26:46.962Z</time></trkpt><trkpt lat="40.0314439" lon="9.4349907"><ele>1035.0</ele><time>2026-05-03T08:26:47.961Z</time></trkpt><trkpt lat="40.0313858" lon="9.4348225"><ele>1035.0</ele><time>2026-05-03T08:26:48.963Z</time></trkpt><trkpt lat="40.031328" lon="9.4346704"><ele>1035.0</ele><time>2026-05-03T08:26:49.962Z</time></trkpt><trkpt lat="40.0312652" lon="9.4345375"><ele>1035.0</ele><time>2026-05-03T08:26:50.961Z</time></trkpt><trkpt lat="40.0311859" lon="9.4344232"><ele>1034.5</ele><time>2026-05-03T08:26:51.962Z</time></trkpt><trkpt lat="40.0310926" lon="9.4343244"><ele>1034.0</ele><time>2026-05-03T08:26:52.962Z</time></trkpt><trkpt lat="40.0309907" lon="9.4342302"><ele>1033.5</ele><time>2026-05-03T08:26:53.961Z</time></trkpt><trkpt lat="40.0308828" lon="9.4341389"><ele>1033.0</ele><time>2026-05-03T08:26:54.962Z</time></trkpt><trkpt lat="40.0307734" lon="9.4340389"><ele>1033.0</ele><time>2026-05-03T08:26:55.962Z</time></trkpt><trkpt lat="40.0306603" lon="9.4339337"><ele>1033.0</ele><time>2026-05-03T08:26:56.961Z</time></trkpt><trkpt lat="40.0305525" lon="9.4338303"><ele>1033.0</ele><time>2026-05-03T08:26:57.961Z</time></trkpt><trkpt lat="40.0304499" lon="9.4337362"><ele>1033.0</ele><time>2026-05-03T08:26:58.962Z</time></trkpt><trkpt lat="40.0303534" lon="9.4336484"><ele>1030.75</ele><time>2026-05-03T08:26:59.961Z</time></trkpt><trkpt lat="40.0302603" lon="9.4335601"><ele>1028.5</ele><time>2026-05-03T08:27:00.962Z</time></trkpt><trkpt lat="40.0301621" lon="9.4334733"><ele>1026.25</ele><time>2026-05-03T08:27:01.961Z</time></trkpt><trkpt lat="40.0300584" lon="9.4333926"><ele>1024.0</ele><time>2026-05-03T08:27:02.962Z</time></trkpt><trkpt lat="40.0299494" lon="9.4333225"><ele>1023.75</ele><time>2026-05-03T08:27:03.962Z</time></trkpt><trkpt lat="40.0298229" lon="9.4332722"><ele>1023.5</ele><time>2026-05-03T08:27:04.961Z</time></trkpt><trkpt lat="40.0296781" lon="9.4332495"><ele>1023.25</ele><time>2026-05-03T08:27:05.961Z</time></trkpt><trkpt lat="40.0295183" lon="9.4332562"><ele>1023.0</ele><time>2026-05-03T08:27:06.962Z</time></trkpt><trkpt lat="40.0293457" lon="9.4332763"><ele>1023.0</ele><time>2026-05-03T08:27:07.962Z</time></trkpt><trkpt lat="40.0291724" lon="9.4332903"><ele>1023.0</ele><time>2026-05-03T08:27:08.961Z</time></trkpt><trkpt lat="40.0289937" lon="9.4333068"><ele>1023.0</ele><time>2026-05-03T08:27:09.961Z</time></trkpt><trkpt lat="40.0288071" lon="9.4333172"><ele>1022.6666666666667</ele><time>2026-05-03T08:27:10.962Z</time></trkpt><trkpt lat="40.0286099" lon="9.4333288"><ele>1022.3333333333334</ele><time>2026-05-03T08:27:11.962Z</time></trkpt><trkpt lat="40.028403" lon="9.4333418"><ele>1022.0</ele><time>2026-05-03T08:27:12.962Z</time></trkpt><trkpt lat="40.0281834" lon="9.4333575"><ele>1022.0</ele><time>2026-05-03T08:27:13.961Z</time></trkpt><trkpt lat="40.0279493" lon="9.4333749"><ele>1022.0</ele><time>2026-05-03T08:27:14.961Z</time></trkpt><trkpt lat="40.0277094" lon="9.4333903"><ele>1022.5</ele><time>2026-05-03T08:27:15.961Z</time></trkpt><trkpt lat="40.0274674" lon="9.4334039"><ele>1023.0</ele><time>2026-05-03T08:27:16.961Z</time></trkpt><trkpt lat="40.0272186" lon="9.4334221"><ele>1023.0</ele><time>2026-05-03T08:27:17.961Z</time></trkpt><trkpt lat="40.0269657" lon="9.4334438"><ele>1023.0</ele><time>2026-05-03T08:27:18.962Z</time></trkpt><trkpt lat="40.0267314" lon="9.4334675"><ele>1024.0</ele><time>2026-05-03T08:27:19.963Z</time></trkpt><trkpt lat="40.0265075" lon="9.4334968"><ele>1025.0</ele><time>2026-05-03T08:27:20.961Z</time></trkpt><trkpt lat="40.0262853" lon="9.433536"><ele>1026.0</ele><time>2026-05-03T08:27:21.962Z</time></trkpt><trkpt lat="40.0260617" lon="9.4335807"><ele>1026.0</ele><time>2026-05-03T08:27:22.961Z</time></trkpt><trkpt lat="40.025838" lon="9.4336286"><ele>1026.0</ele><time>2026-05-03T08:27:23.961Z</time></trkpt><trkpt lat="40.0256102" lon="9.4336795"><ele>1030.0</ele><time>2026-05-03T08:27:24.963Z</time></trkpt><trkpt lat="40.0253866" lon="9.4337221"><ele>1034.0</ele><time>2026-05-03T08:27:25.962Z</time></trkpt><trkpt lat="40.0251823" lon="9.4337626"><ele>1038.0</ele><time>2026-05-03T08:27:26.962Z</time></trkpt><trkpt lat="40.0249936" lon="9.4338048"><ele>1038.3333333333333</ele><time>2026-05-03T08:27:27.961Z</time></trkpt><trkpt lat="40.024816" lon="9.4338449"><ele>1038.6666666666665</ele><time>2026-05-03T08:27:28.962Z</time></trkpt><trkpt lat="40.024656" lon="9.4338804"><ele>1039.0</ele><time>2026-05-03T08:27:29.962Z</time></trkpt><trkpt lat="40.0245146" lon="9.433917"><ele>1039.0</ele><time>2026-05-03T08:27:30.961Z</time></trkpt><trkpt lat="40.0243897" lon="9.4339693"><ele>1039.0</ele><time>2026-05-03T08:27:31.961Z</time></trkpt><trkpt lat="40.024281" lon="9.4340511"><ele>1039.0</ele><time>2026-05-03T08:27:32.961Z</time></trkpt><trkpt lat="40.0241857" lon="9.4341718"><ele>1039.0</ele><time>2026-05-03T08:27:33.961Z</time></trkpt><trkpt lat="40.0241025" lon="9.4343215"><ele>1039.5</ele><time>2026-05-03T08:27:34.961Z</time></trkpt><trkpt lat="40.0240192" lon="9.4344768"><ele>1040.0</ele><time>2026-05-03T08:27:35.962Z</time></trkpt><trkpt lat="40.023933" lon="9.4346316"><ele>1040.5</ele><time>2026-05-03T08:27:36.961Z</time></trkpt><trkpt lat="40.0238477" lon="9.4347857"><ele>1041.0</ele><time>2026-05-03T08:27:37.961Z</time></trkpt><trkpt lat="40.0237646" lon="9.4349372"><ele>1041.0</ele><time>2026-05-03T08:27:38.962Z</time></trkpt><trkpt lat="40.0236855" lon="9.435087"><ele>1041.0</ele><time>2026-05-03T08:27:39.962Z</time></trkpt><trkpt lat="40.0236162" lon="9.4352387"><ele>1041.0</ele><time>2026-05-03T08:27:40.962Z</time></trkpt><trkpt lat="40.0235583" lon="9.4353959"><ele>1041.0</ele><time>2026-05-03T08:27:41.961Z</time></trkpt><trkpt lat="40.0235132" lon="9.4355566"><ele>1041.25</ele><time>2026-05-03T08:27:42.961Z</time></trkpt><trkpt lat="40.0234848" lon="9.4357277"><ele>1041.5</ele><time>2026-05-03T08:27:43.962Z</time></trkpt><trkpt lat="40.023461" lon="9.4359077"><ele>1041.75</ele><time>2026-05-03T08:27:44.963Z</time></trkpt><trkpt lat="40.0234314" lon="9.4360887"><ele>1042.0</ele><time>2026-05-03T08:27:45.961Z</time></trkpt><trkpt lat="40.0234026" lon="9.4362673"><ele>1041.75</ele><time>2026-05-03T08:27:46.961Z</time></trkpt><trkpt lat="40.0233797" lon="9.4364328"><ele>1041.5</ele><time>2026-05-03T08:27:47.961Z</time></trkpt><trkpt lat="40.0233555" lon="9.4365903"><ele>1041.25</ele><time>2026-05-03T08:27:48.962Z</time></trkpt><trkpt lat="40.0233335" lon="9.4367407"><ele>1041.0</ele><time>2026-05-03T08:27:49.962Z</time></trkpt><trkpt lat="40.0233136" lon="9.4368841"><ele>1039.2</ele><time>2026-05-03T08:27:50.961Z</time></trkpt><trkpt lat="40.0232921" lon="9.4370234"><ele>1037.3999999999999</ele><time>2026-05-03T08:27:51.961Z</time></trkpt><trkpt lat="40.0232708" lon="9.4371533"><ele>1035.6</ele><time>2026-05-03T08:27:52.962Z</time></trkpt><trkpt lat="40.0232437" lon="9.4372757"><ele>1033.8</ele><time>2026-05-03T08:27:53.962Z</time></trkpt><trkpt lat="40.0232045" lon="9.4373851"><ele>1032.0</ele><time>2026-05-03T08:27:54.961Z</time></trkpt><trkpt lat="40.0231521" lon="9.4374782"><ele>1031.6666666666667</ele><time>2026-05-03T08:27:55.962Z</time></trkpt><trkpt lat="40.0230912" lon="9.4375573"><ele>1031.3333333333333</ele><time>2026-05-03T08:27:56.962Z</time></trkpt><trkpt lat="40.0230242" lon="9.4376219"><ele>1031.0</ele><time>2026-05-03T08:27:57.962Z</time></trkpt><trkpt lat="40.0229564" lon="9.4376783"><ele>1030.6666666666665</ele><time>2026-05-03T08:27:58.961Z</time></trkpt><trkpt lat="40.0228893" lon="9.4377349"><ele>1030.3333333333333</ele><time>2026-05-03T08:27:59.962Z</time></trkpt><trkpt lat="40.0228228" lon="9.4377904"><ele>1030.0</ele><time>2026-05-03T08:28:00.962Z</time></trkpt><trkpt lat="40.022753" lon="9.4378467"><ele>1030.0</ele><time>2026-05-03T08:28:01.961Z</time></trkpt><trkpt lat="40.0226849" lon="9.4379011"><ele>1030.0</ele><time>2026-05-03T08:28:02.961Z</time></trkpt><trkpt lat="40.0226175" lon="9.4379569"><ele>1030.0</ele><time>2026-05-03T08:28:03.961Z</time></trkpt><trkpt lat="40.0225516" lon="9.4380144"><ele>1030.0</ele><time>2026-05-03T08:28:04.961Z</time></trkpt><trkpt lat="40.0224857" lon="9.4380711"><ele>1030.0</ele><time>2026-05-03T08:28:05.961Z</time></trkpt><trkpt lat="40.0224175" lon="9.4381229"><ele>1030.0</ele><time>2026-05-03T08:28:06.963Z</time></trkpt><trkpt lat="40.0223467" lon="9.4381723"><ele>1029.8</ele><time>2026-05-03T08:28:07.961Z</time></trkpt><trkpt lat="40.0222736" lon="9.4382148"><ele>1029.6</ele><time>2026-05-03T08:28:08.961Z</time></trkpt><trkpt lat="40.0221914" lon="9.4382485"><ele>1029.4</ele><time>2026-05-03T08:28:09.961Z</time></trkpt><trkpt lat="40.0221019" lon="9.438271"><ele>1029.2</ele><time>2026-05-03T08:28:10.961Z</time></trkpt><trkpt lat="40.022004" lon="9.4382809"><ele>1029.0</ele><time>2026-05-03T08:28:11.962Z</time></trkpt><trkpt lat="40.0218957" lon="9.4382874"><ele>1029.0</ele><time>2026-05-03T08:28:12.961Z</time></trkpt><trkpt lat="40.0217768" lon="9.4382909"><ele>1029.0</ele><time>2026-05-03T08:28:13.962Z</time></trkpt><trkpt lat="40.021653" lon="9.4382947"><ele>1029.0</ele><time>2026-05-03T08:28:14.962Z</time></trkpt><trkpt lat="40.0215242" lon="9.4382955"><ele>1029.0</ele><time>2026-05-03T08:28:15.961Z</time></trkpt><trkpt lat="40.0213887" lon="9.4382971"><ele>1028.0</ele><time>2026-05-03T08:28:16.962Z</time></trkpt><trkpt lat="40.02125" lon="9.4383007"><ele>1027.0</ele><time>2026-05-03T08:28:17.961Z</time></trkpt><trkpt lat="40.0211081" lon="9.4383073"><ele>1026.0</ele><time>2026-05-03T08:28:18.962Z</time></trkpt><trkpt lat="40.0209705" lon="9.4383129"><ele>1025.0</ele><time>2026-05-03T08:28:19.961Z</time></trkpt><trkpt lat="40.0208439" lon="9.438315"><ele>1024.25</ele><time>2026-05-03T08:28:20.961Z</time></trkpt><trkpt lat="40.020723" lon="9.4383176"><ele>1023.5</ele><time>2026-05-03T08:28:21.961Z</time></trkpt><trkpt lat="40.0206025" lon="9.4383207"><ele>1022.75</ele><time>2026-05-03T08:28:22.961Z</time></trkpt><trkpt lat="40.0204825" lon="9.4383223"><ele>1022.0</ele><time>2026-05-03T08:28:23.961Z</time></trkpt><trkpt lat="40.0203638" lon="9.4383282"><ele>1022.0</ele><time>2026-05-03T08:28:24.961Z</time></trkpt><trkpt lat="40.0202487" lon="9.438356"><ele>1022.0</ele><time>2026-05-03T08:28:25.961Z</time></trkpt><trkpt lat="40.0201329" lon="9.4384218"><ele>1022.0</ele><time>2026-05-03T08:28:26.961Z</time></trkpt><trkpt lat="40.0200168" lon="9.4385295"><ele>1022.0</ele><time>2026-05-03T08:28:27.961Z</time></trkpt><trkpt lat="40.0199014" lon="9.4386647"><ele>1022.6666666666667</ele><time>2026-05-03T08:28:28.961Z</time></trkpt><trkpt lat="40.0197812" lon="9.4387991"><ele>1023.3333333333333</ele><time>2026-05-03T08:28:29.961Z</time></trkpt><trkpt lat="40.0196618" lon="9.4389352"><ele>1024.0</ele><time>2026-05-03T08:28:30.962Z</time></trkpt><trkpt lat="40.0195391" lon="9.4390689"><ele>1024.0</ele><time>2026-05-03T08:28:31.962Z</time></trkpt><trkpt lat="40.0194135" lon="9.4392066"><ele>1024.0</ele><time>2026-05-03T08:28:32.961Z</time></trkpt><trkpt lat="40.0192805" lon="9.4393515"><ele>1024.0</ele><time>2026-05-03T08:28:33.962Z</time></trkpt><trkpt lat="40.019134" lon="9.439492"><ele>1023.0</ele><time>2026-05-03T08:28:34.961Z</time></trkpt><trkpt lat="40.018972" lon="9.4396305"><ele>1022.0</ele><time>2026-05-03T08:28:35.962Z</time></trkpt><trkpt lat="40.0188009" lon="9.4397637"><ele>1021.0</ele><time>2026-05-03T08:28:36.962Z</time></trkpt><trkpt lat="40.018627" lon="9.4398951"><ele>1022.0</ele><time>2026-05-03T08:28:37.962Z</time></trkpt><trkpt lat="40.0184503" lon="9.440015"><ele>1023.0</ele><time>2026-05-03T08:28:38.961Z</time></trkpt><trkpt lat="40.0182652" lon="9.4401198"><ele>1024.0</ele><time>2026-05-03T08:28:39.961Z</time></trkpt><trkpt lat="40.0180626" lon="9.4402068"><ele>1024.0</ele><time>2026-05-03T08:28:40.961Z</time></trkpt><trkpt lat="40.0178534" lon="9.4402799"><ele>1024.0</ele><time>2026-05-03T08:28:41.961Z</time></trkpt><trkpt lat="40.0176416" lon="9.4403505"><ele>1024.0</ele><time>2026-05-03T08:28:42.962Z</time></trkpt><trkpt lat="40.0174247" lon="9.4404255"><ele>1025.5</ele><time>2026-05-03T08:28:43.962Z</time></trkpt><trkpt lat="40.0171977" lon="9.4405005"><ele>1027.0</ele><time>2026-05-03T08:28:44.962Z</time></trkpt><trkpt lat="40.0169699" lon="9.4405664"><ele>1027.0</ele><time>2026-05-03T08:28:45.962Z</time></trkpt><trkpt lat="40.016745" lon="9.440627"><ele>1027.0</ele><time>2026-05-03T08:28:46.961Z</time></trkpt><trkpt lat="40.0165395" lon="9.4406807"><ele>1027.0</ele><time>2026-05-03T08:28:47.961Z</time></trkpt><trkpt lat="40.0163481" lon="9.4407352"><ele>1027.3333333333333</ele><time>2026-05-03T08:28:48.963Z</time></trkpt><trkpt lat="40.01618" lon="9.4407817"><ele>1027.6666666666667</ele><time>2026-05-03T08:28:49.961Z</time></trkpt><trkpt lat="40.0160199" lon="9.4408085"><ele>1028.0</ele><time>2026-05-03T08:28:50.961Z</time></trkpt><trkpt lat="40.0158618" lon="9.4408115"><ele>1029.25</ele><time>2026-05-03T08:28:51.962Z</time></trkpt><trkpt lat="40.0157074" lon="9.4407843"><ele>1030.5</ele><time>2026-05-03T08:28:52.962Z</time></trkpt><trkpt lat="40.0155654" lon="9.4407375"><ele>1031.75</ele><time>2026-05-03T08:28:53.962Z</time></trkpt><trkpt lat="40.0154284" lon="9.4406825"><ele>1033.0</ele><time>2026-05-03T08:28:54.961Z</time></trkpt><trkpt lat="40.0152894" lon="9.440628"><ele>1033.0</ele><time>2026-05-03T08:28:55.961Z</time></trkpt><trkpt lat="40.0151494" lon="9.4405805"><ele>1033.0</ele><time>2026-05-03T08:28:56.962Z</time></trkpt><trkpt lat="40.0150171" lon="9.4405354"><ele>1033.0</ele><time>2026-05-03T08:28:57.961Z</time></trkpt><trkpt lat="40.0148945" lon="9.4404931"><ele>1033.0</ele><time>2026-05-03T08:28:58.961Z</time></trkpt><trkpt lat="40.0147805" lon="9.4404538"><ele>1032.2</ele><time>2026-05-03T08:28:59.961Z</time></trkpt><trkpt lat="40.0146755" lon="9.4404157"><ele>1031.4</ele><time>2026-05-03T08:29:00.961Z</time></trkpt><trkpt lat="40.014578" lon="9.4403764"><ele>1030.6000000000001</ele><time>2026-05-03T08:29:01.962Z</time></trkpt><trkpt lat="40.0144872" lon="9.4403402"><ele>1029.8</ele><time>2026-05-03T08:29:02.961Z</time></trkpt><trkpt lat="40.014395" lon="9.4403065"><ele>1029.0</ele><time>2026-05-03T08:29:03.961Z</time></trkpt><trkpt lat="40.014305" lon="9.4402746"><ele>1029.0</ele><time>2026-05-03T08:29:04.961Z</time></trkpt><trkpt lat="40.0142171" lon="9.4402419"><ele>1029.0</ele><time>2026-05-03T08:29:05.962Z</time></trkpt><trkpt lat="40.0141293" lon="9.4402143"><ele>1029.0</ele><time>2026-05-03T08:29:06.961Z</time></trkpt><trkpt lat="40.0140417" lon="9.4401816"><ele>1029.0</ele><time>2026-05-03T08:29:07.961Z</time></trkpt><trkpt lat="40.0139517" lon="9.4401418"><ele>1029.0</ele><time>2026-05-03T08:29:08.962Z</time></trkpt><trkpt lat="40.0138565" lon="9.4401065"><ele>1028.5</ele><time>2026-05-03T08:29:09.962Z</time></trkpt><trkpt lat="40.0137533" lon="9.4400806"><ele>1028.0</ele><time>2026-05-03T08:29:10.961Z</time></trkpt><trkpt lat="40.0136445" lon="9.4400632"><ele>1027.5</ele><time>2026-05-03T08:29:11.961Z</time></trkpt><trkpt lat="40.01353" lon="9.4400524"><ele>1027.0</ele><time>2026-05-03T08:29:12.961Z</time></trkpt><trkpt lat="40.0134097" lon="9.4400486"><ele>1024.0</ele><time>2026-05-03T08:29:13.962Z</time></trkpt><trkpt lat="40.0132853" lon="9.4400464"><ele>1021.0</ele><time>2026-05-03T08:29:14.961Z</time></trkpt><trkpt lat="40.0131595" lon="9.4400446"><ele>1018.0</ele><time>2026-05-03T08:29:15.961Z</time></trkpt><trkpt lat="40.0130328" lon="9.4400441"><ele>1015.0</ele><time>2026-05-03T08:29:16.962Z</time></trkpt><trkpt lat="40.0129049" lon="9.4400481"><ele>1015.0</ele><time>2026-05-03T08:29:17.962Z</time></trkpt><trkpt lat="40.0127781" lon="9.4400636"><ele>1015.0</ele><time>2026-05-03T08:29:18.962Z</time></trkpt><trkpt lat="40.0126525" lon="9.4400859"><ele>1015.0</ele><time>2026-05-03T08:29:19.962Z</time></trkpt><trkpt lat="40.0125274" lon="9.4401063"><ele>1015.0</ele><time>2026-05-03T08:29:20.961Z</time></trkpt><trkpt lat="40.0124042" lon="9.4401305"><ele>1011.5</ele><time>2026-05-03T08:29:21.961Z</time></trkpt><trkpt lat="40.0122856" lon="9.440158"><ele>1008.0</ele><time>2026-05-03T08:29:22.963Z</time></trkpt><trkpt lat="40.0121741" lon="9.4402006"><ele>1004.5</ele><time>2026-05-03T08:29:23.961Z</time></trkpt><trkpt lat="40.0120721" lon="9.440263"><ele>1001.0</ele><time>2026-05-03T08:29:24.961Z</time></trkpt><trkpt lat="40.0119793" lon="9.4403382"><ele>1001.0</ele><time>2026-05-03T08:29:25.961Z</time></trkpt><trkpt lat="40.0118902" lon="9.440429"><ele>1001.0</ele><time>2026-05-03T08:29:26.962Z</time></trkpt><trkpt lat="40.0118046" lon="9.4405352"><ele>1001.0</ele><time>2026-05-03T08:29:27.961Z</time></trkpt><trkpt lat="40.01172" lon="9.4406516"><ele>1001.0</ele><time>2026-05-03T08:29:28.961Z</time></trkpt><trkpt lat="40.0116355" lon="9.4407661"><ele>1001.25</ele><time>2026-05-03T08:29:29.961Z</time></trkpt><trkpt lat="40.0115436" lon="9.4408685"><ele>1001.5</ele><time>2026-05-03T08:29:30.961Z</time></trkpt><trkpt lat="40.0114391" lon="9.440941"><ele>1001.75</ele><time>2026-05-03T08:29:31.962Z</time></trkpt><trkpt lat="40.0113267" lon="9.4409789"><ele>1002.0</ele><time>2026-05-03T08:29:32.962Z</time></trkpt><trkpt lat="40.011213" lon="9.4409841"><ele>1002.0</ele><time>2026-05-03T08:29:33.962Z</time></trkpt><trkpt lat="40.0111012" lon="9.4409599"><ele>1002.0</ele><time>2026-05-03T08:29:34.961Z</time></trkpt><trkpt lat="40.0109883" lon="9.4409214"><ele>1002.0</ele><time>2026-05-03T08:29:35.962Z</time></trkpt><trkpt lat="40.0108689" lon="9.4408801"><ele>1002.0</ele><time>2026-05-03T08:29:36.961Z</time></trkpt><trkpt lat="40.0107429" lon="9.4408287"><ele>1001.5</ele><time>2026-05-03T08:29:37.961Z</time></trkpt><trkpt lat="40.0106139" lon="9.4407788"><ele>1001.0</ele><time>2026-05-03T08:29:38.961Z</time></trkpt><trkpt lat="40.0104756" lon="9.4407413"><ele>1000.5</ele><time>2026-05-03T08:29:39.961Z</time></trkpt><trkpt lat="40.010333" lon="9.4407095"><ele>1000.0</ele><time>2026-05-03T08:29:40.962Z</time></trkpt><trkpt lat="40.0101838" lon="9.4406879"><ele>1000.0</ele><time>2026-05-03T08:29:41.961Z</time></trkpt><trkpt lat="40.0100316" lon="9.4406705"><ele>1000.0</ele><time>2026-05-03T08:29:42.961Z</time></trkpt><trkpt lat="40.0098772" lon="9.4406505"><ele>1000.0</ele><time>2026-05-03T08:29:43.961Z</time></trkpt><trkpt lat="40.0097219" lon="9.4406317"><ele>997.6666666666666</ele><time>2026-05-03T08:29:44.962Z</time></trkpt><trkpt lat="40.0095662" lon="9.44062"><ele>995.3333333333333</ele><time>2026-05-03T08:29:45.963Z</time></trkpt><trkpt lat="40.0094125" lon="9.4406078"><ele>993.0</ele><time>2026-05-03T08:29:46.961Z</time></trkpt><trkpt lat="40.0092639" lon="9.4405923"><ele>991.75</ele><time>2026-05-03T08:29:47.962Z</time></trkpt><trkpt lat="40.0091186" lon="9.4405763"><ele>990.5</ele><time>2026-05-03T08:29:48.962Z</time></trkpt><trkpt lat="40.0089775" lon="9.4405609"><ele>989.25</ele><time>2026-05-03T08:29:49.961Z</time></trkpt><trkpt lat="40.0088395" lon="9.4405444"><ele>988.0</ele><time>2026-05-03T08:29:50.962Z</time></trkpt><trkpt lat="40.0087046" lon="9.4405287"><ele>988.0</ele><time>2026-05-03T08:29:51.961Z</time></trkpt><trkpt lat="40.0085733" lon="9.4405095"><ele>988.0</ele><time>2026-05-03T08:29:52.961Z</time></trkpt><trkpt lat="40.0084484" lon="9.4404707"><ele>988.0</ele><time>2026-05-03T08:29:53.961Z</time></trkpt><trkpt lat="40.0083327" lon="9.4404058"><ele>988.0</ele><time>2026-05-03T08:29:54.962Z</time></trkpt><trkpt lat="40.0082234" lon="9.4403235"><ele>984.75</ele><time>2026-05-03T08:29:55.962Z</time></trkpt><trkpt lat="40.0081171" lon="9.4402306"><ele>981.5</ele><time>2026-05-03T08:29:56.962Z</time></trkpt><trkpt lat="40.0080127" lon="9.4401305"><ele>978.25</ele><time>2026-05-03T08:29:57.962Z</time></trkpt><trkpt lat="40.0079074" lon="9.4400241"><ele>975.0</ele><time>2026-05-03T08:29:58.962Z</time></trkpt><trkpt lat="40.0078029" lon="9.4399106"><ele>975.0</ele><time>2026-05-03T08:29:59.962Z</time></trkpt><trkpt lat="40.0076977" lon="9.4397931"><ele>975.0</ele><time>2026-05-03T08:30:00.961Z</time></trkpt><trkpt lat="40.0075881" lon="9.4396782"><ele>975.0</ele><time>2026-05-03T08:30:01.962Z</time></trkpt><trkpt lat="40.0074763" lon="9.4395643"><ele>975.0</ele><time>2026-05-03T08:30:02.961Z</time></trkpt><trkpt lat="40.0073688" lon="9.4394542"><ele>974.0</ele><time>2026-05-03T08:30:03.962Z</time></trkpt><trkpt lat="40.0072663" lon="9.4393418"><ele>973.0</ele><time>2026-05-03T08:30:04.961Z</time></trkpt><trkpt lat="40.0071724" lon="9.4392248"><ele>972.0</ele><time>2026-05-03T08:30:05.962Z</time></trkpt><trkpt lat="40.0070971" lon="9.4391052"><ele>971.0</ele><time>2026-05-03T08:30:06.962Z</time></trkpt><trkpt lat="40.00704" lon="9.4389795"><ele>971.0</ele><time>2026-05-03T08:30:07.963Z</time></trkpt><trkpt lat="40.0070087" lon="9.4388426"><ele>970.9999999999999</ele><time>2026-05-03T08:30:08.962Z</time></trkpt><trkpt lat="40.0069967" lon="9.438703"><ele>970.9999999999999</ele><time>2026-05-03T08:30:09.962Z</time></trkpt><trkpt lat="40.0069921" lon="9.438563"><ele>971.0</ele><time>2026-05-03T08:30:10.961Z</time></trkpt><trkpt lat="40.0069892" lon="9.438423"><ele>971.0</ele><time>2026-05-03T08:30:11.961Z</time></trkpt><trkpt lat="40.0069849" lon="9.4382812"><ele>968.5999999999999</ele><time>2026-05-03T08:30:12.961Z</time></trkpt><trkpt lat="40.0069843" lon="9.438139"><ele>966.1999999999999</ele><time>2026-05-03T08:30:13.962Z</time></trkpt><trkpt lat="40.0069832" lon="9.4379962"><ele>963.8000000000001</ele><time>2026-05-03T08:30:14.961Z</time></trkpt><trkpt lat="40.0069824" lon="9.4378509"><ele>961.4000000000001</ele><time>2026-05-03T08:30:15.962Z</time></trkpt><trkpt lat="40.0069833" lon="9.437703"><ele>959.0</ele><time>2026-05-03T08:30:16.962Z</time></trkpt><trkpt lat="40.0069804" lon="9.4375533"><ele>957.75</ele><time>2026-05-03T08:30:17.962Z</time></trkpt><trkpt lat="40.0069725" lon="9.4374044"><ele>956.5</ele><time>2026-05-03T08:30:18.962Z</time></trkpt><trkpt lat="40.0069577" lon="9.4372533"><ele>955.25</ele><time>2026-05-03T08:30:19.961Z</time></trkpt><trkpt lat="40.006927" lon="9.4371065"><ele>954.0</ele><time>2026-05-03T08:30:20.961Z</time></trkpt><trkpt lat="40.0068774" lon="9.4369702"><ele>953.6</ele><time>2026-05-03T08:30:21.962Z</time></trkpt><trkpt lat="40.0068155" lon="9.4368488"><ele>953.2</ele><time>2026-05-03T08:30:22.962Z</time></trkpt><trkpt lat="40.0067526" lon="9.4367294"><ele>952.8000000000001</ele><time>2026-05-03T08:30:23.963Z</time></trkpt><trkpt lat="40.0066939" lon="9.4366092"><ele>952.4000000000001</ele><time>2026-05-03T08:30:24.961Z</time></trkpt><trkpt lat="40.0066354" lon="9.43649"><ele>952.0</ele><time>2026-05-03T08:30:25.961Z</time></trkpt><trkpt lat="40.006576" lon="9.4363746"><ele>950.6</ele><time>2026-05-03T08:30:26.962Z</time></trkpt><trkpt lat="40.0065127" lon="9.4362626"><ele>949.2</ele><time>2026-05-03T08:30:27.962Z</time></trkpt><trkpt lat="40.0064415" lon="9.4361534"><ele>947.8</ele><time>2026-05-03T08:30:28.961Z</time></trkpt><trkpt lat="40.0063668" lon="9.4360453"><ele>946.4</ele><time>2026-05-03T08:30:29.962Z</time></trkpt><trkpt lat="40.0062881" lon="9.4359378"><ele>945.0</ele><time>2026-05-03T08:30:30.961Z</time></trkpt><trkpt lat="40.0062076" lon="9.4358296"><ele>945.0</ele><time>2026-05-03T08:30:31.962Z</time></trkpt><trkpt lat="40.0061373" lon="9.4357093"><ele>945.0</ele><time>2026-05-03T08:30:32.962Z</time></trkpt><trkpt lat="40.0060787" lon="9.4355818"><ele>945.0</ele><time>2026-05-03T08:30:33.961Z</time></trkpt><trkpt lat="40.006033" lon="9.4354481"><ele>945.0</ele><time>2026-05-03T08:30:34.961Z</time></trkpt><trkpt lat="40.0059946" lon="9.4353149"><ele>944.0</ele><time>2026-05-03T08:30:35.962Z</time></trkpt><trkpt lat="40.0059575" lon="9.4351844"><ele>943.0</ele><time>2026-05-03T08:30:36.962Z</time></trkpt><trkpt lat="40.0059187" lon="9.4350572"><ele>942.0</ele><time>2026-05-03T08:30:37.961Z</time></trkpt><trkpt lat="40.0058809" lon="9.4349349"><ele>941.0</ele><time>2026-05-03T08:30:38.961Z</time></trkpt><trkpt lat="40.0058456" lon="9.4348129"><ele>940.0</ele><time>2026-05-03T08:30:39.962Z</time></trkpt><trkpt lat="40.0058114" lon="9.4346943"><ele>940.4999999999999</ele><time>2026-05-03T08:30:40.962Z</time></trkpt><trkpt lat="40.0057794" lon="9.4345846"><ele>941.0</ele><time>2026-05-03T08:30:41.962Z</time></trkpt><trkpt lat="40.0057485" lon="9.4344797"><ele>941.5</ele><time>2026-05-03T08:30:42.962Z</time></trkpt><trkpt lat="40.0057217" lon="9.4343863"><ele>942.0</ele><time>2026-05-03T08:30:43.962Z</time></trkpt><trkpt lat="40.0056959" lon="9.4342989"><ele>942.4999999999999</ele><time>2026-05-03T08:30:44.962Z</time></trkpt><trkpt lat="40.0056442" lon="9.4341781"><ele>943.0</ele><time>2026-05-03T08:30:46.962Z</time></trkpt><trkpt lat="40.0055827" lon="9.4341182"><ele>943.0</ele><time>2026-05-03T08:30:48.961Z</time></trkpt><trkpt lat="40.0055037" lon="9.4340758"><ele>943.0</ele><time>2026-05-03T08:30:51.962Z</time></trkpt></trkseg><trkseg><trkpt lat="40.0055221" lon="9.4339283"><ele>942.9999999999999</ele><time>2026-05-03T08:43:56.96Z</time></trkpt><trkpt lat="40.0055561" lon="9.4338379"><ele>943.0</ele><time>2026-05-03T08:43:59.961Z</time></trkpt><trkpt lat="40.0055311" lon="9.4337206"><ele>943.0</ele><time>2026-05-03T08:44:01.96Z</time></trkpt><trkpt lat="40.0055081" lon="9.4336437"><ele>943.0</ele><time>2026-05-03T08:44:02.961Z</time></trkpt><trkpt lat="40.0054856" lon="9.4335656"><ele>942.9999999999999</ele><time>2026-05-03T08:44:03.961Z</time></trkpt><trkpt lat="40.0054595" lon="9.4334747"><ele>943.0</ele><time>2026-05-03T08:44:04.962Z</time></trkpt><trkpt lat="40.0054304" lon="9.4333758"><ele>941.8</ele><time>2026-05-03T08:44:05.961Z</time></trkpt><trkpt lat="40.0053971" lon="9.4332654"><ele>940.5999999999999</ele><time>2026-05-03T08:44:06.962Z</time></trkpt><trkpt lat="40.0053629" lon="9.4331485"><ele>939.4000000000001</ele><time>2026-05-03T08:44:07.961Z</time></trkpt><trkpt lat="40.0053277" lon="9.4330271"><ele>938.2</ele><time>2026-05-03T08:44:08.962Z</time></trkpt><trkpt lat="40.005292" lon="9.4329043"><ele>937.0</ele><time>2026-05-03T08:44:09.96Z</time></trkpt><trkpt lat="40.0052512" lon="9.4327736"><ele>936.0</ele><time>2026-05-03T08:44:10.961Z</time></trkpt><trkpt lat="40.0052063" lon="9.4326349"><ele>935.0</ele><time>2026-05-03T08:44:11.96Z</time></trkpt><trkpt lat="40.0051649" lon="9.432498"><ele>934.0</ele><time>2026-05-03T08:44:12.96Z</time></trkpt><trkpt lat="40.0051256" lon="9.432361"><ele>933.0</ele><time>2026-05-03T08:44:13.96Z</time></trkpt><trkpt lat="40.005087" lon="9.4322235"><ele>933.0</ele><time>2026-05-03T08:44:14.961Z</time></trkpt><trkpt lat="40.0050457" lon="9.4320825"><ele>933.0</ele><time>2026-05-03T08:44:15.96Z</time></trkpt><trkpt lat="40.0050028" lon="9.431935"><ele>933.0</ele><time>2026-05-03T08:44:16.961Z</time></trkpt><trkpt lat="40.004956" lon="9.4317776"><ele>933.0</ele><time>2026-05-03T08:44:17.96Z</time></trkpt><trkpt lat="40.0049039" lon="9.4316046"><ele>933.0</ele><time>2026-05-03T08:44:18.961Z</time></trkpt><trkpt lat="40.0048471" lon="9.4314086"><ele>933.0</ele><time>2026-05-03T08:44:19.961Z</time></trkpt><trkpt lat="40.0047846" lon="9.4311934"><ele>933.0</ele><time>2026-05-03T08:44:20.96Z</time></trkpt><trkpt lat="40.0047175" lon="9.4309637"><ele>933.0</ele><time>2026-05-03T08:44:21.961Z</time></trkpt><trkpt lat="40.0046452" lon="9.4307261"><ele>933.0</ele><time>2026-05-03T08:44:22.961Z</time></trkpt><trkpt lat="40.0045715" lon="9.4304766"><ele>933.0</ele><time>2026-05-03T08:44:23.961Z</time></trkpt><trkpt lat="40.004498" lon="9.4302257"><ele>933.0</ele><time>2026-05-03T08:44:24.96Z</time></trkpt><trkpt lat="40.0044173" lon="9.4299659"><ele>933.0</ele><time>2026-05-03T08:44:25.96Z</time></trkpt><trkpt lat="40.00434" lon="9.4297036"><ele>933.0</ele><time>2026-05-03T08:44:26.96Z</time></trkpt><trkpt lat="40.0042617" lon="9.4294379"><ele>934.3333333333333</ele><time>2026-05-03T08:44:27.961Z</time></trkpt><trkpt lat="40.0041842" lon="9.4291669"><ele>935.6666666666666</ele><time>2026-05-03T08:44:28.96Z</time></trkpt><trkpt lat="40.0041029" lon="9.4288946"><ele>937.0</ele><time>2026-05-03T08:44:29.96Z</time></trkpt><trkpt lat="40.0040226" lon="9.428619"><ele>937.6666666666666</ele><time>2026-05-03T08:44:30.96Z</time></trkpt><trkpt lat="40.0039427" lon="9.428354"><ele>938.3333333333333</ele><time>2026-05-03T08:44:31.961Z</time></trkpt><trkpt lat="40.0038734" lon="9.4281205"><ele>939.0</ele><time>2026-05-03T08:44:32.96Z</time></trkpt><trkpt lat="40.0038132" lon="9.4279083"><ele>939.0</ele><time>2026-05-03T08:44:33.961Z</time></trkpt><trkpt lat="40.0037607" lon="9.4276946"><ele>939.0</ele><time>2026-05-03T08:44:34.96Z</time></trkpt><trkpt lat="40.0037182" lon="9.4274741"><ele>939.0</ele><time>2026-05-03T08:44:35.96Z</time></trkpt><trkpt lat="40.0036808" lon="9.4272515"><ele>937.0</ele><time>2026-05-03T08:44:36.961Z</time></trkpt><trkpt lat="40.0036427" lon="9.4270225"><ele>935.0</ele><time>2026-05-03T08:44:37.961Z</time></trkpt><trkpt lat="40.0036022" lon="9.4267959"><ele>933.0</ele><time>2026-05-03T08:44:38.961Z</time></trkpt><trkpt lat="40.003557" lon="9.4265726"><ele>933.0</ele><time>2026-05-03T08:44:39.961Z</time></trkpt><trkpt lat="40.0035125" lon="9.4263581"><ele>933.0</ele><time>2026-05-03T08:44:40.96Z</time></trkpt><trkpt lat="40.0034719" lon="9.42615"><ele>933.0</ele><time>2026-05-03T08:44:41.96Z</time></trkpt><trkpt lat="40.0034316" lon="9.4259466"><ele>930.6666666666667</ele><time>2026-05-03T08:44:42.96Z</time></trkpt><trkpt lat="40.0033922" lon="9.4257469"><ele>928.3333333333334</ele><time>2026-05-03T08:44:43.96Z</time></trkpt><trkpt lat="40.003352" lon="9.4255459"><ele>926.0</ele><time>2026-05-03T08:44:44.961Z</time></trkpt><trkpt lat="40.0033102" lon="9.4253463"><ele>924.75</ele><time>2026-05-03T08:44:45.96Z</time></trkpt><trkpt lat="40.0032706" lon="9.4251533"><ele>923.5</ele><time>2026-05-03T08:44:46.96Z</time></trkpt><trkpt lat="40.0032315" lon="9.4249668"><ele>922.25</ele><time>2026-05-03T08:44:47.96Z</time></trkpt><trkpt lat="40.0031935" lon="9.4247904"><ele>921.0</ele><time>2026-05-03T08:44:48.961Z</time></trkpt><trkpt lat="40.0031601" lon="9.4246299"><ele>919.0</ele><time>2026-05-03T08:44:49.961Z</time></trkpt><trkpt lat="40.0031269" lon="9.424478"><ele>917.0</ele><time>2026-05-03T08:44:50.96Z</time></trkpt><trkpt lat="40.0031004" lon="9.4243308"><ele>915.0</ele><time>2026-05-03T08:44:51.96Z</time></trkpt><trkpt lat="40.0030845" lon="9.424185"><ele>913.0</ele><time>2026-05-03T08:44:52.96Z</time></trkpt><trkpt lat="40.0030859" lon="9.4240394"><ele>913.0</ele><time>2026-05-03T08:44:53.96Z</time></trkpt><trkpt lat="40.0031154" lon="9.4238934"><ele>913.0</ele><time>2026-05-03T08:44:54.961Z</time></trkpt><trkpt lat="40.0031578" lon="9.4237546"><ele>913.0</ele><time>2026-05-03T08:44:55.961Z</time></trkpt><trkpt lat="40.0032178" lon="9.4236308"><ele>913.0</ele><time>2026-05-03T08:44:56.961Z</time></trkpt><trkpt lat="40.0032907" lon="9.4235315"><ele>913.0</ele><time>2026-05-03T08:44:57.961Z</time></trkpt><trkpt lat="40.0033744" lon="9.4234654"><ele>912.0</ele><time>2026-05-03T08:44:58.96Z</time></trkpt><trkpt lat="40.0034646" lon="9.4234381"><ele>911.0</ele><time>2026-05-03T08:44:59.96Z</time></trkpt><trkpt lat="40.0035585" lon="9.4234441"><ele>910.0</ele><time>2026-05-03T08:45:00.961Z</time></trkpt><trkpt lat="40.0036522" lon="9.4234618"><ele>909.0</ele><time>2026-05-03T08:45:01.96Z</time></trkpt><trkpt lat="40.0037468" lon="9.4234858"><ele>908.0</ele><time>2026-05-03T08:45:02.961Z</time></trkpt><trkpt lat="40.0038418" lon="9.4235087"><ele>908.0000000000001</ele><time>2026-05-03T08:45:03.96Z</time></trkpt><trkpt lat="40.003935" lon="9.4235302"><ele>908.0</ele><time>2026-05-03T08:45:04.96Z</time></trkpt><trkpt lat="40.0040247" lon="9.4235473"><ele>908.0</ele><time>2026-05-03T08:45:05.961Z</time></trkpt><trkpt lat="40.0041096" lon="9.4235562"><ele>908.0</ele><time>2026-05-03T08:45:06.961Z</time></trkpt><trkpt lat="40.0041881" lon="9.4235422"><ele>908.0000000000001</ele><time>2026-05-03T08:45:07.96Z</time></trkpt><trkpt lat="40.0042609" lon="9.423508"><ele>908.0</ele><time>2026-05-03T08:45:08.961Z</time></trkpt><trkpt lat="40.0043173" lon="9.4234476"><ele>907.1666666666667</ele><time>2026-05-03T08:45:09.96Z</time></trkpt><trkpt lat="40.0043578" lon="9.4233622"><ele>906.3333333333334</ele><time>2026-05-03T08:45:10.961Z</time></trkpt><trkpt lat="40.0043844" lon="9.4232628"><ele>905.5</ele><time>2026-05-03T08:45:11.961Z</time></trkpt><trkpt lat="40.0043946" lon="9.423155"><ele>904.6666666666667</ele><time>2026-05-03T08:45:12.961Z</time></trkpt><trkpt lat="40.0043931" lon="9.4230393"><ele>903.8333333333334</ele><time>2026-05-03T08:45:13.96Z</time></trkpt><trkpt lat="40.0043879" lon="9.422921"><ele>903.0</ele><time>2026-05-03T08:45:14.96Z</time></trkpt><trkpt lat="40.0043812" lon="9.4228038"><ele>901.0</ele><time>2026-05-03T08:45:15.96Z</time></trkpt><trkpt lat="40.0043752" lon="9.4226912"><ele>899.0</ele><time>2026-05-03T08:45:16.96Z</time></trkpt><trkpt lat="40.0043685" lon="9.4225809"><ele>897.0</ele><time>2026-05-03T08:45:17.961Z</time></trkpt><trkpt lat="40.0043651" lon="9.422476"><ele>895.0</ele><time>2026-05-03T08:45:18.96Z</time></trkpt><trkpt lat="40.0043615" lon="9.4223728"><ele>893.0</ele><time>2026-05-03T08:45:19.961Z</time></trkpt><trkpt lat="40.0043563" lon="9.4222677"><ele>891.0</ele><time>2026-05-03T08:45:20.961Z</time></trkpt><trkpt lat="40.0043511" lon="9.4221587"><ele>890.1666666666666</ele><time>2026-05-03T08:45:21.96Z</time></trkpt><trkpt lat="40.0043455" lon="9.4220516"><ele>889.3333333333333</ele><time>2026-05-03T08:45:22.96Z</time></trkpt><trkpt lat="40.0043399" lon="9.4219459"><ele>888.5</ele><time>2026-05-03T08:45:23.961Z</time></trkpt><trkpt lat="40.0043375" lon="9.4218379"><ele>887.6666666666666</ele><time>2026-05-03T08:45:24.961Z</time></trkpt><trkpt lat="40.0043312" lon="9.4217264"><ele>886.8333333333333</ele><time>2026-05-03T08:45:25.96Z</time></trkpt><trkpt lat="40.0043178" lon="9.4216137"><ele>886.0</ele><time>2026-05-03T08:45:26.96Z</time></trkpt><trkpt lat="40.0042972" lon="9.4214995"><ele>886.0</ele><time>2026-05-03T08:45:27.96Z</time></trkpt><trkpt lat="40.0042703" lon="9.4213883"><ele>885.9999999999999</ele><time>2026-05-03T08:45:28.96Z</time></trkpt><trkpt lat="40.0042334" lon="9.4212811"><ele>885.9999999999999</ele><time>2026-05-03T08:45:29.961Z</time></trkpt><trkpt lat="40.004193" lon="9.4211758"><ele>886.0</ele><time>2026-05-03T08:45:30.961Z</time></trkpt><trkpt lat="40.0041478" lon="9.4210716"><ele>886.0</ele><time>2026-05-03T08:45:31.96Z</time></trkpt><trkpt lat="40.0040969" lon="9.420973"><ele>886.8</ele><time>2026-05-03T08:45:32.96Z</time></trkpt><trkpt lat="40.0040416" lon="9.4208779"><ele>887.5999999999999</ele><time>2026-05-03T08:45:33.961Z</time></trkpt><trkpt lat="40.0039818" lon="9.4207853"><ele>888.4</ele><time>2026-05-03T08:45:34.961Z</time></trkpt><trkpt lat="40.0039214" lon="9.4206932"><ele>889.2</ele><time>2026-05-03T08:45:35.96Z</time></trkpt><trkpt lat="40.0038638" lon="9.4205981"><ele>890.0</ele><time>2026-05-03T08:45:36.96Z</time></trkpt><trkpt lat="40.0038156" lon="9.4205002"><ele>890.5000000000001</ele><time>2026-05-03T08:45:37.962Z</time></trkpt><trkpt lat="40.0037767" lon="9.4204058"><ele>891.0</ele><time>2026-05-03T08:45:38.96Z</time></trkpt><trkpt lat="40.0037459" lon="9.4203168"><ele>891.5</ele><time>2026-05-03T08:45:39.96Z</time></trkpt><trkpt lat="40.0037235" lon="9.4202354"><ele>892.0</ele><time>2026-05-03T08:45:40.961Z</time></trkpt><trkpt lat="40.0036884" lon="9.4200801"><ele>892.5000000000001</ele><time>2026-05-03T08:45:42.96Z</time></trkpt><trkpt lat="40.003678" lon="9.4199962"><ele>893.0</ele><time>2026-05-03T08:45:43.96Z</time></trkpt><trkpt lat="40.0036662" lon="9.4199084"><ele>893.0</ele><time>2026-05-03T08:45:44.961Z</time></trkpt><trkpt lat="40.0036538" lon="9.4198175"><ele>893.0</ele><time>2026-05-03T08:45:45.96Z</time></trkpt><trkpt lat="40.0036392" lon="9.4197246"><ele>893.0</ele><time>2026-05-03T08:45:46.961Z</time></trkpt><trkpt lat="40.0036205" lon="9.4196333"><ele>893.0</ele><time>2026-05-03T08:45:47.96Z</time></trkpt><trkpt lat="40.0036027" lon="9.4195367"><ele>893.0</ele><time>2026-05-03T08:45:48.961Z</time></trkpt><trkpt lat="40.0035859" lon="9.4194407"><ele>893.0</ele><time>2026-05-03T08:45:49.96Z</time></trkpt><trkpt lat="40.003569" lon="9.4193428"><ele>893.0</ele><time>2026-05-03T08:45:50.962Z</time></trkpt><trkpt lat="40.0035559" lon="9.4192396"><ele>893.1666666666667</ele><time>2026-05-03T08:45:51.96Z</time></trkpt><trkpt lat="40.0035427" lon="9.4191418"><ele>893.3333333333334</ele><time>2026-05-03T08:45:52.962Z</time></trkpt><trkpt lat="40.0035287" lon="9.4190524"><ele>893.5</ele><time>2026-05-03T08:45:53.96Z</time></trkpt><trkpt lat="40.0035006" lon="9.4189083"><ele>893.6666666666667</ele><time>2026-05-03T08:45:55.96Z</time></trkpt><trkpt lat="40.0034739" lon="9.4188103"><ele>893.8333333333334</ele><time>2026-05-03T08:45:57.96Z</time></trkpt><trkpt lat="40.0034189" lon="9.4187541"><ele>894.0</ele><time>2026-05-03T08:45:59.961Z</time></trkpt><trkpt lat="40.0033281" lon="9.4187762"><ele>893.3333333333334</ele><time>2026-05-03T08:46:01.961Z</time></trkpt><trkpt lat="40.0032276" lon="9.4188743"><ele>892.6666666666667</ele><time>2026-05-03T08:46:03.96Z</time></trkpt><trkpt lat="40.0031708" lon="9.4189195"><ele>892.0</ele><time>2026-05-03T08:46:04.96Z</time></trkpt><trkpt lat="40.0031094" lon="9.4189713"><ele>891.3333333333334</ele><time>2026-05-03T08:46:05.961Z</time></trkpt><trkpt lat="40.0030469" lon="9.4190244"><ele>890.6666666666667</ele><time>2026-05-03T08:46:06.96Z</time></trkpt><trkpt lat="40.0029822" lon="9.4190905"><ele>890.0</ele><time>2026-05-03T08:46:07.96Z</time></trkpt><trkpt lat="40.0029233" lon="9.4191735"><ele>890.0</ele><time>2026-05-03T08:46:08.96Z</time></trkpt><trkpt lat="40.0028681" lon="9.4192709"><ele>890.0</ele><time>2026-05-03T08:46:09.961Z</time></trkpt><trkpt lat="40.0028203" lon="9.4193738"><ele>890.0</ele><time>2026-05-03T08:46:10.96Z</time></trkpt><trkpt lat="40.0027722" lon="9.4194824"><ele>890.0</ele><time>2026-05-03T08:46:11.96Z</time></trkpt><trkpt lat="40.0027237" lon="9.4195971"><ele>890.0</ele><time>2026-05-03T08:46:12.96Z</time></trkpt><trkpt lat="40.0026687" lon="9.4197069"><ele>890.0</ele><time>2026-05-03T08:46:13.961Z</time></trkpt><trkpt lat="40.0026148" lon="9.4198137"><ele>890.0</ele><time>2026-05-03T08:46:14.961Z</time></trkpt><trkpt lat="40.0025591" lon="9.4199139"><ele>890.0</ele><time>2026-05-03T08:46:15.96Z</time></trkpt><trkpt lat="40.0024935" lon="9.4200005"><ele>890.0</ele><time>2026-05-03T08:46:16.961Z</time></trkpt><trkpt lat="40.0024183" lon="9.4200677"><ele>890.0</ele><time>2026-05-03T08:46:17.961Z</time></trkpt><trkpt lat="40.0023381" lon="9.4201146"><ele>889.5000000000001</ele><time>2026-05-03T08:46:18.961Z</time></trkpt><trkpt lat="40.0022565" lon="9.4201537"><ele>889.0</ele><time>2026-05-03T08:46:19.96Z</time></trkpt><trkpt lat="40.0021698" lon="9.42019"><ele>888.5</ele><time>2026-05-03T08:46:20.96Z</time></trkpt><trkpt lat="40.0020883" lon="9.4202307"><ele>888.0</ele><time>2026-05-03T08:46:21.96Z</time></trkpt><trkpt lat="40.002008" lon="9.4202706"><ele>887.5000000000001</ele><time>2026-05-03T08:46:22.961Z</time></trkpt><trkpt lat="40.00193" lon="9.4203066"><ele>887.0</ele><time>2026-05-03T08:46:23.96Z</time></trkpt><trkpt lat="40.0018465" lon="9.420337"><ele>887.0</ele><time>2026-05-03T08:46:24.96Z</time></trkpt><trkpt lat="40.0017617" lon="9.4203686"><ele>887.0</ele><time>2026-05-03T08:46:25.961Z</time></trkpt><trkpt lat="40.0016781" lon="9.4204186"><ele>887.0</ele><time>2026-05-03T08:46:26.96Z</time></trkpt><trkpt lat="40.0015991" lon="9.4204863"><ele>887.0</ele><time>2026-05-03T08:46:27.96Z</time></trkpt><trkpt lat="40.0015261" lon="9.4205729"><ele>887.0</ele><time>2026-05-03T08:46:28.961Z</time></trkpt><trkpt lat="40.0014661" lon="9.4206728"><ele>885.5000000000001</ele><time>2026-05-03T08:46:29.961Z</time></trkpt><trkpt lat="40.0014177" lon="9.4207727"><ele>884.0</ele><time>2026-05-03T08:46:30.96Z</time></trkpt><trkpt lat="40.0013707" lon="9.4208634"><ele>882.5</ele><time>2026-05-03T08:46:31.96Z</time></trkpt><trkpt lat="40.001325" lon="9.4209479"><ele>881.0</ele><time>2026-05-03T08:46:32.96Z</time></trkpt><trkpt lat="40.0012747" lon="9.4210251"><ele>879.5000000000001</ele><time>2026-05-03T08:46:33.961Z</time></trkpt><trkpt lat="40.0012132" lon="9.42109"><ele>878.0</ele><time>2026-05-03T08:46:34.96Z</time></trkpt><trkpt lat="40.001142" lon="9.4211285"><ele>878.0000000000001</ele><time>2026-05-03T08:46:35.96Z</time></trkpt><trkpt lat="40.0010644" lon="9.4211366"><ele>878.0</ele><time>2026-05-03T08:46:36.96Z</time></trkpt><trkpt lat="40.0009853" lon="9.4211207"><ele>878.0</ele><time>2026-05-03T08:46:37.961Z</time></trkpt><trkpt lat="40.0009076" lon="9.421088"><ele>878.0</ele><time>2026-05-03T08:46:38.96Z</time></trkpt><trkpt lat="40.000829" lon="9.4210556"><ele>878.0000000000001</ele><time>2026-05-03T08:46:39.961Z</time></trkpt><trkpt lat="40.0007496" lon="9.4210189"><ele>878.0</ele><time>2026-05-03T08:46:40.96Z</time></trkpt><trkpt lat="40.00067" lon="9.4209834"><ele>880.8333333333334</ele><time>2026-05-03T08:46:41.96Z</time></trkpt><trkpt lat="40.0005894" lon="9.4209491"><ele>883.6666666666667</ele><time>2026-05-03T08:46:42.961Z</time></trkpt><trkpt lat="40.0005112" lon="9.4209064"><ele>886.5</ele><time>2026-05-03T08:46:43.961Z</time></trkpt><trkpt lat="40.0004414" lon="9.420845"><ele>889.3333333333333</ele><time>2026-05-03T08:46:44.96Z</time></trkpt><trkpt lat="40.0003844" lon="9.4207567"><ele>892.1666666666666</ele><time>2026-05-03T08:46:45.96Z</time></trkpt><trkpt lat="40.0003384" lon="9.4206554"><ele>895.0</ele><time>2026-05-03T08:46:46.961Z</time></trkpt><trkpt lat="40.0002956" lon="9.4205469"><ele>893.4</ele><time>2026-05-03T08:46:47.96Z</time></trkpt><trkpt lat="40.0002514" lon="9.4204352"><ele>891.8</ele><time>2026-05-03T08:46:48.961Z</time></trkpt><trkpt lat="40.0002052" lon="9.4203237"><ele>890.2</ele><time>2026-05-03T08:46:49.96Z</time></trkpt><trkpt lat="40.0001527" lon="9.420216"><ele>888.6</ele><time>2026-05-03T08:46:50.96Z</time></trkpt><trkpt lat="40.0000921" lon="9.4201058"><ele>887.0</ele><time>2026-05-03T08:46:51.961Z</time></trkpt><trkpt lat="40.0000209" lon="9.4199959"><ele>887.0</ele><time>2026-05-03T08:46:52.961Z</time></trkpt><trkpt lat="39.9999433" lon="9.4198901"><ele>887.0</ele><time>2026-05-03T08:46:53.96Z</time></trkpt><trkpt lat="39.9998593" lon="9.4197873"><ele>887.0</ele><time>2026-05-03T08:46:54.961Z</time></trkpt><trkpt lat="39.9997582" lon="9.4196961"><ele>887.0</ele><time>2026-05-03T08:46:55.96Z</time></trkpt><trkpt lat="39.9996386" lon="9.4196229"><ele>884.5</ele><time>2026-05-03T08:46:56.96Z</time></trkpt><trkpt lat="39.9995027" lon="9.4195711"><ele>882.0</ele><time>2026-05-03T08:46:57.96Z</time></trkpt><trkpt lat="39.9993734" lon="9.4195332"><ele>879.5</ele><time>2026-05-03T08:46:58.961Z</time></trkpt><trkpt lat="39.9992476" lon="9.4195118"><ele>877.0</ele><time>2026-05-03T08:46:59.96Z</time></trkpt><trkpt lat="39.9991176" lon="9.4195189"><ele>877.0</ele><time>2026-05-03T08:47:00.96Z</time></trkpt><trkpt lat="39.9989711" lon="9.4195718"><ele>877.0</ele><time>2026-05-03T08:47:01.96Z</time></trkpt><trkpt lat="39.9988226" lon="9.419634"><ele>877.0</ele><time>2026-05-03T08:47:02.961Z</time></trkpt><trkpt lat="39.9986747" lon="9.419735"><ele>881.6666666666666</ele><time>2026-05-03T08:47:03.96Z</time></trkpt><trkpt lat="39.998529" lon="9.4198724"><ele>886.3333333333333</ele><time>2026-05-03T08:47:04.96Z</time></trkpt><trkpt lat="39.9983844" lon="9.4200263"><ele>891.0</ele><time>2026-05-03T08:47:05.96Z</time></trkpt><trkpt lat="39.9982282" lon="9.4201781"><ele>891.0</ele><time>2026-05-03T08:47:06.96Z</time></trkpt><trkpt lat="39.998083" lon="9.4203058"><ele>891.0</ele><time>2026-05-03T08:47:07.96Z</time></trkpt><trkpt lat="39.997929" lon="9.4204243"><ele>891.0</ele><time>2026-05-03T08:47:08.96Z</time></trkpt><trkpt lat="39.9977656" lon="9.4205266"><ele>895.3333333333333</ele><time>2026-05-03T08:47:09.961Z</time></trkpt><trkpt lat="39.9975954" lon="9.4206141"><ele>899.6666666666666</ele><time>2026-05-03T08:47:10.961Z</time></trkpt><trkpt lat="39.9974202" lon="9.4206967"><ele>904.0</ele><time>2026-05-03T08:47:11.96Z</time></trkpt><trkpt lat="39.9972449" lon="9.4207783"><ele>904.0</ele><time>2026-05-03T08:47:12.96Z</time></trkpt><trkpt lat="39.9970865" lon="9.4208493"><ele>904.0</ele><time>2026-05-03T08:47:13.962Z</time></trkpt><trkpt lat="39.9969371" lon="9.4209181"><ele>904.0</ele><time>2026-05-03T08:47:14.96Z</time></trkpt><trkpt lat="39.9967848" lon="9.4209968"><ele>902.0</ele><time>2026-05-03T08:47:15.96Z</time></trkpt><trkpt lat="39.9966363" lon="9.4210922"><ele>900.0</ele><time>2026-05-03T08:47:16.96Z</time></trkpt><trkpt lat="39.9964924" lon="9.4212064"><ele>898.0</ele><time>2026-05-03T08:47:17.96Z</time></trkpt><trkpt lat="39.9963539" lon="9.4213323"><ele>903.3333333333333</ele><time>2026-05-03T08:47:18.96Z</time></trkpt><trkpt lat="39.9962217" lon="9.4214602"><ele>908.6666666666667</ele><time>2026-05-03T08:47:19.96Z</time></trkpt><trkpt lat="39.9960903" lon="9.4215564"><ele>914.0</ele><time>2026-05-03T08:47:20.961Z</time></trkpt><trkpt lat="39.9959651" lon="9.4216256"><ele>914.0</ele><time>2026-05-03T08:47:21.961Z</time></trkpt><trkpt lat="39.995851" lon="9.4216654"><ele>914.0</ele><time>2026-05-03T08:47:22.961Z</time></trkpt><trkpt lat="39.9957404" lon="9.4216797"><ele>914.0</ele><time>2026-05-03T08:47:23.96Z</time></trkpt><trkpt lat="39.9956255" lon="9.4216727"><ele>914.0</ele><time>2026-05-03T08:47:24.961Z</time></trkpt><trkpt lat="39.9955062" lon="9.4216495"><ele>911.75</ele><time>2026-05-03T08:47:25.961Z</time></trkpt><trkpt lat="39.995386" lon="9.4216144"><ele>909.5</ele><time>2026-05-03T08:47:26.961Z</time></trkpt><trkpt lat="39.9952617" lon="9.4215764"><ele>907.25</ele><time>2026-05-03T08:47:27.96Z</time></trkpt><trkpt lat="39.9951367" lon="9.4215286"><ele>905.0</ele><time>2026-05-03T08:47:28.96Z</time></trkpt><trkpt lat="39.9950154" lon="9.4214765"><ele>905.5</ele><time>2026-05-03T08:47:29.96Z</time></trkpt><trkpt lat="39.9949004" lon="9.4214366"><ele>906.0</ele><time>2026-05-03T08:47:30.96Z</time></trkpt><trkpt lat="39.9947792" lon="9.4214128"><ele>906.5</ele><time>2026-05-03T08:47:31.961Z</time></trkpt><trkpt lat="39.9946537" lon="9.4214041"><ele>907.0</ele><time>2026-05-03T08:47:32.96Z</time></trkpt><trkpt lat="39.9945409" lon="9.4214064"><ele>907.0</ele><time>2026-05-03T08:47:33.961Z</time></trkpt><trkpt lat="39.9944358" lon="9.4214212"><ele>907.0</ele><time>2026-05-03T08:47:34.96Z</time></trkpt><trkpt lat="39.9943362" lon="9.4214626"><ele>907.0</ele><time>2026-05-03T08:47:35.96Z</time></trkpt><trkpt lat="39.9942408" lon="9.4215308"><ele>907.0</ele><time>2026-05-03T08:47:36.96Z</time></trkpt><trkpt lat="39.9941506" lon="9.4216264"><ele>907.0</ele><time>2026-05-03T08:47:37.96Z</time></trkpt><trkpt lat="39.9940734" lon="9.4217626"><ele>906.5</ele><time>2026-05-03T08:47:38.96Z</time></trkpt><trkpt lat="39.9940138" lon="9.4219274"><ele>906.0</ele><time>2026-05-03T08:47:39.96Z</time></trkpt><trkpt lat="39.9939672" lon="9.4220931"><ele>905.5</ele><time>2026-05-03T08:47:40.961Z</time></trkpt><trkpt lat="39.993928" lon="9.4222373"><ele>905.0</ele><time>2026-05-03T08:47:41.961Z</time></trkpt><trkpt lat="39.9938833" lon="9.4223671"><ele>907.2</ele><time>2026-05-03T08:47:42.96Z</time></trkpt><trkpt lat="39.9938297" lon="9.422485"><ele>909.4</ele><time>2026-05-03T08:47:43.96Z</time></trkpt><trkpt lat="39.9937679" lon="9.4225929"><ele>911.5999999999999</ele><time>2026-05-03T08:47:44.96Z</time></trkpt><trkpt lat="39.9937006" lon="9.4226957"><ele>913.8</ele><time>2026-05-03T08:47:45.96Z</time></trkpt><trkpt lat="39.993629" lon="9.4227978"><ele>916.0</ele><time>2026-05-03T08:47:46.961Z</time></trkpt><trkpt lat="39.9935524" lon="9.4229006"><ele>917.0</ele><time>2026-05-03T08:47:47.961Z</time></trkpt><trkpt lat="39.993468" lon="9.4229965"><ele>918.0</ele><time>2026-05-03T08:47:48.96Z</time></trkpt><trkpt lat="39.9933694" lon="9.4230748"><ele>919.0</ele><time>2026-05-03T08:47:49.96Z</time></trkpt><trkpt lat="39.993264" lon="9.4231376"><ele>920.0</ele><time>2026-05-03T08:47:50.96Z</time></trkpt><trkpt lat="39.9931552" lon="9.423185"><ele>920.0</ele><time>2026-05-03T08:47:51.96Z</time></trkpt><trkpt lat="39.9930423" lon="9.4232207"><ele>920.0</ele><time>2026-05-03T08:47:52.96Z</time></trkpt><trkpt lat="39.992929" lon="9.4232453"><ele>920.0</ele><time>2026-05-03T08:47:53.96Z</time></trkpt><trkpt lat="39.9928153" lon="9.4232591"><ele>920.0</ele><time>2026-05-03T08:47:54.961Z</time></trkpt><trkpt lat="39.9927026" lon="9.4232774"><ele>920.0</ele><time>2026-05-03T08:47:55.961Z</time></trkpt><trkpt lat="39.9925926" lon="9.4233141"><ele>920.0</ele><time>2026-05-03T08:47:56.961Z</time></trkpt><trkpt lat="39.992488" lon="9.4233715"><ele>920.0</ele><time>2026-05-03T08:47:57.96Z</time></trkpt><trkpt lat="39.9923912" lon="9.423472"><ele>920.0</ele><time>2026-05-03T08:47:58.961Z</time></trkpt><trkpt lat="39.9923039" lon="9.423598"><ele>920.25</ele><time>2026-05-03T08:47:59.961Z</time></trkpt><trkpt lat="39.992217" lon="9.4237404"><ele>920.5</ele><time>2026-05-03T08:48:00.96Z</time></trkpt><trkpt lat="39.9921318" lon="9.42389"><ele>920.75</ele><time>2026-05-03T08:48:01.96Z</time></trkpt><trkpt lat="39.9920568" lon="9.4240497"><ele>921.0</ele><time>2026-05-03T08:48:02.962Z</time></trkpt><trkpt lat="39.9919978" lon="9.4242246"><ele>921.0</ele><time>2026-05-03T08:48:03.96Z</time></trkpt><trkpt lat="39.9919467" lon="9.4244089"><ele>921.0</ele><time>2026-05-03T08:48:04.961Z</time></trkpt><trkpt lat="39.9918727" lon="9.4245793"><ele>921.0</ele><time>2026-05-03T08:48:05.961Z</time></trkpt><trkpt lat="39.9917714" lon="9.4247385"><ele>920.75</ele><time>2026-05-03T08:48:06.961Z</time></trkpt><trkpt lat="39.9916634" lon="9.4248952"><ele>920.5</ele><time>2026-05-03T08:48:07.96Z</time></trkpt><trkpt lat="39.9915601" lon="9.4250378"><ele>920.25</ele><time>2026-05-03T08:48:08.961Z</time></trkpt><trkpt lat="39.9914648" lon="9.4251669"><ele>920.0</ele><time>2026-05-03T08:48:09.96Z</time></trkpt><trkpt lat="39.9913708" lon="9.4252905"><ele>920.0</ele><time>2026-05-03T08:48:10.961Z</time></trkpt><trkpt lat="39.9912813" lon="9.4254075"><ele>920.0</ele><time>2026-05-03T08:48:11.96Z</time></trkpt><trkpt lat="39.9911968" lon="9.4255197"><ele>920.0</ele><time>2026-05-03T08:48:12.96Z</time></trkpt><trkpt lat="39.9911192" lon="9.4256232"><ele>920.0</ele><time>2026-05-03T08:48:13.962Z</time></trkpt><trkpt lat="39.9910515" lon="9.4257154"><ele>920.7142857142856</ele><time>2026-05-03T08:48:14.96Z</time></trkpt><trkpt lat="39.9910037" lon="9.4257945"><ele>921.4285714285713</ele><time>2026-05-03T08:48:15.96Z</time></trkpt><trkpt lat="39.9909676" lon="9.4258812"><ele>922.1428571428571</ele><time>2026-05-03T08:48:16.961Z</time></trkpt><trkpt lat="39.9909386" lon="9.4259673"><ele>922.8571428571428</ele><time>2026-05-03T08:48:17.961Z</time></trkpt><trkpt lat="39.9909167" lon="9.4260506"><ele>923.5714285714284</ele><time>2026-05-03T08:48:18.96Z</time></trkpt><trkpt lat="39.9909026" lon="9.4261383"><ele>924.2857142857143</ele><time>2026-05-03T08:48:19.961Z</time></trkpt><trkpt lat="39.9908916" lon="9.4262343"><ele>925.0</ele><time>2026-05-03T08:48:20.96Z</time></trkpt><trkpt lat="39.9908808" lon="9.4263334"><ele>925.3333333333333</ele><time>2026-05-03T08:48:21.96Z</time></trkpt><trkpt lat="39.9908714" lon="9.4264375"><ele>925.6666666666666</ele><time>2026-05-03T08:48:22.961Z</time></trkpt><trkpt lat="39.9908675" lon="9.4265446"><ele>926.0</ele><time>2026-05-03T08:48:23.961Z</time></trkpt><trkpt lat="39.9908626" lon="9.4266563"><ele>926.3333333333333</ele><time>2026-05-03T08:48:24.96Z</time></trkpt><trkpt lat="39.9908537" lon="9.4267675"><ele>926.6666666666666</ele><time>2026-05-03T08:48:25.961Z</time></trkpt><trkpt lat="39.9908453" lon="9.4268818"><ele>927.0</ele><time>2026-05-03T08:48:26.96Z</time></trkpt><trkpt lat="39.9908306" lon="9.4269975"><ele>926.2</ele><time>2026-05-03T08:48:27.961Z</time></trkpt><trkpt lat="39.9908115" lon="9.4271144"><ele>925.4000000000001</ele><time>2026-05-03T08:48:28.96Z</time></trkpt><trkpt lat="39.9907823" lon="9.4272316"><ele>924.5999999999999</ele><time>2026-05-03T08:48:29.96Z</time></trkpt><trkpt lat="39.9907429" lon="9.4273473"><ele>923.8</ele><time>2026-05-03T08:48:30.96Z</time></trkpt><trkpt lat="39.9906926" lon="9.4274603"><ele>923.0</ele><time>2026-05-03T08:48:31.961Z</time></trkpt><trkpt lat="39.9906383" lon="9.4275702"><ele>923.0</ele><time>2026-05-03T08:48:32.96Z</time></trkpt><trkpt lat="39.9905821" lon="9.427683"><ele>923.0</ele><time>2026-05-03T08:48:33.961Z</time></trkpt><trkpt lat="39.9905232" lon="9.4277964"><ele>923.0</ele><time>2026-05-03T08:48:34.961Z</time></trkpt><trkpt lat="39.990464" lon="9.4279136"><ele>923.0</ele><time>2026-05-03T08:48:35.96Z</time></trkpt><trkpt lat="39.9904034" lon="9.428031"><ele>923.0</ele><time>2026-05-03T08:48:36.96Z</time></trkpt><trkpt lat="39.9903414" lon="9.4281522"><ele>923.5</ele><time>2026-05-03T08:48:37.96Z</time></trkpt><trkpt lat="39.9902779" lon="9.4282765"><ele>924.0</ele><time>2026-05-03T08:48:38.96Z</time></trkpt><trkpt lat="39.9902135" lon="9.428402"><ele>924.5</ele><time>2026-05-03T08:48:39.962Z</time></trkpt><trkpt lat="39.9901499" lon="9.4285305"><ele>925.0</ele><time>2026-05-03T08:48:40.961Z</time></trkpt><trkpt lat="39.9900874" lon="9.4286565"><ele>925.0</ele><time>2026-05-03T08:48:41.96Z</time></trkpt><trkpt lat="39.9900261" lon="9.428772"><ele>925.0</ele><time>2026-05-03T08:48:42.96Z</time></trkpt><trkpt lat="39.9899664" lon="9.4288724"><ele>925.0</ele><time>2026-05-03T08:48:43.96Z</time></trkpt><trkpt lat="39.9898983" lon="9.4289527"><ele>925.0</ele><time>2026-05-03T08:48:44.961Z</time></trkpt><trkpt lat="39.9898163" lon="9.4290041"><ele>925.0</ele><time>2026-05-03T08:48:45.96Z</time></trkpt><trkpt lat="39.9897234" lon="9.4290336"><ele>924.0</ele><time>2026-05-03T08:48:46.961Z</time></trkpt><trkpt lat="39.9896276" lon="9.4290425"><ele>923.0</ele><time>2026-05-03T08:48:47.962Z</time></trkpt><trkpt lat="39.9895313" lon="9.4290495"><ele>922.0</ele><time>2026-05-03T08:48:48.96Z</time></trkpt><trkpt lat="39.9894322" lon="9.429055"><ele>921.0</ele><time>2026-05-03T08:48:49.961Z</time></trkpt><trkpt lat="39.9893386" lon="9.4290688"><ele>920.0</ele><time>2026-05-03T08:48:50.961Z</time></trkpt><trkpt lat="39.9892536" lon="9.4291008"><ele>920.0</ele><time>2026-05-03T08:48:51.96Z</time></trkpt><trkpt lat="39.9891796" lon="9.4291572"><ele>920.0</ele><time>2026-05-03T08:48:52.96Z</time></trkpt><trkpt lat="39.9891159" lon="9.4292375"><ele>920.0</ele><time>2026-05-03T08:48:53.961Z</time></trkpt><trkpt lat="39.9890584" lon="9.4293334"><ele>920.0</ele><time>2026-05-03T08:48:54.961Z</time></trkpt><trkpt lat="39.9890073" lon="9.4294374"><ele>920.0</ele><time>2026-05-03T08:48:55.961Z</time></trkpt><trkpt lat="39.9889623" lon="9.4295504"><ele>919.6</ele><time>2026-05-03T08:48:56.962Z</time></trkpt><trkpt lat="39.9889183" lon="9.4296676"><ele>919.2</ele><time>2026-05-03T08:48:57.961Z</time></trkpt><trkpt lat="39.9888732" lon="9.4297898"><ele>918.8</ele><time>2026-05-03T08:48:58.96Z</time></trkpt><trkpt lat="39.9888265" lon="9.4299147"><ele>918.4</ele><time>2026-05-03T08:48:59.96Z</time></trkpt><trkpt lat="39.9887844" lon="9.4300356"><ele>918.0</ele><time>2026-05-03T08:49:00.96Z</time></trkpt><trkpt lat="39.9887424" lon="9.4301502"><ele>918.0</ele><time>2026-05-03T08:49:01.961Z</time></trkpt><trkpt lat="39.9887044" lon="9.4302518"><ele>918.0</ele><time>2026-05-03T08:49:02.96Z</time></trkpt><trkpt lat="39.9886567" lon="9.4303426"><ele>918.0</ele><time>2026-05-03T08:49:03.961Z</time></trkpt><trkpt lat="39.9885883" lon="9.4304149"><ele>918.0</ele><time>2026-05-03T08:49:04.96Z</time></trkpt><trkpt lat="39.9885049" lon="9.4304716"><ele>918.0</ele><time>2026-05-03T08:49:05.96Z</time></trkpt><trkpt lat="39.9884189" lon="9.4305252"><ele>918.0</ele><time>2026-05-03T08:49:06.961Z</time></trkpt><trkpt lat="39.9883277" lon="9.4305789"><ele>917.0</ele><time>2026-05-03T08:49:07.961Z</time></trkpt><trkpt lat="39.9882313" lon="9.4306312"><ele>916.0</ele><time>2026-05-03T08:49:08.96Z</time></trkpt><trkpt lat="39.9881322" lon="9.4306854"><ele>915.0</ele><time>2026-05-03T08:49:09.961Z</time></trkpt><trkpt lat="39.9880318" lon="9.4307372"><ele>914.0</ele><time>2026-05-03T08:49:10.96Z</time></trkpt><trkpt lat="39.9879243" lon="9.4307876"><ele>913.0</ele><time>2026-05-03T08:49:11.961Z</time></trkpt><trkpt lat="39.987812" lon="9.4308346"><ele>913.0</ele><time>2026-05-03T08:49:12.961Z</time></trkpt><trkpt lat="39.9876945" lon="9.4308825"><ele>913.0</ele><time>2026-05-03T08:49:13.961Z</time></trkpt><trkpt lat="39.9875759" lon="9.4309304"><ele>913.0</ele><time>2026-05-03T08:49:14.96Z</time></trkpt><trkpt lat="39.9874578" lon="9.4309886"><ele>913.0</ele><time>2026-05-03T08:49:15.96Z</time></trkpt><trkpt lat="39.9873476" lon="9.4310609"><ele>911.8</ele><time>2026-05-03T08:49:16.961Z</time></trkpt><trkpt lat="39.9872488" lon="9.4311472"><ele>910.5999999999999</ele><time>2026-05-03T08:49:17.961Z</time></trkpt><trkpt lat="39.9871642" lon="9.431244"><ele>909.4000000000001</ele><time>2026-05-03T08:49:18.96Z</time></trkpt><trkpt lat="39.9870991" lon="9.4313536"><ele>908.2</ele><time>2026-05-03T08:49:19.961Z</time></trkpt><trkpt lat="39.98706" lon="9.4314778"><ele>907.0</ele><time>2026-05-03T08:49:20.961Z</time></trkpt><trkpt lat="39.9870382" lon="9.4316081"><ele>907.0</ele><time>2026-05-03T08:49:21.96Z</time></trkpt><trkpt lat="39.9870381" lon="9.4317478"><ele>907.0</ele><time>2026-05-03T08:49:22.961Z</time></trkpt><trkpt lat="39.9870332" lon="9.4318928"><ele>907.0</ele><time>2026-05-03T08:49:23.96Z</time></trkpt><trkpt lat="39.9869972" lon="9.4320316"><ele>907.0</ele><time>2026-05-03T08:49:24.961Z</time></trkpt><trkpt lat="39.9869349" lon="9.4321457"><ele>907.0</ele><time>2026-05-03T08:49:25.96Z</time></trkpt><trkpt lat="39.9868757" lon="9.4322593"><ele>907.2</ele><time>2026-05-03T08:49:26.961Z</time></trkpt><trkpt lat="39.9868397" lon="9.4323933"><ele>907.4000000000001</ele><time>2026-05-03T08:49:27.96Z</time></trkpt><trkpt lat="39.9868298" lon="9.4325253"><ele>907.5999999999999</ele><time>2026-05-03T08:49:28.96Z</time></trkpt><trkpt lat="39.9868291" lon="9.4326486"><ele>907.8</ele><time>2026-05-03T08:49:29.96Z</time></trkpt><trkpt lat="39.986818" lon="9.4327672"><ele>908.0</ele><time>2026-05-03T08:49:30.96Z</time></trkpt><trkpt lat="39.9867761" lon="9.432873"><ele>908.0</ele><time>2026-05-03T08:49:31.961Z</time></trkpt><trkpt lat="39.9867156" lon="9.4329675"><ele>908.0</ele><time>2026-05-03T08:49:32.96Z</time></trkpt><trkpt lat="39.9866234" lon="9.4330241"><ele>908.0</ele><time>2026-05-03T08:49:33.96Z</time></trkpt><trkpt lat="39.9865234" lon="9.4330661"><ele>908.0</ele><time>2026-05-03T08:49:34.96Z</time></trkpt><trkpt lat="39.9864188" lon="9.4331065"><ele>908.0</ele><time>2026-05-03T08:49:35.961Z</time></trkpt><trkpt lat="39.9863067" lon="9.433154"><ele>906.0</ele><time>2026-05-03T08:49:36.961Z</time></trkpt><trkpt lat="39.9861869" lon="9.4332059"><ele>904.0</ele><time>2026-05-03T08:49:37.96Z</time></trkpt><trkpt lat="39.9860614" lon="9.4332562"><ele>902.0</ele><time>2026-05-03T08:49:38.96Z</time></trkpt><trkpt lat="39.985932" lon="9.4333055"><ele>900.0</ele><time>2026-05-03T08:49:39.96Z</time></trkpt><trkpt lat="39.9858011" lon="9.4333548"><ele>898.25</ele><time>2026-05-03T08:49:40.962Z</time></trkpt><trkpt lat="39.9856683" lon="9.4334018"><ele>896.5</ele><time>2026-05-03T08:49:41.96Z</time></trkpt><trkpt lat="39.9855326" lon="9.4334452"><ele>894.75</ele><time>2026-05-03T08:49:42.961Z</time></trkpt><trkpt lat="39.9853981" lon="9.4334693"><ele>893.0</ele><time>2026-05-03T08:49:43.961Z</time></trkpt><trkpt lat="39.9852711" lon="9.4334785"><ele>893.0</ele><time>2026-05-03T08:49:44.961Z</time></trkpt><trkpt lat="39.9851499" lon="9.433483"><ele>893.0</ele><time>2026-05-03T08:49:45.961Z</time></trkpt><trkpt lat="39.9850364" lon="9.4334876"><ele>893.0</ele><time>2026-05-03T08:49:46.961Z</time></trkpt><trkpt lat="39.9849288" lon="9.4334967"><ele>893.0</ele><time>2026-05-03T08:49:47.961Z</time></trkpt><trkpt lat="39.9848269" lon="9.433513"><ele>893.0</ele><time>2026-05-03T08:49:48.962Z</time></trkpt><trkpt lat="39.9847314" lon="9.4335461"><ele>892.8</ele><time>2026-05-03T08:49:49.96Z</time></trkpt><trkpt lat="39.9846455" lon="9.4336091"><ele>892.5999999999999</ele><time>2026-05-03T08:49:50.96Z</time></trkpt><trkpt lat="39.98457" lon="9.4336999"><ele>892.4000000000001</ele><time>2026-05-03T08:49:51.961Z</time></trkpt><trkpt lat="39.984506" lon="9.4338001"><ele>892.2</ele><time>2026-05-03T08:49:52.961Z</time></trkpt><trkpt lat="39.9844575" lon="9.433898"><ele>892.0</ele><time>2026-05-03T08:49:53.96Z</time></trkpt><trkpt lat="39.9844375" lon="9.4340053"><ele>892.0</ele><time>2026-05-03T08:49:54.961Z</time></trkpt><trkpt lat="39.9844448" lon="9.4341163"><ele>892.0</ele><time>2026-05-03T08:49:55.96Z</time></trkpt><trkpt lat="39.9844732" lon="9.4342236"><ele>892.0</ele><time>2026-05-03T08:49:56.96Z</time></trkpt><trkpt lat="39.9845085" lon="9.4343375"><ele>892.0</ele><time>2026-05-03T08:49:57.96Z</time></trkpt><trkpt lat="39.9845267" lon="9.434462"><ele>892.0</ele><time>2026-05-03T08:49:58.96Z</time></trkpt><trkpt lat="39.9845333" lon="9.4345937"><ele>891.2</ele><time>2026-05-03T08:49:59.96Z</time></trkpt><trkpt lat="39.9845291" lon="9.4347287"><ele>890.4000000000001</ele><time>2026-05-03T08:50:00.96Z</time></trkpt><trkpt lat="39.984518" lon="9.4348663"><ele>889.5999999999999</ele><time>2026-05-03T08:50:01.961Z</time></trkpt><trkpt lat="39.9845207" lon="9.4350086"><ele>888.8</ele><time>2026-05-03T08:50:02.96Z</time></trkpt><trkpt lat="39.984535" lon="9.4351553"><ele>888.0</ele><time>2026-05-03T08:50:03.96Z</time></trkpt><trkpt lat="39.9845564" lon="9.4353046"><ele>888.0</ele><time>2026-05-03T08:50:04.96Z</time></trkpt><trkpt lat="39.9845802" lon="9.4354583"><ele>888.0</ele><time>2026-05-03T08:50:05.96Z</time></trkpt><trkpt lat="39.9846022" lon="9.4356159"><ele>888.0</ele><time>2026-05-03T08:50:06.961Z</time></trkpt><trkpt lat="39.9846231" lon="9.4357639"><ele>888.0</ele><time>2026-05-03T08:50:07.961Z</time></trkpt><trkpt lat="39.98464" lon="9.4358955"><ele>887.3333333333334</ele><time>2026-05-03T08:50:08.96Z</time></trkpt><trkpt lat="39.9846385" lon="9.4360232"><ele>886.6666666666667</ele><time>2026-05-03T08:50:09.96Z</time></trkpt><trkpt lat="39.9846167" lon="9.4361381"><ele>886.0</ele><time>2026-05-03T08:50:10.961Z</time></trkpt><trkpt lat="39.9845709" lon="9.4362328"><ele>885.3333333333334</ele><time>2026-05-03T08:50:11.961Z</time></trkpt><trkpt lat="39.9845084" lon="9.4362974"><ele>884.6666666666667</ele><time>2026-05-03T08:50:12.96Z</time></trkpt><trkpt lat="39.9844368" lon="9.4363399"><ele>884.0</ele><time>2026-05-03T08:50:13.96Z</time></trkpt><trkpt lat="39.9843561" lon="9.4363672"><ele>883.6</ele><time>2026-05-03T08:50:14.96Z</time></trkpt><trkpt lat="39.9842692" lon="9.4363899"><ele>883.2</ele><time>2026-05-03T08:50:15.961Z</time></trkpt><trkpt lat="39.984179" lon="9.4364114"><ele>882.8000000000001</ele><time>2026-05-03T08:50:16.961Z</time></trkpt><trkpt lat="39.9840847" lon="9.4364348"><ele>882.4000000000001</ele><time>2026-05-03T08:50:17.96Z</time></trkpt><trkpt lat="39.9839853" lon="9.4364577"><ele>882.0</ele><time>2026-05-03T08:50:18.96Z</time></trkpt><trkpt lat="39.9838796" lon="9.4364795"><ele>881.2</ele><time>2026-05-03T08:50:19.96Z</time></trkpt><trkpt lat="39.9837718" lon="9.4365002"><ele>880.4000000000001</ele><time>2026-05-03T08:50:20.961Z</time></trkpt><trkpt lat="39.9836602" lon="9.4365245"><ele>879.5999999999999</ele><time>2026-05-03T08:50:21.96Z</time></trkpt><trkpt lat="39.9835466" lon="9.436548"><ele>878.8</ele><time>2026-05-03T08:50:22.962Z</time></trkpt><trkpt lat="39.9834371" lon="9.4365718"><ele>878.0</ele><time>2026-05-03T08:50:23.96Z</time></trkpt><trkpt lat="39.9833325" lon="9.436597"><ele>876.8</ele><time>2026-05-03T08:50:24.962Z</time></trkpt><trkpt lat="39.983228" lon="9.4366329"><ele>875.5999999999999</ele><time>2026-05-03T08:50:25.961Z</time></trkpt><trkpt lat="39.9831285" lon="9.4366916"><ele>874.4000000000001</ele><time>2026-05-03T08:50:26.96Z</time></trkpt><trkpt lat="39.9830337" lon="9.4367725"><ele>873.2</ele><time>2026-05-03T08:50:27.961Z</time></trkpt><trkpt lat="39.9829351" lon="9.4368555"><ele>872.0</ele><time>2026-05-03T08:50:28.962Z</time></trkpt><trkpt lat="39.9828247" lon="9.4369255"><ele>872.0</ele><time>2026-05-03T08:50:29.961Z</time></trkpt><trkpt lat="39.9827059" lon="9.436982"><ele>872.0</ele><time>2026-05-03T08:50:30.96Z</time></trkpt><trkpt lat="39.9825787" lon="9.4370231"><ele>872.0</ele><time>2026-05-03T08:50:31.96Z</time></trkpt><trkpt lat="39.982447" lon="9.4370565"><ele>872.0</ele><time>2026-05-03T08:50:32.96Z</time></trkpt><trkpt lat="39.9823161" lon="9.4370865"><ele>872.5</ele><time>2026-05-03T08:50:33.96Z</time></trkpt><trkpt lat="39.9821942" lon="9.4371162"><ele>873.0</ele><time>2026-05-03T08:50:34.96Z</time></trkpt><trkpt lat="39.9820765" lon="9.437148"><ele>873.5</ele><time>2026-05-03T08:50:35.961Z</time></trkpt><trkpt lat="39.9819663" lon="9.4371847"><ele>874.0</ele><time>2026-05-03T08:50:36.96Z</time></trkpt><trkpt lat="39.981865" lon="9.4372394"><ele>874.0</ele><time>2026-05-03T08:50:37.96Z</time></trkpt><trkpt lat="39.9817724" lon="9.4373218"><ele>874.0</ele><time>2026-05-03T08:50:38.96Z</time></trkpt><trkpt lat="39.9816895" lon="9.4374359"><ele>874.0</ele><time>2026-05-03T08:50:39.96Z</time></trkpt><trkpt lat="39.9816142" lon="9.437572"><ele>874.0</ele><time>2026-05-03T08:50:40.96Z</time></trkpt><trkpt lat="39.9815389" lon="9.4377176"><ele>873.5</ele><time>2026-05-03T08:50:41.96Z</time></trkpt><trkpt lat="39.9814608" lon="9.4378656"><ele>873.0</ele><time>2026-05-03T08:50:42.961Z</time></trkpt><trkpt lat="39.9813863" lon="9.4380036"><ele>872.5</ele><time>2026-05-03T08:50:43.962Z</time></trkpt><trkpt lat="39.9813127" lon="9.4381324"><ele>872.0</ele><time>2026-05-03T08:50:44.96Z</time></trkpt><trkpt lat="39.9812418" lon="9.4382513"><ele>872.0</ele><time>2026-05-03T08:50:45.96Z</time></trkpt><trkpt lat="39.9811742" lon="9.438358"><ele>872.0</ele><time>2026-05-03T08:50:46.96Z</time></trkpt><trkpt lat="39.9811119" lon="9.4384669"><ele>872.0</ele><time>2026-05-03T08:50:47.961Z</time></trkpt><trkpt lat="39.9810734" lon="9.4385848"><ele>872.0</ele><time>2026-05-03T08:50:48.961Z</time></trkpt><trkpt lat="39.9810646" lon="9.4387074"><ele>872.0</ele><time>2026-05-03T08:50:49.96Z</time></trkpt><trkpt lat="39.9810824" lon="9.438835"><ele>871.5</ele><time>2026-05-03T08:50:50.96Z</time></trkpt><trkpt lat="39.9811266" lon="9.4389615"><ele>871.0</ele><time>2026-05-03T08:50:51.961Z</time></trkpt><trkpt lat="39.9811845" lon="9.4390907"><ele>870.5</ele><time>2026-05-03T08:50:52.961Z</time></trkpt><trkpt lat="39.9812454" lon="9.4392234"><ele>870.0</ele><time>2026-05-03T08:50:53.96Z</time></trkpt><trkpt lat="39.9812978" lon="9.4393626"><ele>870.0</ele><time>2026-05-03T08:50:54.961Z</time></trkpt><trkpt lat="39.9813352" lon="9.4395015"><ele>870.0</ele><time>2026-05-03T08:50:55.961Z</time></trkpt><trkpt lat="39.9813645" lon="9.439646"><ele>870.0</ele><time>2026-05-03T08:50:56.961Z</time></trkpt><trkpt lat="39.9813918" lon="9.43979"><ele>870.0</ele><time>2026-05-03T08:50:57.96Z</time></trkpt><trkpt lat="39.981413" lon="9.4399182"><ele>870.0</ele><time>2026-05-03T08:50:58.96Z</time></trkpt><trkpt lat="39.9814258" lon="9.440036"><ele>869.6666666666666</ele><time>2026-05-03T08:50:59.961Z</time></trkpt><trkpt lat="39.9814286" lon="9.4401506"><ele>869.3333333333333</ele><time>2026-05-03T08:51:00.96Z</time></trkpt><trkpt lat="39.9814102" lon="9.4402616"><ele>869.0</ele><time>2026-05-03T08:51:01.961Z</time></trkpt><trkpt lat="39.981367" lon="9.4403634"><ele>868.6666666666666</ele><time>2026-05-03T08:51:02.96Z</time></trkpt><trkpt lat="39.9813" lon="9.4404416"><ele>868.3333333333333</ele><time>2026-05-03T08:51:03.961Z</time></trkpt><trkpt lat="39.9812249" lon="9.440489"><ele>868.0</ele><time>2026-05-03T08:51:04.959Z</time></trkpt><trkpt lat="39.9811475" lon="9.4405049"><ele>867.9999999999999</ele><time>2026-05-03T08:51:05.96Z</time></trkpt><trkpt lat="39.9810706" lon="9.4404873"><ele>868.0</ele><time>2026-05-03T08:51:06.959Z</time></trkpt><trkpt lat="39.9810002" lon="9.4404446"><ele>868.0</ele><time>2026-05-03T08:51:07.96Z</time></trkpt><trkpt lat="39.9809327" lon="9.4403965"><ele>868.0</ele><time>2026-05-03T08:51:08.959Z</time></trkpt><trkpt lat="39.9808648" lon="9.4403468"><ele>867.9999999999999</ele><time>2026-05-03T08:51:09.959Z</time></trkpt><trkpt lat="39.980797" lon="9.4402992"><ele>868.0</ele><time>2026-05-03T08:51:10.96Z</time></trkpt><trkpt lat="39.9807297" lon="9.4402529"><ele>865.3333333333333</ele><time>2026-05-03T08:51:11.96Z</time></trkpt><trkpt lat="39.9806646" lon="9.4402043"><ele>862.6666666666666</ele><time>2026-05-03T08:51:12.96Z</time></trkpt><trkpt lat="39.9805995" lon="9.4401549"><ele>860.0</ele><time>2026-05-03T08:51:13.96Z</time></trkpt><trkpt lat="39.9805297" lon="9.440107"><ele>857.3333333333333</ele><time>2026-05-03T08:51:14.96Z</time></trkpt><trkpt lat="39.9804463" lon="9.4400629"><ele>854.6666666666666</ele><time>2026-05-03T08:51:15.959Z</time></trkpt><trkpt lat="39.9803451" lon="9.4400401"><ele>852.0</ele><time>2026-05-03T08:51:16.961Z</time></trkpt><trkpt lat="39.9802312" lon="9.4400432"><ele>852.0</ele><time>2026-05-03T08:51:17.959Z</time></trkpt><trkpt lat="39.9801063" lon="9.4400682"><ele>852.0</ele><time>2026-05-03T08:51:18.961Z</time></trkpt><trkpt lat="39.9799804" lon="9.4401048"><ele>852.0</ele><time>2026-05-03T08:51:19.959Z</time></trkpt><trkpt lat="39.9798506" lon="9.4401662"><ele>852.0</ele><time>2026-05-03T08:51:20.96Z</time></trkpt><trkpt lat="39.9797145" lon="9.4402498"><ele>853.3333333333333</ele><time>2026-05-03T08:51:21.96Z</time></trkpt><trkpt lat="39.9795824" lon="9.4403406"><ele>854.6666666666666</ele><time>2026-05-03T08:51:22.959Z</time></trkpt><trkpt lat="39.9794637" lon="9.440428"><ele>856.0</ele><time>2026-05-03T08:51:23.96Z</time></trkpt><trkpt lat="39.9811266" lon="9.4389615"><ele>859.5</ele><time>2026-05-03T08:50:51.961Z</time></trkpt><trkpt lat="39.9811845" lon="9.4390907"><ele>863.0</ele><time>2026-05-03T08:50:52.961Z</time></trkpt><trkpt lat="39.9812454" lon="9.4392234"><ele>866.5</ele><time>2026-05-03T08:50:53.96Z</time></trkpt><trkpt lat="39.9812978" lon="9.4393626"><ele>870.0</ele><time>2026-05-03T08:50:54.961Z</time></trkpt><trkpt lat="39.9813352" lon="9.4395015"><ele>869.0</ele><time>2026-05-03T08:50:55.961Z</time></trkpt><trkpt lat="39.9813645" lon="9.439646"><ele>868.0</ele><time>2026-05-03T08:50:56.961Z</time></trkpt><trkpt lat="39.9813918" lon="9.43979"><ele>867.0</ele><time>2026-05-03T08:50:57.96Z</time></trkpt><trkpt lat="39.981413" lon="9.4399182"><ele>866.0</ele><time>2026-05-03T08:50:58.96Z</time></trkpt><trkpt lat="39.9814258" lon="9.440036"><ele>865.0</ele><time>2026-05-03T08:50:59.961Z</time></trkpt><trkpt lat="39.9814286" lon="9.4401506"><ele>864.9999999999999</ele><time>2026-05-03T08:51:00.96Z</time></trkpt><trkpt lat="39.9814102" lon="9.4402616"><ele>865.0</ele><time>2026-05-03T08:51:01.961Z</time></trkpt><trkpt lat="39.981367" lon="9.4403634"><ele>865.0</ele><time>2026-05-03T08:51:02.96Z</time></trkpt><trkpt lat="39.9813" lon="9.4404416"><ele>865.0</ele><time>2026-05-03T08:51:03.961Z</time></trkpt><trkpt lat="39.9812249" lon="9.440489"><ele>864.9999999999999</ele><time>2026-05-03T08:51:04.959Z</time></trkpt><trkpt lat="39.9811475" lon="9.4405049"><ele>865.0</ele><time>2026-05-03T08:51:05.96Z</time></trkpt><trkpt lat="39.9810706" lon="9.4404873"><ele>864.9999999999999</ele><time>2026-05-03T08:51:06.959Z</time></trkpt><trkpt lat="39.9810002" lon="9.4404446"><ele>865.0</ele><time>2026-05-03T08:51:07.96Z</time></trkpt><trkpt lat="39.9809327" lon="9.4403965"><ele>865.0</ele><time>2026-05-03T08:51:08.959Z</time></trkpt><trkpt lat="39.9808648" lon="9.4403468"><ele>865.0</ele><time>2026-05-03T08:51:09.959Z</time></trkpt><trkpt lat="39.980797" lon="9.4402992"><ele>864.9999999999999</ele><time>2026-05-03T08:51:10.96Z</time></trkpt><trkpt lat="39.9807297" lon="9.4402529"><ele>865.0</ele><time>2026-05-03T08:51:11.96Z</time></trkpt><trkpt lat="39.9806646" lon="9.4402043"><ele>862.4</ele><time>2026-05-03T08:51:12.96Z</time></trkpt><trkpt lat="39.9805995" lon="9.4401549"><ele>859.8</ele><time>2026-05-03T08:51:13.96Z</time></trkpt><trkpt lat="39.9805297" lon="9.440107"><ele>857.2</ele><time>2026-05-03T08:51:14.96Z</time></trkpt><trkpt lat="39.9804463" lon="9.4400629"><ele>854.6</ele><time>2026-05-03T08:51:15.959Z</time></trkpt><trkpt lat="39.9803451" lon="9.4400401"><ele>852.0</ele><time>2026-05-03T08:51:16.961Z</time></trkpt><trkpt lat="39.9802312" lon="9.4400432"><ele>852.0</ele><time>2026-05-03T08:51:17.959Z</time></trkpt><trkpt lat="39.9801063" lon="9.4400682"><ele>852.0</ele><time>2026-05-03T08:51:18.961Z</time></trkpt><trkpt lat="39.9799804" lon="9.4401048"><ele>852.0</ele><time>2026-05-03T08:51:19.959Z</time></trkpt><trkpt lat="39.9798506" lon="9.4401662"><ele>852.0</ele><time>2026-05-03T08:51:20.96Z</time></trkpt><trkpt lat="39.9797145" lon="9.4402498"><ele>852.0</ele><time>2026-05-03T08:51:21.96Z</time></trkpt><trkpt lat="39.9795824" lon="9.4403406"><ele>852.0</ele><time>2026-05-03T08:51:22.959Z</time></trkpt><trkpt lat="39.9794637" lon="9.440428"><ele>852.0</ele><time>2026-05-03T08:51:23.96Z</time></trkpt><trkpt lat="39.9793633" lon="9.4405327"><ele>852.0</ele><time>2026-05-03T08:51:24.959Z</time></trkpt><trkpt lat="39.9792848" lon="9.4406633"><ele>852.0</ele><time>2026-05-03T08:51:25.959Z</time></trkpt><trkpt lat="39.9792308" lon="9.4408231"><ele>852.0</ele><time>2026-05-03T08:51:26.959Z</time></trkpt><trkpt lat="39.9792065" lon="9.4410003"><ele>852.0</ele><time>2026-05-03T08:51:27.959Z</time></trkpt><trkpt lat="39.9792017" lon="9.44117"><ele>852.0</ele><time>2026-05-03T08:51:28.959Z</time></trkpt><trkpt lat="39.979191" lon="9.4413268"><ele>853.25</ele><time>2026-05-03T08:51:29.96Z</time></trkpt><trkpt lat="39.9791627" lon="9.4414855"><ele>854.5</ele><time>2026-05-03T08:51:30.96Z</time></trkpt><trkpt lat="39.9791096" lon="9.4416385"><ele>855.75</ele><time>2026-05-03T08:51:31.96Z</time></trkpt><trkpt lat="39.9790323" lon="9.4417787"><ele>857.0</ele><time>2026-05-03T08:51:32.96Z</time></trkpt><trkpt lat="39.9789392" lon="9.4419121"><ele>857.0</ele><time>2026-05-03T08:51:33.96Z</time></trkpt><trkpt lat="39.9788492" lon="9.4420251"><ele>857.0</ele><time>2026-05-03T08:51:34.96Z</time></trkpt><trkpt lat="39.9787415" lon="9.4421205"><ele>857.0</ele><time>2026-05-03T08:51:35.959Z</time></trkpt><trkpt lat="39.9786129" lon="9.4421923"><ele>857.0</ele><time>2026-05-03T08:51:36.959Z</time></trkpt><trkpt lat="39.9784783" lon="9.442257"><ele>856.6666666666667</ele><time>2026-05-03T08:51:37.961Z</time></trkpt><trkpt lat="39.9783387" lon="9.4423196"><ele>856.3333333333333</ele><time>2026-05-03T08:51:38.959Z</time></trkpt><trkpt lat="39.9781963" lon="9.4423768"><ele>856.0</ele><time>2026-05-03T08:51:39.96Z</time></trkpt><trkpt lat="39.9780454" lon="9.4424362"><ele>856.0</ele><time>2026-05-03T08:51:40.96Z</time></trkpt><trkpt lat="39.9778863" lon="9.4425018"><ele>856.0</ele><time>2026-05-03T08:51:41.959Z</time></trkpt><trkpt lat="39.9777263" lon="9.4425751"><ele>856.0</ele><time>2026-05-03T08:51:42.96Z</time></trkpt><trkpt lat="39.9775797" lon="9.4426383"><ele>856.75</ele><time>2026-05-03T08:51:43.959Z</time></trkpt><trkpt lat="39.9774458" lon="9.4426919"><ele>857.5</ele><time>2026-05-03T08:51:44.96Z</time></trkpt><trkpt lat="39.9773219" lon="9.4427316"><ele>858.25</ele><time>2026-05-03T08:51:45.959Z</time></trkpt><trkpt lat="39.9771971" lon="9.4427262"><ele>859.0</ele><time>2026-05-03T08:51:46.959Z</time></trkpt><trkpt lat="39.9770711" lon="9.4426714"><ele>859.0</ele><time>2026-05-03T08:51:47.959Z</time></trkpt><trkpt lat="39.9769455" lon="9.4425807"><ele>859.0</ele><time>2026-05-03T08:51:48.96Z</time></trkpt><trkpt lat="39.976811" lon="9.4424939"><ele>859.0</ele><time>2026-05-03T08:51:49.96Z</time></trkpt><trkpt lat="39.9766601" lon="9.442432"><ele>860.0</ele><time>2026-05-03T08:51:50.959Z</time></trkpt><trkpt lat="39.9764921" lon="9.4424029"><ele>861.0</ele><time>2026-05-03T08:51:51.959Z</time></trkpt><trkpt lat="39.9763175" lon="9.4423803"><ele>862.0</ele><time>2026-05-03T08:51:52.959Z</time></trkpt><trkpt lat="39.9761315" lon="9.4423666"><ele>862.0</ele><time>2026-05-03T08:51:53.959Z</time></trkpt><trkpt lat="39.9759412" lon="9.44236"><ele>862.0</ele><time>2026-05-03T08:51:54.959Z</time></trkpt><trkpt lat="39.9757609" lon="9.442365"><ele>862.0</ele><time>2026-05-03T08:51:55.96Z</time></trkpt><trkpt lat="39.9755935" lon="9.4423973"><ele>862.0</ele><time>2026-05-03T08:51:56.959Z</time></trkpt><trkpt lat="39.9754418" lon="9.4424648"><ele>862.0</ele><time>2026-05-03T08:51:57.96Z</time></trkpt><trkpt lat="39.9753108" lon="9.4425541"><ele>862.0</ele><time>2026-05-03T08:51:58.96Z</time></trkpt><trkpt lat="39.9751822" lon="9.4426453"><ele>862.0</ele><time>2026-05-03T08:51:59.96Z</time></trkpt><trkpt lat="39.9750426" lon="9.4427194"><ele>862.0</ele><time>2026-05-03T08:52:00.959Z</time></trkpt><trkpt lat="39.974888" lon="9.4427726"><ele>862.0</ele><time>2026-05-03T08:52:01.961Z</time></trkpt><trkpt lat="39.9747223" lon="9.4428158"><ele>863.3333333333333</ele><time>2026-05-03T08:52:02.959Z</time></trkpt><trkpt lat="39.9745505" lon="9.4428586"><ele>864.6666666666667</ele><time>2026-05-03T08:52:03.961Z</time></trkpt><trkpt lat="39.9743736" lon="9.442901"><ele>866.0</ele><time>2026-05-03T08:52:04.959Z</time></trkpt><trkpt lat="39.9741952" lon="9.4429533"><ele>866.3333333333334</ele><time>2026-05-03T08:52:05.96Z</time></trkpt><trkpt lat="39.9740247" lon="9.4430227"><ele>866.6666666666667</ele><time>2026-05-03T08:52:06.96Z</time></trkpt><trkpt lat="39.9738598" lon="9.4431201"><ele>867.0</ele><time>2026-05-03T08:52:07.96Z</time></trkpt><trkpt lat="39.9737029" lon="9.4432477"><ele>867.0</ele><time>2026-05-03T08:52:08.96Z</time></trkpt><trkpt lat="39.9735551" lon="9.4434014"><ele>867.0</ele><time>2026-05-03T08:52:09.959Z</time></trkpt><trkpt lat="39.9734201" lon="9.4435482"><ele>867.0</ele><time>2026-05-03T08:52:10.96Z</time></trkpt><trkpt lat="39.9732992" lon="9.4436858"><ele>868.0</ele><time>2026-05-03T08:52:11.96Z</time></trkpt><trkpt lat="39.9731878" lon="9.4438136"><ele>869.0</ele><time>2026-05-03T08:52:12.959Z</time></trkpt><trkpt lat="39.9730844" lon="9.4439263"><ele>870.0</ele><time>2026-05-03T08:52:13.96Z</time></trkpt><trkpt lat="39.9729863" lon="9.4440234"><ele>871.0</ele><time>2026-05-03T08:52:14.959Z</time></trkpt><trkpt lat="39.97288" lon="9.4441073"><ele>871.0</ele><time>2026-05-03T08:52:15.959Z</time></trkpt><trkpt lat="39.9727609" lon="9.4441538"><ele>871.0</ele><time>2026-05-03T08:52:16.959Z</time></trkpt><trkpt lat="39.9726315" lon="9.4441582"><ele>871.0</ele><time>2026-05-03T08:52:17.96Z</time></trkpt><trkpt lat="39.9724994" lon="9.444137"><ele>871.0</ele><time>2026-05-03T08:52:18.959Z</time></trkpt><trkpt lat="39.9723611" lon="9.4441209"><ele>872.3333333333333</ele><time>2026-05-03T08:52:19.96Z</time></trkpt><trkpt lat="39.9722145" lon="9.4441335"><ele>873.6666666666667</ele><time>2026-05-03T08:52:20.959Z</time></trkpt><trkpt lat="39.9720659" lon="9.444173"><ele>875.0</ele><time>2026-05-03T08:52:21.959Z</time></trkpt><trkpt lat="39.9719197" lon="9.4442394"><ele>875.0</ele><time>2026-05-03T08:52:22.959Z</time></trkpt><trkpt lat="39.9717778" lon="9.4443248"><ele>875.0</ele><time>2026-05-03T08:52:23.959Z</time></trkpt><trkpt lat="39.9716375" lon="9.4444154"><ele>875.0</ele><time>2026-05-03T08:52:24.96Z</time></trkpt><trkpt lat="39.9714965" lon="9.4445075"><ele>876.3333333333334</ele><time>2026-05-03T08:52:25.96Z</time></trkpt><trkpt lat="39.9713556" lon="9.4445988"><ele>877.6666666666667</ele><time>2026-05-03T08:52:26.96Z</time></trkpt><trkpt lat="39.9712157" lon="9.4446897"><ele>879.0</ele><time>2026-05-03T08:52:27.96Z</time></trkpt><trkpt lat="39.9710767" lon="9.4447796"><ele>879.0</ele><time>2026-05-03T08:52:28.959Z</time></trkpt><trkpt lat="39.9709386" lon="9.4448677"><ele>879.0</ele><time>2026-05-03T08:52:29.959Z</time></trkpt><trkpt lat="39.9708019" lon="9.4449551"><ele>879.0</ele><time>2026-05-03T08:52:30.96Z</time></trkpt><trkpt lat="39.9706664" lon="9.4450439"><ele>879.5</ele><time>2026-05-03T08:52:31.959Z</time></trkpt><trkpt lat="39.970533" lon="9.4451322"><ele>880.0</ele><time>2026-05-03T08:52:32.96Z</time></trkpt><trkpt lat="39.9704072" lon="9.445213"><ele>880.5</ele><time>2026-05-03T08:52:33.959Z</time></trkpt><trkpt lat="39.9702968" lon="9.4452948"><ele>881.0</ele><time>2026-05-03T08:52:34.96Z</time></trkpt><trkpt lat="39.9701964" lon="9.4453945"><ele>881.75</ele><time>2026-05-03T08:52:35.96Z</time></trkpt><trkpt lat="39.9701141" lon="9.4455219"><ele>882.5</ele><time>2026-05-03T08:52:36.959Z</time></trkpt><trkpt lat="39.9700599" lon="9.445686"><ele>883.25</ele><time>2026-05-03T08:52:37.96Z</time></trkpt><trkpt lat="39.970026" lon="9.4458627"><ele>884.0</ele><time>2026-05-03T08:52:38.96Z</time></trkpt><trkpt lat="39.9700026" lon="9.4460401"><ele>884.0</ele><time>2026-05-03T08:52:39.96Z</time></trkpt><trkpt lat="39.9699769" lon="9.4462087"><ele>884.0</ele><time>2026-05-03T08:52:40.96Z</time></trkpt><trkpt lat="39.9699393" lon="9.4463637"><ele>884.0</ele><time>2026-05-03T08:52:41.96Z</time></trkpt><trkpt lat="39.9698866" lon="9.4465108"><ele>884.0</ele><time>2026-05-03T08:52:42.96Z</time></trkpt><trkpt lat="39.96983" lon="9.4466604"><ele>885.0</ele><time>2026-05-03T08:52:43.96Z</time></trkpt><trkpt lat="39.9697686" lon="9.4468038"><ele>886.0</ele><time>2026-05-03T08:52:44.959Z</time></trkpt><trkpt lat="39.9697065" lon="9.4469508"><ele>887.0</ele><time>2026-05-03T08:52:45.959Z</time></trkpt><trkpt lat="39.9696468" lon="9.4470999"><ele>888.0</ele><time>2026-05-03T08:52:46.96Z</time></trkpt><trkpt lat="39.9695836" lon="9.447248"><ele>888.5</ele><time>2026-05-03T08:52:47.96Z</time></trkpt><trkpt lat="39.9695248" lon="9.4473859"><ele>889.0</ele><time>2026-05-03T08:52:48.961Z</time></trkpt><trkpt lat="39.969458" lon="9.4475159"><ele>889.5</ele><time>2026-05-03T08:52:49.959Z</time></trkpt><trkpt lat="39.9693649" lon="9.4476291"><ele>890.0</ele><time>2026-05-03T08:52:50.959Z</time></trkpt><trkpt lat="39.9692522" lon="9.4477149"><ele>890.0</ele><time>2026-05-03T08:52:51.96Z</time></trkpt><trkpt lat="39.9691189" lon="9.4477767"><ele>890.0</ele><time>2026-05-03T08:52:52.96Z</time></trkpt><trkpt lat="39.968976" lon="9.4478224"><ele>890.0</ele><time>2026-05-03T08:52:53.959Z</time></trkpt><trkpt lat="39.9688325" lon="9.4478651"><ele>890.0</ele><time>2026-05-03T08:52:54.961Z</time></trkpt><trkpt lat="39.9686827" lon="9.4479244"><ele>889.6666666666667</ele><time>2026-05-03T08:52:55.96Z</time></trkpt><trkpt lat="39.9685291" lon="9.4480174"><ele>889.3333333333333</ele><time>2026-05-03T08:52:56.96Z</time></trkpt><trkpt lat="39.9683749" lon="9.4481292"><ele>889.0</ele><time>2026-05-03T08:52:57.959Z</time></trkpt><trkpt lat="39.9682221" lon="9.4482389"><ele>889.0</ele><time>2026-05-03T08:52:58.96Z</time></trkpt><trkpt lat="39.9680767" lon="9.4483411"><ele>889.0</ele><time>2026-05-03T08:52:59.959Z</time></trkpt><trkpt lat="39.9679366" lon="9.4484366"><ele>889.0</ele><time>2026-05-03T08:53:00.959Z</time></trkpt><trkpt lat="39.967803" lon="9.4485267"><ele>889.0</ele><time>2026-05-03T08:53:01.96Z</time></trkpt><trkpt lat="39.9676714" lon="9.4486121"><ele>889.0</ele><time>2026-05-03T08:53:02.959Z</time></trkpt><trkpt lat="39.9675358" lon="9.4486843"><ele>889.0</ele><time>2026-05-03T08:53:03.959Z</time></trkpt><trkpt lat="39.9673932" lon="9.4487297"><ele>889.0</ele><time>2026-05-03T08:53:04.959Z</time></trkpt><trkpt lat="39.9672503" lon="9.448762"><ele>888.25</ele><time>2026-05-03T08:53:05.96Z</time></trkpt><trkpt lat="39.9671165" lon="9.4488"><ele>887.5</ele><time>2026-05-03T08:53:06.959Z</time></trkpt><trkpt lat="39.9669903" lon="9.4488419"><ele>886.75</ele><time>2026-05-03T08:53:07.959Z</time></trkpt><trkpt lat="39.9668731" lon="9.4488931"><ele>886.0</ele><time>2026-05-03T08:53:08.959Z</time></trkpt><trkpt lat="39.9667688" lon="9.4489585"><ele>884.75</ele><time>2026-05-03T08:53:09.96Z</time></trkpt><trkpt lat="39.9666741" lon="9.4490315"><ele>883.5</ele><time>2026-05-03T08:53:10.96Z</time></trkpt><trkpt lat="39.9665753" lon="9.4491037"><ele>882.25</ele><time>2026-05-03T08:53:11.959Z</time></trkpt><trkpt lat="39.9664692" lon="9.4491652"><ele>881.0</ele><time>2026-05-03T08:53:12.959Z</time></trkpt><trkpt lat="39.9663589" lon="9.4492169"><ele>881.0</ele><time>2026-05-03T08:53:13.96Z</time></trkpt><trkpt lat="39.9662468" lon="9.4492535"><ele>880.9999999999999</ele><time>2026-05-03T08:53:14.959Z</time></trkpt><trkpt lat="39.9661408" lon="9.4492863"><ele>880.9999999999999</ele><time>2026-05-03T08:53:15.96Z</time></trkpt><trkpt lat="39.9660403" lon="9.4493284"><ele>881.0</ele><time>2026-05-03T08:53:16.96Z</time></trkpt><trkpt lat="39.9659459" lon="9.4493886"><ele>881.0</ele><time>2026-05-03T08:53:17.96Z</time></trkpt><trkpt lat="39.965858" lon="9.4494737"><ele>879.75</ele><time>2026-05-03T08:53:18.96Z</time></trkpt><trkpt lat="39.9657827" lon="9.4495831"><ele>878.5</ele><time>2026-05-03T08:53:19.96Z</time></trkpt><trkpt lat="39.9657143" lon="9.4497047"><ele>877.25</ele><time>2026-05-03T08:53:20.96Z</time></trkpt><trkpt lat="39.9656483" lon="9.4498345"><ele>876.0</ele><time>2026-05-03T08:53:21.961Z</time></trkpt><trkpt lat="39.9655814" lon="9.4499572"><ele>876.0</ele><time>2026-05-03T08:53:22.959Z</time></trkpt><trkpt lat="39.9655079" lon="9.4500655"><ele>876.0</ele><time>2026-05-03T08:53:23.96Z</time></trkpt><trkpt lat="39.9654181" lon="9.4501494"><ele>876.0</ele><time>2026-05-03T08:53:24.959Z</time></trkpt><trkpt lat="39.9653134" lon="9.4502125"><ele>876.0</ele><time>2026-05-03T08:53:25.959Z</time></trkpt><trkpt lat="39.9652032" lon="9.4502608"><ele>876.0</ele><time>2026-05-03T08:53:26.959Z</time></trkpt><trkpt lat="39.9650894" lon="9.4503031"><ele>876.0</ele><time>2026-05-03T08:53:27.959Z</time></trkpt><trkpt lat="39.9649754" lon="9.4503473"><ele>876.0</ele><time>2026-05-03T08:53:28.959Z</time></trkpt><trkpt lat="39.9648671" lon="9.450393"><ele>876.0</ele><time>2026-05-03T08:53:29.959Z</time></trkpt><trkpt lat="39.9647639" lon="9.4504475"><ele>874.75</ele><time>2026-05-03T08:53:30.959Z</time></trkpt><trkpt lat="39.9646699" lon="9.4505261"><ele>873.5</ele><time>2026-05-03T08:53:31.959Z</time></trkpt><trkpt lat="39.9645867" lon="9.4506331"><ele>872.25</ele><time>2026-05-03T08:53:32.96Z</time></trkpt><trkpt lat="39.9645167" lon="9.4507625"><ele>871.0</ele><time>2026-05-03T08:53:33.959Z</time></trkpt><trkpt lat="39.9644589" lon="9.4509084"><ele>871.0</ele><time>2026-05-03T08:53:34.96Z</time></trkpt><trkpt lat="39.9644034" lon="9.4510544"><ele>871.0</ele><time>2026-05-03T08:53:35.959Z</time></trkpt><trkpt lat="39.9643418" lon="9.4511854"><ele>871.0</ele><time>2026-05-03T08:53:36.96Z</time></trkpt><trkpt lat="39.9642716" lon="9.4513029"><ele>871.0</ele><time>2026-05-03T08:53:37.959Z</time></trkpt><trkpt lat="39.9641992" lon="9.4514084"><ele>869.1999999999999</ele><time>2026-05-03T08:53:38.959Z</time></trkpt><trkpt lat="39.9641143" lon="9.4514936"><ele>867.3999999999999</ele><time>2026-05-03T08:53:39.96Z</time></trkpt><trkpt lat="39.9640457" lon="9.4515822"><ele>865.6</ele><time>2026-05-03T08:53:40.959Z</time></trkpt><trkpt lat="39.9639987" lon="9.4516867"><ele>863.8</ele><time>2026-05-03T08:53:41.961Z</time></trkpt><trkpt lat="39.9639816" lon="9.4518117"><ele>862.0</ele><time>2026-05-03T08:53:42.96Z</time></trkpt><trkpt lat="39.9639914" lon="9.4519448"><ele>862.0</ele><time>2026-05-03T08:53:43.959Z</time></trkpt><trkpt lat="39.9640162" lon="9.4520786"><ele>862.0</ele><time>2026-05-03T08:53:44.959Z</time></trkpt><trkpt lat="39.9640375" lon="9.4522085"><ele>862.0</ele><time>2026-05-03T08:53:45.959Z</time></trkpt><trkpt lat="39.9640441" lon="9.4523419"><ele>862.0</ele><time>2026-05-03T08:53:46.96Z</time></trkpt><trkpt lat="39.9640277" lon="9.4524759"><ele>862.0</ele><time>2026-05-03T08:53:47.96Z</time></trkpt><trkpt lat="39.9639954" lon="9.4526038"><ele>861.8</ele><time>2026-05-03T08:53:48.959Z</time></trkpt><trkpt lat="39.9639591" lon="9.4527284"><ele>861.6</ele><time>2026-05-03T08:53:49.96Z</time></trkpt><trkpt lat="39.9639522" lon="9.4528622"><ele>861.3999999999999</ele><time>2026-05-03T08:53:50.96Z</time></trkpt><trkpt lat="39.9639739" lon="9.453004"><ele>861.1999999999999</ele><time>2026-05-03T08:53:51.959Z</time></trkpt><trkpt lat="39.9640172" lon="9.4531432"><ele>861.0</ele><time>2026-05-03T08:53:52.959Z</time></trkpt><trkpt lat="39.9640701" lon="9.4532837"><ele>860.0</ele><time>2026-05-03T08:53:53.959Z</time></trkpt><trkpt lat="39.9641386" lon="9.4534178"><ele>859.0</ele><time>2026-05-03T08:53:54.959Z</time></trkpt><trkpt lat="39.964225" lon="9.4535333"><ele>858.0</ele><time>2026-05-03T08:53:55.96Z</time></trkpt><trkpt lat="39.9643078" lon="9.4536259"><ele>857.0</ele><time>2026-05-03T08:53:56.959Z</time></trkpt><trkpt lat="39.9643866" lon="9.4537048"><ele>858.6</ele><time>2026-05-03T08:53:57.96Z</time></trkpt><trkpt lat="39.9644696" lon="9.4537592"><ele>860.2</ele><time>2026-05-03T08:53:58.959Z</time></trkpt><trkpt lat="39.9645667" lon="9.4537659"><ele>861.8</ele><time>2026-05-03T08:53:59.959Z</time></trkpt><trkpt lat="39.9646667" lon="9.4537363"><ele>863.4</ele><time>2026-05-03T08:54:00.96Z</time></trkpt><trkpt lat="39.9647619" lon="9.4536944"><ele>865.0</ele><time>2026-05-03T08:54:01.96Z</time></trkpt><trkpt lat="39.9648605" lon="9.4536872"><ele>865.0</ele><time>2026-05-03T08:54:02.96Z</time></trkpt><trkpt lat="39.9649554" lon="9.4537134"><ele>865.0</ele><time>2026-05-03T08:54:03.96Z</time></trkpt><trkpt lat="39.965038" lon="9.4537854"><ele>865.0</ele><time>2026-05-03T08:54:04.96Z</time></trkpt><trkpt lat="39.9651184" lon="9.4538724"><ele>865.0</ele><time>2026-05-03T08:54:05.959Z</time></trkpt><trkpt lat="39.9651971" lon="9.4539583"><ele>865.0</ele><time>2026-05-03T08:54:06.959Z</time></trkpt><trkpt lat="39.9652877" lon="9.4540235"><ele>862.4</ele><time>2026-05-03T08:54:07.96Z</time></trkpt><trkpt lat="39.9653904" lon="9.4540561"><ele>859.8</ele><time>2026-05-03T08:54:08.959Z</time></trkpt><trkpt lat="39.9655019" lon="9.4540617"><ele>857.2</ele><time>2026-05-03T08:54:09.96Z</time></trkpt><trkpt lat="39.9656106" lon="9.4540794"><ele>854.6</ele><time>2026-05-03T08:54:10.96Z</time></trkpt><trkpt lat="39.9657172" lon="9.4541362"><ele>852.0</ele><time>2026-05-03T08:54:11.959Z</time></trkpt><trkpt lat="39.9658248" lon="9.4542227"><ele>854.25</ele><time>2026-05-03T08:54:12.959Z</time></trkpt><trkpt lat="39.9659375" lon="9.4543194"><ele>856.5</ele><time>2026-05-03T08:54:13.96Z</time></trkpt><trkpt lat="39.9660449" lon="9.4544095"><ele>858.75</ele><time>2026-05-03T08:54:14.96Z</time></trkpt><trkpt lat="39.9661401" lon="9.4544877"><ele>861.0</ele><time>2026-05-03T08:54:15.959Z</time></trkpt><trkpt lat="39.9662219" lon="9.454563"><ele>858.8</ele><time>2026-05-03T08:54:16.959Z</time></trkpt><trkpt lat="39.9662904" lon="9.454653"><ele>856.5999999999999</ele><time>2026-05-03T08:54:17.96Z</time></trkpt><trkpt lat="39.9663342" lon="9.4547727"><ele>854.4</ele><time>2026-05-03T08:54:18.959Z</time></trkpt><trkpt lat="39.9663596" lon="9.4549027"><ele>852.2</ele><time>2026-05-03T08:54:19.959Z</time></trkpt><trkpt lat="39.966382" lon="9.4550279"><ele>850.0</ele><time>2026-05-03T08:54:20.96Z</time></trkpt><trkpt lat="39.9663982" lon="9.4551402"><ele>849.9999999999999</ele><time>2026-05-03T08:54:21.96Z</time></trkpt><trkpt lat="39.9663907" lon="9.4552455"><ele>850.0</ele><time>2026-05-03T08:54:22.959Z</time></trkpt><trkpt lat="39.9663546" lon="9.4553419"><ele>850.0</ele><time>2026-05-03T08:54:23.959Z</time></trkpt><trkpt lat="39.9662995" lon="9.4554191"><ele>850.0</ele><time>2026-05-03T08:54:24.959Z</time></trkpt><trkpt lat="39.9662152" lon="9.4554704"><ele>849.9999999999999</ele><time>2026-05-03T08:54:25.959Z</time></trkpt><trkpt lat="39.9661172" lon="9.4555129"><ele>850.0</ele><time>2026-05-03T08:54:26.959Z</time></trkpt><trkpt lat="39.9660081" lon="9.4555483"><ele>851.25</ele><time>2026-05-03T08:54:27.959Z</time></trkpt><trkpt lat="39.9658945" lon="9.4555854"><ele>852.5</ele><time>2026-05-03T08:54:28.96Z</time></trkpt><trkpt lat="39.9657738" lon="9.45563"><ele>853.75</ele><time>2026-05-03T08:54:29.96Z</time></trkpt><trkpt lat="39.9656486" lon="9.4556827"><ele>855.0</ele><time>2026-05-03T08:54:30.96Z</time></trkpt><trkpt lat="39.9655187" lon="9.4557495"><ele>852.5</ele><time>2026-05-03T08:54:31.961Z</time></trkpt><trkpt lat="39.9653892" lon="9.4558272"><ele>850.0</ele><time>2026-05-03T08:54:32.96Z</time></trkpt><trkpt lat="39.9652624" lon="9.4559242"><ele>847.5</ele><time>2026-05-03T08:54:33.959Z</time></trkpt><trkpt lat="39.9651399" lon="9.4560205"><ele>845.0</ele><time>2026-05-03T08:54:34.959Z</time></trkpt><trkpt lat="39.9650234" lon="9.4561057"><ele>844.0</ele><time>2026-05-03T08:54:35.96Z</time></trkpt><trkpt lat="39.9649131" lon="9.4561848"><ele>843.0</ele><time>2026-05-03T08:54:36.959Z</time></trkpt><trkpt lat="39.9648077" lon="9.4562581"><ele>842.0</ele><time>2026-05-03T08:54:37.96Z</time></trkpt><trkpt lat="39.9647081" lon="9.4563337"><ele>841.0</ele><time>2026-05-03T08:54:38.959Z</time></trkpt><trkpt lat="39.9646115" lon="9.4564222"><ele>841.0</ele><time>2026-05-03T08:54:39.959Z</time></trkpt><trkpt lat="39.96452" lon="9.4565233"><ele>841.0</ele><time>2026-05-03T08:54:40.96Z</time></trkpt><trkpt lat="39.9644333" lon="9.456635"><ele>841.0</ele><time>2026-05-03T08:54:41.959Z</time></trkpt><trkpt lat="39.9643465" lon="9.456754"><ele>841.0</ele><time>2026-05-03T08:54:42.96Z</time></trkpt><trkpt lat="39.9642565" lon="9.4568763"><ele>840.25</ele><time>2026-05-03T08:54:43.96Z</time></trkpt><trkpt lat="39.9641552" lon="9.4569887"><ele>839.5</ele><time>2026-05-03T08:54:44.96Z</time></trkpt><trkpt lat="39.9640467" lon="9.4570985"><ele>838.75</ele><time>2026-05-03T08:54:45.96Z</time></trkpt><trkpt lat="39.9639378" lon="9.4572082"><ele>838.0</ele><time>2026-05-03T08:54:46.959Z</time></trkpt><trkpt lat="39.9638352" lon="9.457315"><ele>838.0</ele><time>2026-05-03T08:54:47.959Z</time></trkpt><trkpt lat="39.963746" lon="9.4574252"><ele>838.0</ele><time>2026-05-03T08:54:48.96Z</time></trkpt><trkpt lat="39.963673" lon="9.4575487"><ele>838.0</ele><time>2026-05-03T08:54:49.959Z</time></trkpt><trkpt lat="39.9636132" lon="9.457687"><ele>838.0</ele><time>2026-05-03T08:54:50.959Z</time></trkpt><trkpt lat="39.9635654" lon="9.457837"><ele>837.75</ele><time>2026-05-03T08:54:51.96Z</time></trkpt><trkpt lat="39.9635187" lon="9.4579934"><ele>837.5</ele><time>2026-05-03T08:54:52.959Z</time></trkpt><trkpt lat="39.9634712" lon="9.4581573"><ele>837.25</ele><time>2026-05-03T08:54:53.959Z</time></trkpt><trkpt lat="39.9634252" lon="9.4583247"><ele>837.0</ele><time>2026-05-03T08:54:54.96Z</time></trkpt><trkpt lat="39.9633799" lon="9.4584968"><ele>835.0</ele><time>2026-05-03T08:54:55.959Z</time></trkpt><trkpt lat="39.9633329" lon="9.4586725"><ele>833.0</ele><time>2026-05-03T08:54:56.959Z</time></trkpt><trkpt lat="39.9632842" lon="9.4588454"><ele>831.0</ele><time>2026-05-03T08:54:57.959Z</time></trkpt><trkpt lat="39.9632392" lon="9.4590061"><ele>829.0</ele><time>2026-05-03T08:54:58.96Z</time></trkpt><trkpt lat="39.9631973" lon="9.4591555"><ele>828.8000000000001</ele><time>2026-05-03T08:54:59.959Z</time></trkpt><trkpt lat="39.96316" lon="9.4592939"><ele>828.6</ele><time>2026-05-03T08:55:00.959Z</time></trkpt><trkpt lat="39.9631247" lon="9.4594263"><ele>828.4</ele><time>2026-05-03T08:55:01.959Z</time></trkpt><trkpt lat="39.9630898" lon="9.4595547"><ele>828.2</ele><time>2026-05-03T08:55:02.96Z</time></trkpt><trkpt lat="39.963054" lon="9.459679"><ele>828.0</ele><time>2026-05-03T08:55:03.96Z</time></trkpt><trkpt lat="39.9630172" lon="9.4598025"><ele>827.5999999999999</ele><time>2026-05-03T08:55:04.959Z</time></trkpt><trkpt lat="39.9629845" lon="9.459928"><ele>827.1999999999999</ele><time>2026-05-03T08:55:05.96Z</time></trkpt><trkpt lat="39.9629513" lon="9.4600543"><ele>826.8</ele><time>2026-05-03T08:55:06.96Z</time></trkpt><trkpt lat="39.9629148" lon="9.4601818"><ele>826.4</ele><time>2026-05-03T08:55:07.96Z</time></trkpt><trkpt lat="39.9628772" lon="9.4603095"><ele>826.0</ele><time>2026-05-03T08:55:08.96Z</time></trkpt><trkpt lat="39.9628413" lon="9.4604382"><ele>825.8</ele><time>2026-05-03T08:55:09.959Z</time></trkpt><trkpt lat="39.962807" lon="9.4605688"><ele>825.5999999999999</ele><time>2026-05-03T08:55:10.96Z</time></trkpt><trkpt lat="39.962772" lon="9.4606986"><ele>825.4</ele><time>2026-05-03T08:55:11.96Z</time></trkpt><trkpt lat="39.962737" lon="9.460827"><ele>825.2</ele><time>2026-05-03T08:55:12.96Z</time></trkpt><trkpt lat="39.9627018" lon="9.460957"><ele>825.0</ele><time>2026-05-03T08:55:13.96Z</time></trkpt><trkpt lat="39.9626672" lon="9.461086"><ele>825.0</ele><time>2026-05-03T08:55:14.96Z</time></trkpt><trkpt lat="39.9626321" lon="9.4612121"><ele>825.0</ele><time>2026-05-03T08:55:15.96Z</time></trkpt><trkpt lat="39.9625937" lon="9.4613395"><ele>825.0</ele><time>2026-05-03T08:55:16.96Z</time></trkpt><trkpt lat="39.9625568" lon="9.4614685"><ele>825.0</ele><time>2026-05-03T08:55:17.959Z</time></trkpt><trkpt lat="39.9625229" lon="9.4615953"><ele>825.0</ele><time>2026-05-03T08:55:18.96Z</time></trkpt><trkpt lat="39.9624892" lon="9.4617199"><ele>825.0</ele><time>2026-05-03T08:55:19.96Z</time></trkpt><trkpt lat="39.9624557" lon="9.4618404"><ele>825.0</ele><time>2026-05-03T08:55:20.961Z</time></trkpt><trkpt lat="39.9624242" lon="9.4619553"><ele>825.0</ele><time>2026-05-03T08:55:21.959Z</time></trkpt><trkpt lat="39.9623935" lon="9.4620549"><ele>825.0</ele><time>2026-05-03T08:55:22.959Z</time></trkpt><trkpt lat="39.9623577" lon="9.4621396"><ele>825.0</ele><time>2026-05-03T08:55:23.96Z</time></trkpt><trkpt lat="39.9623064" lon="9.4622105"><ele>825.0</ele><time>2026-05-03T08:55:24.96Z</time></trkpt><trkpt lat="39.9622423" lon="9.4622637"><ele>825.0</ele><time>2026-05-03T08:55:25.959Z</time></trkpt><trkpt lat="39.9621775" lon="9.4622984"><ele>825.0</ele><time>2026-05-03T08:55:26.959Z</time></trkpt><trkpt lat="39.9621139" lon="9.4623095"><ele>825.0</ele><time>2026-05-03T08:55:27.959Z</time></trkpt><trkpt lat="39.9620507" lon="9.4622968"><ele>825.0</ele><time>2026-05-03T08:55:28.96Z</time></trkpt><trkpt lat="39.9619889" lon="9.4622579"><ele>825.0</ele><time>2026-05-03T08:55:29.96Z</time></trkpt><trkpt lat="39.9619308" lon="9.4621986"><ele>825.0</ele><time>2026-05-03T08:55:30.96Z</time></trkpt><trkpt lat="39.9618706" lon="9.4621257"><ele>825.0</ele><time>2026-05-03T08:55:31.959Z</time></trkpt><trkpt lat="39.9618057" lon="9.4620454"><ele>825.0</ele><time>2026-05-03T08:55:32.959Z</time></trkpt><trkpt lat="39.9617369" lon="9.4619577"><ele>825.0</ele><time>2026-05-03T08:55:33.959Z</time></trkpt><trkpt lat="39.9616621" lon="9.4618676"><ele>825.0</ele><time>2026-05-03T08:55:34.96Z</time></trkpt><trkpt lat="39.9615801" lon="9.4617729"><ele>825.0</ele><time>2026-05-03T08:55:35.959Z</time></trkpt><trkpt lat="39.9614923" lon="9.4616725"><ele>825.0</ele><time>2026-05-03T08:55:36.96Z</time></trkpt><trkpt lat="39.9614002" lon="9.4615652"><ele>825.25</ele><time>2026-05-03T08:55:37.96Z</time></trkpt><trkpt lat="39.961305" lon="9.4614549"><ele>825.5</ele><time>2026-05-03T08:55:38.959Z</time></trkpt><trkpt lat="39.9612051" lon="9.4613391"><ele>825.75</ele><time>2026-05-03T08:55:39.96Z</time></trkpt><trkpt lat="39.9611006" lon="9.4612172"><ele>826.0</ele><time>2026-05-03T08:55:40.959Z</time></trkpt><trkpt lat="39.9609942" lon="9.4610916"><ele>825.6666666666666</ele><time>2026-05-03T08:55:41.959Z</time></trkpt><trkpt lat="39.9608835" lon="9.4609581"><ele>825.3333333333333</ele><time>2026-05-03T08:55:42.96Z</time></trkpt><trkpt lat="39.960769" lon="9.4608211"><ele>825.0</ele><time>2026-05-03T08:55:43.959Z</time></trkpt><trkpt lat="39.9606515" lon="9.4606805"><ele>825.0</ele><time>2026-05-03T08:55:44.959Z</time></trkpt><trkpt lat="39.960529" lon="9.460537"><ele>825.0</ele><time>2026-05-03T08:55:45.959Z</time></trkpt><trkpt lat="39.9604055" lon="9.4603923"><ele>825.0</ele><time>2026-05-03T08:55:46.96Z</time></trkpt><trkpt lat="39.9602808" lon="9.4602474"><ele>824.6666666666667</ele><time>2026-05-03T08:55:47.959Z</time></trkpt><trkpt lat="39.9601566" lon="9.4601006"><ele>824.3333333333334</ele><time>2026-05-03T08:55:48.96Z</time></trkpt><trkpt lat="39.9600346" lon="9.4599515"><ele>824.0</ele><time>2026-05-03T08:55:49.959Z</time></trkpt><trkpt lat="39.959912" lon="9.4598034"><ele>823.3333333333334</ele><time>2026-05-03T08:55:50.959Z</time></trkpt><trkpt lat="39.95979" lon="9.4596561"><ele>822.6666666666667</ele><time>2026-05-03T08:55:51.96Z</time></trkpt><trkpt lat="39.9596687" lon="9.4595096"><ele>822.0</ele><time>2026-05-03T08:55:52.96Z</time></trkpt><trkpt lat="39.9595458" lon="9.459361"><ele>822.0</ele><time>2026-05-03T08:55:53.96Z</time></trkpt><trkpt lat="39.9594189" lon="9.4592136"><ele>822.0</ele><time>2026-05-03T08:55:54.959Z</time></trkpt><trkpt lat="39.9592794" lon="9.4590684"><ele>822.0</ele><time>2026-05-03T08:55:55.959Z</time></trkpt><trkpt lat="39.9591285" lon="9.4589321"><ele>822.0</ele><time>2026-05-03T08:55:56.959Z</time></trkpt><trkpt lat="39.9589754" lon="9.4588007"><ele>822.0</ele><time>2026-05-03T08:55:57.959Z</time></trkpt><trkpt lat="39.9588327" lon="9.458675"><ele>822.0</ele><time>2026-05-03T08:55:58.959Z</time></trkpt><trkpt lat="39.9586978" lon="9.4585554"><ele>821.6666666666667</ele><time>2026-05-03T08:55:59.959Z</time></trkpt><trkpt lat="39.9585621" lon="9.4584405"><ele>821.3333333333334</ele><time>2026-05-03T08:56:00.959Z</time></trkpt><trkpt lat="39.9584299" lon="9.4583317"><ele>821.0</ele><time>2026-05-03T08:56:01.96Z</time></trkpt><trkpt lat="39.958308" lon="9.4582293"><ele>820.5</ele><time>2026-05-03T08:56:02.96Z</time></trkpt><trkpt lat="39.958195" lon="9.4581313"><ele>820.0</ele><time>2026-05-03T08:56:03.959Z</time></trkpt><trkpt lat="39.9580896" lon="9.4580299"><ele>819.5</ele><time>2026-05-03T08:56:04.959Z</time></trkpt><trkpt lat="39.9579915" lon="9.4579125"><ele>819.0</ele><time>2026-05-03T08:56:05.96Z</time></trkpt><trkpt lat="39.9579039" lon="9.4577826"><ele>818.5</ele><time>2026-05-03T08:56:06.959Z</time></trkpt><trkpt lat="39.9578231" lon="9.457644"><ele>818.0</ele><time>2026-05-03T08:56:07.96Z</time></trkpt><trkpt lat="39.9577469" lon="9.4574998"><ele>817.5</ele><time>2026-05-03T08:56:08.96Z</time></trkpt><trkpt lat="39.9576769" lon="9.4573546"><ele>817.0</ele><time>2026-05-03T08:56:09.96Z</time></trkpt><trkpt lat="39.9576129" lon="9.4572194"><ele>816.75</ele><time>2026-05-03T08:56:10.959Z</time></trkpt><trkpt lat="39.9575519" lon="9.4570932"><ele>816.5</ele><time>2026-05-03T08:56:11.96Z</time></trkpt><trkpt lat="39.9574896" lon="9.4569735"><ele>816.25</ele><time>2026-05-03T08:56:12.96Z</time></trkpt><trkpt lat="39.9574237" lon="9.4568548"><ele>816.0</ele><time>2026-05-03T08:56:13.96Z</time></trkpt><trkpt lat="39.9573509" lon="9.4567425"><ele>816.0</ele><time>2026-05-03T08:56:14.96Z</time></trkpt><trkpt lat="39.957268" lon="9.4566356"><ele>816.0</ele><time>2026-05-03T08:56:15.96Z</time></trkpt><trkpt lat="39.9571785" lon="9.4565294"><ele>816.0</ele><time>2026-05-03T08:56:16.96Z</time></trkpt><trkpt lat="39.9570831" lon="9.4564259"><ele>816.0</ele><time>2026-05-03T08:56:17.959Z</time></trkpt><trkpt lat="39.9569822" lon="9.4563247"><ele>816.25</ele><time>2026-05-03T08:56:18.961Z</time></trkpt><trkpt lat="39.9568772" lon="9.4562233"><ele>816.5</ele><time>2026-05-03T08:56:19.959Z</time></trkpt><trkpt lat="39.9567689" lon="9.4561213"><ele>816.75</ele><time>2026-05-03T08:56:20.959Z</time></trkpt><trkpt lat="39.9566578" lon="9.4560178"><ele>817.0</ele><time>2026-05-03T08:56:21.96Z</time></trkpt><trkpt lat="39.9565461" lon="9.4559131"><ele>817.0</ele><time>2026-05-03T08:56:22.96Z</time></trkpt><trkpt lat="39.956432" lon="9.4558084"><ele>817.0</ele><time>2026-05-03T08:56:23.959Z</time></trkpt><trkpt lat="39.9563155" lon="9.4557068"><ele>817.0</ele><time>2026-05-03T08:56:24.96Z</time></trkpt><trkpt lat="39.9561871" lon="9.455614"><ele>817.0</ele><time>2026-05-03T08:56:25.959Z</time></trkpt><trkpt lat="39.9560452" lon="9.4555319"><ele>817.0</ele><time>2026-05-03T08:56:26.959Z</time></trkpt><trkpt lat="39.9558956" lon="9.4554719"><ele>817.0</ele><time>2026-05-03T08:56:27.96Z</time></trkpt><trkpt lat="39.9557453" lon="9.4554262"><ele>817.0</ele><time>2026-05-03T08:56:28.959Z</time></trkpt><trkpt lat="39.9555809" lon="9.4554183"><ele>817.6666666666666</ele><time>2026-05-03T08:56:29.961Z</time></trkpt><trkpt lat="39.9554221" lon="9.4554268"><ele>818.3333333333333</ele><time>2026-05-03T08:56:30.959Z</time></trkpt><trkpt lat="39.9552582" lon="9.4554638"><ele>819.0</ele><time>2026-05-03T08:56:31.959Z</time></trkpt><trkpt lat="39.9550913" lon="9.4555262"><ele>818.3333333333333</ele><time>2026-05-03T08:56:32.959Z</time></trkpt><trkpt lat="39.9549236" lon="9.4556028"><ele>817.6666666666666</ele><time>2026-05-03T08:56:33.959Z</time></trkpt><trkpt lat="39.9547584" lon="9.4556797"><ele>817.0</ele><time>2026-05-03T08:56:34.96Z</time></trkpt><trkpt lat="39.9546057" lon="9.4557528"><ele>817.0</ele><time>2026-05-03T08:56:35.96Z</time></trkpt><trkpt lat="39.9544656" lon="9.4558205"><ele>817.0</ele><time>2026-05-03T08:56:36.959Z</time></trkpt><trkpt lat="39.9543327" lon="9.4558867"><ele>817.0</ele><time>2026-05-03T08:56:37.959Z</time></trkpt><trkpt lat="39.954208" lon="9.4559638"><ele>817.0</ele><time>2026-05-03T08:56:38.959Z</time></trkpt><trkpt lat="39.9540991" lon="9.4560688"><ele>817.0</ele><time>2026-05-03T08:56:39.959Z</time></trkpt><trkpt lat="39.9540122" lon="9.4561978"><ele>817.0</ele><time>2026-05-03T08:56:40.96Z</time></trkpt><trkpt lat="39.953956" lon="9.456346"><ele>817.0</ele><time>2026-05-03T08:56:41.959Z</time></trkpt><trkpt lat="39.9539301" lon="9.4565101"><ele>817.0</ele><time>2026-05-03T08:56:42.96Z</time></trkpt><trkpt lat="39.9539262" lon="9.4566864"><ele>817.5</ele><time>2026-05-03T08:56:43.96Z</time></trkpt><trkpt lat="39.9539396" lon="9.4568679"><ele>818.0</ele><time>2026-05-03T08:56:44.96Z</time></trkpt><trkpt lat="39.9539532" lon="9.457049"><ele>818.5</ele><time>2026-05-03T08:56:45.96Z</time></trkpt><trkpt lat="39.9539592" lon="9.4572213"><ele>819.0</ele><time>2026-05-03T08:56:46.959Z</time></trkpt><trkpt lat="39.953955" lon="9.4573752"><ele>819.0</ele><time>2026-05-03T08:56:47.959Z</time></trkpt><trkpt lat="39.9539367" lon="9.4575093"><ele>819.0</ele><time>2026-05-03T08:56:48.96Z</time></trkpt><trkpt lat="39.9539032" lon="9.4576287"><ele>819.0</ele><time>2026-05-03T08:56:49.96Z</time></trkpt><trkpt lat="39.9538519" lon="9.4577395"><ele>819.0</ele><time>2026-05-03T08:56:50.96Z</time></trkpt><trkpt lat="39.9537833" lon="9.4578419"><ele>819.0</ele><time>2026-05-03T08:56:51.96Z</time></trkpt><trkpt lat="39.9537097" lon="9.4579345"><ele>819.0</ele><time>2026-05-03T08:56:52.96Z</time></trkpt><trkpt lat="39.9536271" lon="9.45804"><ele>819.0</ele><time>2026-05-03T08:56:53.961Z</time></trkpt><trkpt lat="39.9535354" lon="9.4581594"><ele>819.0</ele><time>2026-05-03T08:56:54.96Z</time></trkpt><trkpt lat="39.9534346" lon="9.4582917"><ele>819.0</ele><time>2026-05-03T08:56:55.959Z</time></trkpt><trkpt lat="39.9533264" lon="9.4584372"><ele>819.6666666666667</ele><time>2026-05-03T08:56:56.96Z</time></trkpt><trkpt lat="39.953211" lon="9.4586047"><ele>820.3333333333334</ele><time>2026-05-03T08:56:57.959Z</time></trkpt><trkpt lat="39.9530931" lon="9.4587998"><ele>821.0</ele><time>2026-05-03T08:56:58.959Z</time></trkpt><trkpt lat="39.9529713" lon="9.4590178"><ele>821.0</ele><time>2026-05-03T08:56:59.959Z</time></trkpt><trkpt lat="39.9528484" lon="9.4592464"><ele>821.0</ele><time>2026-05-03T08:57:00.961Z</time></trkpt><trkpt lat="39.9527232" lon="9.459493"><ele>821.0</ele><time>2026-05-03T08:57:01.96Z</time></trkpt><trkpt lat="39.9525988" lon="9.4597587"><ele>822.5</ele><time>2026-05-03T08:57:02.96Z</time></trkpt><trkpt lat="39.9524796" lon="9.4600343"><ele>824.0</ele><time>2026-05-03T08:57:03.96Z</time></trkpt><trkpt lat="39.9523612" lon="9.4603226"><ele>823.5</ele><time>2026-05-03T08:57:04.959Z</time></trkpt><trkpt lat="39.9522459" lon="9.4606212"><ele>823.0</ele><time>2026-05-03T08:57:05.96Z</time></trkpt><trkpt lat="39.9521285" lon="9.4609292"><ele>823.0</ele><time>2026-05-03T08:57:06.96Z</time></trkpt><trkpt lat="39.9520072" lon="9.4612442"><ele>823.0</ele><time>2026-05-03T08:57:07.96Z</time></trkpt><trkpt lat="39.9518834" lon="9.4615657"><ele>825.0</ele><time>2026-05-03T08:57:08.96Z</time></trkpt><trkpt lat="39.9517588" lon="9.4618946"><ele>827.0</ele><time>2026-05-03T08:57:09.96Z</time></trkpt><trkpt lat="39.9516317" lon="9.4622304"><ele>828.5</ele><time>2026-05-03T08:57:10.959Z</time></trkpt><trkpt lat="39.9515043" lon="9.4625719"><ele>830.0</ele><time>2026-05-03T08:57:11.96Z</time></trkpt><trkpt lat="39.9513765" lon="9.462917"><ele>832.0</ele><time>2026-05-03T08:57:12.959Z</time></trkpt><trkpt lat="39.9512459" lon="9.4632664"><ele>834.0</ele><time>2026-05-03T08:57:13.959Z</time></trkpt><trkpt lat="39.9511123" lon="9.4636175"><ele>836.0</ele><time>2026-05-03T08:57:14.959Z</time></trkpt><trkpt lat="39.9509788" lon="9.4639693"><ele>838.0</ele><time>2026-05-03T08:57:15.959Z</time></trkpt><trkpt lat="39.9508498" lon="9.4643102"><ele>842.0</ele><time>2026-05-03T08:57:16.959Z</time></trkpt><trkpt lat="39.9507237" lon="9.464646"><ele>846.0</ele><time>2026-05-03T08:57:17.96Z</time></trkpt><trkpt lat="39.9505995" lon="9.4649775"><ele>846.0</ele><time>2026-05-03T08:57:18.96Z</time></trkpt><trkpt lat="39.9504741" lon="9.4653119"><ele>846.0</ele><time>2026-05-03T08:57:19.959Z</time></trkpt><trkpt lat="39.9503493" lon="9.465645"><ele>850.5</ele><time>2026-05-03T08:57:20.96Z</time></trkpt><trkpt lat="39.9502241" lon="9.4659811"><ele>855.0</ele><time>2026-05-03T08:57:21.959Z</time></trkpt><trkpt lat="39.9500981" lon="9.4663183"><ele>853.0</ele><time>2026-05-03T08:57:22.96Z</time></trkpt><trkpt lat="39.9499729" lon="9.4666565"><ele>851.0</ele><time>2026-05-03T08:57:23.959Z</time></trkpt><trkpt lat="39.9498483" lon="9.4669938"><ele>853.5</ele><time>2026-05-03T08:57:24.96Z</time></trkpt><trkpt lat="39.9497222" lon="9.467329"><ele>856.0</ele><time>2026-05-03T08:57:25.96Z</time></trkpt><trkpt lat="39.9495968" lon="9.467665"><ele>857.0</ele><time>2026-05-03T08:57:26.959Z</time></trkpt><trkpt lat="39.9494721" lon="9.468002"><ele>858.0</ele><time>2026-05-03T08:57:27.96Z</time></trkpt><trkpt lat="39.9493457" lon="9.4683446"><ele>858.0</ele><time>2026-05-03T08:57:28.96Z</time></trkpt><trkpt lat="39.9492174" lon="9.4686872"><ele>858.0</ele><time>2026-05-03T08:57:29.959Z</time></trkpt><trkpt lat="39.9490867" lon="9.4690327"><ele>857.5</ele><time>2026-05-03T08:57:30.959Z</time></trkpt><trkpt lat="39.9489566" lon="9.4693784"><ele>857.0</ele><time>2026-05-03T08:57:31.959Z</time></trkpt><trkpt lat="39.9488314" lon="9.4697165"><ele>858.5</ele><time>2026-05-03T08:57:32.959Z</time></trkpt><trkpt lat="39.9487094" lon="9.4700496"><ele>860.0</ele><time>2026-05-03T08:57:33.96Z</time></trkpt><trkpt lat="39.9485899" lon="9.4703732"><ele>860.0</ele><time>2026-05-03T08:57:34.96Z</time></trkpt><trkpt lat="39.9484713" lon="9.4706938"><ele>860.0</ele><time>2026-05-03T08:57:35.96Z</time></trkpt><trkpt lat="39.948353" lon="9.4710106"><ele>860.5</ele><time>2026-05-03T08:57:36.959Z</time></trkpt><trkpt lat="39.9482369" lon="9.4713185"><ele>861.0</ele><time>2026-05-03T08:57:37.96Z</time></trkpt><trkpt lat="39.9481214" lon="9.4716175"><ele>861.0</ele><time>2026-05-03T08:57:38.96Z</time></trkpt><trkpt lat="39.948005" lon="9.4719074"><ele>861.0</ele><time>2026-05-03T08:57:39.96Z</time></trkpt><trkpt lat="39.9478855" lon="9.472196"><ele>859.5</ele><time>2026-05-03T08:57:40.959Z</time></trkpt><trkpt lat="39.9477609" lon="9.4724804"><ele>858.0</ele><time>2026-05-03T08:57:41.96Z</time></trkpt><trkpt lat="39.9476291" lon="9.4727567"><ele>857.0</ele><time>2026-05-03T08:57:42.96Z</time></trkpt><trkpt lat="39.9474929" lon="9.4730226"><ele>856.0</ele><time>2026-05-03T08:57:43.96Z</time></trkpt><trkpt lat="39.9473581" lon="9.473264"><ele>856.0</ele><time>2026-05-03T08:57:44.96Z</time></trkpt><trkpt lat="39.9472182" lon="9.473498"><ele>856.0</ele><time>2026-05-03T08:57:45.96Z</time></trkpt><trkpt lat="39.9470726" lon="9.4737241"><ele>855.5</ele><time>2026-05-03T08:57:46.959Z</time></trkpt><trkpt lat="39.9469187" lon="9.4739437"><ele>855.0</ele><time>2026-05-03T08:57:47.959Z</time></trkpt><trkpt lat="39.9467559" lon="9.4741573"><ele>855.0</ele><time>2026-05-03T08:57:48.959Z</time></trkpt><trkpt lat="39.9465835" lon="9.4743621"><ele>855.0</ele><time>2026-05-03T08:57:49.96Z</time></trkpt><trkpt lat="39.9464024" lon="9.474558"><ele>853.5</ele><time>2026-05-03T08:57:50.96Z</time></trkpt><trkpt lat="39.9462106" lon="9.4747458"><ele>852.0</ele><time>2026-05-03T08:57:51.959Z</time></trkpt><trkpt lat="39.946011" lon="9.474926"><ele>850.0</ele><time>2026-05-03T08:57:52.96Z</time></trkpt><trkpt lat="39.9457994" lon="9.4751047"><ele>848.0</ele><time>2026-05-03T08:57:53.961Z</time></trkpt><trkpt lat="39.9455832" lon="9.4752819"><ele>847.0</ele><time>2026-05-03T08:57:54.959Z</time></trkpt><trkpt lat="39.9453629" lon="9.4754568"><ele>846.0</ele><time>2026-05-03T08:57:55.96Z</time></trkpt><trkpt lat="39.9451448" lon="9.4756215"><ele>846.5</ele><time>2026-05-03T08:57:56.96Z</time></trkpt><trkpt lat="39.9449318" lon="9.4757813"><ele>847.0</ele><time>2026-05-03T08:57:57.959Z</time></trkpt><trkpt lat="39.9447256" lon="9.4759384"><ele>847.0</ele><time>2026-05-03T08:57:58.959Z</time></trkpt><trkpt lat="39.9445223" lon="9.476095"><ele>847.0</ele><time>2026-05-03T08:57:59.96Z</time></trkpt><trkpt lat="39.9443161" lon="9.4762505"><ele>845.0</ele><time>2026-05-03T08:58:00.96Z</time></trkpt><trkpt lat="39.94411" lon="9.4764098"><ele>843.0</ele><time>2026-05-03T08:58:01.959Z</time></trkpt><trkpt lat="39.9439031" lon="9.4765676"><ele>843.0</ele><time>2026-05-03T08:58:02.96Z</time></trkpt><trkpt lat="39.9436948" lon="9.4767211"><ele>843.0</ele><time>2026-05-03T08:58:03.96Z</time></trkpt><trkpt lat="39.9434896" lon="9.4768741"><ele>841.0</ele><time>2026-05-03T08:58:04.959Z</time></trkpt><trkpt lat="39.9432867" lon="9.4770241"><ele>839.0</ele><time>2026-05-03T08:58:05.96Z</time></trkpt><trkpt lat="39.9430895" lon="9.4771702"><ele>839.0</ele><time>2026-05-03T08:58:06.96Z</time></trkpt><trkpt lat="39.9428956" lon="9.4773113"><ele>839.0</ele><time>2026-05-03T08:58:07.96Z</time></trkpt><trkpt lat="39.9427046" lon="9.4774534"><ele>839.0</ele><time>2026-05-03T08:58:08.96Z</time></trkpt><trkpt lat="39.9425141" lon="9.4775933"><ele>838.6666666666667</ele><time>2026-05-03T08:58:09.96Z</time></trkpt><trkpt lat="39.942328" lon="9.4777311"><ele>838.3333333333333</ele><time>2026-05-03T08:58:10.959Z</time></trkpt><trkpt lat="39.9421426" lon="9.4778664"><ele>838.0</ele><time>2026-05-03T08:58:11.96Z</time></trkpt><trkpt lat="39.9419589" lon="9.4780027"><ele>838.6666666666666</ele><time>2026-05-03T08:58:12.959Z</time></trkpt><trkpt lat="39.941775" lon="9.478139"><ele>839.3333333333333</ele><time>2026-05-03T08:58:13.959Z</time></trkpt><trkpt lat="39.9415915" lon="9.4782746"><ele>840.0</ele><time>2026-05-03T08:58:14.959Z</time></trkpt><trkpt lat="39.9414126" lon="9.4784107"><ele>840.3333333333333</ele><time>2026-05-03T08:58:15.96Z</time></trkpt><trkpt lat="39.9412383" lon="9.4785384"><ele>840.6666666666666</ele><time>2026-05-03T08:58:16.959Z</time></trkpt><trkpt lat="39.9410746" lon="9.4786578"><ele>841.0</ele><time>2026-05-03T08:58:17.959Z</time></trkpt><trkpt lat="39.9409178" lon="9.4787671"><ele>842.0</ele><time>2026-05-03T08:58:18.96Z</time></trkpt><trkpt lat="39.9407753" lon="9.4788678"><ele>843.0</ele><time>2026-05-03T08:58:19.96Z</time></trkpt><trkpt lat="39.9406461" lon="9.4789615"><ele>844.0</ele><time>2026-05-03T08:58:20.959Z</time></trkpt><trkpt lat="39.9405276" lon="9.4790475"><ele>845.0</ele><time>2026-05-03T08:58:21.96Z</time></trkpt><trkpt lat="39.9404215" lon="9.4791269"><ele>845.0</ele><time>2026-05-03T08:58:22.959Z</time></trkpt><trkpt lat="39.9403263" lon="9.4792007"><ele>845.0</ele><time>2026-05-03T08:58:23.959Z</time></trkpt><trkpt lat="39.940241" lon="9.479267"><ele>845.0</ele><time>2026-05-03T08:58:24.96Z</time></trkpt><trkpt lat="39.9401715" lon="9.4793221"><ele>845.0</ele><time>2026-05-03T08:58:25.959Z</time></trkpt><trkpt lat="39.9400981" lon="9.4794436"><ele>845.0</ele><time>2026-05-03T08:58:27.959Z</time></trkpt><trkpt lat="39.9401099" lon="9.4796078"><ele>845.6</ele><time>2026-05-03T08:58:29.96Z</time></trkpt><trkpt lat="39.9401305" lon="9.4796997"><ele>846.2</ele><time>2026-05-03T08:58:30.96Z</time></trkpt><trkpt lat="39.9401506" lon="9.4798059"><ele>846.8</ele><time>2026-05-03T08:58:31.96Z</time></trkpt><trkpt lat="39.9401721" lon="9.4799327"><ele>847.4</ele><time>2026-05-03T08:58:32.96Z</time></trkpt><trkpt lat="39.9401953" lon="9.4800764"><ele>848.0</ele><time>2026-05-03T08:58:33.96Z</time></trkpt><trkpt lat="39.9402192" lon="9.4802468"><ele>848.3333333333334</ele><time>2026-05-03T08:58:34.96Z</time></trkpt><trkpt lat="39.9402449" lon="9.4804432"><ele>848.6666666666667</ele><time>2026-05-03T08:58:35.96Z</time></trkpt><trkpt lat="39.9402728" lon="9.4806519"><ele>849.0</ele><time>2026-05-03T08:58:36.96Z</time></trkpt><trkpt lat="39.940306" lon="9.4808724"><ele>849.0</ele><time>2026-05-03T08:58:37.96Z</time></trkpt><trkpt lat="39.9403399" lon="9.4811088"><ele>849.0</ele><time>2026-05-03T08:58:38.959Z</time></trkpt><trkpt lat="39.9403752" lon="9.4813604"><ele>849.0</ele><time>2026-05-03T08:58:39.959Z</time></trkpt><trkpt lat="39.9404129" lon="9.4816145"><ele>849.6666666666667</ele><time>2026-05-03T08:58:40.96Z</time></trkpt><trkpt lat="39.9404528" lon="9.4818778"><ele>850.3333333333334</ele><time>2026-05-03T08:58:41.959Z</time></trkpt><trkpt lat="39.9404951" lon="9.4821551"><ele>851.0</ele><time>2026-05-03T08:58:42.959Z</time></trkpt><trkpt lat="39.9405389" lon="9.4824437"><ele>852.0</ele><time>2026-05-03T08:58:43.959Z</time></trkpt><trkpt lat="39.9405838" lon="9.482738"><ele>853.0</ele><time>2026-05-03T08:58:44.961Z</time></trkpt><trkpt lat="39.9406304" lon="9.4830413"><ele>854.5</ele><time>2026-05-03T08:58:45.96Z</time></trkpt><trkpt lat="39.9406801" lon="9.4833532"><ele>856.0</ele><time>2026-05-03T08:58:46.959Z</time></trkpt><trkpt lat="39.940729" lon="9.4836693"><ele>858.0</ele><time>2026-05-03T08:58:47.959Z</time></trkpt><trkpt lat="39.9407807" lon="9.4839898"><ele>860.0</ele><time>2026-05-03T08:58:48.96Z</time></trkpt><trkpt lat="39.9408331" lon="9.484316"><ele>860.0</ele><time>2026-05-03T08:58:49.959Z</time></trkpt><trkpt lat="39.9408841" lon="9.4846425"><ele>860.0</ele><time>2026-05-03T08:58:50.959Z</time></trkpt><trkpt lat="39.940934" lon="9.4849689"><ele>860.0</ele><time>2026-05-03T08:58:51.96Z</time></trkpt><trkpt lat="39.9409841" lon="9.4852996"><ele>860.0</ele><time>2026-05-03T08:58:52.959Z</time></trkpt><trkpt lat="39.9410339" lon="9.4856296"><ele>860.0</ele><time>2026-05-03T08:58:53.959Z</time></trkpt><trkpt lat="39.9410858" lon="9.4859593"><ele>860.0</ele><time>2026-05-03T08:58:54.959Z</time></trkpt><trkpt lat="39.9411367" lon="9.4862879"><ele>860.5</ele><time>2026-05-03T08:58:55.961Z</time></trkpt><trkpt lat="39.9411884" lon="9.4866145"><ele>861.0</ele><time>2026-05-03T08:58:56.96Z</time></trkpt><trkpt lat="39.9412362" lon="9.4869256"><ele>863.0</ele><time>2026-05-03T08:58:57.96Z</time></trkpt><trkpt lat="39.9412804" lon="9.4872118"><ele>865.0</ele><time>2026-05-03T08:58:58.96Z</time></trkpt><trkpt lat="39.94132" lon="9.4874768"><ele>867.0</ele><time>2026-05-03T08:58:59.96Z</time></trkpt><trkpt lat="39.941357" lon="9.487726"><ele>869.3333333333333</ele><time>2026-05-03T08:59:00.959Z</time></trkpt><trkpt lat="39.9413936" lon="9.487968"><ele>871.6666666666666</ele><time>2026-05-03T08:59:01.959Z</time></trkpt><trkpt lat="39.9414299" lon="9.4882023"><ele>874.0</ele><time>2026-05-03T08:59:02.96Z</time></trkpt><trkpt lat="39.9414664" lon="9.4884247"><ele>874.0</ele><time>2026-05-03T08:59:03.96Z</time></trkpt><trkpt lat="39.9415074" lon="9.4886299"><ele>874.0</ele><time>2026-05-03T08:59:04.96Z</time></trkpt><trkpt lat="39.9415589" lon="9.4888306"><ele>874.0</ele><time>2026-05-03T08:59:05.959Z</time></trkpt><trkpt lat="39.9416232" lon="9.4890296"><ele>874.3333333333333</ele><time>2026-05-03T08:59:06.959Z</time></trkpt><trkpt lat="39.9416993" lon="9.4892222"><ele>874.6666666666667</ele><time>2026-05-03T08:59:07.959Z</time></trkpt><trkpt lat="39.9417941" lon="9.4894139"><ele>875.0</ele><time>2026-05-03T08:59:08.959Z</time></trkpt><trkpt lat="39.9419057" lon="9.4895991"><ele>875.0</ele><time>2026-05-03T08:59:09.96Z</time></trkpt><trkpt lat="39.942038" lon="9.4897874"><ele>875.0</ele><time>2026-05-03T08:59:10.96Z</time></trkpt><trkpt lat="39.9421844" lon="9.4899743"><ele>875.0</ele><time>2026-05-03T08:59:11.959Z</time></trkpt><trkpt lat="39.9423398" lon="9.490165"><ele>875.0</ele><time>2026-05-03T08:59:12.959Z</time></trkpt><trkpt lat="39.9424999" lon="9.4903589"><ele>875.0</ele><time>2026-05-03T08:59:13.959Z</time></trkpt><trkpt lat="39.9426588" lon="9.4905469"><ele>875.0</ele><time>2026-05-03T08:59:14.959Z</time></trkpt><trkpt lat="39.9428012" lon="9.4907202"><ele>876.3333333333334</ele><time>2026-05-03T08:59:15.959Z</time></trkpt><trkpt lat="39.9429332" lon="9.4908802"><ele>877.6666666666667</ele><time>2026-05-03T08:59:16.96Z</time></trkpt><trkpt lat="39.9430569" lon="9.4910357"><ele>879.0</ele><time>2026-05-03T08:59:17.959Z</time></trkpt><trkpt lat="39.9431707" lon="9.4912045"><ele>881.6666666666667</ele><time>2026-05-03T08:59:18.96Z</time></trkpt><trkpt lat="39.9432715" lon="9.4913906"><ele>884.3333333333334</ele><time>2026-05-03T08:59:19.96Z</time></trkpt><trkpt lat="39.943357" lon="9.4915992"><ele>887.0</ele><time>2026-05-03T08:59:20.96Z</time></trkpt><trkpt lat="39.9434236" lon="9.4918224"><ele>887.0</ele><time>2026-05-03T08:59:21.961Z</time></trkpt><trkpt lat="39.9434749" lon="9.4920572"><ele>887.0</ele><time>2026-05-03T08:59:22.96Z</time></trkpt><trkpt lat="39.943515" lon="9.49228"><ele>887.0</ele><time>2026-05-03T08:59:23.959Z</time></trkpt><trkpt lat="39.9435396" lon="9.4924957"><ele>889.3333333333334</ele><time>2026-05-03T08:59:24.96Z</time></trkpt><trkpt lat="39.9435432" lon="9.4927047"><ele>891.6666666666667</ele><time>2026-05-03T08:59:25.96Z</time></trkpt><trkpt lat="39.9435193" lon="9.4929042"><ele>894.0</ele><time>2026-05-03T08:59:26.96Z</time></trkpt><trkpt lat="39.9434754" lon="9.4930984"><ele>894.3333333333333</ele><time>2026-05-03T08:59:27.959Z</time></trkpt><trkpt lat="39.9434143" lon="9.4932905"><ele>894.6666666666666</ele><time>2026-05-03T08:59:28.959Z</time></trkpt><trkpt lat="39.9433406" lon="9.4934835"><ele>895.0</ele><time>2026-05-03T08:59:29.959Z</time></trkpt><trkpt lat="39.9432608" lon="9.4936784"><ele>895.0</ele><time>2026-05-03T08:59:30.959Z</time></trkpt><trkpt lat="39.9431894" lon="9.4938742"><ele>895.0</ele><time>2026-05-03T08:59:31.96Z</time></trkpt><trkpt lat="39.9431355" lon="9.494066"><ele>895.0</ele><time>2026-05-03T08:59:32.959Z</time></trkpt><trkpt lat="39.9430959" lon="9.4942561"><ele>895.0</ele><time>2026-05-03T08:59:33.96Z</time></trkpt><trkpt lat="39.9430726" lon="9.4944482"><ele>895.0</ele><time>2026-05-03T08:59:34.96Z</time></trkpt><trkpt lat="39.9430557" lon="9.4946357"><ele>895.0</ele><time>2026-05-03T08:59:35.96Z</time></trkpt><trkpt lat="39.9430432" lon="9.4948144"><ele>895.0</ele><time>2026-05-03T08:59:36.959Z</time></trkpt><trkpt lat="39.9430367" lon="9.4949872"><ele>895.25</ele><time>2026-05-03T08:59:37.96Z</time></trkpt><trkpt lat="39.9430315" lon="9.4951495"><ele>895.5</ele><time>2026-05-03T08:59:38.96Z</time></trkpt><trkpt lat="39.9430254" lon="9.4953062"><ele>895.75</ele><time>2026-05-03T08:59:39.959Z</time></trkpt><trkpt lat="39.9430219" lon="9.4954528"><ele>896.0</ele><time>2026-05-03T08:59:40.96Z</time></trkpt><trkpt lat="39.9430209" lon="9.4955985"><ele>894.75</ele><time>2026-05-03T08:59:41.961Z</time></trkpt><trkpt lat="39.9430173" lon="9.4957431"><ele>893.5</ele><time>2026-05-03T08:59:42.96Z</time></trkpt><trkpt lat="39.9430128" lon="9.4958901"><ele>892.25</ele><time>2026-05-03T08:59:43.96Z</time></trkpt><trkpt lat="39.9430081" lon="9.4960417"><ele>891.0</ele><time>2026-05-03T08:59:44.959Z</time></trkpt><trkpt lat="39.9430042" lon="9.4962015"><ele>890.5</ele><time>2026-05-03T08:59:45.959Z</time></trkpt><trkpt lat="39.9430004" lon="9.4963731"><ele>890.0</ele><time>2026-05-03T08:59:46.959Z</time></trkpt><trkpt lat="39.9429961" lon="9.4965616"><ele>889.5</ele><time>2026-05-03T08:59:47.96Z</time></trkpt><trkpt lat="39.9429934" lon="9.4967574"><ele>889.0</ele><time>2026-05-03T08:59:48.959Z</time></trkpt><trkpt lat="39.9429913" lon="9.4969611"><ele>888.75</ele><time>2026-05-03T08:59:49.96Z</time></trkpt><trkpt lat="39.9429851" lon="9.4971674"><ele>888.5</ele><time>2026-05-03T08:59:50.959Z</time></trkpt><trkpt lat="39.942977" lon="9.497358"><ele>888.25</ele><time>2026-05-03T08:59:51.96Z</time></trkpt><trkpt lat="39.9429668" lon="9.4975412"><ele>888.0</ele><time>2026-05-03T08:59:52.959Z</time></trkpt><trkpt lat="39.9429608" lon="9.4977037"><ele>888.0</ele><time>2026-05-03T08:59:53.959Z</time></trkpt><trkpt lat="39.9429576" lon="9.4978475"><ele>888.0</ele><time>2026-05-03T08:59:54.959Z</time></trkpt><trkpt lat="39.9429594" lon="9.4979829"><ele>888.0</ele><time>2026-05-03T08:59:55.959Z</time></trkpt><trkpt lat="39.9429749" lon="9.4981125"><ele>888.0</ele><time>2026-05-03T08:59:56.959Z</time></trkpt><trkpt lat="39.9430109" lon="9.4982442"><ele>888.0</ele><time>2026-05-03T08:59:57.959Z</time></trkpt><trkpt lat="39.9430648" lon="9.4983738"><ele>886.25</ele><time>2026-05-03T08:59:58.959Z</time></trkpt><trkpt lat="39.943134" lon="9.4984994"><ele>884.5</ele><time>2026-05-03T08:59:59.959Z</time></trkpt><trkpt lat="39.9432171" lon="9.498627"><ele>882.75</ele><time>2026-05-03T09:00:00.958Z</time></trkpt><trkpt lat="39.943309" lon="9.4987557"><ele>881.0</ele><time>2026-05-03T09:00:01.96Z</time></trkpt><trkpt lat="39.9433945" lon="9.4988812"><ele>879.0</ele><time>2026-05-03T09:00:02.959Z</time></trkpt><trkpt lat="39.9434774" lon="9.4989978"><ele>877.0</ele><time>2026-05-03T09:00:03.958Z</time></trkpt><trkpt lat="39.9435678" lon="9.4991019"><ele>875.0</ele><time>2026-05-03T09:00:04.959Z</time></trkpt><trkpt lat="39.9436716" lon="9.4991916"><ele>873.0</ele><time>2026-05-03T09:00:05.959Z</time></trkpt><trkpt lat="39.943787" lon="9.499269"><ele>873.0</ele><time>2026-05-03T09:00:06.958Z</time></trkpt><trkpt lat="39.9439026" lon="9.4993335"><ele>873.0</ele><time>2026-05-03T09:00:07.958Z</time></trkpt><trkpt lat="39.9440167" lon="9.4993842"><ele>873.0</ele><time>2026-05-03T09:00:08.958Z</time></trkpt><trkpt lat="39.9441251" lon="9.4994371"><ele>873.0</ele><time>2026-05-03T09:00:09.959Z</time></trkpt><trkpt lat="39.9442284" lon="9.4995004"><ele>873.5</ele><time>2026-05-03T09:00:10.958Z</time></trkpt><trkpt lat="39.9443197" lon="9.4995709"><ele>874.0</ele><time>2026-05-03T09:00:11.958Z</time></trkpt><trkpt lat="39.944396" lon="9.4996488"><ele>874.5</ele><time>2026-05-03T09:00:12.958Z</time></trkpt><trkpt lat="39.9444574" lon="9.4997264"><ele>875.0</ele><time>2026-05-03T09:00:13.959Z</time></trkpt><trkpt lat="39.9444941" lon="9.4998164"><ele>875.5</ele><time>2026-05-03T09:00:14.959Z</time></trkpt><trkpt lat="39.9445064" lon="9.4999127"><ele>876.0</ele><time>2026-05-03T09:00:15.958Z</time></trkpt><trkpt lat="39.9445075" lon="9.5000154"><ele>876.0</ele><time>2026-05-03T09:00:16.959Z</time></trkpt><trkpt lat="39.9445173" lon="9.5001262"><ele>875.9999999999999</ele><time>2026-05-03T09:00:17.959Z</time></trkpt><trkpt lat="39.9445403" lon="9.5002433"><ele>875.9999999999999</ele><time>2026-05-03T09:00:18.959Z</time></trkpt><trkpt lat="39.9445816" lon="9.5003651"><ele>876.0</ele><time>2026-05-03T09:00:19.96Z</time></trkpt><trkpt lat="39.9446336" lon="9.5004923"><ele>876.0</ele><time>2026-05-03T09:00:20.959Z</time></trkpt><trkpt lat="39.9446839" lon="9.5006296"><ele>874.5</ele><time>2026-05-03T09:00:21.958Z</time></trkpt><trkpt lat="39.9447287" lon="9.5007801"><ele>873.0</ele><time>2026-05-03T09:00:22.959Z</time></trkpt><trkpt lat="39.9447642" lon="9.5009414"><ele>871.5</ele><time>2026-05-03T09:00:23.959Z</time></trkpt><trkpt lat="39.9447883" lon="9.5011096"><ele>870.0</ele><time>2026-05-03T09:00:24.958Z</time></trkpt><trkpt lat="39.9448018" lon="9.5012738"><ele>867.75</ele><time>2026-05-03T09:00:25.958Z</time></trkpt><trkpt lat="39.9448157" lon="9.501431"><ele>865.5</ele><time>2026-05-03T09:00:26.958Z</time></trkpt><trkpt lat="39.9448387" lon="9.5015777"><ele>863.25</ele><time>2026-05-03T09:00:27.959Z</time></trkpt><trkpt lat="39.9448735" lon="9.5017124"><ele>861.0</ele><time>2026-05-03T09:00:28.958Z</time></trkpt><trkpt lat="39.9449393" lon="9.501834"><ele>861.0</ele><time>2026-05-03T09:00:29.959Z</time></trkpt><trkpt lat="39.9450379" lon="9.501943"><ele>861.0</ele><time>2026-05-03T09:00:30.959Z</time></trkpt><trkpt lat="39.945155" lon="9.5020586"><ele>861.0</ele><time>2026-05-03T09:00:31.958Z</time></trkpt><trkpt lat="39.9452677" lon="9.5021945"><ele>861.0</ele><time>2026-05-03T09:00:32.959Z</time></trkpt><trkpt lat="39.9453653" lon="9.5023346"><ele>860.0</ele><time>2026-05-03T09:00:33.958Z</time></trkpt><trkpt lat="39.9454547" lon="9.5024791"><ele>859.0</ele><time>2026-05-03T09:00:34.958Z</time></trkpt><trkpt lat="39.9455364" lon="9.5026251"><ele>858.0</ele><time>2026-05-03T09:00:35.958Z</time></trkpt><trkpt lat="39.9455965" lon="9.5027838"><ele>857.0</ele><time>2026-05-03T09:00:36.958Z</time></trkpt><trkpt lat="39.9456403" lon="9.5029451"><ele>855.0</ele><time>2026-05-03T09:00:37.959Z</time></trkpt><trkpt lat="39.9456792" lon="9.5031042"><ele>853.0</ele><time>2026-05-03T09:00:38.958Z</time></trkpt><trkpt lat="39.9457177" lon="9.5032568"><ele>851.0</ele><time>2026-05-03T09:00:39.958Z</time></trkpt><trkpt lat="39.9457751" lon="9.5033908"><ele>849.0</ele><time>2026-05-03T09:00:40.959Z</time></trkpt><trkpt lat="39.9458556" lon="9.5035054"><ele>848.25</ele><time>2026-05-03T09:00:41.958Z</time></trkpt><trkpt lat="39.945959" lon="9.5035948"><ele>847.5</ele><time>2026-05-03T09:00:42.958Z</time></trkpt><trkpt lat="39.9460746" lon="9.5036688"><ele>846.75</ele><time>2026-05-03T09:00:43.96Z</time></trkpt><trkpt lat="39.9461865" lon="9.5037429"><ele>846.0</ele><time>2026-05-03T09:00:44.958Z</time></trkpt><trkpt lat="39.9462881" lon="9.5038378"><ele>843.75</ele><time>2026-05-03T09:00:45.959Z</time></trkpt><trkpt lat="39.9463826" lon="9.5039541"><ele>841.5</ele><time>2026-05-03T09:00:46.96Z</time></trkpt><trkpt lat="39.9464621" lon="9.5040906"><ele>839.25</ele><time>2026-05-03T09:00:47.959Z</time></trkpt><trkpt lat="39.9465542" lon="9.5042135"><ele>837.0</ele><time>2026-05-03T09:00:48.958Z</time></trkpt><trkpt lat="39.946674" lon="9.5043071"><ele>840.0</ele><time>2026-05-03T09:00:49.959Z</time></trkpt><trkpt lat="39.9468168" lon="9.5043816"><ele>843.0</ele><time>2026-05-03T09:00:50.958Z</time></trkpt><trkpt lat="39.9469713" lon="9.5044396"><ele>846.0</ele><time>2026-05-03T09:00:51.958Z</time></trkpt><trkpt lat="39.9471298" lon="9.504492"><ele>846.0</ele><time>2026-05-03T09:00:52.959Z</time></trkpt><trkpt lat="39.947278" lon="9.5045405"><ele>846.0</ele><time>2026-05-03T09:00:53.958Z</time></trkpt><trkpt lat="39.9474205" lon="9.5045877"><ele>846.0</ele><time>2026-05-03T09:00:54.959Z</time></trkpt><trkpt lat="39.9475564" lon="9.5046298"><ele>846.0</ele><time>2026-05-03T09:00:55.959Z</time></trkpt><trkpt lat="39.9476931" lon="9.5046565"><ele>835.6666666666667</ele><time>2026-05-03T09:00:56.958Z</time></trkpt><trkpt lat="39.9478381" lon="9.5046555"><ele>825.3333333333334</ele><time>2026-05-03T09:00:57.959Z</time></trkpt><trkpt lat="39.9479883" lon="9.5046366"><ele>815.0</ele><time>2026-05-03T09:00:58.959Z</time></trkpt><trkpt lat="39.9481457" lon="9.5046095"><ele>821.0</ele><time>2026-05-03T09:00:59.958Z</time></trkpt><trkpt lat="39.9483076" lon="9.5045764"><ele>827.0</ele><time>2026-05-03T09:01:00.959Z</time></trkpt><trkpt lat="39.94847" lon="9.5045414"><ele>833.0</ele><time>2026-05-03T09:01:01.958Z</time></trkpt><trkpt lat="39.9486262" lon="9.5045121"><ele>833.0</ele><time>2026-05-03T09:01:02.959Z</time></trkpt><trkpt lat="39.9487762" lon="9.5044875"><ele>833.0</ele><time>2026-05-03T09:01:03.959Z</time></trkpt><trkpt lat="39.9489232" lon="9.5044628"><ele>833.0</ele><time>2026-05-03T09:01:04.959Z</time></trkpt><trkpt lat="39.9490661" lon="9.5044412"><ele>833.0</ele><time>2026-05-03T09:01:05.958Z</time></trkpt><trkpt lat="39.9491962" lon="9.50443"><ele>832.8</ele><time>2026-05-03T09:01:06.958Z</time></trkpt><trkpt lat="39.9493162" lon="9.5044245"><ele>832.5999999999999</ele><time>2026-05-03T09:01:07.959Z</time></trkpt><trkpt lat="39.9494189" lon="9.504424"><ele>832.4000000000001</ele><time>2026-05-03T09:01:08.959Z</time></trkpt><trkpt lat="39.949514" lon="9.5044417"><ele>832.2</ele><time>2026-05-03T09:01:09.959Z</time></trkpt><trkpt lat="39.9496047" lon="9.504499"><ele>832.0</ele><time>2026-05-03T09:01:10.959Z</time></trkpt><trkpt lat="39.9496812" lon="9.5046001"><ele>827.0</ele><time>2026-05-03T09:01:11.958Z</time></trkpt><trkpt lat="39.9497442" lon="9.5047341"><ele>822.0</ele><time>2026-05-03T09:01:12.958Z</time></trkpt><trkpt lat="39.9497936" lon="9.5048686"><ele>817.0</ele><time>2026-05-03T09:01:13.959Z</time></trkpt><trkpt lat="39.9498474" lon="9.5049959"><ele>812.0</ele><time>2026-05-03T09:01:14.959Z</time></trkpt><trkpt lat="39.9499169" lon="9.5051177"><ele>812.0</ele><time>2026-05-03T09:01:15.959Z</time></trkpt><trkpt lat="39.9499985" lon="9.5052284"><ele>812.0</ele><time>2026-05-03T09:01:16.958Z</time></trkpt><trkpt lat="39.9500887" lon="9.5053124"><ele>812.0</ele><time>2026-05-03T09:01:17.959Z</time></trkpt><trkpt lat="39.9501859" lon="9.5053762"><ele>812.0</ele><time>2026-05-03T09:01:18.959Z</time></trkpt><trkpt lat="39.9502991" lon="9.5054075"><ele>811.75</ele><time>2026-05-03T09:01:19.958Z</time></trkpt><trkpt lat="39.9504244" lon="9.5054068"><ele>811.5</ele><time>2026-05-03T09:01:20.959Z</time></trkpt><trkpt lat="39.9505537" lon="9.5053982"><ele>811.25</ele><time>2026-05-03T09:01:21.959Z</time></trkpt><trkpt lat="39.9506819" lon="9.5053787"><ele>811.0</ele><time>2026-05-03T09:01:22.958Z</time></trkpt><trkpt lat="39.9508022" lon="9.5053498"><ele>808.8</ele><time>2026-05-03T09:01:23.958Z</time></trkpt><trkpt lat="39.9509166" lon="9.5052999"><ele>806.5999999999999</ele><time>2026-05-03T09:01:24.96Z</time></trkpt><trkpt lat="39.9510138" lon="9.5052425"><ele>804.4</ele><time>2026-05-03T09:01:25.958Z</time></trkpt><trkpt lat="39.9511003" lon="9.5051849"><ele>802.2</ele><time>2026-05-03T09:01:26.958Z</time></trkpt><trkpt lat="39.9511804" lon="9.5051443"><ele>800.0</ele><time>2026-05-03T09:01:27.958Z</time></trkpt><trkpt lat="39.9512651" lon="9.5051325"><ele>800.0</ele><time>2026-05-03T09:01:28.959Z</time></trkpt><trkpt lat="39.9513493" lon="9.5051517"><ele>800.0</ele><time>2026-05-03T09:01:29.958Z</time></trkpt><trkpt lat="39.9514274" lon="9.5052117"><ele>800.0</ele><time>2026-05-03T09:01:30.959Z</time></trkpt><trkpt lat="39.9515007" lon="9.5052981"><ele>800.0</ele><time>2026-05-03T09:01:31.959Z</time></trkpt><trkpt lat="39.9515736" lon="9.5054"><ele>800.0</ele><time>2026-05-03T09:01:32.958Z</time></trkpt><trkpt lat="39.9516534" lon="9.5054901"><ele>794.8</ele><time>2026-05-03T09:01:33.959Z</time></trkpt><trkpt lat="39.9517425" lon="9.5055616"><ele>789.6</ele><time>2026-05-03T09:01:34.959Z</time></trkpt><trkpt lat="39.9518395" lon="9.5056081"><ele>784.4000000000001</ele><time>2026-05-03T09:01:35.959Z</time></trkpt><trkpt lat="39.9519448" lon="9.5056284"><ele>779.2</ele><time>2026-05-03T09:01:36.958Z</time></trkpt><trkpt lat="39.9520474" lon="9.505616"><ele>774.0</ele><time>2026-05-03T09:01:37.958Z</time></trkpt><trkpt lat="39.952143" lon="9.5055684"><ele>774.0</ele><time>2026-05-03T09:01:38.959Z</time></trkpt><trkpt lat="39.9522312" lon="9.50549"><ele>774.0</ele><time>2026-05-03T09:01:39.958Z</time></trkpt><trkpt lat="39.9523163" lon="9.5053835"><ele>774.0</ele><time>2026-05-03T09:01:40.96Z</time></trkpt><trkpt lat="39.9523983" lon="9.5052639"><ele>774.0</ele><time>2026-05-03T09:01:41.959Z</time></trkpt><trkpt lat="39.9524739" lon="9.5051313"><ele>771.0</ele><time>2026-05-03T09:01:42.958Z</time></trkpt><trkpt lat="39.9525488" lon="9.5049868"><ele>768.0</ele><time>2026-05-03T09:01:43.959Z</time></trkpt><trkpt lat="39.9526196" lon="9.5048564"><ele>765.0</ele><time>2026-05-03T09:01:44.958Z</time></trkpt><trkpt lat="39.9526881" lon="9.5047275"><ele>762.0</ele><time>2026-05-03T09:01:45.958Z</time></trkpt><trkpt lat="39.9527627" lon="9.5046114"><ele>768.2</ele><time>2026-05-03T09:01:46.958Z</time></trkpt><trkpt lat="39.9528435" lon="9.5045172"><ele>774.4000000000001</ele><time>2026-05-03T09:01:47.958Z</time></trkpt><trkpt lat="39.9529239" lon="9.5044441"><ele>780.5999999999999</ele><time>2026-05-03T09:01:48.958Z</time></trkpt><trkpt lat="39.9530141" lon="9.5043968"><ele>786.8</ele><time>2026-05-03T09:01:49.959Z</time></trkpt><trkpt lat="39.953114" lon="9.5043944"><ele>793.0</ele><time>2026-05-03T09:01:50.959Z</time></trkpt><trkpt lat="39.9532201" lon="9.5044151"><ele>793.0</ele><time>2026-05-03T09:01:51.959Z</time></trkpt><trkpt lat="39.9533361" lon="9.5044365"><ele>793.0</ele><time>2026-05-03T09:01:52.958Z</time></trkpt><trkpt lat="39.9534617" lon="9.5044619"><ele>793.0</ele><time>2026-05-03T09:01:53.959Z</time></trkpt><trkpt lat="39.9535932" lon="9.5044935"><ele>793.0</ele><time>2026-05-03T09:01:54.958Z</time></trkpt><trkpt lat="39.9537323" lon="9.5045263"><ele>793.5</ele><time>2026-05-03T09:01:55.959Z</time></trkpt><trkpt lat="39.953866" lon="9.5045594"><ele>794.0</ele><time>2026-05-03T09:01:56.959Z</time></trkpt><trkpt lat="39.9539962" lon="9.5045958"><ele>794.5</ele><time>2026-05-03T09:01:57.958Z</time></trkpt><trkpt lat="39.9541214" lon="9.5046368"><ele>795.0</ele><time>2026-05-03T09:01:58.958Z</time></trkpt><trkpt lat="39.9542415" lon="9.504686"><ele>787.0</ele><time>2026-05-03T09:01:59.958Z</time></trkpt><trkpt lat="39.954362" lon="9.5047396"><ele>779.0</ele><time>2026-05-03T09:02:00.959Z</time></trkpt><trkpt lat="39.9544839" lon="9.5047927"><ele>771.0</ele><time>2026-05-03T09:02:01.959Z</time></trkpt><trkpt lat="39.9546089" lon="9.5048409"><ele>763.0</ele><time>2026-05-03T09:02:02.958Z</time></trkpt><trkpt lat="39.9547328" lon="9.5048864"><ele>763.0</ele><time>2026-05-03T09:02:03.959Z</time></trkpt><trkpt lat="39.9548546" lon="9.5049222"><ele>763.0</ele><time>2026-05-03T09:02:04.959Z</time></trkpt><trkpt lat="39.9549731" lon="9.5049562"><ele>763.0</ele><time>2026-05-03T09:02:05.958Z</time></trkpt><trkpt lat="39.9550863" lon="9.5050019"><ele>763.0</ele><time>2026-05-03T09:02:06.959Z</time></trkpt><trkpt lat="39.9551861" lon="9.5050819"><ele>764.75</ele><time>2026-05-03T09:02:07.958Z</time></trkpt><trkpt lat="39.9552859" lon="9.5051773"><ele>766.5</ele><time>2026-05-03T09:02:08.958Z</time></trkpt><trkpt lat="39.955392" lon="9.5052704"><ele>768.25</ele><time>2026-05-03T09:02:09.959Z</time></trkpt><trkpt lat="39.9555072" lon="9.5053557"><ele>770.0</ele><time>2026-05-03T09:02:10.958Z</time></trkpt><trkpt lat="39.9556251" lon="9.5054229"><ele>766.6</ele><time>2026-05-03T09:02:11.959Z</time></trkpt><trkpt lat="39.9557339" lon="9.5054816"><ele>763.2</ele><time>2026-05-03T09:02:12.958Z</time></trkpt><trkpt lat="39.9558305" lon="9.5055444"><ele>759.8</ele><time>2026-05-03T09:02:13.959Z</time></trkpt><trkpt lat="39.9559165" lon="9.505619"><ele>756.4</ele><time>2026-05-03T09:02:14.958Z</time></trkpt><trkpt lat="39.955981" lon="9.5057119"><ele>753.0</ele><time>2026-05-03T09:02:15.959Z</time></trkpt><trkpt lat="39.9560143" lon="9.5058208"><ele>753.0</ele><time>2026-05-03T09:02:16.958Z</time></trkpt><trkpt lat="39.9560153" lon="9.5059355"><ele>753.0</ele><time>2026-05-03T09:02:17.959Z</time></trkpt><trkpt lat="39.9559885" lon="9.5060455"><ele>753.0</ele><time>2026-05-03T09:02:18.959Z</time></trkpt><trkpt lat="39.9559345" lon="9.5061378"><ele>753.0</ele><time>2026-05-03T09:02:19.959Z</time></trkpt><trkpt lat="39.9558564" lon="9.506197"><ele>753.0</ele><time>2026-05-03T09:02:20.959Z</time></trkpt><trkpt lat="39.955768" lon="9.5062194"><ele>753.0</ele><time>2026-05-03T09:02:21.958Z</time></trkpt><trkpt lat="39.955677" lon="9.5062018"><ele>753.0</ele><time>2026-05-03T09:02:22.959Z</time></trkpt><trkpt lat="39.9555775" lon="9.5061496"><ele>753.0</ele><time>2026-05-03T09:02:23.958Z</time></trkpt><trkpt lat="39.95547" lon="9.5060811"><ele>753.0</ele><time>2026-05-03T09:02:24.959Z</time></trkpt><trkpt lat="39.9553522" lon="9.5060053"><ele>753.0</ele><time>2026-05-03T09:02:25.958Z</time></trkpt><trkpt lat="39.9552279" lon="9.5059241"><ele>753.0</ele><time>2026-05-03T09:02:26.959Z</time></trkpt><trkpt lat="39.9551019" lon="9.5058436"><ele>753.0</ele><time>2026-05-03T09:02:27.959Z</time></trkpt><trkpt lat="39.9549793" lon="9.5057685"><ele>753.0</ele><time>2026-05-03T09:02:28.958Z</time></trkpt><trkpt lat="39.9548568" lon="9.5057051"><ele>753.0</ele><time>2026-05-03T09:02:29.958Z</time></trkpt><trkpt lat="39.954733" lon="9.5056593"><ele>749.0</ele><time>2026-05-03T09:02:30.959Z</time></trkpt><trkpt lat="39.9546084" lon="9.5056367"><ele>745.0</ele><time>2026-05-03T09:02:31.958Z</time></trkpt><trkpt lat="39.954483" lon="9.5056347"><ele>741.0</ele><time>2026-05-03T09:02:32.958Z</time></trkpt><trkpt lat="39.9543596" lon="9.5056547"><ele>737.0</ele><time>2026-05-03T09:02:33.959Z</time></trkpt><trkpt lat="39.9542425" lon="9.5056981"><ele>735.5</ele><time>2026-05-03T09:02:34.958Z</time></trkpt><trkpt lat="39.954128" lon="9.5057651"><ele>734.0</ele><time>2026-05-03T09:02:35.958Z</time></trkpt><trkpt lat="39.9540182" lon="9.505857"><ele>732.5</ele><time>2026-05-03T09:02:36.959Z</time></trkpt><trkpt lat="39.9539178" lon="9.5059723"><ele>731.0</ele><time>2026-05-03T09:02:37.959Z</time></trkpt><trkpt lat="39.9538315" lon="9.5061192"><ele>727.0</ele><time>2026-05-03T09:02:38.959Z</time></trkpt><trkpt lat="39.953765" lon="9.506292"><ele>723.0</ele><time>2026-05-03T09:02:39.958Z</time></trkpt><trkpt lat="39.9537122" lon="9.5064789"><ele>719.0</ele><time>2026-05-03T09:02:40.958Z</time></trkpt><trkpt lat="39.953676" lon="9.5066733"><ele>719.0</ele><time>2026-05-03T09:02:41.958Z</time></trkpt><trkpt lat="39.9536463" lon="9.5068653"><ele>719.0</ele><time>2026-05-03T09:02:42.959Z</time></trkpt><trkpt lat="39.9536197" lon="9.507048"><ele>719.0</ele><time>2026-05-03T09:02:43.959Z</time></trkpt><trkpt lat="39.9535852" lon="9.50721"><ele>719.0</ele><time>2026-05-03T09:02:44.958Z</time></trkpt><trkpt lat="39.9535331" lon="9.50736"><ele>719.5</ele><time>2026-05-03T09:02:45.959Z</time></trkpt><trkpt lat="39.9534601" lon="9.5074972"><ele>720.0</ele><time>2026-05-03T09:02:46.958Z</time></trkpt><trkpt lat="39.9533712" lon="9.5076203"><ele>720.5</ele><time>2026-05-03T09:02:47.958Z</time></trkpt><trkpt lat="39.9532616" lon="9.5077276"><ele>721.0</ele><time>2026-05-03T09:02:48.958Z</time></trkpt><trkpt lat="39.953138" lon="9.5078152"><ele>721.0</ele><time>2026-05-03T09:02:49.958Z</time></trkpt><trkpt lat="39.9530115" lon="9.5078936"><ele>721.0</ele><time>2026-05-03T09:02:50.958Z</time></trkpt><trkpt lat="39.9528939" lon="9.5079742"><ele>721.0</ele><time>2026-05-03T09:02:51.959Z</time></trkpt><trkpt lat="39.9527871" lon="9.5080712"><ele>721.0</ele><time>2026-05-03T09:02:52.96Z</time></trkpt><trkpt lat="39.9526959" lon="9.5081838"><ele>718.5</ele><time>2026-05-03T09:02:53.958Z</time></trkpt><trkpt lat="39.9526195" lon="9.5083135"><ele>716.0</ele><time>2026-05-03T09:02:54.958Z</time></trkpt><trkpt lat="39.95256" lon="9.5084571"><ele>713.5</ele><time>2026-05-03T09:02:55.959Z</time></trkpt><trkpt lat="39.952515" lon="9.5086056"><ele>711.0</ele><time>2026-05-03T09:02:56.958Z</time></trkpt><trkpt lat="39.9524882" lon="9.5087563"><ele>707.75</ele><time>2026-05-03T09:02:57.958Z</time></trkpt><trkpt lat="39.9524792" lon="9.5089093"><ele>704.5</ele><time>2026-05-03T09:02:58.958Z</time></trkpt><trkpt lat="39.9524891" lon="9.5090683"><ele>701.25</ele><time>2026-05-03T09:02:59.958Z</time></trkpt><trkpt lat="39.9525167" lon="9.5092331"><ele>698.0</ele><time>2026-05-03T09:03:00.958Z</time></trkpt><trkpt lat="39.9525573" lon="9.5094001"><ele>697.75</ele><time>2026-05-03T09:03:01.959Z</time></trkpt><trkpt lat="39.9526023" lon="9.5095668"><ele>697.5</ele><time>2026-05-03T09:03:02.959Z</time></trkpt><trkpt lat="39.9526478" lon="9.5097288"><ele>697.25</ele><time>2026-05-03T09:03:03.958Z</time></trkpt><trkpt lat="39.9526826" lon="9.50989"><ele>697.0</ele><time>2026-05-03T09:03:04.959Z</time></trkpt><trkpt lat="39.9527049" lon="9.5100558"><ele>697.75</ele><time>2026-05-03T09:03:05.958Z</time></trkpt><trkpt lat="39.9527047" lon="9.5102247"><ele>698.5</ele><time>2026-05-03T09:03:06.959Z</time></trkpt><trkpt lat="39.9526777" lon="9.5103925"><ele>699.25</ele><time>2026-05-03T09:03:07.959Z</time></trkpt><trkpt lat="39.952625" lon="9.5105618"><ele>700.0</ele><time>2026-05-03T09:03:08.959Z</time></trkpt><trkpt lat="39.9525486" lon="9.510735"><ele>697.0</ele><time>2026-05-03T09:03:09.959Z</time></trkpt><trkpt lat="39.9524552" lon="9.5109106"><ele>694.0</ele><time>2026-05-03T09:03:10.959Z</time></trkpt><trkpt lat="39.9523593" lon="9.5110925"><ele>691.0</ele><time>2026-05-03T09:03:11.959Z</time></trkpt><trkpt lat="39.9522661" lon="9.5112771"><ele>691.0</ele><time>2026-05-03T09:03:12.958Z</time></trkpt><trkpt lat="39.9521791" lon="9.5114616"><ele>691.0</ele><time>2026-05-03T09:03:13.958Z</time></trkpt><trkpt lat="39.9520941" lon="9.5116409"><ele>691.0</ele><time>2026-05-03T09:03:14.958Z</time></trkpt><trkpt lat="39.9520096" lon="9.5118136"><ele>691.0</ele><time>2026-05-03T09:03:15.959Z</time></trkpt><trkpt lat="39.9519282" lon="9.5119793"><ele>691.0</ele><time>2026-05-03T09:03:16.959Z</time></trkpt><trkpt lat="39.9518539" lon="9.5121433"><ele>691.0</ele><time>2026-05-03T09:03:17.959Z</time></trkpt><trkpt lat="39.9517902" lon="9.5123091"><ele>691.0</ele><time>2026-05-03T09:03:18.959Z</time></trkpt><trkpt lat="39.951748" lon="9.512475"><ele>690.0</ele><time>2026-05-03T09:03:19.958Z</time></trkpt><trkpt lat="39.951725" lon="9.5126418"><ele>689.0</ele><time>2026-05-03T09:03:20.959Z</time></trkpt><trkpt lat="39.9517195" lon="9.512805"><ele>688.0</ele><time>2026-05-03T09:03:21.958Z</time></trkpt><trkpt lat="39.9517284" lon="9.5129569"><ele>687.0</ele><time>2026-05-03T09:03:22.958Z</time></trkpt><trkpt lat="39.9517555" lon="9.5130918"><ele>683.0</ele><time>2026-05-03T09:03:23.958Z</time></trkpt><trkpt lat="39.9518141" lon="9.5132107"><ele>679.0</ele><time>2026-05-03T09:03:24.959Z</time></trkpt><trkpt lat="39.9518994" lon="9.5133063"><ele>675.0</ele><time>2026-05-03T09:03:25.959Z</time></trkpt><trkpt lat="39.9520099" lon="9.513375"><ele>671.0</ele><time>2026-05-03T09:03:26.959Z</time></trkpt><trkpt lat="39.9521398" lon="9.5134129"><ele>671.0</ele><time>2026-05-03T09:03:27.958Z</time></trkpt><trkpt lat="39.9522837" lon="9.5134355"><ele>671.0</ele><time>2026-05-03T09:03:28.959Z</time></trkpt><trkpt lat="39.9524153" lon="9.5135084"><ele>671.0</ele><time>2026-05-03T09:03:29.958Z</time></trkpt><trkpt lat="39.9525348" lon="9.5136188"><ele>671.0</ele><time>2026-05-03T09:03:30.959Z</time></trkpt><trkpt lat="39.9526511" lon="9.5137527"><ele>669.75</ele><time>2026-05-03T09:03:31.958Z</time></trkpt><trkpt lat="39.9527686" lon="9.513882"><ele>668.5</ele><time>2026-05-03T09:03:32.958Z</time></trkpt><trkpt lat="39.9528772" lon="9.513997"><ele>667.25</ele><time>2026-05-03T09:03:33.958Z</time></trkpt><trkpt lat="39.9529766" lon="9.5140928"><ele>666.0</ele><time>2026-05-03T09:03:34.959Z</time></trkpt><trkpt lat="39.9530707" lon="9.5141694"><ele>666.0</ele><time>2026-05-03T09:03:35.959Z</time></trkpt><trkpt lat="39.9531717" lon="9.5142123"><ele>666.0</ele><time>2026-05-03T09:03:36.959Z</time></trkpt><trkpt lat="39.9532822" lon="9.5142163"><ele>666.0</ele><time>2026-05-03T09:03:37.959Z</time></trkpt><trkpt lat="39.9534055" lon="9.5141839"><ele>666.0</ele><time>2026-05-03T09:03:38.958Z</time></trkpt><trkpt lat="39.953536" lon="9.514126"><ele>663.75</ele><time>2026-05-03T09:03:39.958Z</time></trkpt><trkpt lat="39.9536533" lon="9.5140557"><ele>661.5</ele><time>2026-05-03T09:03:40.959Z</time></trkpt><trkpt lat="39.9537589" lon="9.5139725"><ele>659.25</ele><time>2026-05-03T09:03:41.958Z</time></trkpt><trkpt lat="39.9538644" lon="9.5138661"><ele>657.0</ele><time>2026-05-03T09:03:42.959Z</time></trkpt><trkpt lat="39.9539657" lon="9.5137411"><ele>659.0</ele><time>2026-05-03T09:03:43.958Z</time></trkpt><trkpt lat="39.954059" lon="9.5136293"><ele>661.0</ele><time>2026-05-03T09:03:44.958Z</time></trkpt><trkpt lat="39.9541636" lon="9.5135386"><ele>663.0</ele><time>2026-05-03T09:03:45.959Z</time></trkpt><trkpt lat="39.9542826" lon="9.5134485"><ele>665.0</ele><time>2026-05-03T09:03:46.959Z</time></trkpt><trkpt lat="39.9543901" lon="9.5133671"><ele>659.75</ele><time>2026-05-03T09:03:47.958Z</time></trkpt><trkpt lat="39.9544931" lon="9.5132859"><ele>654.5</ele><time>2026-05-03T09:03:48.959Z</time></trkpt><trkpt lat="39.9545964" lon="9.5131917"><ele>649.25</ele><time>2026-05-03T09:03:49.959Z</time></trkpt><trkpt lat="39.9547026" lon="9.513075"><ele>644.0</ele><time>2026-05-03T09:03:50.958Z</time></trkpt><trkpt lat="39.9548143" lon="9.5129195"><ele>641.6666666666666</ele><time>2026-05-03T09:03:51.959Z</time></trkpt><trkpt lat="39.9549197" lon="9.5127421"><ele>639.3333333333334</ele><time>2026-05-03T09:03:52.958Z</time></trkpt><trkpt lat="39.9550125" lon="9.5125727"><ele>637.0</ele><time>2026-05-03T09:03:53.958Z</time></trkpt><trkpt lat="39.9551008" lon="9.5124175"><ele>637.0</ele><time>2026-05-03T09:03:54.959Z</time></trkpt><trkpt lat="39.9551825" lon="9.5122842"><ele>637.0</ele><time>2026-05-03T09:03:55.958Z</time></trkpt><trkpt lat="39.9552611" lon="9.512168"><ele>637.0</ele><time>2026-05-03T09:03:56.958Z</time></trkpt><trkpt lat="39.9553477" lon="9.5120683"><ele>637.0</ele><time>2026-05-03T09:03:57.958Z</time></trkpt><trkpt lat="39.9554365" lon="9.5119994"><ele>637.0</ele><time>2026-05-03T09:03:58.959Z</time></trkpt><trkpt lat="39.9555239" lon="9.5119566"><ele>637.0</ele><time>2026-05-03T09:03:59.958Z</time></trkpt><trkpt lat="39.9555967" lon="9.5119381"><ele>637.0</ele><time>2026-05-03T09:04:00.958Z</time></trkpt><trkpt lat="39.9556893" lon="9.5120063"><ele>637.0</ele><time>2026-05-03T09:04:02.958Z</time></trkpt><trkpt lat="39.9556812" lon="9.5121377"><ele>637.0</ele><time>2026-05-03T09:04:04.958Z</time></trkpt><trkpt lat="39.9556391" lon="9.5122016"><ele>637.0</ele><time>2026-05-03T09:04:05.958Z</time></trkpt><trkpt lat="39.9555834" lon="9.5122642"><ele>637.0</ele><time>2026-05-03T09:04:06.959Z</time></trkpt><trkpt lat="39.9555166" lon="9.5123373"><ele>637.0</ele><time>2026-05-03T09:04:07.959Z</time></trkpt><trkpt lat="39.9554458" lon="9.5124341"><ele>637.0</ele><time>2026-05-03T09:04:08.959Z</time></trkpt><trkpt lat="39.955388" lon="9.5125524"><ele>637.0</ele><time>2026-05-03T09:04:09.958Z</time></trkpt><trkpt lat="39.9553436" lon="9.5126928"><ele>637.0</ele><time>2026-05-03T09:04:10.959Z</time></trkpt><trkpt lat="39.9553072" lon="9.5128485"><ele>633.5</ele><time>2026-05-03T09:04:11.959Z</time></trkpt><trkpt lat="39.9552728" lon="9.5130144"><ele>630.0</ele><time>2026-05-03T09:04:12.959Z</time></trkpt><trkpt lat="39.9552414" lon="9.5131882"><ele>626.5</ele><time>2026-05-03T09:04:13.958Z</time></trkpt><trkpt lat="39.9552177" lon="9.5133567"><ele>623.0</ele><time>2026-05-03T09:04:14.958Z</time></trkpt><trkpt lat="39.9552099" lon="9.5135251"><ele>623.0</ele><time>2026-05-03T09:04:15.959Z</time></trkpt><trkpt lat="39.9552219" lon="9.5136989"><ele>623.0</ele><time>2026-05-03T09:04:16.958Z</time></trkpt><trkpt lat="39.9552515" lon="9.5138747"><ele>623.0</ele><time>2026-05-03T09:04:17.958Z</time></trkpt><trkpt lat="39.9552999" lon="9.5140516"><ele>623.0</ele><time>2026-05-03T09:04:18.958Z</time></trkpt><trkpt lat="39.9553598" lon="9.5142327"><ele>620.6666666666666</ele><time>2026-05-03T09:04:19.959Z</time></trkpt><trkpt lat="39.9554198" lon="9.5144207"><ele>618.3333333333334</ele><time>2026-05-03T09:04:20.958Z</time></trkpt><trkpt lat="39.9554792" lon="9.5146052"><ele>616.0</ele><time>2026-05-03T09:04:21.959Z</time></trkpt><trkpt lat="39.9555389" lon="9.514783"><ele>615.0</ele><time>2026-05-03T09:04:22.959Z</time></trkpt><trkpt lat="39.9555936" lon="9.5149557"><ele>614.0</ele><time>2026-05-03T09:04:23.959Z</time></trkpt><trkpt lat="39.9556281" lon="9.5151296"><ele>613.0</ele><time>2026-05-03T09:04:24.958Z</time></trkpt><trkpt lat="39.9556444" lon="9.5153083"><ele>612.0</ele><time>2026-05-03T09:04:25.959Z</time></trkpt><trkpt lat="39.9556502" lon="9.5154897"><ele>611.0</ele><time>2026-05-03T09:04:26.959Z</time></trkpt><trkpt lat="39.9556472" lon="9.5156658"><ele>610.0</ele><time>2026-05-03T09:04:27.959Z</time></trkpt><trkpt lat="39.9556272" lon="9.5158395"><ele>609.0</ele><time>2026-05-03T09:04:28.958Z</time></trkpt><trkpt lat="39.9555827" lon="9.5160142"><ele>608.0</ele><time>2026-05-03T09:04:29.958Z</time></trkpt><trkpt lat="39.9555202" lon="9.5161873"><ele>605.75</ele><time>2026-05-03T09:04:30.958Z</time></trkpt><trkpt lat="39.9554531" lon="9.5163626"><ele>603.5</ele><time>2026-05-03T09:04:31.958Z</time></trkpt><trkpt lat="39.9553898" lon="9.5165355"><ele>601.25</ele><time>2026-05-03T09:04:32.959Z</time></trkpt><trkpt lat="39.9553298" lon="9.5167019"><ele>599.0</ele><time>2026-05-03T09:04:33.958Z</time></trkpt><trkpt lat="39.9552685" lon="9.5168616"><ele>599.0</ele><time>2026-05-03T09:04:34.959Z</time></trkpt><trkpt lat="39.9552047" lon="9.5170133"><ele>599.0</ele><time>2026-05-03T09:04:35.958Z</time></trkpt><trkpt lat="39.955142" lon="9.5171577"><ele>599.0</ele><time>2026-05-03T09:04:36.958Z</time></trkpt><trkpt lat="39.9550772" lon="9.5172899"><ele>599.0</ele><time>2026-05-03T09:04:37.958Z</time></trkpt><trkpt lat="39.9550155" lon="9.5174072"><ele>600.2</ele><time>2026-05-03T09:04:38.959Z</time></trkpt><trkpt lat="39.9549543" lon="9.5175172"><ele>601.4</ele><time>2026-05-03T09:04:39.959Z</time></trkpt><trkpt lat="39.954893" lon="9.5176268"><ele>602.6</ele><time>2026-05-03T09:04:40.959Z</time></trkpt><trkpt lat="39.9548325" lon="9.5177348"><ele>603.8</ele><time>2026-05-03T09:04:41.96Z</time></trkpt><trkpt lat="39.9547769" lon="9.5178435"><ele>605.0</ele><time>2026-05-03T09:04:42.959Z</time></trkpt><trkpt lat="39.954722" lon="9.5179505"><ele>602.6</ele><time>2026-05-03T09:04:43.958Z</time></trkpt><trkpt lat="39.9546644" lon="9.518057"><ele>600.2</ele><time>2026-05-03T09:04:44.959Z</time></trkpt><trkpt lat="39.9546033" lon="9.5181643"><ele>597.8</ele><time>2026-05-03T09:04:45.958Z</time></trkpt><trkpt lat="39.9545418" lon="9.518275"><ele>595.4</ele><time>2026-05-03T09:04:46.959Z</time></trkpt><trkpt lat="39.9544782" lon="9.5183903"><ele>593.0</ele><time>2026-05-03T09:04:47.959Z</time></trkpt><trkpt lat="39.9544128" lon="9.5185087"><ele>593.0</ele><time>2026-05-03T09:04:48.958Z</time></trkpt><trkpt lat="39.9543445" lon="9.5186303"><ele>593.0</ele><time>2026-05-03T09:04:49.959Z</time></trkpt><trkpt lat="39.9542733" lon="9.5187548"><ele>593.0</ele><time>2026-05-03T09:04:50.959Z</time></trkpt><trkpt lat="39.9541972" lon="9.5188773"><ele>593.0</ele><time>2026-05-03T09:04:51.96Z</time></trkpt><trkpt lat="39.9541012" lon="9.5189922"><ele>591.5</ele><time>2026-05-03T09:04:52.96Z</time></trkpt><trkpt lat="39.9539934" lon="9.519095"><ele>590.0</ele><time>2026-05-03T09:04:53.958Z</time></trkpt><trkpt lat="39.9538708" lon="9.5191819"><ele>588.5</ele><time>2026-05-03T09:04:54.958Z</time></trkpt><trkpt lat="39.9537406" lon="9.5192657"><ele>587.0</ele><time>2026-05-03T09:04:55.959Z</time></trkpt><trkpt lat="39.9536093" lon="9.5193555"><ele>587.0</ele><time>2026-05-03T09:04:56.958Z</time></trkpt><trkpt lat="39.9534769" lon="9.5194386"><ele>587.0</ele><time>2026-05-03T09:04:57.959Z</time></trkpt><trkpt lat="39.9533511" lon="9.5195198"><ele>587.0</ele><time>2026-05-03T09:04:58.958Z</time></trkpt><trkpt lat="39.9532273" lon="9.5196006"><ele>587.0</ele><time>2026-05-03T09:04:59.958Z</time></trkpt><trkpt lat="39.9531071" lon="9.519679"><ele>583.0</ele><time>2026-05-03T09:05:00.958Z</time></trkpt><trkpt lat="39.9529916" lon="9.5197551"><ele>579.0</ele><time>2026-05-03T09:05:01.959Z</time></trkpt><trkpt lat="39.9528792" lon="9.5198278"><ele>575.0</ele><time>2026-05-03T09:05:02.959Z</time></trkpt><trkpt lat="39.9527709" lon="9.5198972"><ele>571.0</ele><time>2026-05-03T09:05:03.959Z</time></trkpt><trkpt lat="39.9526692" lon="9.5199577"><ele>571.0</ele><time>2026-05-03T09:05:04.959Z</time></trkpt><trkpt lat="39.9525675" lon="9.5200053"><ele>571.0</ele><time>2026-05-03T09:05:05.958Z</time></trkpt><trkpt lat="39.9524641" lon="9.5200299"><ele>571.0</ele><time>2026-05-03T09:05:06.958Z</time></trkpt><trkpt lat="39.9523589" lon="9.5200243"><ele>571.0</ele><time>2026-05-03T09:05:07.958Z</time></trkpt><trkpt lat="39.9522489" lon="9.5199898"><ele>571.0</ele><time>2026-05-03T09:05:08.958Z</time></trkpt><trkpt lat="39.9521309" lon="9.5199273"><ele>573.0</ele><time>2026-05-03T09:05:09.958Z</time></trkpt><trkpt lat="39.9520038" lon="9.5198449"><ele>575.0</ele><time>2026-05-03T09:05:10.959Z</time></trkpt><trkpt lat="39.9518689" lon="9.5197498"><ele>577.0</ele><time>2026-05-03T09:05:11.958Z</time></trkpt><trkpt lat="39.9517412" lon="9.5196528"><ele>579.0</ele><time>2026-05-03T09:05:12.959Z</time></trkpt><trkpt lat="39.9516272" lon="9.5195694"><ele>580.5</ele><time>2026-05-03T09:05:13.958Z</time></trkpt><trkpt lat="39.9515242" lon="9.5194813"><ele>582.0</ele><time>2026-05-03T09:05:14.959Z</time></trkpt><trkpt lat="39.9514494" lon="9.5193669"><ele>583.5</ele><time>2026-05-03T09:05:15.958Z</time></trkpt><trkpt lat="39.9513924" lon="9.5192339"><ele>585.0</ele><time>2026-05-03T09:05:16.959Z</time></trkpt><trkpt lat="39.9513473" lon="9.5190987"><ele>585.0</ele><time>2026-05-03T09:05:17.958Z</time></trkpt><trkpt lat="39.951306" lon="9.518975"><ele>585.0</ele><time>2026-05-03T09:05:18.959Z</time></trkpt><trkpt lat="39.9512522" lon="9.5188676"><ele>585.0</ele><time>2026-05-03T09:05:19.958Z</time></trkpt><trkpt lat="39.9511894" lon="9.5187814"><ele>585.0</ele><time>2026-05-03T09:05:20.959Z</time></trkpt><trkpt lat="39.9511258" lon="9.5187161"><ele>585.0</ele><time>2026-05-03T09:05:21.959Z</time></trkpt><trkpt lat="39.95106" lon="9.518675"><ele>585.0</ele><time>2026-05-03T09:05:22.958Z</time></trkpt><trkpt lat="39.9509952" lon="9.5186689"><ele>585.0</ele><time>2026-05-03T09:05:23.959Z</time></trkpt><trkpt lat="39.9508876" lon="9.5187627"><ele>585.0</ele><time>2026-05-03T09:05:25.959Z</time></trkpt><trkpt lat="39.9508395" lon="9.5188415"><ele>585.0</ele><time>2026-05-03T09:05:26.958Z</time></trkpt><trkpt lat="39.9508006" lon="9.5189352"><ele>585.0</ele><time>2026-05-03T09:05:27.958Z</time></trkpt><trkpt lat="39.9507806" lon="9.5190494"><ele>585.0</ele><time>2026-05-03T09:05:28.958Z</time></trkpt><trkpt lat="39.9507769" lon="9.5191799"><ele>583.4</ele><time>2026-05-03T09:05:29.959Z</time></trkpt><trkpt lat="39.9507769" lon="9.5193198"><ele>581.8</ele><time>2026-05-03T09:05:30.959Z</time></trkpt><trkpt lat="39.9507556" lon="9.519456"><ele>580.2</ele><time>2026-05-03T09:05:31.959Z</time></trkpt><trkpt lat="39.9507281" lon="9.5195807"><ele>578.6</ele><time>2026-05-03T09:05:32.958Z</time></trkpt><trkpt lat="39.9507245" lon="9.5197047"><ele>577.0</ele><time>2026-05-03T09:05:33.959Z</time></trkpt><trkpt lat="39.9507536" lon="9.5198368"><ele>577.0</ele><time>2026-05-03T09:05:34.959Z</time></trkpt><trkpt lat="39.9508222" lon="9.5199549"><ele>577.0</ele><time>2026-05-03T09:05:35.958Z</time></trkpt><trkpt lat="39.9509293" lon="9.5200574"><ele>577.0</ele><time>2026-05-03T09:05:36.958Z</time></trkpt><trkpt lat="39.9510408" lon="9.5201268"><ele>577.0</ele><time>2026-05-03T09:05:37.959Z</time></trkpt><trkpt lat="39.9511335" lon="9.5201981"><ele>573.25</ele><time>2026-05-03T09:05:38.958Z</time></trkpt><trkpt lat="39.9512032" lon="9.5203067"><ele>569.5</ele><time>2026-05-03T09:05:39.958Z</time></trkpt><trkpt lat="39.9512386" lon="9.5204371"><ele>565.75</ele><time>2026-05-03T09:05:40.959Z</time></trkpt><trkpt lat="39.9512366" lon="9.520584"><ele>562.0</ele><time>2026-05-03T09:05:41.959Z</time></trkpt><trkpt lat="39.9512062" lon="9.5207545"><ele>557.6666666666667</ele><time>2026-05-03T09:05:42.96Z</time></trkpt><trkpt lat="39.9511785" lon="9.5209521"><ele>553.3333333333334</ele><time>2026-05-03T09:05:43.958Z</time></trkpt><trkpt lat="39.9511713" lon="9.5211611"><ele>549.0</ele><time>2026-05-03T09:05:44.958Z</time></trkpt><trkpt lat="39.9511782" lon="9.5213928"><ele>548.25</ele><time>2026-05-03T09:05:45.958Z</time></trkpt><trkpt lat="39.9511945" lon="9.521597"><ele>547.5</ele><time>2026-05-03T09:05:46.959Z</time></trkpt><trkpt lat="39.9511985" lon="9.521787"><ele>546.75</ele><time>2026-05-03T09:05:47.959Z</time></trkpt><trkpt lat="39.9511681" lon="9.5219696"><ele>546.0</ele><time>2026-05-03T09:05:48.958Z</time></trkpt><trkpt lat="39.9511113" lon="9.5221572"><ele>546.0</ele><time>2026-05-03T09:05:49.959Z</time></trkpt><trkpt lat="39.9510187" lon="9.5223484"><ele>546.0</ele><time>2026-05-03T09:05:50.958Z</time></trkpt><trkpt lat="39.9509061" lon="9.5225491"><ele>546.0</ele><time>2026-05-03T09:05:51.959Z</time></trkpt><trkpt lat="39.9507803" lon="9.5227736"><ele>556.5</ele><time>2026-05-03T09:05:52.958Z</time></trkpt><trkpt lat="39.9506421" lon="9.5230125"><ele>567.0</ele><time>2026-05-03T09:05:53.958Z</time></trkpt><trkpt lat="39.9504902" lon="9.5232583"><ele>567.0</ele><time>2026-05-03T09:05:54.96Z</time></trkpt><trkpt lat="39.9503236" lon="9.5235053"><ele>567.0</ele><time>2026-05-03T09:05:55.959Z</time></trkpt><trkpt lat="39.9501528" lon="9.5237456"><ele>569.5</ele><time>2026-05-03T09:05:56.959Z</time></trkpt><trkpt lat="39.9499931" lon="9.5239713"><ele>572.0</ele><time>2026-05-03T09:05:57.959Z</time></trkpt><trkpt lat="39.9498409" lon="9.5241831"><ele>572.0</ele><time>2026-05-03T09:05:58.959Z</time></trkpt><trkpt lat="39.9496977" lon="9.5243817"><ele>572.0</ele><time>2026-05-03T09:05:59.959Z</time></trkpt><trkpt lat="39.9495677" lon="9.5245682"><ele>572.0</ele><time>2026-05-03T09:06:00.959Z</time></trkpt><trkpt lat="39.9494466" lon="9.5247464"><ele>575.3333333333333</ele><time>2026-05-03T09:06:01.959Z</time></trkpt><trkpt lat="39.9493336" lon="9.5249256"><ele>578.6666666666666</ele><time>2026-05-03T09:06:02.959Z</time></trkpt><trkpt lat="39.9492339" lon="9.5251104"><ele>582.0</ele><time>2026-05-03T09:06:03.959Z</time></trkpt><trkpt lat="39.9491493" lon="9.5253041"><ele>580.5</ele><time>2026-05-03T09:06:04.96Z</time></trkpt><trkpt lat="39.949078" lon="9.5254916"><ele>579.0</ele><time>2026-05-03T09:06:05.958Z</time></trkpt><trkpt lat="39.9490232" lon="9.5256582"><ele>577.5</ele><time>2026-05-03T09:06:06.959Z</time></trkpt><trkpt lat="39.948963" lon="9.525807"><ele>576.0</ele><time>2026-05-03T09:06:07.958Z</time></trkpt><trkpt lat="39.9488924" lon="9.5259311"><ele>576.0</ele><time>2026-05-03T09:06:08.959Z</time></trkpt><trkpt lat="39.9488007" lon="9.526024"><ele>576.0</ele><time>2026-05-03T09:06:09.959Z</time></trkpt><trkpt lat="39.9486926" lon="9.5260875"><ele>576.0</ele><time>2026-05-03T09:06:10.959Z</time></trkpt><trkpt lat="39.9485647" lon="9.5260995"><ele>576.0</ele><time>2026-05-03T09:06:11.959Z</time></trkpt><trkpt lat="39.9484405" lon="9.5260734"><ele>576.2</ele><time>2026-05-03T09:06:12.958Z</time></trkpt><trkpt lat="39.9483244" lon="9.5260173"><ele>576.4000000000001</ele><time>2026-05-03T09:06:13.958Z</time></trkpt><trkpt lat="39.9482214" lon="9.525954"><ele>576.6</ele><time>2026-05-03T09:06:14.958Z</time></trkpt><trkpt lat="39.9481273" lon="9.5259108"><ele>576.8000000000001</ele><time>2026-05-03T09:06:15.959Z</time></trkpt><trkpt lat="39.9480313" lon="9.5258987"><ele>577.0</ele><time>2026-05-03T09:06:16.958Z</time></trkpt><trkpt lat="39.9479367" lon="9.5259297"><ele>577.0</ele><time>2026-05-03T09:06:17.958Z</time></trkpt><trkpt lat="39.9478585" lon="9.526001"><ele>577.0</ele><time>2026-05-03T09:06:18.958Z</time></trkpt><trkpt lat="39.947801" lon="9.5260983"><ele>577.0</ele><time>2026-05-03T09:06:19.959Z</time></trkpt><trkpt lat="39.9477661" lon="9.5262193"><ele>577.0</ele><time>2026-05-03T09:06:20.958Z</time></trkpt><trkpt lat="39.9477641" lon="9.5263541"><ele>577.0</ele><time>2026-05-03T09:06:21.958Z</time></trkpt><trkpt lat="39.9477968" lon="9.5265032"><ele>572.0</ele><time>2026-05-03T09:06:22.959Z</time></trkpt><trkpt lat="39.9478618" lon="9.5266699"><ele>567.0</ele><time>2026-05-03T09:06:23.958Z</time></trkpt><trkpt lat="39.9479408" lon="9.5268565"><ele>562.0</ele><time>2026-05-03T09:06:24.959Z</time></trkpt><trkpt lat="39.9480256" lon="9.5270678"><ele>561.6666666666667</ele><time>2026-05-03T09:06:25.959Z</time></trkpt><trkpt lat="39.9481137" lon="9.5273056"><ele>561.3333333333334</ele><time>2026-05-03T09:06:26.959Z</time></trkpt><trkpt lat="39.948195" lon="9.5275327"><ele>561.0</ele><time>2026-05-03T09:06:27.959Z</time></trkpt><trkpt lat="39.9482681" lon="9.5277349"><ele>562.25</ele><time>2026-05-03T09:06:28.958Z</time></trkpt><trkpt lat="39.9483336" lon="9.5279195"><ele>563.5</ele><time>2026-05-03T09:06:29.959Z</time></trkpt><trkpt lat="39.9483753" lon="9.528089"><ele>564.75</ele><time>2026-05-03T09:06:30.959Z</time></trkpt><trkpt lat="39.9483821" lon="9.5282549"><ele>566.0</ele><time>2026-05-03T09:06:31.958Z</time></trkpt><trkpt lat="39.9483597" lon="9.5284243"><ele>566.0</ele><time>2026-05-03T09:06:32.958Z</time></trkpt><trkpt lat="39.9483031" lon="9.5285886"><ele>566.0</ele><time>2026-05-03T09:06:33.958Z</time></trkpt><trkpt lat="39.9482099" lon="9.5287364"><ele>566.0</ele><time>2026-05-03T09:06:34.959Z</time></trkpt><trkpt lat="39.9480863" lon="9.5288738"><ele>566.0</ele><time>2026-05-03T09:06:35.958Z</time></trkpt><trkpt lat="39.947948" lon="9.5290138"><ele>565.3333333333333</ele><time>2026-05-03T09:06:36.958Z</time></trkpt><trkpt lat="39.9478189" lon="9.5291621"><ele>564.6666666666666</ele><time>2026-05-03T09:06:37.958Z</time></trkpt><trkpt lat="39.9477197" lon="9.5293072"><ele>564.0</ele><time>2026-05-03T09:06:38.958Z</time></trkpt><trkpt lat="39.9476468" lon="9.5294564"><ele>565.75</ele><time>2026-05-03T09:06:39.958Z</time></trkpt><trkpt lat="39.9476078" lon="9.5296073"><ele>567.5</ele><time>2026-05-03T09:06:40.958Z</time></trkpt><trkpt lat="39.9476136" lon="9.5297681"><ele>569.25</ele><time>2026-05-03T09:06:41.958Z</time></trkpt><trkpt lat="39.947656" lon="9.5299265"><ele>571.0</ele><time>2026-05-03T09:06:42.958Z</time></trkpt><trkpt lat="39.9477165" lon="9.5300714"><ele>571.0</ele><time>2026-05-03T09:06:43.959Z</time></trkpt><trkpt lat="39.9477818" lon="9.5302115"><ele>571.0</ele><time>2026-05-03T09:06:44.959Z</time></trkpt><trkpt lat="39.9478491" lon="9.5303485"><ele>571.0</ele><time>2026-05-03T09:06:45.958Z</time></trkpt><trkpt lat="39.9479119" lon="9.5304872"><ele>571.0</ele><time>2026-05-03T09:06:46.959Z</time></trkpt><trkpt lat="39.9479614" lon="9.5306355"><ele>571.75</ele><time>2026-05-03T09:06:47.959Z</time></trkpt><trkpt lat="39.9479912" lon="9.5308007"><ele>572.5</ele><time>2026-05-03T09:06:48.958Z</time></trkpt><trkpt lat="39.9480114" lon="9.5309722"><ele>573.25</ele><time>2026-05-03T09:06:49.959Z</time></trkpt><trkpt lat="39.9480218" lon="9.5311296"><ele>574.0</ele><time>2026-05-03T09:06:50.959Z</time></trkpt><trkpt lat="39.9480308" lon="9.5312845"><ele>574.0</ele><time>2026-05-03T09:06:51.958Z</time></trkpt><trkpt lat="39.9480428" lon="9.5314431"><ele>574.0</ele><time>2026-05-03T09:06:52.959Z</time></trkpt><trkpt lat="39.9480565" lon="9.5316029"><ele>574.0</ele><time>2026-05-03T09:06:53.958Z</time></trkpt><trkpt lat="39.9480668" lon="9.5317568"><ele>574.0</ele><time>2026-05-03T09:06:54.958Z</time></trkpt><trkpt lat="39.9480748" lon="9.5319018"><ele>574.0</ele><time>2026-05-03T09:06:55.959Z</time></trkpt><trkpt lat="39.9480814" lon="9.5320391"><ele>574.0</ele><time>2026-05-03T09:06:56.959Z</time></trkpt><trkpt lat="39.9480754" lon="9.5321754"><ele>574.0</ele><time>2026-05-03T09:06:57.96Z</time></trkpt><trkpt lat="39.948046" lon="9.5323057"><ele>574.0</ele><time>2026-05-03T09:06:58.958Z</time></trkpt><trkpt lat="39.9479968" lon="9.5324271"><ele>574.0</ele><time>2026-05-03T09:06:59.959Z</time></trkpt><trkpt lat="39.947932" lon="9.5325364"><ele>573.0</ele><time>2026-05-03T09:07:00.959Z</time></trkpt><trkpt lat="39.9478515" lon="9.5326293"><ele>572.0</ele><time>2026-05-03T09:07:01.958Z</time></trkpt><trkpt lat="39.947754" lon="9.5327082"><ele>571.0</ele><time>2026-05-03T09:07:02.959Z</time></trkpt><trkpt lat="39.9476424" lon="9.5327815"><ele>570.0</ele><time>2026-05-03T09:07:03.959Z</time></trkpt><trkpt lat="39.9475172" lon="9.5328555"><ele>566.5</ele><time>2026-05-03T09:07:04.959Z</time></trkpt><trkpt lat="39.9473946" lon="9.5329254"><ele>563.0</ele><time>2026-05-03T09:07:05.96Z</time></trkpt><trkpt lat="39.9472754" lon="9.5329899"><ele>559.5</ele><time>2026-05-03T09:07:06.958Z</time></trkpt><trkpt lat="39.9471592" lon="9.5330535"><ele>556.0</ele><time>2026-05-03T09:07:07.96Z</time></trkpt><trkpt lat="39.947046" lon="9.5331163"><ele>556.0</ele><time>2026-05-03T09:07:08.958Z</time></trkpt><trkpt lat="39.9469344" lon="9.5331817"><ele>556.0</ele><time>2026-05-03T09:07:09.958Z</time></trkpt><trkpt lat="39.9468269" lon="9.5332603"><ele>556.0</ele><time>2026-05-03T09:07:10.958Z</time></trkpt><trkpt lat="39.9467261" lon="9.5333579"><ele>556.0</ele><time>2026-05-03T09:07:11.959Z</time></trkpt><trkpt lat="39.9466281" lon="9.5334808"><ele>557.75</ele><time>2026-05-03T09:07:12.959Z</time></trkpt><trkpt lat="39.9465388" lon="9.5336312"><ele>559.5</ele><time>2026-05-03T09:07:13.959Z</time></trkpt><trkpt lat="39.9464627" lon="9.5337814"><ele>561.25</ele><time>2026-05-03T09:07:14.959Z</time></trkpt><trkpt lat="39.9463877" lon="9.5339219"><ele>563.0</ele><time>2026-05-03T09:07:15.958Z</time></trkpt><trkpt lat="39.9463089" lon="9.5340488"><ele>559.25</ele><time>2026-05-03T09:07:16.959Z</time></trkpt><trkpt lat="39.9462285" lon="9.5341644"><ele>555.5</ele><time>2026-05-03T09:07:17.959Z</time></trkpt><trkpt lat="39.9461431" lon="9.5342591"><ele>551.75</ele><time>2026-05-03T09:07:18.958Z</time></trkpt><trkpt lat="39.9460455" lon="9.5343336"><ele>548.0</ele><time>2026-05-03T09:07:19.958Z</time></trkpt><trkpt lat="39.9459322" lon="9.5343887"><ele>549.0</ele><time>2026-05-03T09:07:20.959Z</time></trkpt><trkpt lat="39.9458027" lon="9.5344286"><ele>550.0</ele><time>2026-05-03T09:07:21.958Z</time></trkpt><trkpt lat="39.9456702" lon="9.5344616"><ele>551.0</ele><time>2026-05-03T09:07:22.959Z</time></trkpt><trkpt lat="39.9455455" lon="9.5344911"><ele>552.0</ele><time>2026-05-03T09:07:23.958Z</time></trkpt><trkpt lat="39.9454326" lon="9.5345151"><ele>552.0</ele><time>2026-05-03T09:07:24.959Z</time></trkpt><trkpt lat="39.9453325" lon="9.5345433"><ele>552.0</ele><time>2026-05-03T09:07:25.958Z</time></trkpt><trkpt lat="39.9452428" lon="9.5345834"><ele>552.0</ele><time>2026-05-03T09:07:26.959Z</time></trkpt><trkpt lat="39.9451691" lon="9.5346454"><ele>552.0</ele><time>2026-05-03T09:07:27.959Z</time></trkpt><trkpt lat="39.9451159" lon="9.534729"><ele>552.0</ele><time>2026-05-03T09:07:28.959Z</time></trkpt><trkpt lat="39.9450826" lon="9.5348251"><ele>552.0</ele><time>2026-05-03T09:07:29.958Z</time></trkpt><trkpt lat="39.9450695" lon="9.5349301"><ele>547.8000000000001</ele><time>2026-05-03T09:07:30.958Z</time></trkpt><trkpt lat="39.9450803" lon="9.5350405"><ele>543.6</ele><time>2026-05-03T09:07:31.96Z</time></trkpt><trkpt lat="39.9451177" lon="9.5351477"><ele>539.4000000000001</ele><time>2026-05-03T09:07:32.958Z</time></trkpt><trkpt lat="39.9451807" lon="9.535245"><ele>535.2</ele><time>2026-05-03T09:07:33.958Z</time></trkpt><trkpt lat="39.9452615" lon="9.5353338"><ele>531.0</ele><time>2026-05-03T09:07:34.959Z</time></trkpt><trkpt lat="39.9453558" lon="9.5354233"><ele>531.0</ele><time>2026-05-03T09:07:35.958Z</time></trkpt><trkpt lat="39.9454583" lon="9.5355175"><ele>531.0</ele><time>2026-05-03T09:07:36.959Z</time></trkpt><trkpt lat="39.9455734" lon="9.5356084"><ele>531.0</ele><time>2026-05-03T09:07:37.959Z</time></trkpt><trkpt lat="39.9456996" lon="9.5356911"><ele>531.0</ele><time>2026-05-03T09:07:38.959Z</time></trkpt><trkpt lat="39.9458286" lon="9.5357586"><ele>525.25</ele><time>2026-05-03T09:07:39.958Z</time></trkpt><trkpt lat="39.9459547" lon="9.5358108"><ele>519.5</ele><time>2026-05-03T09:07:40.959Z</time></trkpt><trkpt lat="39.946078" lon="9.5358564"><ele>513.75</ele><time>2026-05-03T09:07:41.958Z</time></trkpt><trkpt lat="39.9461932" lon="9.5359043"><ele>508.0</ele><time>2026-05-03T09:07:42.958Z</time></trkpt><trkpt lat="39.9463001" lon="9.5359684"><ele>508.0</ele><time>2026-05-03T09:07:43.959Z</time></trkpt><trkpt lat="39.9464006" lon="9.536057"><ele>508.0</ele><time>2026-05-03T09:07:44.958Z</time></trkpt><trkpt lat="39.9464948" lon="9.5361648"><ele>508.0</ele><time>2026-05-03T09:07:45.959Z</time></trkpt><trkpt lat="39.9465822" lon="9.5362969"><ele>508.0</ele><time>2026-05-03T09:07:46.958Z</time></trkpt><trkpt lat="39.9466535" lon="9.5364306"><ele>503.25</ele><time>2026-05-03T09:07:47.958Z</time></trkpt><trkpt lat="39.9467127" lon="9.5365686"><ele>498.5</ele><time>2026-05-03T09:07:48.958Z</time></trkpt><trkpt lat="39.9467585" lon="9.5367122"><ele>493.75</ele><time>2026-05-03T09:07:49.958Z</time></trkpt><trkpt lat="39.946782" lon="9.5368614"><ele>489.0</ele><time>2026-05-03T09:07:50.958Z</time></trkpt><trkpt lat="39.9467866" lon="9.5370119"><ele>488.75</ele><time>2026-05-03T09:07:51.958Z</time></trkpt><trkpt lat="39.9467646" lon="9.5371573"><ele>488.5</ele><time>2026-05-03T09:07:52.958Z</time></trkpt><trkpt lat="39.9467242" lon="9.5373044"><ele>488.25</ele><time>2026-05-03T09:07:53.959Z</time></trkpt><trkpt lat="39.9466686" lon="9.5374464"><ele>488.0</ele><time>2026-05-03T09:07:54.959Z</time></trkpt><trkpt lat="39.9466065" lon="9.5375829"><ele>492.25</ele><time>2026-05-03T09:07:55.959Z</time></trkpt><trkpt lat="39.94656" lon="9.5377259"><ele>496.5</ele><time>2026-05-03T09:07:56.959Z</time></trkpt><trkpt lat="39.9465369" lon="9.5378726"><ele>500.75</ele><time>2026-05-03T09:07:57.959Z</time></trkpt><trkpt lat="39.946532" lon="9.5380194"><ele>505.0</ele><time>2026-05-03T09:07:58.959Z</time></trkpt><trkpt lat="39.9465439" lon="9.5381633"><ele>505.0</ele><time>2026-05-03T09:07:59.958Z</time></trkpt><trkpt lat="39.9465664" lon="9.5383012"><ele>505.0</ele><time>2026-05-03T09:08:00.958Z</time></trkpt><trkpt lat="39.9465965" lon="9.5384426"><ele>505.0</ele><time>2026-05-03T09:08:01.959Z</time></trkpt><trkpt lat="39.9466391" lon="9.5385809"><ele>505.0</ele><time>2026-05-03T09:08:02.958Z</time></trkpt><trkpt lat="39.9466997" lon="9.5387047"><ele>505.0</ele><time>2026-05-03T09:08:03.959Z</time></trkpt><trkpt lat="39.9467718" lon="9.53881"><ele>499.8</ele><time>2026-05-03T09:08:04.96Z</time></trkpt><trkpt lat="39.9468519" lon="9.5388973"><ele>494.6</ele><time>2026-05-03T09:08:05.959Z</time></trkpt><trkpt lat="39.9469325" lon="9.5389764"><ele>489.4</ele><time>2026-05-03T09:08:06.958Z</time></trkpt><trkpt lat="39.9470102" lon="9.5390583"><ele>484.2</ele><time>2026-05-03T09:08:07.958Z</time></trkpt><trkpt lat="39.9470859" lon="9.5391522"><ele>479.0</ele><time>2026-05-03T09:08:08.958Z</time></trkpt><trkpt lat="39.9471517" lon="9.539263"><ele>479.0</ele><time>2026-05-03T09:08:09.958Z</time></trkpt><trkpt lat="39.9472007" lon="9.5393959"><ele>479.0</ele><time>2026-05-03T09:08:10.959Z</time></trkpt><trkpt lat="39.9472378" lon="9.5395404"><ele>479.0</ele><time>2026-05-03T09:08:11.958Z</time></trkpt><trkpt lat="39.9472739" lon="9.5396889"><ele>479.0</ele><time>2026-05-03T09:08:12.958Z</time></trkpt><trkpt lat="39.9473117" lon="9.5398378"><ele>479.6</ele><time>2026-05-03T09:08:13.959Z</time></trkpt><trkpt lat="39.9473476" lon="9.5399803"><ele>480.2</ele><time>2026-05-03T09:08:14.959Z</time></trkpt><trkpt lat="39.947372" lon="9.5401169"><ele>480.80000000000007</ele><time>2026-05-03T09:08:15.959Z</time></trkpt><trkpt lat="39.9473796" lon="9.540244"><ele>481.40000000000003</ele><time>2026-05-03T09:08:16.959Z</time></trkpt><trkpt lat="39.9473704" lon="9.5403699"><ele>482.0</ele><time>2026-05-03T09:08:17.959Z</time></trkpt><trkpt lat="39.9473405" lon="9.5404985"><ele>480.0</ele><time>2026-05-03T09:08:18.96Z</time></trkpt><trkpt lat="39.9472977" lon="9.5406304"><ele>478.0</ele><time>2026-05-03T09:08:19.959Z</time></trkpt><trkpt lat="39.9472492" lon="9.5407686"><ele>476.0</ele><time>2026-05-03T09:08:20.958Z</time></trkpt><trkpt lat="39.9471953" lon="9.5409131"><ele>474.0</ele><time>2026-05-03T09:08:21.958Z</time></trkpt><trkpt lat="39.9471371" lon="9.5410516"><ele>474.0</ele><time>2026-05-03T09:08:22.958Z</time></trkpt><trkpt lat="39.9470716" lon="9.5411713"><ele>474.0</ele><time>2026-05-03T09:08:23.959Z</time></trkpt><trkpt lat="39.9469959" lon="9.5412735"><ele>474.0</ele><time>2026-05-03T09:08:24.959Z</time></trkpt><trkpt lat="39.9469127" lon="9.5413601"><ele>474.0</ele><time>2026-05-03T09:08:25.958Z</time></trkpt><trkpt lat="39.9468194" lon="9.5414348"><ele>474.0</ele><time>2026-05-03T09:08:26.958Z</time></trkpt><trkpt lat="39.94672" lon="9.5415055"><ele>475.5</ele><time>2026-05-03T09:08:27.959Z</time></trkpt><trkpt lat="39.9466165" lon="9.5415789"><ele>477.0</ele><time>2026-05-03T09:08:28.958Z</time></trkpt><trkpt lat="39.946505" lon="9.541658"><ele>478.5</ele><time>2026-05-03T09:08:29.958Z</time></trkpt><trkpt lat="39.946386" lon="9.5417427"><ele>480.0</ele><time>2026-05-03T09:08:30.959Z</time></trkpt><trkpt lat="39.9462614" lon="9.5418324"><ele>480.0</ele><time>2026-05-03T09:08:31.958Z</time></trkpt><trkpt lat="39.9461394" lon="9.5419134"><ele>480.0</ele><time>2026-05-03T09:08:32.958Z</time></trkpt><trkpt lat="39.9460262" lon="9.541987"><ele>480.0</ele><time>2026-05-03T09:08:33.958Z</time></trkpt><trkpt lat="39.9459185" lon="9.5420587"><ele>480.0</ele><time>2026-05-03T09:08:34.958Z</time></trkpt><trkpt lat="39.9458196" lon="9.5421392"><ele>477.75</ele><time>2026-05-03T09:08:35.959Z</time></trkpt><trkpt lat="39.9457358" lon="9.5422424"><ele>475.5</ele><time>2026-05-03T09:08:36.958Z</time></trkpt><trkpt lat="39.945674" lon="9.5423681"><ele>473.25</ele><time>2026-05-03T09:08:37.958Z</time></trkpt><trkpt lat="39.945631" lon="9.5425217"><ele>471.0</ele><time>2026-05-03T09:08:38.959Z</time></trkpt><trkpt lat="39.945606" lon="9.542694"><ele>467.5</ele><time>2026-05-03T09:08:39.959Z</time></trkpt><trkpt lat="39.9456046" lon="9.5428878"><ele>464.0</ele><time>2026-05-03T09:08:40.958Z</time></trkpt><trkpt lat="39.9456104" lon="9.5430816"><ele>460.5</ele><time>2026-05-03T09:08:41.959Z</time></trkpt><trkpt lat="39.9456231" lon="9.5432682"><ele>457.0</ele><time>2026-05-03T09:08:42.959Z</time></trkpt><trkpt lat="39.9456379" lon="9.5434504"><ele>457.0</ele><time>2026-05-03T09:08:43.959Z</time></trkpt><trkpt lat="39.9456466" lon="9.5436266"><ele>457.0</ele><time>2026-05-03T09:08:44.959Z</time></trkpt><trkpt lat="39.9456443" lon="9.5437966"><ele>457.0</ele><time>2026-05-03T09:08:45.958Z</time></trkpt><trkpt lat="39.9456273" lon="9.543962"><ele>457.0</ele><time>2026-05-03T09:08:46.959Z</time></trkpt><trkpt lat="39.9455926" lon="9.5441315"><ele>454.75</ele><time>2026-05-03T09:08:47.958Z</time></trkpt><trkpt lat="39.9455358" lon="9.5442941"><ele>452.5</ele><time>2026-05-03T09:08:48.958Z</time></trkpt><trkpt lat="39.9454623" lon="9.5444474"><ele>450.25</ele><time>2026-05-03T09:08:49.959Z</time></trkpt><trkpt lat="39.9453806" lon="9.544584"><ele>448.0</ele><time>2026-05-03T09:08:50.959Z</time></trkpt><trkpt lat="39.9452987" lon="9.544712"><ele>443.25</ele><time>2026-05-03T09:08:51.958Z</time></trkpt><trkpt lat="39.9452209" lon="9.5448341"><ele>438.5</ele><time>2026-05-03T09:08:52.959Z</time></trkpt><trkpt lat="39.9451541" lon="9.5449631"><ele>433.75</ele><time>2026-05-03T09:08:53.958Z</time></trkpt><trkpt lat="39.9451055" lon="9.5451013"><ele>429.0</ele><time>2026-05-03T09:08:54.958Z</time></trkpt><trkpt lat="39.9450832" lon="9.5452422"><ele>427.75</ele><time>2026-05-03T09:08:55.958Z</time></trkpt><trkpt lat="39.9450905" lon="9.5453929"><ele>426.5</ele><time>2026-05-03T09:08:56.959Z</time></trkpt><trkpt lat="39.9451219" lon="9.5455543"><ele>425.25</ele><time>2026-05-03T09:08:57.959Z</time></trkpt><trkpt lat="39.9451653" lon="9.545723"><ele>424.0</ele><time>2026-05-03T09:08:58.959Z</time></trkpt><trkpt lat="39.9452081" lon="9.5458856"><ele>424.0</ele><time>2026-05-03T09:08:59.958Z</time></trkpt><trkpt lat="39.9452455" lon="9.5460394"><ele>424.0</ele><time>2026-05-03T09:09:00.958Z</time></trkpt><trkpt lat="39.9452758" lon="9.5461888"><ele>424.0</ele><time>2026-05-03T09:09:01.958Z</time></trkpt><trkpt lat="39.9452978" lon="9.5463411"><ele>424.0</ele><time>2026-05-03T09:09:02.958Z</time></trkpt><trkpt lat="39.9452942" lon="9.5464964"><ele>423.0</ele><time>2026-05-03T09:09:03.96Z</time></trkpt><trkpt lat="39.945268" lon="9.5466494"><ele>422.0</ele><time>2026-05-03T09:09:04.958Z</time></trkpt><trkpt lat="39.9452314" lon="9.5467972"><ele>421.0</ele><time>2026-05-03T09:09:05.958Z</time></trkpt><trkpt lat="39.9452047" lon="9.5469366"><ele>420.0</ele><time>2026-05-03T09:09:06.959Z</time></trkpt><trkpt lat="39.9452007" lon="9.5470693"><ele>420.0</ele><time>2026-05-03T09:09:07.959Z</time></trkpt><trkpt lat="39.9452151" lon="9.5471993"><ele>420.0</ele><time>2026-05-03T09:09:08.959Z</time></trkpt><trkpt lat="39.9452658" lon="9.5473144"><ele>420.0</ele><time>2026-05-03T09:09:09.958Z</time></trkpt><trkpt lat="39.9453305" lon="9.5474198"><ele>420.0</ele><time>2026-05-03T09:09:10.958Z</time></trkpt><trkpt lat="39.9454084" lon="9.5475076"><ele>420.0</ele><time>2026-05-03T09:09:11.958Z</time></trkpt><trkpt lat="39.9455029" lon="9.547564"><ele>420.0</ele><time>2026-05-03T09:09:12.959Z</time></trkpt><trkpt lat="39.9456036" lon="9.5475988"><ele>420.0</ele><time>2026-05-03T09:09:13.958Z</time></trkpt><trkpt lat="39.9457039" lon="9.5476292"><ele>420.0</ele><time>2026-05-03T09:09:14.958Z</time></trkpt><trkpt lat="39.945806" lon="9.547651"><ele>420.0</ele><time>2026-05-03T09:09:15.959Z</time></trkpt><trkpt lat="39.9459079" lon="9.5476833"><ele>420.0</ele><time>2026-05-03T09:09:16.958Z</time></trkpt><trkpt lat="39.9460056" lon="9.5477253"><ele>416.8</ele><time>2026-05-03T09:09:17.958Z</time></trkpt><trkpt lat="39.9460883" lon="9.5477907"><ele>413.6</ele><time>2026-05-03T09:09:18.958Z</time></trkpt><trkpt lat="39.9461491" lon="9.5478882"><ele>410.4</ele><time>2026-05-03T09:09:19.959Z</time></trkpt><trkpt lat="39.9461891" lon="9.5480161"><ele>407.2</ele><time>2026-05-03T09:09:20.958Z</time></trkpt><trkpt lat="39.9462162" lon="9.548161"><ele>404.0</ele><time>2026-05-03T09:09:21.959Z</time></trkpt><trkpt lat="39.9462311" lon="9.5483181"><ele>404.0</ele><time>2026-05-03T09:09:22.959Z</time></trkpt><trkpt lat="39.9462452" lon="9.5484769"><ele>404.0</ele><time>2026-05-03T09:09:23.959Z</time></trkpt><trkpt lat="39.9462745" lon="9.5486255"><ele>404.0</ele><time>2026-05-03T09:09:24.959Z</time></trkpt><trkpt lat="39.9463239" lon="9.5487559"><ele>404.0</ele><time>2026-05-03T09:09:25.958Z</time></trkpt><trkpt lat="39.9463936" lon="9.5488676"><ele>404.6</ele><time>2026-05-03T09:09:26.959Z</time></trkpt><trkpt lat="39.9464683" lon="9.5489697"><ele>405.2</ele><time>2026-05-03T09:09:27.958Z</time></trkpt><trkpt lat="39.9465456" lon="9.5490679"><ele>405.8</ele><time>2026-05-03T09:09:28.958Z</time></trkpt><trkpt lat="39.9466158" lon="9.5491687"><ele>406.40000000000003</ele><time>2026-05-03T09:09:29.959Z</time></trkpt><trkpt lat="39.9466704" lon="9.549281"><ele>407.0</ele><time>2026-05-03T09:09:30.958Z</time></trkpt><trkpt lat="39.946703" lon="9.5494087"><ele>405.0</ele><time>2026-05-03T09:09:31.958Z</time></trkpt><trkpt lat="39.946707" lon="9.5495429"><ele>403.0</ele><time>2026-05-03T09:09:32.959Z</time></trkpt><trkpt lat="39.9466842" lon="9.5496736"><ele>401.0</ele><time>2026-05-03T09:09:33.959Z</time></trkpt><trkpt lat="39.9466336" lon="9.5497919"><ele>399.0</ele><time>2026-05-03T09:09:34.959Z</time></trkpt><trkpt lat="39.9465605" lon="9.5498956"><ele>397.0</ele><time>2026-05-03T09:09:35.959Z</time></trkpt><trkpt lat="39.9464714" lon="9.5499867"><ele>397.0</ele><time>2026-05-03T09:09:36.958Z</time></trkpt><trkpt lat="39.9463729" lon="9.5500728"><ele>397.0</ele><time>2026-05-03T09:09:37.959Z</time></trkpt><trkpt lat="39.9462695" lon="9.5501595"><ele>397.0</ele><time>2026-05-03T09:09:38.959Z</time></trkpt><trkpt lat="39.9461707" lon="9.5502429"><ele>397.0</ele><time>2026-05-03T09:09:39.959Z</time></trkpt><trkpt lat="39.9460712" lon="9.5503258"><ele>396.20000000000005</ele><time>2026-05-03T09:09:40.959Z</time></trkpt><trkpt lat="39.9459766" lon="9.5504018"><ele>395.4</ele><time>2026-05-03T09:09:41.958Z</time></trkpt><trkpt lat="39.9458883" lon="9.5504731"><ele>394.6</ele><time>2026-05-03T09:09:42.958Z</time></trkpt><trkpt lat="39.9458129" lon="9.5505603"><ele>393.79999999999995</ele><time>2026-05-03T09:09:43.958Z</time></trkpt><trkpt lat="39.9457542" lon="9.5506665"><ele>393.0</ele><time>2026-05-03T09:09:44.958Z</time></trkpt><trkpt lat="39.945711" lon="9.5507817"><ele>393.0</ele><time>2026-05-03T09:09:45.959Z</time></trkpt><trkpt lat="39.9456937" lon="9.5509117"><ele>393.0</ele><time>2026-05-03T09:09:46.959Z</time></trkpt><trkpt lat="39.945688" lon="9.5510545"><ele>393.0</ele><time>2026-05-03T09:09:47.959Z</time></trkpt><trkpt lat="39.9456864" lon="9.5512066"><ele>393.0</ele><time>2026-05-03T09:09:48.958Z</time></trkpt><trkpt lat="39.9456832" lon="9.5513561"><ele>393.0</ele><time>2026-05-03T09:09:49.957Z</time></trkpt><trkpt lat="39.9456738" lon="9.5515019"><ele>389.25</ele><time>2026-05-03T09:09:50.958Z</time></trkpt><trkpt lat="39.9456542" lon="9.551643"><ele>385.5</ele><time>2026-05-03T09:09:51.959Z</time></trkpt><trkpt lat="39.9456231" lon="9.551789"><ele>381.75</ele><time>2026-05-03T09:09:52.958Z</time></trkpt><trkpt lat="39.9455801" lon="9.5519281"><ele>378.0</ele><time>2026-05-03T09:09:53.957Z</time></trkpt><trkpt lat="39.9455234" lon="9.5520568"><ele>375.4</ele><time>2026-05-03T09:09:54.957Z</time></trkpt><trkpt lat="39.9454526" lon="9.5521673"><ele>372.79999999999995</ele><time>2026-05-03T09:09:55.957Z</time></trkpt><trkpt lat="39.9453678" lon="9.552261"><ele>370.2</ele><time>2026-05-03T09:09:56.958Z</time></trkpt><trkpt lat="39.9452757" lon="9.5523318"><ele>367.6</ele><time>2026-05-03T09:09:57.958Z</time></trkpt><trkpt lat="39.9451755" lon="9.5523791"><ele>365.0</ele><time>2026-05-03T09:09:58.957Z</time></trkpt><trkpt lat="39.9450719" lon="9.5524"><ele>367.33333333333337</ele><time>2026-05-03T09:09:59.957Z</time></trkpt><trkpt lat="39.9449702" lon="9.5524002"><ele>369.6666666666667</ele><time>2026-05-03T09:10:00.958Z</time></trkpt><trkpt lat="39.9448767" lon="9.5523757"><ele>372.0</ele><time>2026-05-03T09:10:01.957Z</time></trkpt><trkpt lat="39.9447912" lon="9.552333"><ele>374.3333333333333</ele><time>2026-05-03T09:10:02.957Z</time></trkpt><trkpt lat="39.9447155" lon="9.5522945"><ele>376.66666666666663</ele><time>2026-05-03T09:10:03.958Z</time></trkpt><trkpt lat="39.9446441" lon="9.5522709"><ele>379.0</ele><time>2026-05-03T09:10:04.958Z</time></trkpt><trkpt lat="39.9445741" lon="9.5522688"><ele>379.00000000000006</ele><time>2026-05-03T09:10:05.957Z</time></trkpt><trkpt lat="39.9445059" lon="9.5522956"><ele>379.0</ele><time>2026-05-03T09:10:06.957Z</time></trkpt><trkpt lat="39.9444486" lon="9.5523489"><ele>379.0</ele><time>2026-05-03T09:10:07.958Z</time></trkpt><trkpt lat="39.9444168" lon="9.5524251"><ele>379.0</ele><time>2026-05-03T09:10:08.957Z</time></trkpt><trkpt lat="39.9444068" lon="9.5525164"><ele>379.0</ele><time>2026-05-03T09:10:09.957Z</time></trkpt><trkpt lat="39.9444225" lon="9.5526095"><ele>379.00000000000006</ele><time>2026-05-03T09:10:10.957Z</time></trkpt><trkpt lat="39.9444631" lon="9.5526878"><ele>379.0</ele><time>2026-05-03T09:10:11.958Z</time></trkpt><trkpt lat="39.9445218" lon="9.5527399"><ele>379.0</ele><time>2026-05-03T09:10:12.957Z</time></trkpt><trkpt lat="39.9445919" lon="9.5527617"><ele>379.0</ele><time>2026-05-03T09:10:13.958Z</time></trkpt><trkpt lat="39.9446707" lon="9.5527624"><ele>379.0</ele><time>2026-05-03T09:10:14.957Z</time></trkpt><trkpt lat="39.9447539" lon="9.5527486"><ele>379.0</ele><time>2026-05-03T09:10:15.958Z</time></trkpt><trkpt lat="39.9448477" lon="9.5527289"><ele>379.0</ele><time>2026-05-03T09:10:16.958Z</time></trkpt><trkpt lat="39.944943" lon="9.5527071"><ele>379.0</ele><time>2026-05-03T09:10:17.957Z</time></trkpt><trkpt lat="39.9450363" lon="9.5526857"><ele>376.66666666666663</ele><time>2026-05-03T09:10:18.958Z</time></trkpt><trkpt lat="39.9451279" lon="9.5526648"><ele>374.3333333333333</ele><time>2026-05-03T09:10:19.957Z</time></trkpt><trkpt lat="39.9452157" lon="9.5526409"><ele>372.0</ele><time>2026-05-03T09:10:20.958Z</time></trkpt><trkpt lat="39.9452996" lon="9.5526132"><ele>369.6666666666667</ele><time>2026-05-03T09:10:21.957Z</time></trkpt><trkpt lat="39.9453794" lon="9.5525729"><ele>367.33333333333337</ele><time>2026-05-03T09:10:22.958Z</time></trkpt><trkpt lat="39.9454571" lon="9.5525142"><ele>365.0</ele><time>2026-05-03T09:10:23.957Z</time></trkpt><trkpt lat="39.9455284" lon="9.5524291"><ele>365.0</ele><time>2026-05-03T09:10:24.957Z</time></trkpt><trkpt lat="39.9455884" lon="9.5523259"><ele>365.0</ele><time>2026-05-03T09:10:25.958Z</time></trkpt><trkpt lat="39.9456403" lon="9.5522153"><ele>365.0</ele><time>2026-05-03T09:10:26.957Z</time></trkpt><trkpt lat="39.9456862" lon="9.5520988"><ele>365.0</ele><time>2026-05-03T09:10:27.957Z</time></trkpt><trkpt lat="39.94573" lon="9.5519767"><ele>365.0</ele><time>2026-05-03T09:10:28.957Z</time></trkpt><trkpt lat="39.9457762" lon="9.5518396"><ele>362.5</ele><time>2026-05-03T09:10:29.958Z</time></trkpt><trkpt lat="39.9458304" lon="9.5517012"><ele>360.0</ele><time>2026-05-03T09:10:30.958Z</time></trkpt><trkpt lat="39.9458952" lon="9.5515543"><ele>357.5</ele><time>2026-05-03T09:10:31.957Z</time></trkpt><trkpt lat="39.9459643" lon="9.551416"><ele>355.0</ele><time>2026-05-03T09:10:32.958Z</time></trkpt><trkpt lat="39.9460416" lon="9.5512879"><ele>359.75</ele><time>2026-05-03T09:10:33.957Z</time></trkpt><trkpt lat="39.9461245" lon="9.5511688"><ele>364.5</ele><time>2026-05-03T09:10:34.958Z</time></trkpt><trkpt lat="39.9462132" lon="9.5510582"><ele>369.25</ele><time>2026-05-03T09:10:35.958Z</time></trkpt><trkpt lat="39.9463158" lon="9.550948"><ele>374.0</ele><time>2026-05-03T09:10:36.957Z</time></trkpt><trkpt lat="39.9464256" lon="9.5508467"><ele>374.0</ele><time>2026-05-03T09:10:37.957Z</time></trkpt><trkpt lat="39.9465432" lon="9.5507565"><ele>374.0</ele><time>2026-05-03T09:10:38.957Z</time></trkpt><trkpt lat="39.9466807" lon="9.5506674"><ele>374.0</ele><time>2026-05-03T09:10:39.957Z</time></trkpt><trkpt lat="39.9468428" lon="9.5505858"><ele>368.6666666666667</ele><time>2026-05-03T09:10:40.957Z</time></trkpt><trkpt lat="39.9470259" lon="9.5505196"><ele>363.3333333333333</ele><time>2026-05-03T09:10:41.957Z</time></trkpt><trkpt lat="39.9472266" lon="9.5504577"><ele>358.0</ele><time>2026-05-03T09:10:42.959Z</time></trkpt><trkpt lat="39.9474421" lon="9.5503898"><ele>359.0</ele><time>2026-05-03T09:10:43.957Z</time></trkpt><trkpt lat="39.9476666" lon="9.5503172"><ele>360.0</ele><time>2026-05-03T09:10:44.957Z</time></trkpt><trkpt lat="39.947903" lon="9.5502417"><ele>360.0</ele><time>2026-05-03T09:10:45.957Z</time></trkpt><trkpt lat="39.9481505" lon="9.550162"><ele>360.0</ele><time>2026-05-03T09:10:46.959Z</time></trkpt><trkpt lat="39.9484055" lon="9.5500768"><ele>355.0</ele><time>2026-05-03T09:10:47.957Z</time></trkpt><trkpt lat="39.9486643" lon="9.5499902"><ele>350.0</ele><time>2026-05-03T09:10:48.958Z</time></trkpt><trkpt lat="39.9489135" lon="9.5499057"><ele>350.0</ele><time>2026-05-03T09:10:49.958Z</time></trkpt><trkpt lat="39.9491479" lon="9.5498228"><ele>350.0</ele><time>2026-05-03T09:10:50.959Z</time></trkpt><trkpt lat="39.9493692" lon="9.5497466"><ele>351.33333333333337</ele><time>2026-05-03T09:10:51.957Z</time></trkpt><trkpt lat="39.9495813" lon="9.5496738"><ele>352.6666666666667</ele><time>2026-05-03T09:10:52.957Z</time></trkpt><trkpt lat="39.9497834" lon="9.549604"><ele>354.0</ele><time>2026-05-03T09:10:53.957Z</time></trkpt><trkpt lat="39.9499811" lon="9.5495358"><ele>350.6666666666667</ele><time>2026-05-03T09:10:54.957Z</time></trkpt><trkpt lat="39.9501803" lon="9.5494728"><ele>347.33333333333337</ele><time>2026-05-03T09:10:55.958Z</time></trkpt><trkpt lat="39.9503814" lon="9.5494226"><ele>344.0</ele><time>2026-05-03T09:10:56.957Z</time></trkpt><trkpt lat="39.9505844" lon="9.5493944"><ele>344.0</ele><time>2026-05-03T09:10:57.957Z</time></trkpt><trkpt lat="39.9507931" lon="9.5493885"><ele>344.0</ele><time>2026-05-03T09:10:58.958Z</time></trkpt><trkpt lat="39.9510102" lon="9.5494047"><ele>344.0</ele><time>2026-05-03T09:10:59.958Z</time></trkpt><trkpt lat="39.9512338" lon="9.5494384"><ele>344.0</ele><time>2026-05-03T09:11:00.957Z</time></trkpt><trkpt lat="39.9514478" lon="9.5494796"><ele>344.0</ele><time>2026-05-03T09:11:01.958Z</time></trkpt><trkpt lat="39.9516519" lon="9.5495169"><ele>344.0</ele><time>2026-05-03T09:11:02.957Z</time></trkpt><trkpt lat="39.9518454" lon="9.5495503"><ele>344.0</ele><time>2026-05-03T09:11:03.958Z</time></trkpt><trkpt lat="39.9520316" lon="9.5495778"><ele>344.0</ele><time>2026-05-03T09:11:04.958Z</time></trkpt><trkpt lat="39.95221" lon="9.5495956"><ele>344.0</ele><time>2026-05-03T09:11:05.958Z</time></trkpt><trkpt lat="39.9523887" lon="9.5496014"><ele>346.6666666666667</ele><time>2026-05-03T09:11:06.958Z</time></trkpt><trkpt lat="39.9525599" lon="9.5495882"><ele>349.3333333333333</ele><time>2026-05-03T09:11:07.958Z</time></trkpt><trkpt lat="39.9527304" lon="9.5495551"><ele>352.0</ele><time>2026-05-03T09:11:08.958Z</time></trkpt><trkpt lat="39.9529012" lon="9.5494922"><ele>346.3333333333333</ele><time>2026-05-03T09:11:09.957Z</time></trkpt><trkpt lat="39.9530757" lon="9.5493892"><ele>340.6666666666667</ele><time>2026-05-03T09:11:10.957Z</time></trkpt><trkpt lat="39.9532417" lon="9.5492745"><ele>335.0</ele><time>2026-05-03T09:11:11.957Z</time></trkpt><trkpt lat="39.9534" lon="9.5491666"><ele>335.0</ele><time>2026-05-03T09:11:12.958Z</time></trkpt><trkpt lat="39.9535578" lon="9.5490724"><ele>335.0</ele><time>2026-05-03T09:11:13.957Z</time></trkpt><trkpt lat="39.9537185" lon="9.5490012"><ele>335.0</ele><time>2026-05-03T09:11:14.957Z</time></trkpt><trkpt lat="39.9538841" lon="9.5489619"><ele>335.0</ele><time>2026-05-03T09:11:15.958Z</time></trkpt><trkpt lat="39.9540489" lon="9.5489574"><ele>335.0</ele><time>2026-05-03T09:11:16.957Z</time></trkpt><trkpt lat="39.9542084" lon="9.5489807"><ele>335.0</ele><time>2026-05-03T09:11:17.957Z</time></trkpt><trkpt lat="39.9543655" lon="9.5490347"><ele>333.0</ele><time>2026-05-03T09:11:18.958Z</time></trkpt><trkpt lat="39.9545187" lon="9.5491199"><ele>331.0</ele><time>2026-05-03T09:11:19.957Z</time></trkpt><trkpt lat="39.954661" lon="9.549229"><ele>329.0</ele><time>2026-05-03T09:11:20.957Z</time></trkpt><trkpt lat="39.954782" lon="9.54936"><ele>329.0</ele><time>2026-05-03T09:11:21.958Z</time></trkpt><trkpt lat="39.9548885" lon="9.5495134"><ele>329.0</ele><time>2026-05-03T09:11:22.958Z</time></trkpt><trkpt lat="39.9549764" lon="9.5496896"><ele>329.0</ele><time>2026-05-03T09:11:23.958Z</time></trkpt><trkpt lat="39.9550442" lon="9.5498843"><ele>318.0</ele><time>2026-05-03T09:11:24.957Z</time></trkpt><trkpt lat="39.9550889" lon="9.5500898"><ele>307.0</ele><time>2026-05-03T09:11:25.958Z</time></trkpt><trkpt lat="39.9551093" lon="9.5502796"><ele>296.0</ele><time>2026-05-03T09:11:26.957Z</time></trkpt><trkpt lat="39.9551122" lon="9.5504678"><ele>294.0</ele><time>2026-05-03T09:11:27.957Z</time></trkpt><trkpt lat="39.9550958" lon="9.5506681"><ele>292.0</ele><time>2026-05-03T09:11:28.957Z</time></trkpt><trkpt lat="39.9550549" lon="9.5508753"><ele>290.0</ele><time>2026-05-03T09:11:29.958Z</time></trkpt><trkpt lat="39.9549923" lon="9.5510892"><ele>296.33333333333337</ele><time>2026-05-03T09:11:30.958Z</time></trkpt><trkpt lat="39.9549124" lon="9.5513144"><ele>302.6666666666667</ele><time>2026-05-03T09:11:31.957Z</time></trkpt><trkpt lat="39.9548328" lon="9.5515481"><ele>309.0</ele><time>2026-05-03T09:11:32.957Z</time></trkpt><trkpt lat="39.9547516" lon="9.5517981"><ele>306.6666666666667</ele><time>2026-05-03T09:11:33.958Z</time></trkpt><trkpt lat="39.9546715" lon="9.5520431"><ele>304.33333333333337</ele><time>2026-05-03T09:11:34.957Z</time></trkpt><trkpt lat="39.9545918" lon="9.5522686"><ele>302.0</ele><time>2026-05-03T09:11:35.959Z</time></trkpt><trkpt lat="39.9545145" lon="9.5524752"><ele>302.0</ele><time>2026-05-03T09:11:36.957Z</time></trkpt><trkpt lat="39.9544325" lon="9.5526775"><ele>302.0</ele><time>2026-05-03T09:11:37.958Z</time></trkpt><trkpt lat="39.9543428" lon="9.5528763"><ele>302.0</ele><time>2026-05-03T09:11:38.958Z</time></trkpt><trkpt lat="39.954244" lon="9.5530699"><ele>303.0</ele><time>2026-05-03T09:11:39.958Z</time></trkpt><trkpt lat="39.9541387" lon="9.5532607"><ele>304.0</ele><time>2026-05-03T09:11:40.957Z</time></trkpt><trkpt lat="39.9540339" lon="9.5534513"><ele>305.0</ele><time>2026-05-03T09:11:41.957Z</time></trkpt><trkpt lat="39.9539269" lon="9.5536401"><ele>300.6666666666667</ele><time>2026-05-03T09:11:42.958Z</time></trkpt><trkpt lat="39.953817" lon="9.5538263"><ele>296.3333333333333</ele><time>2026-05-03T09:11:43.958Z</time></trkpt><trkpt lat="39.9537063" lon="9.5540159"><ele>292.0</ele><time>2026-05-03T09:11:44.957Z</time></trkpt><trkpt lat="39.9535927" lon="9.5542118"><ele>292.0</ele><time>2026-05-03T09:11:45.958Z</time></trkpt><trkpt lat="39.9534761" lon="9.5544121"><ele>292.0</ele><time>2026-05-03T09:11:46.957Z</time></trkpt><trkpt lat="39.9533552" lon="9.5546167"><ele>292.0</ele><time>2026-05-03T09:11:47.957Z</time></trkpt><trkpt lat="39.9532324" lon="9.554828"><ele>290.3333333333333</ele><time>2026-05-03T09:11:48.957Z</time></trkpt><trkpt lat="39.9531131" lon="9.5550311"><ele>288.6666666666667</ele><time>2026-05-03T09:11:49.957Z</time></trkpt><trkpt lat="39.952999" lon="9.5552234"><ele>287.0</ele><time>2026-05-03T09:11:50.958Z</time></trkpt><trkpt lat="39.9528828" lon="9.5554093"><ele>287.0</ele><time>2026-05-03T09:11:51.957Z</time></trkpt><trkpt lat="39.9527538" lon="9.5555919"><ele>287.0</ele><time>2026-05-03T09:11:52.957Z</time></trkpt><trkpt lat="39.9526095" lon="9.5557705"><ele>287.0</ele><time>2026-05-03T09:11:53.957Z</time></trkpt><trkpt lat="39.9524488" lon="9.5559456"><ele>287.0</ele><time>2026-05-03T09:11:54.957Z</time></trkpt><trkpt lat="39.9522759" lon="9.5561201"><ele>287.0</ele><time>2026-05-03T09:11:55.957Z</time></trkpt><trkpt lat="39.9521008" lon="9.5562969"><ele>287.0</ele><time>2026-05-03T09:11:56.957Z</time></trkpt><trkpt lat="39.9519218" lon="9.5564773"><ele>284.6666666666667</ele><time>2026-05-03T09:11:57.957Z</time></trkpt><trkpt lat="39.9517501" lon="9.5566507"><ele>282.3333333333333</ele><time>2026-05-03T09:11:58.957Z</time></trkpt><trkpt lat="39.9515878" lon="9.5568191"><ele>280.0</ele><time>2026-05-03T09:11:59.958Z</time></trkpt><trkpt lat="39.9514364" lon="9.556985"><ele>273.66666666666663</ele><time>2026-05-03T09:12:00.957Z</time></trkpt><trkpt lat="39.9512935" lon="9.557149"><ele>267.3333333333333</ele><time>2026-05-03T09:12:01.958Z</time></trkpt><trkpt lat="39.9511541" lon="9.5573186"><ele>261.0</ele><time>2026-05-03T09:12:02.957Z</time></trkpt><trkpt lat="39.9510197" lon="9.557489"><ele>261.0</ele><time>2026-05-03T09:12:03.957Z</time></trkpt><trkpt lat="39.9508874" lon="9.5576551"><ele>261.0</ele><time>2026-05-03T09:12:04.957Z</time></trkpt><trkpt lat="39.9507558" lon="9.5578128"><ele>261.0</ele><time>2026-05-03T09:12:05.958Z</time></trkpt><trkpt lat="39.9506259" lon="9.5579558"><ele>259.0</ele><time>2026-05-03T09:12:06.957Z</time></trkpt><trkpt lat="39.9504928" lon="9.5580816"><ele>257.0</ele><time>2026-05-03T09:12:07.959Z</time></trkpt><trkpt lat="39.9503541" lon="9.558185"><ele>255.0</ele><time>2026-05-03T09:12:08.957Z</time></trkpt><trkpt lat="39.950215" lon="9.5582616"><ele>255.0</ele><time>2026-05-03T09:12:09.959Z</time></trkpt><trkpt lat="39.9500822" lon="9.5583248"><ele>255.0</ele><time>2026-05-03T09:12:10.957Z</time></trkpt><trkpt lat="39.9499574" lon="9.5583831"><ele>255.0</ele><time>2026-05-03T09:12:11.957Z</time></trkpt><trkpt lat="39.9498393" lon="9.5584473"><ele>255.0</ele><time>2026-05-03T09:12:12.957Z</time></trkpt><trkpt lat="39.9497319" lon="9.5585325"><ele>255.5</ele><time>2026-05-03T09:12:13.957Z</time></trkpt><trkpt lat="39.9496404" lon="9.558649"><ele>256.0</ele><time>2026-05-03T09:12:14.957Z</time></trkpt><trkpt lat="39.9495701" lon="9.5587941"><ele>256.5</ele><time>2026-05-03T09:12:15.957Z</time></trkpt><trkpt lat="39.9495238" lon="9.5589603"><ele>257.0</ele><time>2026-05-03T09:12:16.957Z</time></trkpt><trkpt lat="39.9494947" lon="9.5591376"><ele>251.0</ele><time>2026-05-03T09:12:17.957Z</time></trkpt><trkpt lat="39.9494632" lon="9.5593189"><ele>245.0</ele><time>2026-05-03T09:12:18.958Z</time></trkpt><trkpt lat="39.9494079" lon="9.5595027"><ele>239.0</ele><time>2026-05-03T09:12:19.958Z</time></trkpt><trkpt lat="39.9493284" lon="9.5596814"><ele>234.33333333333334</ele><time>2026-05-03T09:12:20.957Z</time></trkpt><trkpt lat="39.9492295" lon="9.5598511"><ele>229.66666666666669</ele><time>2026-05-03T09:12:21.958Z</time></trkpt><trkpt lat="39.9491165" lon="9.560012"><ele>225.0</ele><time>2026-05-03T09:12:22.958Z</time></trkpt><trkpt lat="39.9490005" lon="9.5601736"><ele>228.0</ele><time>2026-05-03T09:12:23.958Z</time></trkpt><trkpt lat="39.9488857" lon="9.5603376"><ele>231.0</ele><time>2026-05-03T09:12:24.957Z</time></trkpt><trkpt lat="39.9487758" lon="9.5604955"><ele>234.0</ele><time>2026-05-03T09:12:25.957Z</time></trkpt><trkpt lat="39.9486711" lon="9.5606517"><ele>234.0</ele><time>2026-05-03T09:12:26.958Z</time></trkpt><trkpt lat="39.9485789" lon="9.5608102"><ele>234.0</ele><time>2026-05-03T09:12:27.957Z</time></trkpt><trkpt lat="39.9484971" lon="9.5609868"><ele>234.0</ele><time>2026-05-03T09:12:28.958Z</time></trkpt><trkpt lat="39.9484345" lon="9.5611794"><ele>237.33333333333331</ele><time>2026-05-03T09:12:29.957Z</time></trkpt><trkpt lat="39.9483897" lon="9.5613877"><ele>240.66666666666666</ele><time>2026-05-03T09:12:30.957Z</time></trkpt><trkpt lat="39.9483538" lon="9.5616"><ele>244.0</ele><time>2026-05-03T09:12:31.958Z</time></trkpt><trkpt lat="39.9483248" lon="9.5618043"><ele>244.0</ele><time>2026-05-03T09:12:32.957Z</time></trkpt><trkpt lat="39.948295" lon="9.5620006"><ele>244.0</ele><time>2026-05-03T09:12:33.958Z</time></trkpt><trkpt lat="39.9482537" lon="9.562187"><ele>244.0</ele><time>2026-05-03T09:12:34.957Z</time></trkpt><trkpt lat="39.9481946" lon="9.5623675"><ele>241.0</ele><time>2026-05-03T09:12:35.957Z</time></trkpt><trkpt lat="39.9481237" lon="9.5625455"><ele>238.0</ele><time>2026-05-03T09:12:36.957Z</time></trkpt><trkpt lat="39.9480434" lon="9.5627195"><ele>235.0</ele><time>2026-05-03T09:12:37.958Z</time></trkpt><trkpt lat="39.9479544" lon="9.5628894"><ele>228.66666666666666</ele><time>2026-05-03T09:12:38.957Z</time></trkpt><trkpt lat="39.9478659" lon="9.5630613"><ele>222.33333333333331</ele><time>2026-05-03T09:12:39.957Z</time></trkpt><trkpt lat="39.9477748" lon="9.5632332"><ele>216.0</ele><time>2026-05-03T09:12:40.957Z</time></trkpt><trkpt lat="39.9476772" lon="9.5633897"><ele>216.0</ele><time>2026-05-03T09:12:41.957Z</time></trkpt><trkpt lat="39.9475695" lon="9.563533"><ele>216.0</ele><time>2026-05-03T09:12:42.959Z</time></trkpt><trkpt lat="39.9474452" lon="9.5636677"><ele>216.0</ele><time>2026-05-03T09:12:43.957Z</time></trkpt><trkpt lat="39.947306" lon="9.5638049"><ele>217.66666666666669</ele><time>2026-05-03T09:12:44.957Z</time></trkpt><trkpt lat="39.947155" lon="9.5639462"><ele>219.33333333333334</ele><time>2026-05-03T09:12:45.957Z</time></trkpt><trkpt lat="39.9469981" lon="9.56409"><ele>221.0</ele><time>2026-05-03T09:12:46.958Z</time></trkpt><trkpt lat="39.9468384" lon="9.5642336"><ele>220.0</ele><time>2026-05-03T09:12:47.958Z</time></trkpt><trkpt lat="39.9466785" lon="9.5643771"><ele>219.0</ele><time>2026-05-03T09:12:48.957Z</time></trkpt><trkpt lat="39.9465293" lon="9.5645165"><ele>218.0</ele><time>2026-05-03T09:12:49.958Z</time></trkpt><trkpt lat="39.9463844" lon="9.5646528"><ele>216.0</ele><time>2026-05-03T09:12:50.958Z</time></trkpt><trkpt lat="39.9462458" lon="9.5647831"><ele>214.0</ele><time>2026-05-03T09:12:51.957Z</time></trkpt><trkpt lat="39.94611" lon="9.5649071"><ele>212.0</ele><time>2026-05-03T09:12:52.957Z</time></trkpt><trkpt lat="39.945988" lon="9.5650245"><ele>212.0</ele><time>2026-05-03T09:12:53.957Z</time></trkpt><trkpt lat="39.9458877" lon="9.5651491"><ele>212.0</ele><time>2026-05-03T09:12:54.958Z</time></trkpt><trkpt lat="39.9458108" lon="9.5652876"><ele>212.0</ele><time>2026-05-03T09:12:55.957Z</time></trkpt><trkpt lat="39.9457663" lon="9.5654393"><ele>212.0</ele><time>2026-05-03T09:12:56.959Z</time></trkpt><trkpt lat="39.9457552" lon="9.5655988"><ele>212.0</ele><time>2026-05-03T09:12:57.958Z</time></trkpt><trkpt lat="39.9457778" lon="9.5657613"><ele>212.0</ele><time>2026-05-03T09:12:58.958Z</time></trkpt><trkpt lat="39.945834" lon="9.5659265"><ele>212.0</ele><time>2026-05-03T09:12:59.957Z</time></trkpt><trkpt lat="39.945915" lon="9.5660897"><ele>212.0</ele><time>2026-05-03T09:13:00.958Z</time></trkpt><trkpt lat="39.9460061" lon="9.5662545"><ele>209.5</ele><time>2026-05-03T09:13:01.958Z</time></trkpt><trkpt lat="39.9460989" lon="9.5664109"><ele>207.0</ele><time>2026-05-03T09:13:02.958Z</time></trkpt><trkpt lat="39.9461983" lon="9.566541"><ele>204.5</ele><time>2026-05-03T09:13:03.957Z</time></trkpt><trkpt lat="39.9463151" lon="9.5666457"><ele>202.0</ele><time>2026-05-03T09:13:04.958Z</time></trkpt><trkpt lat="39.9464555" lon="9.5667234"><ele>202.0</ele><time>2026-05-03T09:13:05.957Z</time></trkpt><trkpt lat="39.9466147" lon="9.5667774"><ele>202.0</ele><time>2026-05-03T09:13:06.957Z</time></trkpt><trkpt lat="39.9467908" lon="9.5668271"><ele>202.0</ele><time>2026-05-03T09:13:07.957Z</time></trkpt><trkpt lat="39.9469729" lon="9.5668808"><ele>199.33333333333331</ele><time>2026-05-03T09:13:08.957Z</time></trkpt><trkpt lat="39.947157" lon="9.5669373"><ele>196.66666666666669</ele><time>2026-05-03T09:13:09.957Z</time></trkpt><trkpt lat="39.9473453" lon="9.5669933"><ele>194.0</ele><time>2026-05-03T09:13:10.957Z</time></trkpt><trkpt lat="39.9475377" lon="9.5670511"><ele>194.0</ele><time>2026-05-03T09:13:11.957Z</time></trkpt><trkpt lat="39.9477326" lon="9.5671127"><ele>194.0</ele><time>2026-05-03T09:13:12.958Z</time></trkpt><trkpt lat="39.9479296" lon="9.5671786"><ele>194.0</ele><time>2026-05-03T09:13:13.957Z</time></trkpt><trkpt lat="39.9481192" lon="9.5672484"><ele>194.0</ele><time>2026-05-03T09:13:14.958Z</time></trkpt><trkpt lat="39.9482982" lon="9.5673182"><ele>194.0</ele><time>2026-05-03T09:13:15.957Z</time></trkpt><trkpt lat="39.9484733" lon="9.5673917"><ele>194.0</ele><time>2026-05-03T09:13:16.958Z</time></trkpt><trkpt lat="39.9486475" lon="9.567463"><ele>190.0</ele><time>2026-05-03T09:13:17.958Z</time></trkpt><trkpt lat="39.9488218" lon="9.5675296"><ele>186.0</ele><time>2026-05-03T09:13:18.958Z</time></trkpt><trkpt lat="39.9489947" lon="9.5675897"><ele>182.0</ele><time>2026-05-03T09:13:19.957Z</time></trkpt><trkpt lat="39.9491664" lon="9.5676434"><ele>180.33333333333331</ele><time>2026-05-03T09:13:20.957Z</time></trkpt><trkpt lat="39.9493384" lon="9.5676818"><ele>178.66666666666666</ele><time>2026-05-03T09:13:21.958Z</time></trkpt><trkpt lat="39.9495139" lon="9.5676873"><ele>177.0</ele><time>2026-05-03T09:13:22.958Z</time></trkpt><trkpt lat="39.9496985" lon="9.5676692"><ele>177.0</ele><time>2026-05-03T09:13:23.957Z</time></trkpt><trkpt lat="39.9498826" lon="9.567624"><ele>177.0</ele><time>2026-05-03T09:13:24.958Z</time></trkpt><trkpt lat="39.95006" lon="9.5675595"><ele>177.0</ele><time>2026-05-03T09:13:25.958Z</time></trkpt><trkpt lat="39.9502277" lon="9.5674968"><ele>177.33333333333334</ele><time>2026-05-03T09:13:26.957Z</time></trkpt><trkpt lat="39.9503954" lon="9.5674537"><ele>177.66666666666669</ele><time>2026-05-03T09:13:27.958Z</time></trkpt><trkpt lat="39.9505684" lon="9.5674313"><ele>178.0</ele><time>2026-05-03T09:13:28.957Z</time></trkpt><trkpt lat="39.9507399" lon="9.5674307"><ele>178.0</ele><time>2026-05-03T09:13:29.957Z</time></trkpt><trkpt lat="39.9509065" lon="9.5674606"><ele>178.0</ele><time>2026-05-03T09:13:30.958Z</time></trkpt><trkpt lat="39.9510657" lon="9.5675209"><ele>178.0</ele><time>2026-05-03T09:13:31.958Z</time></trkpt><trkpt lat="39.9512078" lon="9.5676052"><ele>178.0</ele><time>2026-05-03T09:13:32.958Z</time></trkpt><trkpt lat="39.9513412" lon="9.5677147"><ele>178.0</ele><time>2026-05-03T09:13:33.957Z</time></trkpt><trkpt lat="39.9514617" lon="9.5678475"><ele>178.0</ele><time>2026-05-03T09:13:34.957Z</time></trkpt><trkpt lat="39.9515705" lon="9.5680036"><ele>181.0</ele><time>2026-05-03T09:13:35.957Z</time></trkpt><trkpt lat="39.9516634" lon="9.5681814"><ele>184.0</ele><time>2026-05-03T09:13:36.959Z</time></trkpt><trkpt lat="39.9517339" lon="9.5683777"><ele>187.0</ele><time>2026-05-03T09:13:37.958Z</time></trkpt><trkpt lat="39.9517814" lon="9.5685929"><ele>184.0</ele><time>2026-05-03T09:13:38.957Z</time></trkpt><trkpt lat="39.9518053" lon="9.5688214"><ele>181.0</ele><time>2026-05-03T09:13:39.958Z</time></trkpt><trkpt lat="39.9518014" lon="9.5690671"><ele>178.0</ele><time>2026-05-03T09:13:40.957Z</time></trkpt><trkpt lat="39.9517747" lon="9.5693148"><ele>178.66666666666669</ele><time>2026-05-03T09:13:41.958Z</time></trkpt><trkpt lat="39.9517364" lon="9.5695605"><ele>179.33333333333334</ele><time>2026-05-03T09:13:42.957Z</time></trkpt><trkpt lat="39.9517062" lon="9.5698017"><ele>180.0</ele><time>2026-05-03T09:13:43.958Z</time></trkpt><trkpt lat="39.9516969" lon="9.5700337"><ele>180.0</ele><time>2026-05-03T09:13:44.957Z</time></trkpt><trkpt lat="39.9517056" lon="9.5702562"><ele>180.0</ele><time>2026-05-03T09:13:45.957Z</time></trkpt><trkpt lat="39.9517399" lon="9.5704763"><ele>180.0</ele><time>2026-05-03T09:13:46.958Z</time></trkpt><trkpt lat="39.9517973" lon="9.5706902"><ele>180.0</ele><time>2026-05-03T09:13:47.957Z</time></trkpt><trkpt lat="39.9518756" lon="9.5708939"><ele>180.0</ele><time>2026-05-03T09:13:48.958Z</time></trkpt><trkpt lat="39.9519819" lon="9.5710709"><ele>180.0</ele><time>2026-05-03T09:13:49.958Z</time></trkpt><trkpt lat="39.952098" lon="9.5712307"><ele>172.66666666666666</ele><time>2026-05-03T09:13:50.957Z</time></trkpt><trkpt lat="39.9522368" lon="9.5713746"><ele>165.33333333333331</ele><time>2026-05-03T09:13:51.957Z</time></trkpt><trkpt lat="39.9524" lon="9.5714989"><ele>158.0</ele><time>2026-05-03T09:13:52.957Z</time></trkpt><trkpt lat="39.9525845" lon="9.5716134"><ele>155.66666666666666</ele><time>2026-05-03T09:13:53.957Z</time></trkpt><trkpt lat="39.9527806" lon="9.5717255"><ele>153.33333333333334</ele><time>2026-05-03T09:13:54.957Z</time></trkpt><trkpt lat="39.9529816" lon="9.5718405"><ele>151.0</ele><time>2026-05-03T09:13:55.957Z</time></trkpt><trkpt lat="39.9531736" lon="9.5719533"><ele>152.0</ele><time>2026-05-03T09:13:56.958Z</time></trkpt><trkpt lat="39.9533575" lon="9.5720632"><ele>153.0</ele><time>2026-05-03T09:13:57.958Z</time></trkpt><trkpt lat="39.9535273" lon="9.5721662"><ele>154.0</ele><time>2026-05-03T09:13:58.958Z</time></trkpt><trkpt lat="39.9536833" lon="9.5722633"><ele>154.0</ele><time>2026-05-03T09:13:59.958Z</time></trkpt><trkpt lat="39.9538224" lon="9.5723641"><ele>154.0</ele><time>2026-05-03T09:14:00.957Z</time></trkpt><trkpt lat="39.9539485" lon="9.5724846"><ele>154.0</ele><time>2026-05-03T09:14:01.957Z</time></trkpt><trkpt lat="39.9540627" lon="9.5726257"><ele>154.0</ele><time>2026-05-03T09:14:02.958Z</time></trkpt><trkpt lat="39.9541658" lon="9.5727862"><ele>154.0</ele><time>2026-05-03T09:14:03.958Z</time></trkpt><trkpt lat="39.954251" lon="9.5729659"><ele>154.0</ele><time>2026-05-03T09:14:04.958Z</time></trkpt><trkpt lat="39.9543119" lon="9.5731561"><ele>152.33333333333334</ele><time>2026-05-03T09:14:05.957Z</time></trkpt><trkpt lat="39.9543536" lon="9.5733616"><ele>150.66666666666666</ele><time>2026-05-03T09:14:06.957Z</time></trkpt><trkpt lat="39.9543713" lon="9.5735642"><ele>149.0</ele><time>2026-05-03T09:14:07.958Z</time></trkpt><trkpt lat="39.9543698" lon="9.5737755"><ele>149.0</ele><time>2026-05-03T09:14:08.958Z</time></trkpt><trkpt lat="39.954341" lon="9.5739826"><ele>149.0</ele><time>2026-05-03T09:14:09.957Z</time></trkpt><trkpt lat="39.9542853" lon="9.5741874"><ele>149.0</ele><time>2026-05-03T09:14:10.957Z</time></trkpt><trkpt lat="39.9542045" lon="9.5743896"><ele>144.66666666666666</ele><time>2026-05-03T09:14:11.957Z</time></trkpt><trkpt lat="39.9541023" lon="9.5745854"><ele>140.33333333333334</ele><time>2026-05-03T09:14:12.958Z</time></trkpt><trkpt lat="39.9539754" lon="9.5747797"><ele>136.0</ele><time>2026-05-03T09:14:13.958Z</time></trkpt><trkpt lat="39.9538337" lon="9.5749733"><ele>136.0</ele><time>2026-05-03T09:14:14.958Z</time></trkpt><trkpt lat="39.95368" lon="9.5751653"><ele>136.0</ele><time>2026-05-03T09:14:15.957Z</time></trkpt><trkpt lat="39.9535144" lon="9.575351"><ele>136.0</ele><time>2026-05-03T09:14:16.957Z</time></trkpt><trkpt lat="39.9533352" lon="9.5755353"><ele>131.5</ele><time>2026-05-03T09:14:17.957Z</time></trkpt><trkpt lat="39.9531477" lon="9.5757226"><ele>127.0</ele><time>2026-05-03T09:14:18.957Z</time></trkpt><trkpt lat="39.9529605" lon="9.5759101"><ele>127.0</ele><time>2026-05-03T09:14:19.958Z</time></trkpt><trkpt lat="39.9527819" lon="9.5760876"><ele>127.0</ele><time>2026-05-03T09:14:20.958Z</time></trkpt><trkpt lat="39.9526078" lon="9.5762599"><ele>127.0</ele><time>2026-05-03T09:14:21.958Z</time></trkpt><trkpt lat="39.9524421" lon="9.5764248"><ele>127.66666666666667</ele><time>2026-05-03T09:14:22.957Z</time></trkpt><trkpt lat="39.9522857" lon="9.5765751"><ele>128.33333333333334</ele><time>2026-05-03T09:14:23.959Z</time></trkpt><trkpt lat="39.9521433" lon="9.5767233"><ele>129.0</ele><time>2026-05-03T09:14:24.958Z</time></trkpt><trkpt lat="39.9520182" lon="9.5768749"><ele>128.66666666666666</ele><time>2026-05-03T09:14:25.958Z</time></trkpt><trkpt lat="39.9519081" lon="9.5770347"><ele>128.33333333333331</ele><time>2026-05-03T09:14:26.958Z</time></trkpt><trkpt lat="39.9518081" lon="9.5772023"><ele>128.0</ele><time>2026-05-03T09:14:27.958Z</time></trkpt><trkpt lat="39.9517159" lon="9.5773655"><ele>124.0</ele><time>2026-05-03T09:14:28.957Z</time></trkpt><trkpt lat="39.9516223" lon="9.5775219"><ele>120.0</ele><time>2026-05-03T09:14:29.957Z</time></trkpt><trkpt lat="39.9515157" lon="9.5776524"><ele>116.0</ele><time>2026-05-03T09:14:30.957Z</time></trkpt><trkpt lat="39.9513948" lon="9.5777599"><ele>112.0</ele><time>2026-05-03T09:14:31.957Z</time></trkpt><trkpt lat="39.9512543" lon="9.5778405"><ele>111.25</ele><time>2026-05-03T09:14:32.957Z</time></trkpt><trkpt lat="39.9511146" lon="9.5778896"><ele>110.5</ele><time>2026-05-03T09:14:33.957Z</time></trkpt><trkpt lat="39.9509833" lon="9.5779428"><ele>109.75</ele><time>2026-05-03T09:14:34.957Z</time></trkpt><trkpt lat="39.950865" lon="9.578026"><ele>109.0</ele><time>2026-05-03T09:14:35.957Z</time></trkpt><trkpt lat="39.9507548" lon="9.578144"><ele>109.0</ele><time>2026-05-03T09:14:36.958Z</time></trkpt><trkpt lat="39.9506579" lon="9.5783054"><ele>109.0</ele><time>2026-05-03T09:14:37.958Z</time></trkpt><trkpt lat="39.950576" lon="9.5785056"><ele>109.0</ele><time>2026-05-03T09:14:38.957Z</time></trkpt><trkpt lat="39.9504907" lon="9.5787208"><ele>113.0</ele><time>2026-05-03T09:14:39.957Z</time></trkpt><trkpt lat="39.9503958" lon="9.5789484"><ele>117.0</ele><time>2026-05-03T09:14:40.957Z</time></trkpt><trkpt lat="39.9503091" lon="9.5791635"><ele>121.0</ele><time>2026-05-03T09:14:41.958Z</time></trkpt><trkpt lat="39.9502277" lon="9.5793638"><ele>122.0</ele><time>2026-05-03T09:14:42.958Z</time></trkpt><trkpt lat="39.9501369" lon="9.5795549"><ele>123.0</ele><time>2026-05-03T09:14:43.958Z</time></trkpt><trkpt lat="39.9500192" lon="9.5797481"><ele>124.0</ele><time>2026-05-03T09:14:44.957Z</time></trkpt><trkpt lat="39.9498808" lon="9.5799264"><ele>119.0</ele><time>2026-05-03T09:14:45.958Z</time></trkpt><trkpt lat="39.9497439" lon="9.5800788"><ele>114.0</ele><time>2026-05-03T09:14:46.957Z</time></trkpt><trkpt lat="39.9496178" lon="9.5802167"><ele>109.0</ele><time>2026-05-03T09:14:47.957Z</time></trkpt><trkpt lat="39.9494994" lon="9.5803378"><ele>109.75</ele><time>2026-05-03T09:14:48.958Z</time></trkpt><trkpt lat="39.9493805" lon="9.5804381"><ele>110.5</ele><time>2026-05-03T09:14:49.957Z</time></trkpt><trkpt lat="39.9492606" lon="9.5805124"><ele>111.25</ele><time>2026-05-03T09:14:50.957Z</time></trkpt><trkpt lat="39.9491362" lon="9.580565"><ele>112.0</ele><time>2026-05-03T09:14:51.957Z</time></trkpt><trkpt lat="39.9490155" lon="9.5806113"><ele>108.25</ele><time>2026-05-03T09:14:52.957Z</time></trkpt><trkpt lat="39.9488951" lon="9.5806724"><ele>104.5</ele><time>2026-05-03T09:14:53.958Z</time></trkpt><trkpt lat="39.9487741" lon="9.5807567"><ele>100.75</ele><time>2026-05-03T09:14:54.958Z</time></trkpt><trkpt lat="39.9486572" lon="9.5808687"><ele>97.0</ele><time>2026-05-03T09:14:55.958Z</time></trkpt><trkpt lat="39.9485427" lon="9.5810155"><ele>96.33333333333334</ele><time>2026-05-03T09:14:56.957Z</time></trkpt><trkpt lat="39.9484308" lon="9.5811919"><ele>95.66666666666667</ele><time>2026-05-03T09:14:57.957Z</time></trkpt><trkpt lat="39.9483124" lon="9.5813922"><ele>95.0</ele><time>2026-05-03T09:14:58.958Z</time></trkpt><trkpt lat="39.9481828" lon="9.5816114"><ele>92.0</ele><time>2026-05-03T09:14:59.957Z</time></trkpt><trkpt lat="39.9480461" lon="9.5818404"><ele>89.0</ele><time>2026-05-03T09:15:00.958Z</time></trkpt><trkpt lat="39.9479083" lon="9.5820761"><ele>88.0</ele><time>2026-05-03T09:15:01.957Z</time></trkpt><trkpt lat="39.947765" lon="9.5823201"><ele>87.0</ele><time>2026-05-03T09:15:02.958Z</time></trkpt><trkpt lat="39.9476157" lon="9.5825745"><ele>86.0</ele><time>2026-05-03T09:15:03.957Z</time></trkpt><trkpt lat="39.9474774" lon="9.5828108"><ele>85.0</ele><time>2026-05-03T09:15:04.959Z</time></trkpt><trkpt lat="39.9473459" lon="9.5830353"><ele>84.0</ele><time>2026-05-03T09:15:05.958Z</time></trkpt><trkpt lat="39.9472171" lon="9.58324"><ele>84.0</ele><time>2026-05-03T09:15:06.957Z</time></trkpt><trkpt lat="39.9470896" lon="9.5834141"><ele>84.0</ele><time>2026-05-03T09:15:07.958Z</time></trkpt><trkpt lat="39.9469568" lon="9.5835675"><ele>84.0</ele><time>2026-05-03T09:15:08.958Z</time></trkpt><trkpt lat="39.946805" lon="9.5837109"><ele>83.33333333333333</ele><time>2026-05-03T09:15:09.957Z</time></trkpt><trkpt lat="39.9466408" lon="9.5838443"><ele>82.66666666666666</ele><time>2026-05-03T09:15:10.958Z</time></trkpt><trkpt lat="39.9464666" lon="9.5839771"><ele>82.0</ele><time>2026-05-03T09:15:11.957Z</time></trkpt><trkpt lat="39.9462882" lon="9.584113"><ele>82.0</ele><time>2026-05-03T09:15:12.957Z</time></trkpt><trkpt lat="39.9461121" lon="9.5842501"><ele>82.0</ele><time>2026-05-03T09:15:13.957Z</time></trkpt><trkpt lat="39.9459521" lon="9.5843773"><ele>82.0</ele><time>2026-05-03T09:15:14.957Z</time></trkpt><trkpt lat="39.9458035" lon="9.5845001"><ele>81.66666666666666</ele><time>2026-05-03T09:15:15.958Z</time></trkpt><trkpt lat="39.9456725" lon="9.5846371"><ele>81.33333333333333</ele><time>2026-05-03T09:15:16.957Z</time></trkpt><trkpt lat="39.9455561" lon="9.584797"><ele>81.0</ele><time>2026-05-03T09:15:17.958Z</time></trkpt><trkpt lat="39.9454562" lon="9.5849831"><ele>81.0</ele><time>2026-05-03T09:15:18.958Z</time></trkpt><trkpt lat="39.945371" lon="9.5851955"><ele>81.0</ele><time>2026-05-03T09:15:19.958Z</time></trkpt><trkpt lat="39.9452952" lon="9.5854251"><ele>81.0</ele><time>2026-05-03T09:15:20.958Z</time></trkpt><trkpt lat="39.9452193" lon="9.5856607"><ele>80.66666666666667</ele><time>2026-05-03T09:15:21.958Z</time></trkpt><trkpt lat="39.9451489" lon="9.5858774"><ele>80.33333333333334</ele><time>2026-05-03T09:15:22.958Z</time></trkpt><trkpt lat="39.9450773" lon="9.5860743"><ele>80.0</ele><time>2026-05-03T09:15:23.957Z</time></trkpt><trkpt lat="39.9449977" lon="9.586245"><ele>79.66666666666667</ele><time>2026-05-03T09:15:24.957Z</time></trkpt><trkpt lat="39.9449014" lon="9.5864062"><ele>79.33333333333333</ele><time>2026-05-03T09:15:25.958Z</time></trkpt><trkpt lat="39.9447858" lon="9.5865445"><ele>79.0</ele><time>2026-05-03T09:15:26.957Z</time></trkpt><trkpt lat="39.9446555" lon="9.5866621"><ele>79.0</ele><time>2026-05-03T09:15:27.958Z</time></trkpt><trkpt lat="39.9445061" lon="9.5867673"><ele>79.0</ele><time>2026-05-03T09:15:28.958Z</time></trkpt><trkpt lat="39.9443423" lon="9.5868626"><ele>79.0</ele><time>2026-05-03T09:15:29.957Z</time></trkpt><trkpt lat="39.9441711" lon="9.5869533"><ele>77.66666666666666</ele><time>2026-05-03T09:15:30.958Z</time></trkpt><trkpt lat="39.9439949" lon="9.5870428"><ele>76.33333333333333</ele><time>2026-05-03T09:15:31.957Z</time></trkpt><trkpt lat="39.9438156" lon="9.5871336"><ele>75.0</ele><time>2026-05-03T09:15:32.958Z</time></trkpt><trkpt lat="39.943638" lon="9.5872241"><ele>75.0</ele><time>2026-05-03T09:15:33.957Z</time></trkpt><trkpt lat="39.9434755" lon="9.5873083"><ele>75.0</ele><time>2026-05-03T09:15:34.958Z</time></trkpt><trkpt lat="39.9433261" lon="9.5873969"><ele>75.0</ele><time>2026-05-03T09:15:35.957Z</time></trkpt><trkpt lat="39.9431868" lon="9.5875035"><ele>75.33333333333333</ele><time>2026-05-03T09:15:36.958Z</time></trkpt><trkpt lat="39.9430563" lon="9.5876352"><ele>75.66666666666666</ele><time>2026-05-03T09:15:37.957Z</time></trkpt><trkpt lat="39.9429508" lon="9.5877859"><ele>76.0</ele><time>2026-05-03T09:15:38.957Z</time></trkpt><trkpt lat="39.9428612" lon="9.587966"><ele>76.33333333333333</ele><time>2026-05-03T09:15:39.958Z</time></trkpt><trkpt lat="39.9427934" lon="9.5881725"><ele>76.66666666666667</ele><time>2026-05-03T09:15:40.958Z</time></trkpt><trkpt lat="39.9427454" lon="9.5884028"><ele>77.0</ele><time>2026-05-03T09:15:41.958Z</time></trkpt><trkpt lat="39.9427059" lon="9.5886434"><ele>77.66666666666667</ele><time>2026-05-03T09:15:42.959Z</time></trkpt><trkpt lat="39.9426582" lon="9.5888869"><ele>78.33333333333333</ele><time>2026-05-03T09:15:43.957Z</time></trkpt><trkpt lat="39.9425944" lon="9.5891338"><ele>79.0</ele><time>2026-05-03T09:15:44.957Z</time></trkpt><trkpt lat="39.9425215" lon="9.5893655"><ele>79.0</ele><time>2026-05-03T09:15:45.957Z</time></trkpt><trkpt lat="39.9424413" lon="9.5895868"><ele>79.0</ele><time>2026-05-03T09:15:46.958Z</time></trkpt><trkpt lat="39.9423539" lon="9.5897829"><ele>79.0</ele><time>2026-05-03T09:15:47.957Z</time></trkpt><trkpt lat="39.9422548" lon="9.5899625"><ele>79.0</ele><time>2026-05-03T09:15:48.957Z</time></trkpt><trkpt lat="39.9421323" lon="9.5901262"><ele>79.0</ele><time>2026-05-03T09:15:49.959Z</time></trkpt><trkpt lat="39.9419814" lon="9.5902698"><ele>79.0</ele><time>2026-05-03T09:15:50.959Z</time></trkpt><trkpt lat="39.9418183" lon="9.5904004"><ele>79.66666666666666</ele><time>2026-05-03T09:15:51.957Z</time></trkpt><trkpt lat="39.9416468" lon="9.5905309"><ele>80.33333333333333</ele><time>2026-05-03T09:15:52.958Z</time></trkpt><trkpt lat="39.941474" lon="9.5906723"><ele>81.0</ele><time>2026-05-03T09:15:53.957Z</time></trkpt><trkpt lat="39.9413021" lon="9.5908337"><ele>81.0</ele><time>2026-05-03T09:15:54.957Z</time></trkpt><trkpt lat="39.9411353" lon="9.5910239"><ele>81.0</ele><time>2026-05-03T09:15:55.958Z</time></trkpt><trkpt lat="39.9409733" lon="9.5912364"><ele>80.0</ele><time>2026-05-03T09:15:56.958Z</time></trkpt><trkpt lat="39.940811" lon="9.5914619"><ele>79.0</ele><time>2026-05-03T09:15:57.957Z</time></trkpt><trkpt lat="39.9406469" lon="9.5916882"><ele>79.0</ele><time>2026-05-03T09:15:58.957Z</time></trkpt><trkpt lat="39.940493" lon="9.5918961"><ele>79.0</ele><time>2026-05-03T09:15:59.957Z</time></trkpt><trkpt lat="39.94035" lon="9.5920918"><ele>79.0</ele><time>2026-05-03T09:16:00.957Z</time></trkpt><trkpt lat="39.9402159" lon="9.5922717"><ele>78.33333333333333</ele><time>2026-05-03T09:16:01.957Z</time></trkpt><trkpt lat="39.9400868" lon="9.5924333"><ele>77.66666666666667</ele><time>2026-05-03T09:16:02.958Z</time></trkpt><trkpt lat="39.939951" lon="9.5925759"><ele>77.0</ele><time>2026-05-03T09:16:03.958Z</time></trkpt><trkpt lat="39.9397999" lon="9.5927052"><ele>78.33333333333334</ele><time>2026-05-03T09:16:04.958Z</time></trkpt><trkpt lat="39.9396366" lon="9.5928263"><ele>79.66666666666667</ele><time>2026-05-03T09:16:05.957Z</time></trkpt><trkpt lat="39.9394666" lon="9.5929451"><ele>81.0</ele><time>2026-05-03T09:16:06.958Z</time></trkpt><trkpt lat="39.9392896" lon="9.5930628"><ele>82.66666666666667</ele><time>2026-05-03T09:16:07.957Z</time></trkpt><trkpt lat="39.9391079" lon="9.5931805"><ele>84.33333333333334</ele><time>2026-05-03T09:16:08.957Z</time></trkpt><trkpt lat="39.9389211" lon="9.593298"><ele>86.0</ele><time>2026-05-03T09:16:09.958Z</time></trkpt><trkpt lat="39.9387267" lon="9.593422"><ele>86.0</ele><time>2026-05-03T09:16:10.958Z</time></trkpt><trkpt lat="39.9385257" lon="9.5935543"><ele>86.0</ele><time>2026-05-03T09:16:11.958Z</time></trkpt><trkpt lat="39.9383197" lon="9.5936925"><ele>87.0</ele><time>2026-05-03T09:16:12.958Z</time></trkpt><trkpt lat="39.9381081" lon="9.5938339"><ele>88.0</ele><time>2026-05-03T09:16:13.957Z</time></trkpt><trkpt lat="39.9378913" lon="9.5939786"><ele>88.0</ele><time>2026-05-03T09:16:14.957Z</time></trkpt><trkpt lat="39.9376699" lon="9.594126"><ele>88.0</ele><time>2026-05-03T09:16:15.958Z</time></trkpt><trkpt lat="39.9374436" lon="9.5942757"><ele>90.5</ele><time>2026-05-03T09:16:16.957Z</time></trkpt><trkpt lat="39.9372127" lon="9.5944284"><ele>93.0</ele><time>2026-05-03T09:16:17.957Z</time></trkpt><trkpt lat="39.9369809" lon="9.5945803"><ele>94.5</ele><time>2026-05-03T09:16:18.957Z</time></trkpt><trkpt lat="39.9367639" lon="9.5947231"><ele>96.0</ele><time>2026-05-03T09:16:19.957Z</time></trkpt><trkpt lat="39.9365701" lon="9.5948514"><ele>98.0</ele><time>2026-05-03T09:16:20.958Z</time></trkpt><trkpt lat="39.9363919" lon="9.5949676"><ele>100.0</ele><time>2026-05-03T09:16:21.957Z</time></trkpt><trkpt lat="39.9362277" lon="9.5950831"><ele>102.0</ele><time>2026-05-03T09:16:22.958Z</time></trkpt><trkpt lat="39.9360689" lon="9.5952179"><ele>105.33333333333334</ele><time>2026-05-03T09:16:23.957Z</time></trkpt><trkpt lat="39.9359181" lon="9.595373"><ele>108.66666666666667</ele><time>2026-05-03T09:16:24.957Z</time></trkpt><trkpt lat="39.9357792" lon="9.5955462"><ele>112.0</ele><time>2026-05-03T09:16:25.957Z</time></trkpt><trkpt lat="39.9356587" lon="9.5957391"><ele>112.0</ele><time>2026-05-03T09:16:26.957Z</time></trkpt><trkpt lat="39.9355536" lon="9.5959543"><ele>112.0</ele><time>2026-05-03T09:16:27.958Z</time></trkpt><trkpt lat="39.9354611" lon="9.5961847"><ele>112.0</ele><time>2026-05-03T09:16:28.958Z</time></trkpt><trkpt lat="39.9353724" lon="9.5964158"><ele>114.66666666666667</ele><time>2026-05-03T09:16:29.958Z</time></trkpt><trkpt lat="39.9352906" lon="9.5966323"><ele>117.33333333333334</ele><time>2026-05-03T09:16:30.958Z</time></trkpt><trkpt lat="39.935213" lon="9.5968362"><ele>120.0</ele><time>2026-05-03T09:16:31.957Z</time></trkpt><trkpt lat="39.9351398" lon="9.5970302"><ele>121.33333333333334</ele><time>2026-05-03T09:16:32.958Z</time></trkpt><trkpt lat="39.9350758" lon="9.5972174"><ele>122.66666666666667</ele><time>2026-05-03T09:16:33.958Z</time></trkpt><trkpt lat="39.9350193" lon="9.5974139"><ele>124.0</ele><time>2026-05-03T09:16:34.957Z</time></trkpt><trkpt lat="39.9349837" lon="9.5976251"><ele>121.0</ele><time>2026-05-03T09:16:35.958Z</time></trkpt><trkpt lat="39.9349684" lon="9.5978472"><ele>118.0</ele><time>2026-05-03T09:16:36.957Z</time></trkpt><trkpt lat="39.9349668" lon="9.5980462"><ele>115.0</ele><time>2026-05-03T09:16:37.957Z</time></trkpt><trkpt lat="39.934967" lon="9.5982344"><ele>115.0</ele><time>2026-05-03T09:16:38.957Z</time></trkpt><trkpt lat="39.9349552" lon="9.5984107"><ele>115.0</ele><time>2026-05-03T09:16:39.958Z</time></trkpt><trkpt lat="39.9349244" lon="9.5985859"><ele>115.0</ele><time>2026-05-03T09:16:40.957Z</time></trkpt><trkpt lat="39.9348612" lon="9.5987504"><ele>115.0</ele><time>2026-05-03T09:16:41.958Z</time></trkpt><trkpt lat="39.9347672" lon="9.5989135"><ele>116.0</ele><time>2026-05-03T09:16:42.957Z</time></trkpt><trkpt lat="39.9346528" lon="9.5990734"><ele>117.0</ele><time>2026-05-03T09:16:43.957Z</time></trkpt><trkpt lat="39.9345355" lon="9.5992319"><ele>118.0</ele><time>2026-05-03T09:16:44.957Z</time></trkpt><trkpt lat="39.9344131" lon="9.5993552"><ele>118.0</ele><time>2026-05-03T09:16:45.958Z</time></trkpt><trkpt lat="39.9342709" lon="9.5994612"><ele>118.0</ele><time>2026-05-03T09:16:46.957Z</time></trkpt><trkpt lat="39.9341078" lon="9.5995515"><ele>118.0</ele><time>2026-05-03T09:16:47.957Z</time></trkpt><trkpt lat="39.9339254" lon="9.5996243"><ele>117.33333333333334</ele><time>2026-05-03T09:16:48.957Z</time></trkpt><trkpt lat="39.9337274" lon="9.599688"><ele>116.66666666666666</ele><time>2026-05-03T09:16:49.958Z</time></trkpt><trkpt lat="39.9335123" lon="9.5997549"><ele>116.0</ele><time>2026-05-03T09:16:50.958Z</time></trkpt><trkpt lat="39.9332888" lon="9.5998323"><ele>114.5</ele><time>2026-05-03T09:16:51.958Z</time></trkpt><trkpt lat="39.9330632" lon="9.5999081"><ele>113.0</ele><time>2026-05-03T09:16:52.957Z</time></trkpt><trkpt lat="39.9328303" lon="9.5999857"><ele>113.0</ele><time>2026-05-03T09:16:53.957Z</time></trkpt><trkpt lat="39.9326134" lon="9.6000547"><ele>113.0</ele><time>2026-05-03T09:16:54.957Z</time></trkpt><trkpt lat="39.9324143" lon="9.6001213"><ele>113.0</ele><time>2026-05-03T09:16:55.958Z</time></trkpt><trkpt lat="39.9322301" lon="9.6001832"><ele>112.0</ele><time>2026-05-03T09:16:56.957Z</time></trkpt><trkpt lat="39.9320608" lon="9.600249"><ele>111.0</ele><time>2026-05-03T09:16:57.957Z</time></trkpt><trkpt lat="39.9319112" lon="9.600337"><ele>110.0</ele><time>2026-05-03T09:16:58.957Z</time></trkpt><trkpt lat="39.9317763" lon="9.6004499"><ele>111.66666666666666</ele><time>2026-05-03T09:16:59.957Z</time></trkpt><trkpt lat="39.9316577" lon="9.6005838"><ele>113.33333333333334</ele><time>2026-05-03T09:17:00.957Z</time></trkpt><trkpt lat="39.9315538" lon="9.60075"><ele>115.0</ele><time>2026-05-03T09:17:01.959Z</time></trkpt><trkpt lat="39.9314612" lon="9.6009452"><ele>115.0</ele><time>2026-05-03T09:17:02.958Z</time></trkpt><trkpt lat="39.9313769" lon="9.6011624"><ele>115.0</ele><time>2026-05-03T09:17:03.957Z</time></trkpt><trkpt lat="39.9312936" lon="9.6013946"><ele>115.0</ele><time>2026-05-03T09:17:04.958Z</time></trkpt><trkpt lat="39.9312077" lon="9.6016374"><ele>117.33333333333334</ele><time>2026-05-03T09:17:05.957Z</time></trkpt><trkpt lat="39.9311204" lon="9.6018864"><ele>119.66666666666666</ele><time>2026-05-03T09:17:06.958Z</time></trkpt><trkpt lat="39.9310316" lon="9.6021386"><ele>122.0</ele><time>2026-05-03T09:17:07.958Z</time></trkpt><trkpt lat="39.930947" lon="9.6023702"><ele>121.33333333333333</ele><time>2026-05-03T09:17:08.957Z</time></trkpt><trkpt lat="39.9308679" lon="9.6025929"><ele>120.66666666666666</ele><time>2026-05-03T09:17:09.957Z</time></trkpt><trkpt lat="39.9307926" lon="9.6028157"><ele>120.0</ele><time>2026-05-03T09:17:10.957Z</time></trkpt><trkpt lat="39.9307278" lon="9.6030464"><ele>120.0</ele><time>2026-05-03T09:17:11.957Z</time></trkpt><trkpt lat="39.9306817" lon="9.603289"><ele>120.0</ele><time>2026-05-03T09:17:12.958Z</time></trkpt><trkpt lat="39.9306406" lon="9.6035326"><ele>120.0</ele><time>2026-05-03T09:17:13.957Z</time></trkpt><trkpt lat="39.9305742" lon="9.6037714"><ele>120.0</ele><time>2026-05-03T09:17:14.958Z</time></trkpt><trkpt lat="39.9304811" lon="9.604011"><ele>120.0</ele><time>2026-05-03T09:17:15.958Z</time></trkpt><trkpt lat="39.9303764" lon="9.604243"><ele>120.0</ele><time>2026-05-03T09:17:16.957Z</time></trkpt><trkpt lat="39.9302727" lon="9.6044499"><ele>119.0</ele><time>2026-05-03T09:17:17.957Z</time></trkpt><trkpt lat="39.9301593" lon="9.60463"><ele>118.0</ele><time>2026-05-03T09:17:18.958Z</time></trkpt><trkpt lat="39.9300337" lon="9.6047842"><ele>117.0</ele><time>2026-05-03T09:17:19.957Z</time></trkpt><trkpt lat="39.9299015" lon="9.6049126"><ele>117.0</ele><time>2026-05-03T09:17:20.959Z</time></trkpt><trkpt lat="39.9297783" lon="9.6050282"><ele>117.0</ele><time>2026-05-03T09:17:21.958Z</time></trkpt><trkpt lat="39.929672" lon="9.6051544"><ele>117.0</ele><time>2026-05-03T09:17:22.957Z</time></trkpt><trkpt lat="39.9295836" lon="9.6053061"><ele>117.0</ele><time>2026-05-03T09:17:23.958Z</time></trkpt><trkpt lat="39.9295148" lon="9.6054821"><ele>119.0</ele><time>2026-05-03T09:17:24.958Z</time></trkpt><trkpt lat="39.9294697" lon="9.6056749"><ele>121.0</ele><time>2026-05-03T09:17:25.957Z</time></trkpt><trkpt lat="39.929454" lon="9.6058757"><ele>123.0</ele><time>2026-05-03T09:17:26.957Z</time></trkpt><trkpt lat="39.9294709" lon="9.606081"><ele>120.5</ele><time>2026-05-03T09:17:27.959Z</time></trkpt><trkpt lat="39.929521" lon="9.6062724"><ele>118.0</ele><time>2026-05-03T09:17:28.958Z</time></trkpt><trkpt lat="39.9295902" lon="9.6064413"><ele>115.5</ele><time>2026-05-03T09:17:29.957Z</time></trkpt><trkpt lat="39.9296557" lon="9.6066012"><ele>113.0</ele><time>2026-05-03T09:17:30.958Z</time></trkpt><trkpt lat="39.9297039" lon="9.606767"><ele>113.0</ele><time>2026-05-03T09:17:31.958Z</time></trkpt><trkpt lat="39.9297326" lon="9.6069382"><ele>113.0</ele><time>2026-05-03T09:17:32.957Z</time></trkpt><trkpt lat="39.9297296" lon="9.6071281"><ele>113.0</ele><time>2026-05-03T09:17:33.958Z</time></trkpt><trkpt lat="39.9297084" lon="9.6073337"><ele>113.0</ele><time>2026-05-03T09:17:34.958Z</time></trkpt><trkpt lat="39.929672" lon="9.6075458"><ele>111.33333333333333</ele><time>2026-05-03T09:17:35.958Z</time></trkpt><trkpt lat="39.9296236" lon="9.607776"><ele>109.66666666666666</ele><time>2026-05-03T09:17:36.958Z</time></trkpt><trkpt lat="39.9295788" lon="9.6080202"><ele>108.0</ele><time>2026-05-03T09:17:37.957Z</time></trkpt><trkpt lat="39.9295335" lon="9.6082716"><ele>108.0</ele><time>2026-05-03T09:17:38.958Z</time></trkpt><trkpt lat="39.9294905" lon="9.6085096"><ele>108.0</ele><time>2026-05-03T09:17:39.958Z</time></trkpt><trkpt lat="39.9294534" lon="9.6087426"><ele>108.0</ele><time>2026-05-03T09:17:40.958Z</time></trkpt><trkpt lat="39.9294237" lon="9.6089826"><ele>107.0</ele><time>2026-05-03T09:17:41.957Z</time></trkpt><trkpt lat="39.9294017" lon="9.6092317"><ele>106.0</ele><time>2026-05-03T09:17:42.959Z</time></trkpt><trkpt lat="39.9293882" lon="9.6094936"><ele>105.0</ele><time>2026-05-03T09:17:43.957Z</time></trkpt><trkpt lat="39.929373" lon="9.6097541"><ele>104.33333333333334</ele><time>2026-05-03T09:17:44.958Z</time></trkpt><trkpt lat="39.9293591" lon="9.6099895"><ele>103.66666666666667</ele><time>2026-05-03T09:17:45.957Z</time></trkpt><trkpt lat="39.9293413" lon="9.6102104"><ele>103.0</ele><time>2026-05-03T09:17:46.958Z</time></trkpt><trkpt lat="39.9293184" lon="9.610433"><ele>100.66666666666667</ele><time>2026-05-03T09:17:47.958Z</time></trkpt><trkpt lat="39.9292794" lon="9.6106533"><ele>98.33333333333334</ele><time>2026-05-03T09:17:48.958Z</time></trkpt><trkpt lat="39.9292238" lon="9.6108706"><ele>96.0</ele><time>2026-05-03T09:17:49.958Z</time></trkpt><trkpt lat="39.9291578" lon="9.6110802"><ele>90.0</ele><time>2026-05-03T09:17:50.958Z</time></trkpt><trkpt lat="39.9290869" lon="9.6112872"><ele>84.0</ele><time>2026-05-03T09:17:51.957Z</time></trkpt><trkpt lat="39.9290261" lon="9.6114945"><ele>78.0</ele><time>2026-05-03T09:17:52.958Z</time></trkpt><trkpt lat="39.9289769" lon="9.6117083"><ele>78.0</ele><time>2026-05-03T09:17:53.957Z</time></trkpt><trkpt lat="39.9289424" lon="9.6119352"><ele>78.0</ele><time>2026-05-03T09:17:54.957Z</time></trkpt><trkpt lat="39.9289224" lon="9.612172"><ele>78.0</ele><time>2026-05-03T09:17:55.959Z</time></trkpt><trkpt lat="39.9289125" lon="9.6124173"><ele>76.33333333333333</ele><time>2026-05-03T09:17:56.958Z</time></trkpt><trkpt lat="39.9289127" lon="9.6126693"><ele>74.66666666666666</ele><time>2026-05-03T09:17:57.958Z</time></trkpt><trkpt lat="39.9289161" lon="9.6129256"><ele>73.0</ele><time>2026-05-03T09:17:58.958Z</time></trkpt><trkpt lat="39.9289196" lon="9.6131818"><ele>72.33333333333333</ele><time>2026-05-03T09:17:59.958Z</time></trkpt><trkpt lat="39.9289294" lon="9.6134362"><ele>71.66666666666667</ele><time>2026-05-03T09:18:00.958Z</time></trkpt><trkpt lat="39.9289396" lon="9.6136887"><ele>71.0</ele><time>2026-05-03T09:18:01.958Z</time></trkpt><trkpt lat="39.9289454" lon="9.6139365"><ele>69.66666666666667</ele><time>2026-05-03T09:18:02.958Z</time></trkpt><trkpt lat="39.9289528" lon="9.6141791"><ele>68.33333333333333</ele><time>2026-05-03T09:18:03.957Z</time></trkpt><trkpt lat="39.9289583" lon="9.6144136"><ele>67.0</ele><time>2026-05-03T09:18:04.957Z</time></trkpt><trkpt lat="39.928964" lon="9.614639"><ele>66.66666666666666</ele><time>2026-05-03T09:18:05.957Z</time></trkpt><trkpt lat="39.9289674" lon="9.6148592"><ele>66.33333333333333</ele><time>2026-05-03T09:18:06.958Z</time></trkpt><trkpt lat="39.928974" lon="9.615076"><ele>66.0</ele><time>2026-05-03T09:18:07.958Z</time></trkpt><trkpt lat="39.9289734" lon="9.6152968"><ele>66.66666666666667</ele><time>2026-05-03T09:18:08.957Z</time></trkpt><trkpt lat="39.9289596" lon="9.6155184"><ele>67.33333333333334</ele><time>2026-05-03T09:18:09.957Z</time></trkpt><trkpt lat="39.9289311" lon="9.6157376"><ele>68.0</ele><time>2026-05-03T09:18:10.957Z</time></trkpt><trkpt lat="39.9288944" lon="9.6159512"><ele>70.66666666666667</ele><time>2026-05-03T09:18:11.958Z</time></trkpt><trkpt lat="39.9288516" lon="9.6161677"><ele>73.33333333333333</ele><time>2026-05-03T09:18:12.958Z</time></trkpt><trkpt lat="39.928807" lon="9.6163926"><ele>76.0</ele><time>2026-05-03T09:18:13.957Z</time></trkpt><trkpt lat="39.9287599" lon="9.6166305"><ele>76.0</ele><time>2026-05-03T09:18:14.958Z</time></trkpt><trkpt lat="39.9287118" lon="9.6168785"><ele>76.0</ele><time>2026-05-03T09:18:15.958Z</time></trkpt><trkpt lat="39.9286599" lon="9.617136"><ele>76.0</ele><time>2026-05-03T09:18:16.959Z</time></trkpt><trkpt lat="39.9286054" lon="9.6174055"><ele>77.0</ele><time>2026-05-03T09:18:17.957Z</time></trkpt><trkpt lat="39.9285514" lon="9.617683"><ele>78.0</ele><time>2026-05-03T09:18:18.957Z</time></trkpt><trkpt lat="39.9284962" lon="9.6179671"><ele>79.0</ele><time>2026-05-03T09:18:19.957Z</time></trkpt><trkpt lat="39.9284394" lon="9.6182627"><ele>67.5</ele><time>2026-05-03T09:18:20.957Z</time></trkpt><trkpt lat="39.9283793" lon="9.6185689"><ele>56.0</ele><time>2026-05-03T09:18:21.957Z</time></trkpt><trkpt lat="39.9283179" lon="9.6188887"><ele>55.0</ele><time>2026-05-03T09:18:22.957Z</time></trkpt><trkpt lat="39.9282513" lon="9.6192175"><ele>54.0</ele><time>2026-05-03T09:18:23.957Z</time></trkpt><trkpt lat="39.9281829" lon="9.6195501"><ele>53.5</ele><time>2026-05-03T09:18:24.958Z</time></trkpt><trkpt lat="39.9281157" lon="9.6198866"><ele>53.0</ele><time>2026-05-03T09:18:25.958Z</time></trkpt><trkpt lat="39.9280485" lon="9.6202133"><ele>54.0</ele><time>2026-05-03T09:18:26.957Z</time></trkpt><trkpt lat="39.9279878" lon="9.6205135"><ele>55.0</ele><time>2026-05-03T09:18:27.957Z</time></trkpt><trkpt lat="39.9279303" lon="9.6207931"><ele>55.0</ele><time>2026-05-03T09:18:28.957Z</time></trkpt><trkpt lat="39.9278738" lon="9.6210668"><ele>55.0</ele><time>2026-05-03T09:18:29.959Z</time></trkpt><trkpt lat="39.9278177" lon="9.6213392"><ele>55.0</ele><time>2026-05-03T09:18:30.957Z</time></trkpt><trkpt lat="39.9277613" lon="9.6216171"><ele>55.0</ele><time>2026-05-03T09:18:31.958Z</time></trkpt><trkpt lat="39.927705" lon="9.6218986"><ele>55.0</ele><time>2026-05-03T09:18:32.956Z</time></trkpt><trkpt lat="39.9276511" lon="9.6221893"><ele>55.0</ele><time>2026-05-03T09:18:33.956Z</time></trkpt><trkpt lat="39.9276013" lon="9.6224894"><ele>55.0</ele><time>2026-05-03T09:18:34.956Z</time></trkpt><trkpt lat="39.9275509" lon="9.6227955"><ele>49.5</ele><time>2026-05-03T09:18:35.957Z</time></trkpt><trkpt lat="39.9275034" lon="9.6231051"><ele>44.0</ele><time>2026-05-03T09:18:36.957Z</time></trkpt><trkpt lat="39.9274546" lon="9.623418"><ele>44.0</ele><time>2026-05-03T09:18:37.957Z</time></trkpt><trkpt lat="39.9274064" lon="9.6237183"><ele>44.0</ele><time>2026-05-03T09:18:38.956Z</time></trkpt><trkpt lat="39.927348" lon="9.6240261"><ele>44.0</ele><time>2026-05-03T09:18:39.957Z</time></trkpt><trkpt lat="39.9272738" lon="9.6243419"><ele>44.0</ele><time>2026-05-03T09:18:40.956Z</time></trkpt><trkpt lat="39.9271917" lon="9.6246616"><ele>45.0</ele><time>2026-05-03T09:18:41.957Z</time></trkpt><trkpt lat="39.92711" lon="9.6249659"><ele>46.0</ele><time>2026-05-03T09:18:42.957Z</time></trkpt><trkpt lat="39.9270337" lon="9.6252427"><ele>46.0</ele><time>2026-05-03T09:18:43.956Z</time></trkpt><trkpt lat="39.9269697" lon="9.6254814"><ele>46.0</ele><time>2026-05-03T09:18:44.956Z</time></trkpt><trkpt lat="39.9269143" lon="9.6256886"><ele>46.0</ele><time>2026-05-03T09:18:45.956Z</time></trkpt><trkpt lat="39.9268624" lon="9.6258761"><ele>46.0</ele><time>2026-05-03T09:18:46.957Z</time></trkpt><trkpt lat="39.9268058" lon="9.6260438"><ele>46.0</ele><time>2026-05-03T09:18:47.956Z</time></trkpt><trkpt lat="39.9267373" lon="9.6261912"><ele>46.0</ele><time>2026-05-03T09:18:48.956Z</time></trkpt><trkpt lat="39.9266479" lon="9.6263214"><ele>46.0</ele><time>2026-05-03T09:18:49.957Z</time></trkpt><trkpt lat="39.9265321" lon="9.6264316"><ele>44.66666666666667</ele><time>2026-05-03T09:18:50.957Z</time></trkpt><trkpt lat="39.9263925" lon="9.6265238"><ele>43.333333333333336</ele><time>2026-05-03T09:18:51.957Z</time></trkpt><trkpt lat="39.9262427" lon="9.6266139"><ele>42.0</ele><time>2026-05-03T09:18:52.956Z</time></trkpt><trkpt lat="39.9260868" lon="9.6267067"><ele>42.0</ele><time>2026-05-03T09:18:53.956Z</time></trkpt><trkpt lat="39.9259225" lon="9.6268079"><ele>42.0</ele><time>2026-05-03T09:18:54.958Z</time></trkpt><trkpt lat="39.9257665" lon="9.626907"><ele>42.0</ele><time>2026-05-03T09:18:55.957Z</time></trkpt><trkpt lat="39.9256194" lon="9.6269957"><ele>41.75</ele><time>2026-05-03T09:18:56.957Z</time></trkpt><trkpt lat="39.9254825" lon="9.627076"><ele>41.5</ele><time>2026-05-03T09:18:57.956Z</time></trkpt><trkpt lat="39.9253547" lon="9.6271459"><ele>41.25</ele><time>2026-05-03T09:18:58.956Z</time></trkpt><trkpt lat="39.9252308" lon="9.6271968"><ele>41.0</ele><time>2026-05-03T09:18:59.956Z</time></trkpt><trkpt lat="39.9251126" lon="9.6272192"><ele>40.0</ele><time>2026-05-03T09:19:00.957Z</time></trkpt><trkpt lat="39.9250011" lon="9.6272178"><ele>39.0</ele><time>2026-05-03T09:19:01.956Z</time></trkpt><trkpt lat="39.9248997" lon="9.6272109"><ele>38.0</ele><time>2026-05-03T09:19:02.958Z</time></trkpt><trkpt lat="39.9248145" lon="9.6272197"><ele>37.0</ele><time>2026-05-03T09:19:03.958Z</time></trkpt><trkpt lat="39.924744" lon="9.6272482"><ele>36.0</ele><time>2026-05-03T09:19:04.957Z</time></trkpt><trkpt lat="39.9246889" lon="9.627288"><ele>35.0</ele><time>2026-05-03T09:19:05.958Z</time></trkpt><trkpt lat="39.9246349" lon="9.6274488"><ele>35.0</ele><time>2026-05-03T09:19:07.956Z</time></trkpt><trkpt lat="39.9246303" lon="9.6275754"><ele>35.0</ele><time>2026-05-03T09:19:08.957Z</time></trkpt><trkpt lat="39.9246314" lon="9.6277356"><ele>35.0</ele><time>2026-05-03T09:19:09.956Z</time></trkpt><trkpt lat="39.9246008" lon="9.627909"><ele>35.0</ele><time>2026-05-03T09:19:10.958Z</time></trkpt><trkpt lat="39.9245317" lon="9.6280847"><ele>35.0</ele><time>2026-05-03T09:19:11.956Z</time></trkpt><trkpt lat="39.9244341" lon="9.6282618"><ele>35.0</ele><time>2026-05-03T09:19:12.957Z</time></trkpt><trkpt lat="39.9243278" lon="9.6284413"><ele>35.0</ele><time>2026-05-03T09:19:13.957Z</time></trkpt><trkpt lat="39.9242178" lon="9.6286484"><ele>35.0</ele><time>2026-05-03T09:19:14.956Z</time></trkpt><trkpt lat="39.9241101" lon="9.6288747"><ele>35.0</ele><time>2026-05-03T09:19:15.958Z</time></trkpt><trkpt lat="39.9240055" lon="9.6291116"><ele>35.0</ele><time>2026-05-03T09:19:16.957Z</time></trkpt><trkpt lat="39.92391" lon="9.6293478"><ele>35.0</ele><time>2026-05-03T09:19:17.956Z</time></trkpt><trkpt lat="39.9238304" lon="9.6295745"><ele>35.0</ele><time>2026-05-03T09:19:18.957Z</time></trkpt><trkpt lat="39.923762" lon="9.629821"><ele>35.0</ele><time>2026-05-03T09:19:19.956Z</time></trkpt><trkpt lat="39.9237011" lon="9.6300897"><ele>35.33333333333333</ele><time>2026-05-03T09:19:20.957Z</time></trkpt><trkpt lat="39.9236428" lon="9.6303739"><ele>35.666666666666664</ele><time>2026-05-03T09:19:21.957Z</time></trkpt><trkpt lat="39.9235893" lon="9.6306323"><ele>36.0</ele><time>2026-05-03T09:19:22.957Z</time></trkpt><trkpt lat="39.923539" lon="9.6308713"><ele>36.0</ele><time>2026-05-03T09:19:23.957Z</time></trkpt><trkpt lat="39.9234957" lon="9.6310739"><ele>36.0</ele><time>2026-05-03T09:19:24.956Z</time></trkpt><trkpt lat="39.9234589" lon="9.6312619"><ele>36.0</ele><time>2026-05-03T09:19:25.957Z</time></trkpt><trkpt lat="39.9234343" lon="9.6314339"><ele>36.0</ele><time>2026-05-03T09:19:26.957Z</time></trkpt><trkpt lat="39.9234299" lon="9.6316023"><ele>36.5</ele><time>2026-05-03T09:19:27.956Z</time></trkpt><trkpt lat="39.9234546" lon="9.6317713"><ele>37.0</ele><time>2026-05-03T09:19:28.956Z</time></trkpt><trkpt lat="39.9235027" lon="9.6319317"><ele>37.5</ele><time>2026-05-03T09:19:29.956Z</time></trkpt><trkpt lat="39.9235833" lon="9.6320811"><ele>38.0</ele><time>2026-05-03T09:19:30.956Z</time></trkpt><trkpt lat="39.9236958" lon="9.6322168"><ele>36.0</ele><time>2026-05-03T09:19:31.957Z</time></trkpt><trkpt lat="39.92384" lon="9.6323358"><ele>34.0</ele><time>2026-05-03T09:19:32.957Z</time></trkpt><trkpt lat="39.9240014" lon="9.6324525"><ele>32.0</ele><time>2026-05-03T09:19:33.957Z</time></trkpt><trkpt lat="39.9241726" lon="9.632576"><ele>30.666666666666664</ele><time>2026-05-03T09:19:34.956Z</time></trkpt><trkpt lat="39.9243546" lon="9.6327094"><ele>29.333333333333336</ele><time>2026-05-03T09:19:35.956Z</time></trkpt><trkpt lat="39.924545" lon="9.6328449"><ele>28.0</ele><time>2026-05-03T09:19:36.956Z</time></trkpt><trkpt lat="39.9247406" lon="9.6329776"><ele>28.0</ele><time>2026-05-03T09:19:37.956Z</time></trkpt><trkpt lat="39.9249184" lon="9.6330897"><ele>28.0</ele><time>2026-05-03T09:19:38.958Z</time></trkpt><trkpt lat="39.9250898" lon="9.6331823"><ele>28.0</ele><time>2026-05-03T09:19:39.957Z</time></trkpt><trkpt lat="39.9252546" lon="9.633262"><ele>33.0</ele><time>2026-05-03T09:19:40.956Z</time></trkpt><trkpt lat="39.9254009" lon="9.6333467"><ele>38.0</ele><time>2026-05-03T09:19:41.957Z</time></trkpt><trkpt lat="39.9255335" lon="9.6334512"><ele>43.0</ele><time>2026-05-03T09:19:42.956Z</time></trkpt><trkpt lat="39.9256583" lon="9.6335798"><ele>39.0</ele><time>2026-05-03T09:19:43.957Z</time></trkpt><trkpt lat="39.925772" lon="9.6337242"><ele>35.0</ele><time>2026-05-03T09:19:44.957Z</time></trkpt><trkpt lat="39.9258876" lon="9.6338652"><ele>31.0</ele><time>2026-05-03T09:19:45.956Z</time></trkpt><trkpt lat="39.9260136" lon="9.6339955"><ele>31.0</ele><time>2026-05-03T09:19:46.956Z</time></trkpt><trkpt lat="39.9261441" lon="9.6341124"><ele>31.0</ele><time>2026-05-03T09:19:47.957Z</time></trkpt><trkpt lat="39.9262806" lon="9.6342085"><ele>31.0</ele><time>2026-05-03T09:19:48.956Z</time></trkpt><trkpt lat="39.9264161" lon="9.6342885"><ele>31.0</ele><time>2026-05-03T09:19:49.957Z</time></trkpt><trkpt lat="39.9265441" lon="9.6343595"><ele>31.0</ele><time>2026-05-03T09:19:50.957Z</time></trkpt><trkpt lat="39.92666" lon="9.6344134"><ele>31.0</ele><time>2026-05-03T09:19:51.957Z</time></trkpt><trkpt lat="39.9267652" lon="9.6344748"><ele>31.0</ele><time>2026-05-03T09:19:52.957Z</time></trkpt><trkpt lat="39.9268571" lon="9.6345578"><ele>32.2</ele><time>2026-05-03T09:19:53.956Z</time></trkpt><trkpt lat="39.9269263" lon="9.6346625"><ele>33.400000000000006</ele><time>2026-05-03T09:19:54.956Z</time></trkpt><trkpt lat="39.9269788" lon="9.6347839"><ele>34.6</ele><time>2026-05-03T09:19:55.956Z</time></trkpt><trkpt lat="39.9269968" lon="9.6349275"><ele>35.800000000000004</ele><time>2026-05-03T09:19:56.956Z</time></trkpt><trkpt lat="39.9270038" lon="9.6350814"><ele>37.0</ele><time>2026-05-03T09:19:57.957Z</time></trkpt><trkpt lat="39.927005" lon="9.635253"><ele>38.333333333333336</ele><time>2026-05-03T09:19:58.956Z</time></trkpt><trkpt lat="39.927005" lon="9.6354373"><ele>39.666666666666664</ele><time>2026-05-03T09:19:59.957Z</time></trkpt><trkpt lat="39.9270112" lon="9.6356384"><ele>41.0</ele><time>2026-05-03T09:20:00.956Z</time></trkpt><trkpt lat="39.927018" lon="9.6358629"><ele>41.0</ele><time>2026-05-03T09:20:01.956Z</time></trkpt><trkpt lat="39.9270214" lon="9.6360957"><ele>41.0</ele><time>2026-05-03T09:20:02.958Z</time></trkpt><trkpt lat="39.9270257" lon="9.6363365"><ele>41.0</ele><time>2026-05-03T09:20:03.956Z</time></trkpt><trkpt lat="39.9270279" lon="9.6365798"><ele>41.0</ele><time>2026-05-03T09:20:04.957Z</time></trkpt><trkpt lat="39.9270291" lon="9.6368261"><ele>41.0</ele><time>2026-05-03T09:20:05.956Z</time></trkpt><trkpt lat="39.9270306" lon="9.6370717"><ele>41.0</ele><time>2026-05-03T09:20:06.957Z</time></trkpt><trkpt lat="39.9270356" lon="9.6372954"><ele>41.0</ele><time>2026-05-03T09:20:07.957Z</time></trkpt><trkpt lat="39.9270362" lon="9.6375108"><ele>41.0</ele><time>2026-05-03T09:20:08.957Z</time></trkpt><trkpt lat="39.927017" lon="9.6377297"><ele>41.0</ele><time>2026-05-03T09:20:09.957Z</time></trkpt><trkpt lat="39.9269731" lon="9.6379487"><ele>44.666666666666664</ele><time>2026-05-03T09:20:10.957Z</time></trkpt><trkpt lat="39.9269014" lon="9.6381713"><ele>48.33333333333333</ele><time>2026-05-03T09:20:11.957Z</time></trkpt><trkpt lat="39.9268124" lon="9.6383962"><ele>52.0</ele><time>2026-05-03T09:20:12.956Z</time></trkpt><trkpt lat="39.9266987" lon="9.6386207"><ele>48.666666666666664</ele><time>2026-05-03T09:20:13.956Z</time></trkpt><trkpt lat="39.9265644" lon="9.6388328"><ele>45.33333333333333</ele><time>2026-05-03T09:20:14.958Z</time></trkpt><trkpt lat="39.9264056" lon="9.6390346"><ele>42.0</ele><time>2026-05-03T09:20:15.956Z</time></trkpt><trkpt lat="39.9262257" lon="9.6392322"><ele>42.0</ele><time>2026-05-03T09:20:16.956Z</time></trkpt><trkpt lat="39.9260419" lon="9.6394298"><ele>42.0</ele><time>2026-05-03T09:20:17.957Z</time></trkpt><trkpt lat="39.9258596" lon="9.6396269"><ele>40.666666666666664</ele><time>2026-05-03T09:20:18.956Z</time></trkpt><trkpt lat="39.9256918" lon="9.6398121"><ele>39.33333333333333</ele><time>2026-05-03T09:20:19.957Z</time></trkpt><trkpt lat="39.9255286" lon="9.6399986"><ele>38.0</ele><time>2026-05-03T09:20:20.956Z</time></trkpt><trkpt lat="39.9253667" lon="9.6401878"><ele>37.0</ele><time>2026-05-03T09:20:21.957Z</time></trkpt><trkpt lat="39.9252088" lon="9.6403778"><ele>36.0</ele><time>2026-05-03T09:20:22.956Z</time></trkpt><trkpt lat="39.9250519" lon="9.6405753"><ele>35.0</ele><time>2026-05-03T09:20:23.957Z</time></trkpt><trkpt lat="39.9249002" lon="9.6407846"><ele>35.0</ele><time>2026-05-03T09:20:24.957Z</time></trkpt><trkpt lat="39.9247556" lon="9.6410077"><ele>35.0</ele><time>2026-05-03T09:20:25.957Z</time></trkpt><trkpt lat="39.9246119" lon="9.6412453"><ele>42.0</ele><time>2026-05-03T09:20:26.957Z</time></trkpt><trkpt lat="39.9244586" lon="9.6414885"><ele>49.0</ele><time>2026-05-03T09:20:27.956Z</time></trkpt><trkpt lat="39.9242935" lon="9.6417226"><ele>45.0</ele><time>2026-05-03T09:20:28.956Z</time></trkpt><trkpt lat="39.9241232" lon="9.6419434"><ele>41.0</ele><time>2026-05-03T09:20:29.956Z</time></trkpt><trkpt lat="39.9239608" lon="9.6421432"><ele>41.0</ele><time>2026-05-03T09:20:30.956Z</time></trkpt><trkpt lat="39.923813" lon="9.6423195"><ele>41.0</ele><time>2026-05-03T09:20:31.958Z</time></trkpt><trkpt lat="39.9236799" lon="9.6424789"><ele>41.0</ele><time>2026-05-03T09:20:32.956Z</time></trkpt><trkpt lat="39.923567" lon="9.6426226"><ele>41.0</ele><time>2026-05-03T09:20:33.956Z</time></trkpt><trkpt lat="39.9234699" lon="9.6427483"><ele>41.0</ele><time>2026-05-03T09:20:34.957Z</time></trkpt><trkpt lat="39.9233934" lon="9.6428742"><ele>41.0</ele><time>2026-05-03T09:20:35.958Z</time></trkpt><trkpt lat="39.9233407" lon="9.6430088"><ele>41.0</ele><time>2026-05-03T09:20:36.956Z</time></trkpt><trkpt lat="39.9233143" lon="9.6431603"><ele>36.75</ele><time>2026-05-03T09:20:37.956Z</time></trkpt><trkpt lat="39.9233237" lon="9.6433241"><ele>32.5</ele><time>2026-05-03T09:20:38.958Z</time></trkpt><trkpt lat="39.9233592" lon="9.6434959"><ele>28.25</ele><time>2026-05-03T09:20:39.956Z</time></trkpt><trkpt lat="39.9233987" lon="9.6436766"><ele>24.0</ele><time>2026-05-03T09:20:40.957Z</time></trkpt><trkpt lat="39.9234572" lon="9.6438669"><ele>24.0</ele><time>2026-05-03T09:20:41.956Z</time></trkpt><trkpt lat="39.9235111" lon="9.6440585"><ele>24.0</ele><time>2026-05-03T09:20:42.958Z</time></trkpt><trkpt lat="39.9235635" lon="9.6442492"><ele>24.0</ele><time>2026-05-03T09:20:43.957Z</time></trkpt><trkpt lat="39.9236179" lon="9.6444472"><ele>23.333333333333332</ele><time>2026-05-03T09:20:44.956Z</time></trkpt><trkpt lat="39.9236744" lon="9.6446439"><ele>22.666666666666664</ele><time>2026-05-03T09:20:45.957Z</time></trkpt><trkpt lat="39.9237315" lon="9.6448399"><ele>22.0</ele><time>2026-05-03T09:20:46.956Z</time></trkpt><trkpt lat="39.9237894" lon="9.645036"><ele>22.0</ele><time>2026-05-03T09:20:47.956Z</time></trkpt><trkpt lat="39.9238451" lon="9.6452316"><ele>22.0</ele><time>2026-05-03T09:20:48.957Z</time></trkpt><trkpt lat="39.9238973" lon="9.6454297"><ele>22.0</ele><time>2026-05-03T09:20:49.956Z</time></trkpt><trkpt lat="39.9239472" lon="9.6456268"><ele>21.666666666666664</ele><time>2026-05-03T09:20:50.957Z</time></trkpt><trkpt lat="39.9239997" lon="9.6458186"><ele>21.333333333333332</ele><time>2026-05-03T09:20:51.956Z</time></trkpt><trkpt lat="39.9240533" lon="9.6460073"><ele>21.0</ele><time>2026-05-03T09:20:52.957Z</time></trkpt><trkpt lat="39.9241035" lon="9.6461936"><ele>20.75</ele><time>2026-05-03T09:20:53.957Z</time></trkpt><trkpt lat="39.9241568" lon="9.6463764"><ele>20.5</ele><time>2026-05-03T09:20:54.958Z</time></trkpt><trkpt lat="39.9242056" lon="9.6465518"><ele>20.25</ele><time>2026-05-03T09:20:55.957Z</time></trkpt><trkpt lat="39.9242528" lon="9.6467146"><ele>20.0</ele><time>2026-05-03T09:20:56.956Z</time></trkpt><trkpt lat="39.9242956" lon="9.6468643"><ele>21.0</ele><time>2026-05-03T09:20:57.957Z</time></trkpt><trkpt lat="39.9243333" lon="9.6470071"><ele>22.0</ele><time>2026-05-03T09:20:58.956Z</time></trkpt><trkpt lat="39.9243721" lon="9.6471486"><ele>23.0</ele><time>2026-05-03T09:20:59.956Z</time></trkpt><trkpt lat="39.9244107" lon="9.6472876"><ele>24.0</ele><time>2026-05-03T09:21:00.956Z</time></trkpt><trkpt lat="39.9244502" lon="9.6474254"><ele>24.0</ele><time>2026-05-03T09:21:01.956Z</time></trkpt><trkpt lat="39.9244873" lon="9.6475505"><ele>24.0</ele><time>2026-05-03T09:21:02.957Z</time></trkpt><trkpt lat="39.9245189" lon="9.6476692"><ele>24.0</ele><time>2026-05-03T09:21:03.957Z</time></trkpt><trkpt lat="39.9245497" lon="9.6477749"><ele>24.0</ele><time>2026-05-03T09:21:04.957Z</time></trkpt><trkpt lat="39.9245893" lon="9.6478649"><ele>24.0</ele><time>2026-05-03T09:21:05.956Z</time></trkpt><trkpt lat="39.9246443" lon="9.6479299"><ele>24.0</ele><time>2026-05-03T09:21:06.956Z</time></trkpt><trkpt lat="39.9247119" lon="9.647958"><ele>24.0</ele><time>2026-05-03T09:21:07.957Z</time></trkpt><trkpt lat="39.924779" lon="9.6479551"><ele>24.0</ele><time>2026-05-03T09:21:08.957Z</time></trkpt><trkpt lat="39.9248433" lon="9.6479254"><ele>24.0</ele><time>2026-05-03T09:21:09.956Z</time></trkpt><trkpt lat="39.9249101" lon="9.6478651"><ele>24.0</ele><time>2026-05-03T09:21:10.956Z</time></trkpt><trkpt lat="39.9249864" lon="9.6477905"><ele>24.0</ele><time>2026-05-03T09:21:11.957Z</time></trkpt><trkpt lat="39.9250741" lon="9.64771"><ele>24.0</ele><time>2026-05-03T09:21:12.956Z</time></trkpt><trkpt lat="39.9251649" lon="9.6476262"><ele>24.0</ele><time>2026-05-03T09:21:13.956Z</time></trkpt><trkpt lat="39.9252582" lon="9.6475397"><ele>24.0</ele><time>2026-05-03T09:21:14.957Z</time></trkpt><trkpt lat="39.925348" lon="9.6474544"><ele>24.0</ele><time>2026-05-03T09:21:15.957Z</time></trkpt><trkpt lat="39.9254389" lon="9.6473831"><ele>24.0</ele><time>2026-05-03T09:21:16.956Z</time></trkpt><trkpt lat="39.9255365" lon="9.647325"><ele>24.0</ele><time>2026-05-03T09:21:17.956Z</time></trkpt><trkpt lat="39.9256442" lon="9.6472761"><ele>24.0</ele><time>2026-05-03T09:21:18.957Z</time></trkpt><trkpt lat="39.9257653" lon="9.6472248"><ele>24.0</ele><time>2026-05-03T09:21:19.957Z</time></trkpt><trkpt lat="39.9258966" lon="9.6471696"><ele>24.0</ele><time>2026-05-03T09:21:20.957Z</time></trkpt><trkpt lat="39.9260396" lon="9.6471176"><ele>24.0</ele><time>2026-05-03T09:21:21.957Z</time></trkpt><trkpt lat="39.9261933" lon="9.6470654"><ele>24.0</ele><time>2026-05-03T09:21:22.956Z</time></trkpt><trkpt lat="39.9263593" lon="9.6470115"><ele>24.0</ele><time>2026-05-03T09:21:23.956Z</time></trkpt><trkpt lat="39.9265388" lon="9.6469542"><ele>24.0</ele><time>2026-05-03T09:21:24.957Z</time></trkpt><trkpt lat="39.9267253" lon="9.6468929"><ele>25.333333333333336</ele><time>2026-05-03T09:21:25.957Z</time></trkpt><trkpt lat="39.9269169" lon="9.6468296"><ele>26.666666666666668</ele><time>2026-05-03T09:21:26.957Z</time></trkpt><trkpt lat="39.9271109" lon="9.6467655"><ele>28.0</ele><time>2026-05-03T09:21:27.956Z</time></trkpt><trkpt lat="39.9273064" lon="9.6467051"><ele>28.0</ele><time>2026-05-03T09:21:28.957Z</time></trkpt><trkpt lat="39.9275069" lon="9.6466394"><ele>28.0</ele><time>2026-05-03T09:21:29.956Z</time></trkpt><trkpt lat="39.9277158" lon="9.6465694"><ele>28.0</ele><time>2026-05-03T09:21:30.956Z</time></trkpt><trkpt lat="39.9279338" lon="9.6464984"><ele>28.0</ele><time>2026-05-03T09:21:31.956Z</time></trkpt><trkpt lat="39.9281576" lon="9.646431"><ele>28.0</ele><time>2026-05-03T09:21:32.957Z</time></trkpt><trkpt lat="39.9283884" lon="9.6463638"><ele>28.5</ele><time>2026-05-03T09:21:33.957Z</time></trkpt><trkpt lat="39.9286229" lon="9.6463073"><ele>29.0</ele><time>2026-05-03T09:21:34.956Z</time></trkpt><trkpt lat="39.9288709" lon="9.6462606"><ele>29.0</ele><time>2026-05-03T09:21:35.957Z</time></trkpt><trkpt lat="39.929125" lon="9.6462216"><ele>29.0</ele><time>2026-05-03T09:21:36.956Z</time></trkpt><trkpt lat="39.9293882" lon="9.6461935"><ele>30.5</ele><time>2026-05-03T09:21:37.958Z</time></trkpt><trkpt lat="39.9296662" lon="9.6461865"><ele>32.0</ele><time>2026-05-03T09:21:38.956Z</time></trkpt><trkpt lat="39.9299531" lon="9.6462026"><ele>31.0</ele><time>2026-05-03T09:21:39.956Z</time></trkpt><trkpt lat="39.9302472" lon="9.6462306"><ele>30.0</ele><time>2026-05-03T09:21:40.957Z</time></trkpt><trkpt lat="39.9305502" lon="9.646267"><ele>30.0</ele><time>2026-05-03T09:21:41.956Z</time></trkpt><trkpt lat="39.93086" lon="9.6463087"><ele>30.0</ele><time>2026-05-03T09:21:42.957Z</time></trkpt><trkpt lat="39.9311709" lon="9.6463554"><ele>30.0</ele><time>2026-05-03T09:21:43.956Z</time></trkpt><trkpt lat="39.9314715" lon="9.6463997"><ele>30.0</ele><time>2026-05-03T09:21:44.957Z</time></trkpt><trkpt lat="39.9317646" lon="9.6464423"><ele>28.5</ele><time>2026-05-03T09:21:45.956Z</time></trkpt><trkpt lat="39.9320498" lon="9.6464814"><ele>27.0</ele><time>2026-05-03T09:21:46.957Z</time></trkpt><trkpt lat="39.9323293" lon="9.6465183"><ele>27.0</ele><time>2026-05-03T09:21:47.956Z</time></trkpt><trkpt lat="39.932606" lon="9.6465545"><ele>27.0</ele><time>2026-05-03T09:21:48.956Z</time></trkpt><trkpt lat="39.9328835" lon="9.6465912"><ele>27.0</ele><time>2026-05-03T09:21:49.957Z</time></trkpt><trkpt lat="39.9331645" lon="9.6466292"><ele>27.0</ele><time>2026-05-03T09:21:50.957Z</time></trkpt><trkpt lat="39.9334349" lon="9.6466661"><ele>27.5</ele><time>2026-05-03T09:21:51.956Z</time></trkpt><trkpt lat="39.9336976" lon="9.6467045"><ele>28.0</ele><time>2026-05-03T09:21:52.957Z</time></trkpt><trkpt lat="39.9339472" lon="9.6467398"><ele>28.0</ele><time>2026-05-03T09:21:53.956Z</time></trkpt><trkpt lat="39.934192" lon="9.6467716"><ele>28.0</ele><time>2026-05-03T09:21:54.957Z</time></trkpt><trkpt lat="39.9344335" lon="9.6468036"><ele>28.5</ele><time>2026-05-03T09:21:55.957Z</time></trkpt><trkpt lat="39.9346736" lon="9.6468367"><ele>29.0</ele><time>2026-05-03T09:21:56.956Z</time></trkpt><trkpt lat="39.9349175" lon="9.6468719"><ele>29.5</ele><time>2026-05-03T09:21:57.957Z</time></trkpt><trkpt lat="39.9351593" lon="9.6469057"><ele>30.0</ele><time>2026-05-03T09:21:58.957Z</time></trkpt><trkpt lat="39.9353986" lon="9.6469401"><ele>27.5</ele><time>2026-05-03T09:21:59.956Z</time></trkpt><trkpt lat="39.935631" lon="9.6469745"><ele>25.0</ele><time>2026-05-03T09:22:00.956Z</time></trkpt><trkpt lat="39.9358555" lon="9.6470069"><ele>24.666666666666668</ele><time>2026-05-03T09:22:01.956Z</time></trkpt><trkpt lat="39.9360721" lon="9.6470364"><ele>24.333333333333336</ele><time>2026-05-03T09:22:02.956Z</time></trkpt><trkpt lat="39.9362903" lon="9.6470691"><ele>24.0</ele><time>2026-05-03T09:22:03.956Z</time></trkpt><trkpt lat="39.9365159" lon="9.6471013"><ele>24.5</ele><time>2026-05-03T09:22:04.957Z</time></trkpt><trkpt lat="39.9367495" lon="9.6471334"><ele>25.0</ele><time>2026-05-03T09:22:05.956Z</time></trkpt><trkpt lat="39.9369969" lon="9.6471669"><ele>25.0</ele><time>2026-05-03T09:22:06.957Z</time></trkpt><trkpt lat="39.9372477" lon="9.6472025"><ele>25.0</ele><time>2026-05-03T09:22:07.956Z</time></trkpt><trkpt lat="39.9374851" lon="9.647235"><ele>25.5</ele><time>2026-05-03T09:22:08.957Z</time></trkpt><trkpt lat="39.9377163" lon="9.6472701"><ele>26.0</ele><time>2026-05-03T09:22:09.957Z</time></trkpt><trkpt lat="39.9379431" lon="9.647306"><ele>26.0</ele><time>2026-05-03T09:22:10.956Z</time></trkpt><trkpt lat="39.9381671" lon="9.6473386"><ele>26.0</ele><time>2026-05-03T09:22:11.957Z</time></trkpt><trkpt lat="39.9383918" lon="9.6473688"><ele>26.0</ele><time>2026-05-03T09:22:12.957Z</time></trkpt><trkpt lat="39.9386178" lon="9.6473999"><ele>26.0</ele><time>2026-05-03T09:22:13.956Z</time></trkpt><trkpt lat="39.9388419" lon="9.6474335"><ele>26.0</ele><time>2026-05-03T09:22:14.956Z</time></trkpt><trkpt lat="39.9390633" lon="9.6474661"><ele>26.0</ele><time>2026-05-03T09:22:15.956Z</time></trkpt><trkpt lat="39.9392824" lon="9.6474974"><ele>26.0</ele><time>2026-05-03T09:22:16.956Z</time></trkpt><trkpt lat="39.9395005" lon="9.647528"><ele>26.0</ele><time>2026-05-03T09:22:17.956Z</time></trkpt><trkpt lat="39.9397198" lon="9.6475592"><ele>26.0</ele><time>2026-05-03T09:22:18.956Z</time></trkpt><trkpt lat="39.939939" lon="9.6475905"><ele>26.0</ele><time>2026-05-03T09:22:19.956Z</time></trkpt><trkpt lat="39.9401546" lon="9.6476201"><ele>26.0</ele><time>2026-05-03T09:22:20.957Z</time></trkpt><trkpt lat="39.9403736" lon="9.647648"><ele>26.0</ele><time>2026-05-03T09:22:21.956Z</time></trkpt><trkpt lat="39.9405947" lon="9.647683"><ele>26.0</ele><time>2026-05-03T09:22:22.956Z</time></trkpt><trkpt lat="39.9408164" lon="9.6477176"><ele>25.5</ele><time>2026-05-03T09:22:23.957Z</time></trkpt><trkpt lat="39.9410414" lon="9.6477538"><ele>25.0</ele><time>2026-05-03T09:22:24.956Z</time></trkpt><trkpt lat="39.9412679" lon="9.6477883"><ele>24.5</ele><time>2026-05-03T09:22:25.956Z</time></trkpt><trkpt lat="39.9414948" lon="9.6478186"><ele>24.0</ele><time>2026-05-03T09:22:26.956Z</time></trkpt><trkpt lat="39.9417209" lon="9.6478513"><ele>24.0</ele><time>2026-05-03T09:22:27.956Z</time></trkpt><trkpt lat="39.9419495" lon="9.6478834"><ele>24.0</ele><time>2026-05-03T09:22:28.956Z</time></trkpt><trkpt lat="39.9421871" lon="9.6479161"><ele>24.0</ele><time>2026-05-03T09:22:29.956Z</time></trkpt><trkpt lat="39.9424304" lon="9.6479487"><ele>24.0</ele><time>2026-05-03T09:22:30.957Z</time></trkpt><trkpt lat="39.9426759" lon="9.6479805"><ele>24.0</ele><time>2026-05-03T09:22:31.957Z</time></trkpt><trkpt lat="39.9429249" lon="9.6480148"><ele>24.0</ele><time>2026-05-03T09:22:32.956Z</time></trkpt><trkpt lat="39.9431747" lon="9.6480514"><ele>22.5</ele><time>2026-05-03T09:22:33.957Z</time></trkpt><trkpt lat="39.9434253" lon="9.6480898"><ele>21.0</ele><time>2026-05-03T09:22:34.957Z</time></trkpt><trkpt lat="39.9436802" lon="9.6481296"><ele>21.0</ele><time>2026-05-03T09:22:35.956Z</time></trkpt><trkpt lat="39.9439413" lon="9.6481683"><ele>21.0</ele><time>2026-05-03T09:22:36.957Z</time></trkpt><trkpt lat="39.9442103" lon="9.6482049"><ele>20.5</ele><time>2026-05-03T09:22:37.957Z</time></trkpt><trkpt lat="39.9444853" lon="9.6482404"><ele>20.0</ele><time>2026-05-03T09:22:38.957Z</time></trkpt><trkpt lat="39.944761" lon="9.6482752"><ele>20.0</ele><time>2026-05-03T09:22:39.957Z</time></trkpt><trkpt lat="39.9450264" lon="9.6483086"><ele>20.0</ele><time>2026-05-03T09:22:40.956Z</time></trkpt><trkpt lat="39.9452787" lon="9.6483424"><ele>19.0</ele><time>2026-05-03T09:22:41.956Z</time></trkpt><trkpt lat="39.9455238" lon="9.6483791"><ele>18.0</ele><time>2026-05-03T09:22:42.957Z</time></trkpt><trkpt lat="39.9457596" lon="9.6484129"><ele>19.0</ele><time>2026-05-03T09:22:43.958Z</time></trkpt><trkpt lat="39.9459892" lon="9.648444"><ele>20.0</ele><time>2026-05-03T09:22:44.956Z</time></trkpt><trkpt lat="39.9462157" lon="9.648477"><ele>20.0</ele><time>2026-05-03T09:22:45.957Z</time></trkpt><trkpt lat="39.9464393" lon="9.6485118"><ele>20.0</ele><time>2026-05-03T09:22:46.957Z</time></trkpt><trkpt lat="39.9466658" lon="9.6485465"><ele>22.0</ele><time>2026-05-03T09:22:47.956Z</time></trkpt><trkpt lat="39.9468947" lon="9.6485835"><ele>24.0</ele><time>2026-05-03T09:22:48.957Z</time></trkpt><trkpt lat="39.9471239" lon="9.6486175"><ele>23.0</ele><time>2026-05-03T09:22:49.956Z</time></trkpt><trkpt lat="39.9473506" lon="9.6486485"><ele>22.0</ele><time>2026-05-03T09:22:50.957Z</time></trkpt><trkpt lat="39.9475784" lon="9.64868"><ele>21.666666666666664</ele><time>2026-05-03T09:22:51.957Z</time></trkpt><trkpt lat="39.9478019" lon="9.6487135"><ele>21.333333333333332</ele><time>2026-05-03T09:22:52.957Z</time></trkpt><trkpt lat="39.9480235" lon="9.648742"><ele>21.0</ele><time>2026-05-03T09:22:53.957Z</time></trkpt><trkpt lat="39.948247" lon="9.6487729"><ele>20.333333333333332</ele><time>2026-05-03T09:22:54.957Z</time></trkpt><trkpt lat="39.9484657" lon="9.6488089"><ele>19.666666666666664</ele><time>2026-05-03T09:22:55.957Z</time></trkpt><trkpt lat="39.9486807" lon="9.6488566"><ele>19.0</ele><time>2026-05-03T09:22:56.957Z</time></trkpt><trkpt lat="39.9488961" lon="9.6489127"><ele>19.0</ele><time>2026-05-03T09:22:57.957Z</time></trkpt><trkpt lat="39.9491111" lon="9.64898"><ele>19.0</ele><time>2026-05-03T09:22:58.956Z</time></trkpt><trkpt lat="39.949326" lon="9.6490606"><ele>19.0</ele><time>2026-05-03T09:22:59.956Z</time></trkpt><trkpt lat="39.9495402" lon="9.6491501"><ele>20.0</ele><time>2026-05-03T09:23:00.957Z</time></trkpt><trkpt lat="39.9497551" lon="9.649253"><ele>21.0</ele><time>2026-05-03T09:23:01.957Z</time></trkpt><trkpt lat="39.9499645" lon="9.6493673"><ele>20.333333333333332</ele><time>2026-05-03T09:23:02.957Z</time></trkpt><trkpt lat="39.9501669" lon="9.6494886"><ele>19.666666666666664</ele><time>2026-05-03T09:23:03.957Z</time></trkpt><trkpt lat="39.9503586" lon="9.6496169"><ele>19.0</ele><time>2026-05-03T09:23:04.956Z</time></trkpt><trkpt lat="39.9505475" lon="9.6497419"><ele>19.0</ele><time>2026-05-03T09:23:05.957Z</time></trkpt><trkpt lat="39.9507318" lon="9.6498662"><ele>19.0</ele><time>2026-05-03T09:23:06.957Z</time></trkpt><trkpt lat="39.9509121" lon="9.6499863"><ele>19.0</ele><time>2026-05-03T09:23:07.957Z</time></trkpt><trkpt lat="39.9510898" lon="9.6501106"><ele>18.666666666666664</ele><time>2026-05-03T09:23:08.957Z</time></trkpt><trkpt lat="39.9512636" lon="9.6502338"><ele>18.333333333333332</ele><time>2026-05-03T09:23:09.957Z</time></trkpt><trkpt lat="39.9514367" lon="9.6503544"><ele>18.0</ele><time>2026-05-03T09:23:10.956Z</time></trkpt><trkpt lat="39.9516103" lon="9.6504752"><ele>17.0</ele><time>2026-05-03T09:23:11.956Z</time></trkpt><trkpt lat="39.9517784" lon="9.6505897"><ele>16.0</ele><time>2026-05-03T09:23:12.957Z</time></trkpt><trkpt lat="39.9519385" lon="9.650702"><ele>15.0</ele><time>2026-05-03T09:23:13.957Z</time></trkpt><trkpt lat="39.9520889" lon="9.6508084"><ele>15.0</ele><time>2026-05-03T09:23:14.956Z</time></trkpt><trkpt lat="39.9522248" lon="9.650904"><ele>15.0</ele><time>2026-05-03T09:23:15.957Z</time></trkpt><trkpt lat="39.9523452" lon="9.6509894"><ele>15.0</ele><time>2026-05-03T09:23:16.956Z</time></trkpt><trkpt lat="39.952445" lon="9.6510637"><ele>15.0</ele><time>2026-05-03T09:23:17.957Z</time></trkpt><trkpt lat="39.9525202" lon="9.6511344"><ele>17.0</ele><time>2026-05-03T09:23:18.957Z</time></trkpt><trkpt lat="39.9525718" lon="9.6512142"><ele>15.0</ele><time>2026-05-03T09:23:19.957Z</time></trkpt><trkpt lat="39.9525973" lon="9.6512977"><ele>15.0</ele><time>2026-05-03T09:23:20.957Z</time></trkpt><trkpt lat="39.952599" lon="9.6514325"><ele>15.0</ele><time>2026-05-03T09:23:22.956Z</time></trkpt><trkpt lat="39.9526086" lon="9.6515147"><ele>15.0</ele><time>2026-05-03T09:23:24.957Z</time></trkpt></trkseg></trk></gpx>